<?xml version="1.0" encoding="UTF-8"?>
<gpx version="1.1" creator=" " xmlns="http://www.topografix.com/GPX/1/1" xmlns:xsi="http://www.w3.org/2001/XMLSchema-instance" xsi:schemaLocation="http://www.topografix.com/GPX/1/1 http://www.topografix.com/GPX/1/1/gpx.xsd">
<metadata>
<name>TL 2019 Otto Rothenburg</name>
<desc></desc>
<link href="">
<text>  </text>
</link>
<time>2019-05-31T09:27:00Z</time>
</metadata>
<trk>
<trkseg>
<trkpt lat="49.508735" lon="10.406967">
<ele>306</ele>
</trkpt>
<trkpt lat="49.508735" lon="10.406967">
<ele>306</ele>
<time>2019-05-31T09:27:00Z</time>
</trkpt>
<trkpt lat="49.508872" lon="10.406922">
<ele>306</ele>
<time>2019-05-31T09:27:10Z</time>
</trkpt>
<trkpt lat="49.508748" lon="10.407065">
<ele>306</ele>
<time>2019-05-31T09:27:15Z</time>
</trkpt>
<trkpt lat="49.508713" lon="10.40697">
<ele>306</ele>
<time>2019-05-31T09:27:21Z</time>
</trkpt>
<trkpt lat="49.508722" lon="10.406915">
<ele>306</ele>
<time>2019-05-31T09:27:27Z</time>
</trkpt>
<trkpt lat="49.508715" lon="10.406913">
<ele>306</ele>
<time>2019-05-31T09:27:32Z</time>
</trkpt>
<trkpt lat="49.508712" lon="10.406908">
<ele>306</ele>
<time>2019-05-31T09:27:37Z</time>
</trkpt>
<trkpt lat="49.508713" lon="10.406907">
<ele>306</ele>
<time>2019-05-31T09:27:42Z</time>
</trkpt>
<trkpt lat="49.508702" lon="10.406922">
<ele>306</ele>
<time>2019-05-31T09:27:47Z</time>
</trkpt>
<trkpt lat="49.50869" lon="10.406853">
<ele>306</ele>
<time>2019-05-31T09:27:53Z</time>
</trkpt>
<trkpt lat="49.508672" lon="10.406872">
<ele>306</ele>
<time>2019-05-31T09:27:58Z</time>
</trkpt>
<trkpt lat="49.508612" lon="10.406867">
<ele>306</ele>
<time>2019-05-31T09:28:03Z</time>
</trkpt>
<trkpt lat="49.508535" lon="10.406633">
<ele>306</ele>
<time>2019-05-31T09:28:09Z</time>
</trkpt>
<trkpt lat="49.508503" lon="10.406352">
<ele>307</ele>
<time>2019-05-31T09:28:14Z</time>
</trkpt>
<trkpt lat="49.508453" lon="10.406095">
<ele>307</ele>
<time>2019-05-31T09:28:20Z</time>
</trkpt>
<trkpt lat="49.508388" lon="10.405947">
<ele>307</ele>
<time>2019-05-31T09:28:26Z</time>
</trkpt>
<trkpt lat="49.50826" lon="10.405927">
<ele>308</ele>
<time>2019-05-31T09:28:32Z</time>
</trkpt>
<trkpt lat="49.508103" lon="10.406127">
<ele>308</ele>
<time>2019-05-31T09:28:37Z</time>
</trkpt>
<trkpt lat="49.507958" lon="10.406337">
<ele>308</ele>
<time>2019-05-31T09:28:42Z</time>
</trkpt>
<trkpt lat="49.50782" lon="10.406552">
<ele>308</ele>
<time>2019-05-31T09:28:47Z</time>
</trkpt>
<trkpt lat="49.507638" lon="10.406837">
<ele>307</ele>
<time>2019-05-31T09:28:53Z</time>
</trkpt>
<trkpt lat="49.507492" lon="10.407097">
<ele>307</ele>
<time>2019-05-31T09:28:58Z</time>
</trkpt>
<trkpt lat="49.507335" lon="10.407355">
<ele>306</ele>
<time>2019-05-31T09:29:03Z</time>
</trkpt>
<trkpt lat="49.507148" lon="10.407647">
<ele>306</ele>
<time>2019-05-31T09:29:08Z</time>
</trkpt>
<trkpt lat="49.506983" lon="10.407938">
<ele>306</ele>
<time>2019-05-31T09:29:13Z</time>
</trkpt>
<trkpt lat="49.506837" lon="10.408202">
<ele>306</ele>
<time>2019-05-31T09:29:18Z</time>
</trkpt>
<trkpt lat="49.506682" lon="10.408463">
<ele>306</ele>
<time>2019-05-31T09:29:23Z</time>
</trkpt>
<trkpt lat="49.506553" lon="10.408668">
<ele>305</ele>
<time>2019-05-31T09:29:28Z</time>
</trkpt>
<trkpt lat="49.506407" lon="10.408907">
<ele>305</ele>
<time>2019-05-31T09:29:33Z</time>
</trkpt>
<trkpt lat="49.506258" lon="10.40916">
<ele>305</ele>
<time>2019-05-31T09:29:38Z</time>
</trkpt>
<trkpt lat="49.506113" lon="10.409422">
<ele>305</ele>
<time>2019-05-31T09:29:43Z</time>
</trkpt>
<trkpt lat="49.506" lon="10.409668">
<ele>305</ele>
<time>2019-05-31T09:29:48Z</time>
</trkpt>
<trkpt lat="49.505877" lon="10.409898">
<ele>305</ele>
<time>2019-05-31T09:29:54Z</time>
</trkpt>
<trkpt lat="49.505788" lon="10.410135">
<ele>305</ele>
<time>2019-05-31T09:29:59Z</time>
</trkpt>
<trkpt lat="49.505685" lon="10.41039">
<ele>305</ele>
<time>2019-05-31T09:30:04Z</time>
</trkpt>
<trkpt lat="49.5056" lon="10.41068">
<ele>305</ele>
<time>2019-05-31T09:30:09Z</time>
</trkpt>
<trkpt lat="49.505498" lon="10.41102">
<ele>305</ele>
<time>2019-05-31T09:30:15Z</time>
</trkpt>
<trkpt lat="49.50545" lon="10.411345">
<ele>305</ele>
<time>2019-05-31T09:30:20Z</time>
</trkpt>
<trkpt lat="49.505457" lon="10.411688">
<ele>305</ele>
<time>2019-05-31T09:30:25Z</time>
</trkpt>
<trkpt lat="49.505503" lon="10.41199">
<ele>304</ele>
<time>2019-05-31T09:30:30Z</time>
</trkpt>
<trkpt lat="49.505498" lon="10.412285">
<ele>304</ele>
<time>2019-05-31T09:30:35Z</time>
</trkpt>
<trkpt lat="49.50529" lon="10.412587">
<ele>304</ele>
<time>2019-05-31T09:30:41Z</time>
</trkpt>
<trkpt lat="49.505122" lon="10.41277">
<ele>304</ele>
<time>2019-05-31T09:30:46Z</time>
</trkpt>
<trkpt lat="49.504998" lon="10.412922">
<ele>304</ele>
<time>2019-05-31T09:30:51Z</time>
</trkpt>
<trkpt lat="49.504828" lon="10.412978">
<ele>304</ele>
<time>2019-05-31T09:30:56Z</time>
</trkpt>
<trkpt lat="49.50462" lon="10.412868">
<ele>304</ele>
<time>2019-05-31T09:31:01Z</time>
</trkpt>
<trkpt lat="49.504412" lon="10.412763">
<ele>304</ele>
<time>2019-05-31T09:31:06Z</time>
</trkpt>
<trkpt lat="49.504177" lon="10.412643">
<ele>304</ele>
<time>2019-05-31T09:31:11Z</time>
</trkpt>
<trkpt lat="49.503963" lon="10.412538">
<ele>304</ele>
<time>2019-05-31T09:31:16Z</time>
</trkpt>
<trkpt lat="49.503727" lon="10.412415">
<ele>304</ele>
<time>2019-05-31T09:31:21Z</time>
</trkpt>
<trkpt lat="49.503453" lon="10.41228">
<ele>304</ele>
<time>2019-05-31T09:31:27Z</time>
</trkpt>
<trkpt lat="49.50321" lon="10.412163">
<ele>304</ele>
<time>2019-05-31T09:31:33Z</time>
</trkpt>
<trkpt lat="49.502997" lon="10.412058">
<ele>305</ele>
<time>2019-05-31T09:31:38Z</time>
</trkpt>
<trkpt lat="49.502792" lon="10.411947">
<ele>305</ele>
<time>2019-05-31T09:31:43Z</time>
</trkpt>
<trkpt lat="49.502528" lon="10.411843">
<ele>305</ele>
<time>2019-05-31T09:31:49Z</time>
</trkpt>
<trkpt lat="49.502308" lon="10.411833">
<ele>305</ele>
<time>2019-05-31T09:31:54Z</time>
</trkpt>
<trkpt lat="49.502072" lon="10.411847">
<ele>305</ele>
<time>2019-05-31T09:31:59Z</time>
</trkpt>
<trkpt lat="49.501823" lon="10.411897">
<ele>305</ele>
<time>2019-05-31T09:32:04Z</time>
</trkpt>
<trkpt lat="49.501565" lon="10.411938">
<ele>305</ele>
<time>2019-05-31T09:32:09Z</time>
</trkpt>
<trkpt lat="49.501225" lon="10.411995">
<ele>305</ele>
<time>2019-05-31T09:32:15Z</time>
</trkpt>
<trkpt lat="49.500935" lon="10.41207">
<ele>304</ele>
<time>2019-05-31T09:32:20Z</time>
</trkpt>
<trkpt lat="49.500618" lon="10.412162">
<ele>304</ele>
<time>2019-05-31T09:32:26Z</time>
</trkpt>
<trkpt lat="49.500402" lon="10.412238">
<ele>304</ele>
<time>2019-05-31T09:32:31Z</time>
</trkpt>
<trkpt lat="49.500217" lon="10.412298">
<ele>304</ele>
<time>2019-05-31T09:32:36Z</time>
</trkpt>
<trkpt lat="49.500083" lon="10.41234">
<ele>304</ele>
<time>2019-05-31T09:32:41Z</time>
</trkpt>
<trkpt lat="49.500042" lon="10.412377">
<ele>304</ele>
<time>2019-05-31T09:32:46Z</time>
</trkpt>
<trkpt lat="49.500003" lon="10.412385">
<ele>304</ele>
<time>2019-05-31T09:32:51Z</time>
</trkpt>
<trkpt lat="49.499992" lon="10.412388">
<ele>304</ele>
<time>2019-05-31T09:32:56Z</time>
</trkpt>
<trkpt lat="49.49999" lon="10.412387">
<ele>304</ele>
<time>2019-05-31T09:33:01Z</time>
</trkpt>
<trkpt lat="49.49999" lon="10.412388">
<ele>304</ele>
<time>2019-05-31T09:33:11Z</time>
</trkpt>
<trkpt lat="49.499988" lon="10.412388">
<ele>304</ele>
<time>2019-05-31T09:33:16Z</time>
</trkpt>
<trkpt lat="49.499908" lon="10.412427">
<ele>304</ele>
<time>2019-05-31T09:33:26Z</time>
</trkpt>
<trkpt lat="49.499832" lon="10.412395">
<ele>304</ele>
<time>2019-05-31T09:33:31Z</time>
</trkpt>
<trkpt lat="49.49975" lon="10.412205">
<ele>304</ele>
<time>2019-05-31T09:33:36Z</time>
</trkpt>
<trkpt lat="49.499675" lon="10.411908">
<ele>304</ele>
<time>2019-05-31T09:33:41Z</time>
</trkpt>
<trkpt lat="49.499568" lon="10.41156">
<ele>304</ele>
<time>2019-05-31T09:33:46Z</time>
</trkpt>
<trkpt lat="49.499473" lon="10.411182">
<ele>304</ele>
<time>2019-05-31T09:33:51Z</time>
</trkpt>
<trkpt lat="49.499338" lon="10.41083">
<ele>304</ele>
<time>2019-05-31T09:33:56Z</time>
</trkpt>
<trkpt lat="49.49917" lon="10.410512">
<ele>304</ele>
<time>2019-05-31T09:34:01Z</time>
</trkpt>
<trkpt lat="49.498965" lon="10.410182">
<ele>305</ele>
<time>2019-05-31T09:34:07Z</time>
</trkpt>
<trkpt lat="49.498795" lon="10.409942">
<ele>305</ele>
<time>2019-05-31T09:34:12Z</time>
</trkpt>
<trkpt lat="49.49863" lon="10.409717">
<ele>306</ele>
<time>2019-05-31T09:34:17Z</time>
</trkpt>
<trkpt lat="49.498465" lon="10.40949">
<ele>307</ele>
<time>2019-05-31T09:34:22Z</time>
</trkpt>
<trkpt lat="49.498292" lon="10.409255">
<ele>307</ele>
<time>2019-05-31T09:34:27Z</time>
</trkpt>
<trkpt lat="49.498133" lon="10.409005">
<ele>308</ele>
<time>2019-05-31T09:34:32Z</time>
</trkpt>
<trkpt lat="49.497965" lon="10.40877">
<ele>308</ele>
<time>2019-05-31T09:34:37Z</time>
</trkpt>
<trkpt lat="49.497813" lon="10.408453">
<ele>308</ele>
<time>2019-05-31T09:34:43Z</time>
</trkpt>
<trkpt lat="49.497928" lon="10.408172">
<ele>308</ele>
<time>2019-05-31T09:34:48Z</time>
</trkpt>
<trkpt lat="49.498118" lon="10.407975">
<ele>308</ele>
<time>2019-05-31T09:34:53Z</time>
</trkpt>
<trkpt lat="49.498435" lon="10.407798">
<ele>308</ele>
<time>2019-05-31T09:34:59Z</time>
</trkpt>
<trkpt lat="49.498725" lon="10.407675">
<ele>307</ele>
<time>2019-05-31T09:35:04Z</time>
</trkpt>
<trkpt lat="49.499033" lon="10.407533">
<ele>307</ele>
<time>2019-05-31T09:35:09Z</time>
</trkpt>
<trkpt lat="49.499368" lon="10.407232">
<ele>307</ele>
<time>2019-05-31T09:35:15Z</time>
</trkpt>
<trkpt lat="49.499537" lon="10.406873">
<ele>307</ele>
<time>2019-05-31T09:35:20Z</time>
</trkpt>
<trkpt lat="49.499562" lon="10.406452">
<ele>306</ele>
<time>2019-05-31T09:35:25Z</time>
</trkpt>
<trkpt lat="49.499518" lon="10.40602">
<ele>306</ele>
<time>2019-05-31T09:35:30Z</time>
</trkpt>
<trkpt lat="49.499467" lon="10.405608">
<ele>306</ele>
<time>2019-05-31T09:35:35Z</time>
</trkpt>
<trkpt lat="49.499418" lon="10.405217">
<ele>306</ele>
<time>2019-05-31T09:35:40Z</time>
</trkpt>
<trkpt lat="49.49936" lon="10.404858">
<ele>306</ele>
<time>2019-05-31T09:35:45Z</time>
</trkpt>
<trkpt lat="49.49928" lon="10.404472">
<ele>306</ele>
<time>2019-05-31T09:35:50Z</time>
</trkpt>
<trkpt lat="49.499187" lon="10.404085">
<ele>306</ele>
<time>2019-05-31T09:35:55Z</time>
</trkpt>
<trkpt lat="49.499075" lon="10.403695">
<ele>306</ele>
<time>2019-05-31T09:36:00Z</time>
</trkpt>
<trkpt lat="49.498963" lon="10.403318">
<ele>307</ele>
<time>2019-05-31T09:36:05Z</time>
</trkpt>
<trkpt lat="49.498847" lon="10.402957">
<ele>307</ele>
<time>2019-05-31T09:36:10Z</time>
</trkpt>
<trkpt lat="49.498738" lon="10.402588">
<ele>307</ele>
<time>2019-05-31T09:36:15Z</time>
</trkpt>
<trkpt lat="49.498632" lon="10.402235">
<ele>307</ele>
<time>2019-05-31T09:36:20Z</time>
</trkpt>
<trkpt lat="49.498527" lon="10.401873">
<ele>308</ele>
<time>2019-05-31T09:36:25Z</time>
</trkpt>
<trkpt lat="49.498435" lon="10.40151">
<ele>308</ele>
<time>2019-05-31T09:36:30Z</time>
</trkpt>
<trkpt lat="49.49836" lon="10.401133">
<ele>308</ele>
<time>2019-05-31T09:36:35Z</time>
</trkpt>
<trkpt lat="49.498327" lon="10.400743">
<ele>309</ele>
<time>2019-05-31T09:36:40Z</time>
</trkpt>
<trkpt lat="49.498298" lon="10.400352">
<ele>309</ele>
<time>2019-05-31T09:36:45Z</time>
</trkpt>
<trkpt lat="49.498283" lon="10.399943">
<ele>309</ele>
<time>2019-05-31T09:36:50Z</time>
</trkpt>
<trkpt lat="49.498273" lon="10.39954">
<ele>309</ele>
<time>2019-05-31T09:36:55Z</time>
</trkpt>
<trkpt lat="49.498262" lon="10.399147">
<ele>309</ele>
<time>2019-05-31T09:37:00Z</time>
</trkpt>
<trkpt lat="49.498253" lon="10.39875">
<ele>309</ele>
<time>2019-05-31T09:37:05Z</time>
</trkpt>
<trkpt lat="49.498257" lon="10.398348">
<ele>309</ele>
<time>2019-05-31T09:37:10Z</time>
</trkpt>
<trkpt lat="49.498258" lon="10.397912">
<ele>309</ele>
<time>2019-05-31T09:37:15Z</time>
</trkpt>
<trkpt lat="49.498267" lon="10.397468">
<ele>309</ele>
<time>2019-05-31T09:37:20Z</time>
</trkpt>
<trkpt lat="49.498283" lon="10.397022">
<ele>309</ele>
<time>2019-05-31T09:37:25Z</time>
</trkpt>
<trkpt lat="49.49831" lon="10.396573">
<ele>309</ele>
<time>2019-05-31T09:37:30Z</time>
</trkpt>
<trkpt lat="49.498333" lon="10.396147">
<ele>308</ele>
<time>2019-05-31T09:37:35Z</time>
</trkpt>
<trkpt lat="49.498373" lon="10.395755">
<ele>308</ele>
<time>2019-05-31T09:37:40Z</time>
</trkpt>
<trkpt lat="49.498443" lon="10.395355">
<ele>308</ele>
<time>2019-05-31T09:37:45Z</time>
</trkpt>
<trkpt lat="49.49848" lon="10.394913">
<ele>308</ele>
<time>2019-05-31T09:37:50Z</time>
</trkpt>
<trkpt lat="49.498503" lon="10.394443">
<ele>308</ele>
<time>2019-05-31T09:37:55Z</time>
</trkpt>
<trkpt lat="49.4985" lon="10.393972">
<ele>308</ele>
<time>2019-05-31T09:38:00Z</time>
</trkpt>
<trkpt lat="49.498467" lon="10.393517">
<ele>308</ele>
<time>2019-05-31T09:38:05Z</time>
</trkpt>
<trkpt lat="49.498413" lon="10.393075">
<ele>308</ele>
<time>2019-05-31T09:38:10Z</time>
</trkpt>
<trkpt lat="49.498347" lon="10.392635">
<ele>308</ele>
<time>2019-05-31T09:38:15Z</time>
</trkpt>
<trkpt lat="49.498263" lon="10.392183">
<ele>308</ele>
<time>2019-05-31T09:38:20Z</time>
</trkpt>
<trkpt lat="49.498183" lon="10.391757">
<ele>308</ele>
<time>2019-05-31T09:38:25Z</time>
</trkpt>
<trkpt lat="49.49811" lon="10.391368">
<ele>308</ele>
<time>2019-05-31T09:38:30Z</time>
</trkpt>
<trkpt lat="49.498032" lon="10.39097">
<ele>307</ele>
<time>2019-05-31T09:38:35Z</time>
</trkpt>
<trkpt lat="49.497937" lon="10.390565">
<ele>307</ele>
<time>2019-05-31T09:38:40Z</time>
</trkpt>
<trkpt lat="49.497838" lon="10.390167">
<ele>307</ele>
<time>2019-05-31T09:38:45Z</time>
</trkpt>
<trkpt lat="49.497725" lon="10.389753">
<ele>307</ele>
<time>2019-05-31T09:38:50Z</time>
</trkpt>
<trkpt lat="49.497628" lon="10.389373">
<ele>306</ele>
<time>2019-05-31T09:38:55Z</time>
</trkpt>
<trkpt lat="49.497538" lon="10.389043">
<ele>306</ele>
<time>2019-05-31T09:39:00Z</time>
</trkpt>
<trkpt lat="49.497402" lon="10.3888">
<ele>306</ele>
<time>2019-05-31T09:39:05Z</time>
</trkpt>
<trkpt lat="49.497387" lon="10.388503">
<ele>306</ele>
<time>2019-05-31T09:39:10Z</time>
</trkpt>
<trkpt lat="49.497425" lon="10.388098">
<ele>306</ele>
<time>2019-05-31T09:39:15Z</time>
</trkpt>
<trkpt lat="49.497442" lon="10.387627">
<ele>306</ele>
<time>2019-05-31T09:39:20Z</time>
</trkpt>
<trkpt lat="49.497425" lon="10.387145">
<ele>306</ele>
<time>2019-05-31T09:39:25Z</time>
</trkpt>
<trkpt lat="49.497407" lon="10.386735">
<ele>306</ele>
<time>2019-05-31T09:39:30Z</time>
</trkpt>
<trkpt lat="49.497382" lon="10.386333">
<ele>306</ele>
<time>2019-05-31T09:39:35Z</time>
</trkpt>
<trkpt lat="49.497355" lon="10.385912">
<ele>306</ele>
<time>2019-05-31T09:39:40Z</time>
</trkpt>
<trkpt lat="49.497328" lon="10.385478">
<ele>306</ele>
<time>2019-05-31T09:39:45Z</time>
</trkpt>
<trkpt lat="49.497295" lon="10.385058">
<ele>306</ele>
<time>2019-05-31T09:39:50Z</time>
</trkpt>
<trkpt lat="49.497255" lon="10.384633">
<ele>306</ele>
<time>2019-05-31T09:39:55Z</time>
</trkpt>
<trkpt lat="49.497207" lon="10.38422">
<ele>306</ele>
<time>2019-05-31T09:40:00Z</time>
</trkpt>
<trkpt lat="49.497165" lon="10.383793">
<ele>306</ele>
<time>2019-05-31T09:40:05Z</time>
</trkpt>
<trkpt lat="49.49713" lon="10.383322">
<ele>306</ele>
<time>2019-05-31T09:40:10Z</time>
</trkpt>
<trkpt lat="49.497093" lon="10.382852">
<ele>306</ele>
<time>2019-05-31T09:40:15Z</time>
</trkpt>
<trkpt lat="49.497067" lon="10.382448">
<ele>306</ele>
<time>2019-05-31T09:40:20Z</time>
</trkpt>
<trkpt lat="49.49705" lon="10.382027">
<ele>306</ele>
<time>2019-05-31T09:40:25Z</time>
</trkpt>
<trkpt lat="49.49703" lon="10.381567">
<ele>305</ele>
<time>2019-05-31T09:40:30Z</time>
</trkpt>
<trkpt lat="49.497008" lon="10.381092">
<ele>305</ele>
<time>2019-05-31T09:40:35Z</time>
</trkpt>
<trkpt lat="49.496985" lon="10.380593">
<ele>305</ele>
<time>2019-05-31T09:40:40Z</time>
</trkpt>
<trkpt lat="49.49696" lon="10.380113">
<ele>304</ele>
<time>2019-05-31T09:40:45Z</time>
</trkpt>
<trkpt lat="49.496937" lon="10.379652">
<ele>304</ele>
<time>2019-05-31T09:40:50Z</time>
</trkpt>
<trkpt lat="49.496912" lon="10.379247">
<ele>304</ele>
<time>2019-05-31T09:40:55Z</time>
</trkpt>
<trkpt lat="49.496892" lon="10.378845">
<ele>304</ele>
<time>2019-05-31T09:41:00Z</time>
</trkpt>
<trkpt lat="49.49688" lon="10.378408">
<ele>304</ele>
<time>2019-05-31T09:41:05Z</time>
</trkpt>
<trkpt lat="49.496908" lon="10.377958">
<ele>304</ele>
<time>2019-05-31T09:41:10Z</time>
</trkpt>
<trkpt lat="49.496962" lon="10.377575">
<ele>304</ele>
<time>2019-05-31T09:41:15Z</time>
</trkpt>
<trkpt lat="49.497043" lon="10.377198">
<ele>304</ele>
<time>2019-05-31T09:41:20Z</time>
</trkpt>
<trkpt lat="49.497148" lon="10.376788">
<ele>304</ele>
<time>2019-05-31T09:41:25Z</time>
</trkpt>
<trkpt lat="49.497278" lon="10.37637">
<ele>304</ele>
<time>2019-05-31T09:41:30Z</time>
</trkpt>
<trkpt lat="49.497415" lon="10.375962">
<ele>304</ele>
<time>2019-05-31T09:41:35Z</time>
</trkpt>
<trkpt lat="49.497558" lon="10.37554">
<ele>304</ele>
<time>2019-05-31T09:41:40Z</time>
</trkpt>
<trkpt lat="49.497687" lon="10.375145">
<ele>304</ele>
<time>2019-05-31T09:41:45Z</time>
</trkpt>
<trkpt lat="49.497818" lon="10.374778">
<ele>304</ele>
<time>2019-05-31T09:41:50Z</time>
</trkpt>
<trkpt lat="49.497933" lon="10.37442">
<ele>304</ele>
<time>2019-05-31T09:41:55Z</time>
</trkpt>
<trkpt lat="49.49805" lon="10.374037">
<ele>304</ele>
<time>2019-05-31T09:42:00Z</time>
</trkpt>
<trkpt lat="49.498165" lon="10.373645">
<ele>304</ele>
<time>2019-05-31T09:42:05Z</time>
</trkpt>
<trkpt lat="49.498277" lon="10.373253">
<ele>304</ele>
<time>2019-05-31T09:42:10Z</time>
</trkpt>
<trkpt lat="49.49838" lon="10.372835">
<ele>304</ele>
<time>2019-05-31T09:42:15Z</time>
</trkpt>
<trkpt lat="49.49847" lon="10.37242">
<ele>304</ele>
<time>2019-05-31T09:42:20Z</time>
</trkpt>
<trkpt lat="49.498555" lon="10.371998">
<ele>304</ele>
<time>2019-05-31T09:42:25Z</time>
</trkpt>
<trkpt lat="49.498638" lon="10.371567">
<ele>304</ele>
<time>2019-05-31T09:42:30Z</time>
</trkpt>
<trkpt lat="49.498715" lon="10.371148">
<ele>303</ele>
<time>2019-05-31T09:42:35Z</time>
</trkpt>
<trkpt lat="49.498795" lon="10.370767">
<ele>303</ele>
<time>2019-05-31T09:42:40Z</time>
</trkpt>
<trkpt lat="49.498878" lon="10.37036">
<ele>303</ele>
<time>2019-05-31T09:42:45Z</time>
</trkpt>
<trkpt lat="49.498958" lon="10.369937">
<ele>303</ele>
<time>2019-05-31T09:42:50Z</time>
</trkpt>
<trkpt lat="49.499033" lon="10.369537">
<ele>303</ele>
<time>2019-05-31T09:42:55Z</time>
</trkpt>
<trkpt lat="49.499102" lon="10.369177">
<ele>303</ele>
<time>2019-05-31T09:43:00Z</time>
</trkpt>
<trkpt lat="49.499167" lon="10.368825">
<ele>303</ele>
<time>2019-05-31T09:43:05Z</time>
</trkpt>
<trkpt lat="49.49924" lon="10.368463">
<ele>303</ele>
<time>2019-05-31T09:43:10Z</time>
</trkpt>
<trkpt lat="49.499188" lon="10.368103">
<ele>303</ele>
<time>2019-05-31T09:43:15Z</time>
</trkpt>
<trkpt lat="49.49911" lon="10.367685">
<ele>303</ele>
<time>2019-05-31T09:43:20Z</time>
</trkpt>
<trkpt lat="49.499082" lon="10.367242">
<ele>303</ele>
<time>2019-05-31T09:43:25Z</time>
</trkpt>
<trkpt lat="49.499055" lon="10.366793">
<ele>303</ele>
<time>2019-05-31T09:43:30Z</time>
</trkpt>
<trkpt lat="49.499028" lon="10.366343">
<ele>303</ele>
<time>2019-05-31T09:43:35Z</time>
</trkpt>
<trkpt lat="49.499007" lon="10.365907">
<ele>303</ele>
<time>2019-05-31T09:43:40Z</time>
</trkpt>
<trkpt lat="49.498983" lon="10.365503">
<ele>303</ele>
<time>2019-05-31T09:43:45Z</time>
</trkpt>
<trkpt lat="49.498958" lon="10.365103">
<ele>303</ele>
<time>2019-05-31T09:43:50Z</time>
</trkpt>
<trkpt lat="49.498937" lon="10.364713">
<ele>303</ele>
<time>2019-05-31T09:43:55Z</time>
</trkpt>
<trkpt lat="49.498915" lon="10.364312">
<ele>303</ele>
<time>2019-05-31T09:44:00Z</time>
</trkpt>
<trkpt lat="49.498893" lon="10.363912">
<ele>303</ele>
<time>2019-05-31T09:44:05Z</time>
</trkpt>
<trkpt lat="49.498873" lon="10.363518">
<ele>303</ele>
<time>2019-05-31T09:44:10Z</time>
</trkpt>
<trkpt lat="49.498847" lon="10.36312">
<ele>303</ele>
<time>2019-05-31T09:44:15Z</time>
</trkpt>
<trkpt lat="49.498823" lon="10.362722">
<ele>303</ele>
<time>2019-05-31T09:44:20Z</time>
</trkpt>
<trkpt lat="49.498822" lon="10.362317">
<ele>303</ele>
<time>2019-05-31T09:44:25Z</time>
</trkpt>
<trkpt lat="49.498893" lon="10.36194">
<ele>303</ele>
<time>2019-05-31T09:44:30Z</time>
</trkpt>
<trkpt lat="49.499052" lon="10.361597">
<ele>303</ele>
<time>2019-05-31T09:44:35Z</time>
</trkpt>
<trkpt lat="49.499252" lon="10.3613">
<ele>303</ele>
<time>2019-05-31T09:44:40Z</time>
</trkpt>
<trkpt lat="49.499452" lon="10.361012">
<ele>303</ele>
<time>2019-05-31T09:44:45Z</time>
</trkpt>
<trkpt lat="49.499657" lon="10.360702">
<ele>303</ele>
<time>2019-05-31T09:44:50Z</time>
</trkpt>
<trkpt lat="49.499823" lon="10.360368">
<ele>303</ele>
<time>2019-05-31T09:44:55Z</time>
</trkpt>
<trkpt lat="49.499965" lon="10.35998">
<ele>303</ele>
<time>2019-05-31T09:45:00Z</time>
</trkpt>
<trkpt lat="49.500093" lon="10.359597">
<ele>303</ele>
<time>2019-05-31T09:45:05Z</time>
</trkpt>
<trkpt lat="49.50021" lon="10.35923">
<ele>303</ele>
<time>2019-05-31T09:45:10Z</time>
</trkpt>
<trkpt lat="49.500337" lon="10.358848">
<ele>303</ele>
<time>2019-05-31T09:45:15Z</time>
</trkpt>
<trkpt lat="49.500465" lon="10.358467">
<ele>303</ele>
<time>2019-05-31T09:45:20Z</time>
</trkpt>
<trkpt lat="49.500588" lon="10.358108">
<ele>303</ele>
<time>2019-05-31T09:45:25Z</time>
</trkpt>
<trkpt lat="49.500703" lon="10.357715">
<ele>303</ele>
<time>2019-05-31T09:45:30Z</time>
</trkpt>
<trkpt lat="49.500787" lon="10.357312">
<ele>303</ele>
<time>2019-05-31T09:45:35Z</time>
</trkpt>
<trkpt lat="49.500847" lon="10.356932">
<ele>303</ele>
<time>2019-05-31T09:45:40Z</time>
</trkpt>
<trkpt lat="49.500913" lon="10.356538">
<ele>303</ele>
<time>2019-05-31T09:45:45Z</time>
</trkpt>
<trkpt lat="49.500983" lon="10.356153">
<ele>303</ele>
<time>2019-05-31T09:45:50Z</time>
</trkpt>
<trkpt lat="49.501052" lon="10.355762">
<ele>303</ele>
<time>2019-05-31T09:45:55Z</time>
</trkpt>
<trkpt lat="49.501122" lon="10.355373">
<ele>303</ele>
<time>2019-05-31T09:46:00Z</time>
</trkpt>
<trkpt lat="49.501193" lon="10.354977">
<ele>303</ele>
<time>2019-05-31T09:46:05Z</time>
</trkpt>
<trkpt lat="49.501222" lon="10.354735">
<ele>303</ele>
<time>2019-05-31T09:46:10Z</time>
</trkpt>
<trkpt lat="49.501227" lon="10.35455">
<ele>303</ele>
<time>2019-05-31T09:46:15Z</time>
</trkpt>
<trkpt lat="49.50121" lon="10.354313">
<ele>303</ele>
<time>2019-05-31T09:46:20Z</time>
</trkpt>
<trkpt lat="49.50119" lon="10.354102">
<ele>303</ele>
<time>2019-05-31T09:46:25Z</time>
</trkpt>
<trkpt lat="49.501163" lon="10.353892">
<ele>303</ele>
<time>2019-05-31T09:46:30Z</time>
</trkpt>
<trkpt lat="49.50115" lon="10.353705">
<ele>303</ele>
<time>2019-05-31T09:46:35Z</time>
</trkpt>
<trkpt lat="49.501138" lon="10.353522">
<ele>303</ele>
<time>2019-05-31T09:46:40Z</time>
</trkpt>
<trkpt lat="49.501125" lon="10.353333">
<ele>303</ele>
<time>2019-05-31T09:46:45Z</time>
</trkpt>
<trkpt lat="49.501092" lon="10.353137">
<ele>303</ele>
<time>2019-05-31T09:46:50Z</time>
</trkpt>
<trkpt lat="49.501065" lon="10.352947">
<ele>304</ele>
<time>2019-05-31T09:46:55Z</time>
</trkpt>
<trkpt lat="49.501038" lon="10.352745">
<ele>304</ele>
<time>2019-05-31T09:47:00Z</time>
</trkpt>
<trkpt lat="49.501008" lon="10.352535">
<ele>304</ele>
<time>2019-05-31T09:47:05Z</time>
</trkpt>
<trkpt lat="49.500978" lon="10.35232">
<ele>304</ele>
<time>2019-05-31T09:47:10Z</time>
</trkpt>
<trkpt lat="49.50095" lon="10.352115">
<ele>305</ele>
<time>2019-05-31T09:47:15Z</time>
</trkpt>
<trkpt lat="49.500927" lon="10.351903">
<ele>305</ele>
<time>2019-05-31T09:47:20Z</time>
</trkpt>
<trkpt lat="49.500913" lon="10.351698">
<ele>305</ele>
<time>2019-05-31T09:47:25Z</time>
</trkpt>
<trkpt lat="49.50089" lon="10.351482">
<ele>305</ele>
<time>2019-05-31T09:47:30Z</time>
</trkpt>
<trkpt lat="49.500863" lon="10.35127">
<ele>305</ele>
<time>2019-05-31T09:47:35Z</time>
</trkpt>
<trkpt lat="49.500837" lon="10.351052">
<ele>305</ele>
<time>2019-05-31T09:47:40Z</time>
</trkpt>
<trkpt lat="49.50081" lon="10.350848">
<ele>305</ele>
<time>2019-05-31T09:47:45Z</time>
</trkpt>
<trkpt lat="49.500788" lon="10.35064">
<ele>305</ele>
<time>2019-05-31T09:47:50Z</time>
</trkpt>
<trkpt lat="49.500765" lon="10.350443">
<ele>305</ele>
<time>2019-05-31T09:47:55Z</time>
</trkpt>
<trkpt lat="49.500742" lon="10.35024">
<ele>305</ele>
<time>2019-05-31T09:48:00Z</time>
</trkpt>
<trkpt lat="49.50072" lon="10.350028">
<ele>305</ele>
<time>2019-05-31T09:48:05Z</time>
</trkpt>
<trkpt lat="49.500702" lon="10.34983">
<ele>305</ele>
<time>2019-05-31T09:48:10Z</time>
</trkpt>
<trkpt lat="49.500695" lon="10.349627">
<ele>305</ele>
<time>2019-05-31T09:48:15Z</time>
</trkpt>
<trkpt lat="49.500703" lon="10.349437">
<ele>305</ele>
<time>2019-05-31T09:48:20Z</time>
</trkpt>
<trkpt lat="49.500722" lon="10.349272">
<ele>305</ele>
<time>2019-05-31T09:48:25Z</time>
</trkpt>
<trkpt lat="49.500735" lon="10.349117">
<ele>305</ele>
<time>2019-05-31T09:48:30Z</time>
</trkpt>
<trkpt lat="49.50075" lon="10.34895">
<ele>305</ele>
<time>2019-05-31T09:48:35Z</time>
</trkpt>
<trkpt lat="49.500757" lon="10.348782">
<ele>305</ele>
<time>2019-05-31T09:48:40Z</time>
</trkpt>
<trkpt lat="49.500767" lon="10.348608">
<ele>305</ele>
<time>2019-05-31T09:48:45Z</time>
</trkpt>
<trkpt lat="49.500777" lon="10.348473">
<ele>305</ele>
<time>2019-05-31T09:48:50Z</time>
</trkpt>
<trkpt lat="49.500775" lon="10.34845">
<ele>305</ele>
<time>2019-05-31T09:48:55Z</time>
</trkpt>
<trkpt lat="49.500777" lon="10.34845">
<ele>305</ele>
<time>2019-05-31T09:49:00Z</time>
</trkpt>
<trkpt lat="49.500778" lon="10.34845">
<ele>305</ele>
<time>2019-05-31T09:49:15Z</time>
</trkpt>
<trkpt lat="49.500777" lon="10.348427">
<ele>305</ele>
<time>2019-05-31T09:49:20Z</time>
</trkpt>
<trkpt lat="49.500778" lon="10.348418">
<ele>305</ele>
<time>2019-05-31T09:49:25Z</time>
</trkpt>
<trkpt lat="49.500778" lon="10.34842">
<ele>305</ele>
<time>2019-05-31T09:49:30Z</time>
</trkpt>
<trkpt lat="49.500778" lon="10.348418">
<ele>305</ele>
<time>2019-05-31T09:49:35Z</time>
</trkpt>
<trkpt lat="49.50078" lon="10.348415">
<ele>305</ele>
<time>2019-05-31T09:49:40Z</time>
</trkpt>
<trkpt lat="49.500783" lon="10.348412">
<ele>305</ele>
<time>2019-05-31T09:49:45Z</time>
</trkpt>
<trkpt lat="49.500785" lon="10.348407">
<ele>305</ele>
<time>2019-05-31T09:49:50Z</time>
</trkpt>
<trkpt lat="49.500785" lon="10.348395">
<ele>305</ele>
<time>2019-05-31T09:50:10Z</time>
</trkpt>
<trkpt lat="49.500785" lon="10.348393">
<ele>306</ele>
<time>2019-05-31T09:52:30Z</time>
</trkpt>
<trkpt lat="49.500787" lon="10.348353">
<ele>306</ele>
<time>2019-05-31T09:52:55Z</time>
</trkpt>
<trkpt lat="49.50076" lon="10.348287">
<ele>306</ele>
<time>2019-05-31T09:53:00Z</time>
</trkpt>
<trkpt lat="49.500682" lon="10.348267">
<ele>306</ele>
<time>2019-05-31T09:53:05Z</time>
</trkpt>
<trkpt lat="49.50058" lon="10.348308">
<ele>306</ele>
<time>2019-05-31T09:53:10Z</time>
</trkpt>
<trkpt lat="49.500438" lon="10.348367">
<ele>306</ele>
<time>2019-05-31T09:53:15Z</time>
</trkpt>
<trkpt lat="49.5003" lon="10.348423">
<ele>306</ele>
<time>2019-05-31T09:53:20Z</time>
</trkpt>
<trkpt lat="49.500147" lon="10.348477">
<ele>306</ele>
<time>2019-05-31T09:53:25Z</time>
</trkpt>
<trkpt lat="49.499995" lon="10.348535">
<ele>306</ele>
<time>2019-05-31T09:53:30Z</time>
</trkpt>
<trkpt lat="49.499852" lon="10.348595">
<ele>305</ele>
<time>2019-05-31T09:53:35Z</time>
</trkpt>
<trkpt lat="49.49972" lon="10.34866">
<ele>305</ele>
<time>2019-05-31T09:53:40Z</time>
</trkpt>
<trkpt lat="49.499592" lon="10.348718">
<ele>305</ele>
<time>2019-05-31T09:53:45Z</time>
</trkpt>
<trkpt lat="49.499452" lon="10.348778">
<ele>305</ele>
<time>2019-05-31T09:53:50Z</time>
</trkpt>
<trkpt lat="49.499337" lon="10.348832">
<ele>305</ele>
<time>2019-05-31T09:53:55Z</time>
</trkpt>
<trkpt lat="49.499235" lon="10.348877">
<ele>305</ele>
<time>2019-05-31T09:54:00Z</time>
</trkpt>
<trkpt lat="49.499135" lon="10.348917">
<ele>305</ele>
<time>2019-05-31T09:54:05Z</time>
</trkpt>
<trkpt lat="49.499097" lon="10.348835">
<ele>305</ele>
<time>2019-05-31T09:54:10Z</time>
</trkpt>
<trkpt lat="49.499112" lon="10.348685">
<ele>305</ele>
<time>2019-05-31T09:54:15Z</time>
</trkpt>
<trkpt lat="49.499132" lon="10.348547">
<ele>305</ele>
<time>2019-05-31T09:54:20Z</time>
</trkpt>
<trkpt lat="49.499143" lon="10.348382">
<ele>305</ele>
<time>2019-05-31T09:54:25Z</time>
</trkpt>
<trkpt lat="49.499162" lon="10.348172">
<ele>305</ele>
<time>2019-05-31T09:54:30Z</time>
</trkpt>
<trkpt lat="49.499168" lon="10.347958">
<ele>305</ele>
<time>2019-05-31T09:54:35Z</time>
</trkpt>
<trkpt lat="49.499187" lon="10.347765">
<ele>305</ele>
<time>2019-05-31T09:54:40Z</time>
</trkpt>
<trkpt lat="49.49921" lon="10.347538">
<ele>305</ele>
<time>2019-05-31T09:54:45Z</time>
</trkpt>
<trkpt lat="49.499237" lon="10.3473">
<ele>305</ele>
<time>2019-05-31T09:54:50Z</time>
</trkpt>
<trkpt lat="49.499262" lon="10.347055">
<ele>305</ele>
<time>2019-05-31T09:54:55Z</time>
</trkpt>
<trkpt lat="49.49929" lon="10.346823">
<ele>305</ele>
<time>2019-05-31T09:55:00Z</time>
</trkpt>
<trkpt lat="49.499312" lon="10.346613">
<ele>305</ele>
<time>2019-05-31T09:55:05Z</time>
</trkpt>
<trkpt lat="49.499333" lon="10.346383">
<ele>305</ele>
<time>2019-05-31T09:55:10Z</time>
</trkpt>
<trkpt lat="49.49935" lon="10.346162">
<ele>305</ele>
<time>2019-05-31T09:55:15Z</time>
</trkpt>
<trkpt lat="49.499365" lon="10.345955">
<ele>305</ele>
<time>2019-05-31T09:55:20Z</time>
</trkpt>
<trkpt lat="49.499388" lon="10.34575">
<ele>305</ele>
<time>2019-05-31T09:55:25Z</time>
</trkpt>
<trkpt lat="49.499418" lon="10.345575">
<ele>305</ele>
<time>2019-05-31T09:55:30Z</time>
</trkpt>
<trkpt lat="49.499428" lon="10.345393">
<ele>305</ele>
<time>2019-05-31T09:55:35Z</time>
</trkpt>
<trkpt lat="49.49944" lon="10.345193">
<ele>305</ele>
<time>2019-05-31T09:55:40Z</time>
</trkpt>
<trkpt lat="49.49946" lon="10.344992">
<ele>306</ele>
<time>2019-05-31T09:55:45Z</time>
</trkpt>
<trkpt lat="49.49948" lon="10.344808">
<ele>306</ele>
<time>2019-05-31T09:55:50Z</time>
</trkpt>
<trkpt lat="49.499508" lon="10.34466">
<ele>306</ele>
<time>2019-05-31T09:55:55Z</time>
</trkpt>
<trkpt lat="49.499525" lon="10.344538">
<ele>306</ele>
<time>2019-05-31T09:56:00Z</time>
</trkpt>
<trkpt lat="49.499537" lon="10.344432">
<ele>306</ele>
<time>2019-05-31T09:56:05Z</time>
</trkpt>
<trkpt lat="49.49961" lon="10.344298">
<ele>307</ele>
<time>2019-05-31T09:56:10Z</time>
</trkpt>
<trkpt lat="49.499668" lon="10.344137">
<ele>307</ele>
<time>2019-05-31T09:56:15Z</time>
</trkpt>
<trkpt lat="49.499728" lon="10.343963">
<ele>307</ele>
<time>2019-05-31T09:56:20Z</time>
</trkpt>
<trkpt lat="49.4998" lon="10.343787">
<ele>307</ele>
<time>2019-05-31T09:56:25Z</time>
</trkpt>
<trkpt lat="49.499883" lon="10.343595">
<ele>307</ele>
<time>2019-05-31T09:56:30Z</time>
</trkpt>
<trkpt lat="49.499958" lon="10.343422">
<ele>307</ele>
<time>2019-05-31T09:56:35Z</time>
</trkpt>
<trkpt lat="49.500037" lon="10.343237">
<ele>307</ele>
<time>2019-05-31T09:56:40Z</time>
</trkpt>
<trkpt lat="49.500117" lon="10.343058">
<ele>307</ele>
<time>2019-05-31T09:56:45Z</time>
</trkpt>
<trkpt lat="49.5002" lon="10.342873">
<ele>307</ele>
<time>2019-05-31T09:56:50Z</time>
</trkpt>
<trkpt lat="49.500272" lon="10.342695">
<ele>307</ele>
<time>2019-05-31T09:56:55Z</time>
</trkpt>
<trkpt lat="49.50034" lon="10.342518">
<ele>307</ele>
<time>2019-05-31T09:57:00Z</time>
</trkpt>
<trkpt lat="49.500413" lon="10.342358">
<ele>307</ele>
<time>2019-05-31T09:57:05Z</time>
</trkpt>
<trkpt lat="49.50048" lon="10.342162">
<ele>307</ele>
<time>2019-05-31T09:57:10Z</time>
</trkpt>
<trkpt lat="49.500548" lon="10.341997">
<ele>307</ele>
<time>2019-05-31T09:57:15Z</time>
</trkpt>
<trkpt lat="49.50062" lon="10.341815">
<ele>307</ele>
<time>2019-05-31T09:57:20Z</time>
</trkpt>
<trkpt lat="49.500692" lon="10.341637">
<ele>307</ele>
<time>2019-05-31T09:57:25Z</time>
</trkpt>
<trkpt lat="49.500768" lon="10.34147">
<ele>307</ele>
<time>2019-05-31T09:57:30Z</time>
</trkpt>
<trkpt lat="49.500835" lon="10.341303">
<ele>307</ele>
<time>2019-05-31T09:57:35Z</time>
</trkpt>
<trkpt lat="49.500868" lon="10.341137">
<ele>308</ele>
<time>2019-05-31T09:57:40Z</time>
</trkpt>
<trkpt lat="49.500897" lon="10.340947">
<ele>308</ele>
<time>2019-05-31T09:57:45Z</time>
</trkpt>
<trkpt lat="49.500933" lon="10.340748">
<ele>308</ele>
<time>2019-05-31T09:57:50Z</time>
</trkpt>
<trkpt lat="49.500967" lon="10.340562">
<ele>308</ele>
<time>2019-05-31T09:57:55Z</time>
</trkpt>
<trkpt lat="49.500975" lon="10.340357">
<ele>308</ele>
<time>2019-05-31T09:58:00Z</time>
</trkpt>
<trkpt lat="49.500973" lon="10.340145">
<ele>308</ele>
<time>2019-05-31T09:58:05Z</time>
</trkpt>
<trkpt lat="49.500978" lon="10.339928">
<ele>308</ele>
<time>2019-05-31T09:58:10Z</time>
</trkpt>
<trkpt lat="49.500987" lon="10.339703">
<ele>308</ele>
<time>2019-05-31T09:58:15Z</time>
</trkpt>
<trkpt lat="49.500992" lon="10.339497">
<ele>308</ele>
<time>2019-05-31T09:58:20Z</time>
</trkpt>
<trkpt lat="49.501007" lon="10.339285">
<ele>308</ele>
<time>2019-05-31T09:58:25Z</time>
</trkpt>
<trkpt lat="49.501035" lon="10.33908">
<ele>309</ele>
<time>2019-05-31T09:58:30Z</time>
</trkpt>
<trkpt lat="49.501065" lon="10.338842">
<ele>309</ele>
<time>2019-05-31T09:58:35Z</time>
</trkpt>
<trkpt lat="49.501098" lon="10.3386">
<ele>309</ele>
<time>2019-05-31T09:58:40Z</time>
</trkpt>
<trkpt lat="49.501132" lon="10.338342">
<ele>309</ele>
<time>2019-05-31T09:58:45Z</time>
</trkpt>
<trkpt lat="49.501168" lon="10.338102">
<ele>309</ele>
<time>2019-05-31T09:58:50Z</time>
</trkpt>
<trkpt lat="49.50121" lon="10.337857">
<ele>309</ele>
<time>2019-05-31T09:58:55Z</time>
</trkpt>
<trkpt lat="49.501252" lon="10.337605">
<ele>309</ele>
<time>2019-05-31T09:59:00Z</time>
</trkpt>
<trkpt lat="49.501298" lon="10.337352">
<ele>310</ele>
<time>2019-05-31T09:59:05Z</time>
</trkpt>
<trkpt lat="49.501333" lon="10.337118">
<ele>310</ele>
<time>2019-05-31T09:59:10Z</time>
</trkpt>
<trkpt lat="49.501365" lon="10.336872">
<ele>310</ele>
<time>2019-05-31T09:59:15Z</time>
</trkpt>
<trkpt lat="49.501393" lon="10.336657">
<ele>310</ele>
<time>2019-05-31T09:59:20Z</time>
</trkpt>
<trkpt lat="49.501413" lon="10.336435">
<ele>310</ele>
<time>2019-05-31T09:59:25Z</time>
</trkpt>
<trkpt lat="49.50143" lon="10.336212">
<ele>310</ele>
<time>2019-05-31T09:59:30Z</time>
</trkpt>
<trkpt lat="49.501408" lon="10.33594">
<ele>310</ele>
<time>2019-05-31T09:59:35Z</time>
</trkpt>
<trkpt lat="49.50136" lon="10.335697">
<ele>310</ele>
<time>2019-05-31T09:59:40Z</time>
</trkpt>
<trkpt lat="49.501312" lon="10.335457">
<ele>310</ele>
<time>2019-05-31T09:59:45Z</time>
</trkpt>
<trkpt lat="49.50127" lon="10.335225">
<ele>310</ele>
<time>2019-05-31T09:59:50Z</time>
</trkpt>
<trkpt lat="49.501232" lon="10.335015">
<ele>310</ele>
<time>2019-05-31T09:59:55Z</time>
</trkpt>
<trkpt lat="49.501197" lon="10.334807">
<ele>310</ele>
<time>2019-05-31T10:00:00Z</time>
</trkpt>
<trkpt lat="49.501162" lon="10.334607">
<ele>310</ele>
<time>2019-05-31T10:00:05Z</time>
</trkpt>
<trkpt lat="49.50113" lon="10.334438">
<ele>310</ele>
<time>2019-05-31T10:00:10Z</time>
</trkpt>
<trkpt lat="49.501087" lon="10.33425">
<ele>310</ele>
<time>2019-05-31T10:00:15Z</time>
</trkpt>
<trkpt lat="49.501018" lon="10.334065">
<ele>310</ele>
<time>2019-05-31T10:00:20Z</time>
</trkpt>
<trkpt lat="49.500943" lon="10.333893">
<ele>310</ele>
<time>2019-05-31T10:00:25Z</time>
</trkpt>
<trkpt lat="49.500865" lon="10.3337">
<ele>310</ele>
<time>2019-05-31T10:00:30Z</time>
</trkpt>
<trkpt lat="49.500807" lon="10.333537">
<ele>311</ele>
<time>2019-05-31T10:00:35Z</time>
</trkpt>
<trkpt lat="49.500767" lon="10.33333">
<ele>311</ele>
<time>2019-05-31T10:00:40Z</time>
</trkpt>
<trkpt lat="49.500722" lon="10.33315">
<ele>311</ele>
<time>2019-05-31T10:00:45Z</time>
</trkpt>
<trkpt lat="49.500688" lon="10.332952">
<ele>311</ele>
<time>2019-05-31T10:00:50Z</time>
</trkpt>
<trkpt lat="49.500652" lon="10.332742">
<ele>311</ele>
<time>2019-05-31T10:00:55Z</time>
</trkpt>
<trkpt lat="49.500613" lon="10.332532">
<ele>311</ele>
<time>2019-05-31T10:01:00Z</time>
</trkpt>
<trkpt lat="49.500572" lon="10.332312">
<ele>311</ele>
<time>2019-05-31T10:01:05Z</time>
</trkpt>
<trkpt lat="49.500535" lon="10.33209">
<ele>311</ele>
<time>2019-05-31T10:01:10Z</time>
</trkpt>
<trkpt lat="49.500503" lon="10.331867">
<ele>311</ele>
<time>2019-05-31T10:01:15Z</time>
</trkpt>
<trkpt lat="49.500477" lon="10.331662">
<ele>312</ele>
<time>2019-05-31T10:01:20Z</time>
</trkpt>
<trkpt lat="49.500443" lon="10.331452">
<ele>312</ele>
<time>2019-05-31T10:01:25Z</time>
</trkpt>
<trkpt lat="49.5004" lon="10.331248">
<ele>312</ele>
<time>2019-05-31T10:01:30Z</time>
</trkpt>
<trkpt lat="49.50035" lon="10.331047">
<ele>312</ele>
<time>2019-05-31T10:01:35Z</time>
</trkpt>
<trkpt lat="49.500297" lon="10.330843">
<ele>312</ele>
<time>2019-05-31T10:01:40Z</time>
</trkpt>
<trkpt lat="49.500252" lon="10.330655">
<ele>312</ele>
<time>2019-05-31T10:01:45Z</time>
</trkpt>
<trkpt lat="49.500212" lon="10.33046">
<ele>312</ele>
<time>2019-05-31T10:01:50Z</time>
</trkpt>
<trkpt lat="49.500168" lon="10.330257">
<ele>312</ele>
<time>2019-05-31T10:01:55Z</time>
</trkpt>
<trkpt lat="49.50012" lon="10.330047">
<ele>312</ele>
<time>2019-05-31T10:02:00Z</time>
</trkpt>
<trkpt lat="49.500078" lon="10.329837">
<ele>312</ele>
<time>2019-05-31T10:02:05Z</time>
</trkpt>
<trkpt lat="49.500033" lon="10.329662">
<ele>312</ele>
<time>2019-05-31T10:02:10Z</time>
</trkpt>
<trkpt lat="49.499985" lon="10.329475">
<ele>312</ele>
<time>2019-05-31T10:02:15Z</time>
</trkpt>
<trkpt lat="49.499947" lon="10.329278">
<ele>312</ele>
<time>2019-05-31T10:02:20Z</time>
</trkpt>
<trkpt lat="49.499903" lon="10.329095">
<ele>313</ele>
<time>2019-05-31T10:02:25Z</time>
</trkpt>
<trkpt lat="49.499865" lon="10.328938">
<ele>313</ele>
<time>2019-05-31T10:02:30Z</time>
</trkpt>
<trkpt lat="49.499842" lon="10.328787">
<ele>314</ele>
<time>2019-05-31T10:02:35Z</time>
</trkpt>
<trkpt lat="49.499832" lon="10.328732">
<ele>315</ele>
<time>2019-05-31T10:02:40Z</time>
</trkpt>
<trkpt lat="49.499825" lon="10.328727">
<ele>315</ele>
<time>2019-05-31T10:02:45Z</time>
</trkpt>
<trkpt lat="49.499825" lon="10.328725">
<ele>315</ele>
<time>2019-05-31T10:03:00Z</time>
</trkpt>
<trkpt lat="49.499825" lon="10.328723">
<ele>315</ele>
<time>2019-05-31T10:03:05Z</time>
</trkpt>
<trkpt lat="49.49982" lon="10.328727">
<ele>315</ele>
<time>2019-05-31T10:03:10Z</time>
</trkpt>
<trkpt lat="49.499818" lon="10.328728">
<ele>315</ele>
<time>2019-05-31T10:03:15Z</time>
</trkpt>
<trkpt lat="49.499808" lon="10.32873">
<ele>315</ele>
<time>2019-05-31T10:03:20Z</time>
</trkpt>
<trkpt lat="49.499803" lon="10.32873">
<ele>315</ele>
<time>2019-05-31T10:03:25Z</time>
</trkpt>
<trkpt lat="49.499793" lon="10.32873">
<ele>315</ele>
<time>2019-05-31T10:03:30Z</time>
</trkpt>
<trkpt lat="49.499788" lon="10.328732">
<ele>315</ele>
<time>2019-05-31T10:03:35Z</time>
</trkpt>
<trkpt lat="49.499785" lon="10.328737">
<ele>315</ele>
<time>2019-05-31T10:03:40Z</time>
</trkpt>
<trkpt lat="49.499782" lon="10.328737">
<ele>315</ele>
<time>2019-05-31T10:03:45Z</time>
</trkpt>
<trkpt lat="49.499777" lon="10.328737">
<ele>315</ele>
<time>2019-05-31T10:03:50Z</time>
</trkpt>
<trkpt lat="49.49977" lon="10.328747">
<ele>315</ele>
<time>2019-05-31T10:04:00Z</time>
</trkpt>
<trkpt lat="49.499772" lon="10.328748">
<ele>315</ele>
<time>2019-05-31T10:04:05Z</time>
</trkpt>
<trkpt lat="49.499773" lon="10.328748">
<ele>315</ele>
<time>2019-05-31T10:04:10Z</time>
</trkpt>
<trkpt lat="49.499773" lon="10.328747">
<ele>315</ele>
<time>2019-05-31T10:04:15Z</time>
</trkpt>
<trkpt lat="49.499773" lon="10.328743">
<ele>315</ele>
<time>2019-05-31T10:04:20Z</time>
</trkpt>
<trkpt lat="49.499775" lon="10.328745">
<ele>315</ele>
<time>2019-05-31T10:04:25Z</time>
</trkpt>
<trkpt lat="49.499773" lon="10.328745">
<ele>316</ele>
<time>2019-05-31T10:05:10Z</time>
</trkpt>
<trkpt lat="49.499775" lon="10.32875">
<ele>316</ele>
<time>2019-05-31T10:05:20Z</time>
</trkpt>
<trkpt lat="49.499775" lon="10.328752">
<ele>316</ele>
<time>2019-05-31T10:05:25Z</time>
</trkpt>
<trkpt lat="49.499775" lon="10.32875">
<ele>316</ele>
<time>2019-05-31T10:06:00Z</time>
</trkpt>
<trkpt lat="49.499775" lon="10.328752">
<ele>316</ele>
<time>2019-05-31T10:06:05Z</time>
</trkpt>
<trkpt lat="49.499775" lon="10.328753">
<ele>316</ele>
<time>2019-05-31T10:06:15Z</time>
</trkpt>
<trkpt lat="49.499775" lon="10.328752">
<ele>316</ele>
<time>2019-05-31T10:06:30Z</time>
</trkpt>
<trkpt lat="49.499775" lon="10.328748">
<ele>316</ele>
<time>2019-05-31T10:06:50Z</time>
</trkpt>
<trkpt lat="49.499773" lon="10.328748">
<ele>316</ele>
<time>2019-05-31T10:06:55Z</time>
</trkpt>
<trkpt lat="49.499773" lon="10.328745">
<ele>316</ele>
<time>2019-05-31T10:07:00Z</time>
</trkpt>
<trkpt lat="49.499775" lon="10.328747">
<ele>316</ele>
<time>2019-05-31T10:07:50Z</time>
</trkpt>
<trkpt lat="49.499793" lon="10.32873">
<ele>316</ele>
<time>2019-05-31T10:08:00Z</time>
</trkpt>
<trkpt lat="49.499815" lon="10.32874">
<ele>316</ele>
<time>2019-05-31T10:08:05Z</time>
</trkpt>
<trkpt lat="49.499827" lon="10.328747">
<ele>316</ele>
<time>2019-05-31T10:08:10Z</time>
</trkpt>
<trkpt lat="49.499828" lon="10.328745">
<ele>316</ele>
<time>2019-05-31T10:08:15Z</time>
</trkpt>
<trkpt lat="49.499828" lon="10.328747">
<ele>316</ele>
<time>2019-05-31T10:08:20Z</time>
</trkpt>
<trkpt lat="49.499827" lon="10.328737">
<ele>316</ele>
<time>2019-05-31T10:08:35Z</time>
</trkpt>
<trkpt lat="49.499828" lon="10.328728">
<ele>316</ele>
<time>2019-05-31T10:08:55Z</time>
</trkpt>
<trkpt lat="49.499822" lon="10.32871">
<ele>316</ele>
<time>2019-05-31T10:09:00Z</time>
</trkpt>
<trkpt lat="49.499822" lon="10.328707">
<ele>316</ele>
<time>2019-05-31T10:09:05Z</time>
</trkpt>
<trkpt lat="49.49982" lon="10.32871">
<ele>316</ele>
<time>2019-05-31T10:09:15Z</time>
</trkpt>
<trkpt lat="49.499795" lon="10.328707">
<ele>316</ele>
<time>2019-05-31T10:09:20Z</time>
</trkpt>
<trkpt lat="49.499695" lon="10.328732">
<ele>316</ele>
<time>2019-05-31T10:09:25Z</time>
</trkpt>
<trkpt lat="49.49956" lon="10.32875">
<ele>316</ele>
<time>2019-05-31T10:09:30Z</time>
</trkpt>
<trkpt lat="49.499355" lon="10.328798">
<ele>317</ele>
<time>2019-05-31T10:09:35Z</time>
</trkpt>
<trkpt lat="49.49912" lon="10.328827">
<ele>319</ele>
<time>2019-05-31T10:09:40Z</time>
</trkpt>
<trkpt lat="49.498895" lon="10.328797">
<ele>321</ele>
<time>2019-05-31T10:09:45Z</time>
</trkpt>
<trkpt lat="49.498675" lon="10.328808">
<ele>324</ele>
<time>2019-05-31T10:09:50Z</time>
</trkpt>
<trkpt lat="49.498502" lon="10.328843">
<ele>326</ele>
<time>2019-05-31T10:09:55Z</time>
</trkpt>
<trkpt lat="49.498427" lon="10.328872">
<ele>327</ele>
<time>2019-05-31T10:10:00Z</time>
</trkpt>
<trkpt lat="49.498377" lon="10.328887">
<ele>327</ele>
<time>2019-05-31T10:10:05Z</time>
</trkpt>
<trkpt lat="49.498375" lon="10.32888">
<ele>327</ele>
<time>2019-05-31T10:10:10Z</time>
</trkpt>
<trkpt lat="49.498377" lon="10.32888">
<ele>327</ele>
<time>2019-05-31T10:10:15Z</time>
</trkpt>
<trkpt lat="49.498375" lon="10.32888">
<ele>327</ele>
<time>2019-05-31T10:10:25Z</time>
</trkpt>
<trkpt lat="49.498372" lon="10.328878">
<ele>327</ele>
<time>2019-05-31T10:10:50Z</time>
</trkpt>
<trkpt lat="49.498332" lon="10.32889">
<ele>327</ele>
<time>2019-05-31T10:10:55Z</time>
</trkpt>
<trkpt lat="49.498173" lon="10.328928">
<ele>327</ele>
<time>2019-05-31T10:11:00Z</time>
</trkpt>
<trkpt lat="49.497988" lon="10.328992">
<ele>328</ele>
<time>2019-05-31T10:11:05Z</time>
</trkpt>
<trkpt lat="49.497745" lon="10.329098">
<ele>328</ele>
<time>2019-05-31T10:11:10Z</time>
</trkpt>
<trkpt lat="49.49741" lon="10.329232">
<ele>328</ele>
<time>2019-05-31T10:11:15Z</time>
</trkpt>
<trkpt lat="49.496977" lon="10.329407">
<ele>325</ele>
<time>2019-05-31T10:11:20Z</time>
</trkpt>
<trkpt lat="49.496542" lon="10.329517">
<ele>322</ele>
<time>2019-05-31T10:11:25Z</time>
</trkpt>
<trkpt lat="49.496107" lon="10.329557">
<ele>318</ele>
<time>2019-05-31T10:11:30Z</time>
</trkpt>
<trkpt lat="49.495638" lon="10.329623">
<ele>316</ele>
<time>2019-05-31T10:11:35Z</time>
</trkpt>
<trkpt lat="49.495377" lon="10.329642">
<ele>315</ele>
<time>2019-05-31T10:11:40Z</time>
</trkpt>
<trkpt lat="49.495225" lon="10.329698">
<ele>314</ele>
<time>2019-05-31T10:11:45Z</time>
</trkpt>
<trkpt lat="49.495093" lon="10.329473">
<ele>314</ele>
<time>2019-05-31T10:11:50Z</time>
</trkpt>
<trkpt lat="49.494967" lon="10.329123">
<ele>314</ele>
<time>2019-05-31T10:11:55Z</time>
</trkpt>
<trkpt lat="49.494782" lon="10.328868">
<ele>314</ele>
<time>2019-05-31T10:12:00Z</time>
</trkpt>
<trkpt lat="49.49452" lon="10.32894">
<ele>314</ele>
<time>2019-05-31T10:12:05Z</time>
</trkpt>
<trkpt lat="49.494302" lon="10.328727">
<ele>314</ele>
<time>2019-05-31T10:12:10Z</time>
</trkpt>
<trkpt lat="49.494105" lon="10.328368">
<ele>314</ele>
<time>2019-05-31T10:12:15Z</time>
</trkpt>
<trkpt lat="49.493928" lon="10.327998">
<ele>315</ele>
<time>2019-05-31T10:12:20Z</time>
</trkpt>
<trkpt lat="49.49378" lon="10.327657">
<ele>315</ele>
<time>2019-05-31T10:12:25Z</time>
</trkpt>
<trkpt lat="49.493657" lon="10.32732">
<ele>315</ele>
<time>2019-05-31T10:12:30Z</time>
</trkpt>
<trkpt lat="49.493523" lon="10.32697">
<ele>315</ele>
<time>2019-05-31T10:12:35Z</time>
</trkpt>
<trkpt lat="49.49337" lon="10.326635">
<ele>316</ele>
<time>2019-05-31T10:12:40Z</time>
</trkpt>
<trkpt lat="49.49323" lon="10.326332">
<ele>316</ele>
<time>2019-05-31T10:12:45Z</time>
</trkpt>
<trkpt lat="49.493103" lon="10.326157">
<ele>316</ele>
<time>2019-05-31T10:12:50Z</time>
</trkpt>
<trkpt lat="49.492955" lon="10.326257">
<ele>317</ele>
<time>2019-05-31T10:12:55Z</time>
</trkpt>
<trkpt lat="49.492798" lon="10.326457">
<ele>317</ele>
<time>2019-05-31T10:13:00Z</time>
</trkpt>
<trkpt lat="49.492618" lon="10.326658">
<ele>317</ele>
<time>2019-05-31T10:13:05Z</time>
</trkpt>
<trkpt lat="49.492463" lon="10.326897">
<ele>318</ele>
<time>2019-05-31T10:13:10Z</time>
</trkpt>
<trkpt lat="49.492375" lon="10.32713">
<ele>319</ele>
<time>2019-05-31T10:13:15Z</time>
</trkpt>
<trkpt lat="49.492293" lon="10.327362">
<ele>320</ele>
<time>2019-05-31T10:13:20Z</time>
</trkpt>
<trkpt lat="49.492192" lon="10.327268">
<ele>322</ele>
<time>2019-05-31T10:13:26Z</time>
</trkpt>
<trkpt lat="49.492113" lon="10.326998">
<ele>322</ele>
<time>2019-05-31T10:13:31Z</time>
</trkpt>
<trkpt lat="49.492032" lon="10.326687">
<ele>323</ele>
<time>2019-05-31T10:13:36Z</time>
</trkpt>
<trkpt lat="49.491958" lon="10.326333">
<ele>323</ele>
<time>2019-05-31T10:13:41Z</time>
</trkpt>
<trkpt lat="49.491893" lon="10.325968">
<ele>323</ele>
<time>2019-05-31T10:13:46Z</time>
</trkpt>
<trkpt lat="49.491832" lon="10.325595">
<ele>323</ele>
<time>2019-05-31T10:13:51Z</time>
</trkpt>
<trkpt lat="49.491767" lon="10.325212">
<ele>323</ele>
<time>2019-05-31T10:13:56Z</time>
</trkpt>
<trkpt lat="49.4917" lon="10.324818">
<ele>323</ele>
<time>2019-05-31T10:14:01Z</time>
</trkpt>
<trkpt lat="49.491637" lon="10.324423">
<ele>324</ele>
<time>2019-05-31T10:14:06Z</time>
</trkpt>
<trkpt lat="49.491575" lon="10.324012">
<ele>324</ele>
<time>2019-05-31T10:14:11Z</time>
</trkpt>
<trkpt lat="49.491505" lon="10.323607">
<ele>324</ele>
<time>2019-05-31T10:14:16Z</time>
</trkpt>
<trkpt lat="49.491448" lon="10.323237">
<ele>324</ele>
<time>2019-05-31T10:14:21Z</time>
</trkpt>
<trkpt lat="49.491397" lon="10.322908">
<ele>325</ele>
<time>2019-05-31T10:14:26Z</time>
</trkpt>
<trkpt lat="49.491342" lon="10.32256">
<ele>325</ele>
<time>2019-05-31T10:14:31Z</time>
</trkpt>
<trkpt lat="49.491277" lon="10.322205">
<ele>325</ele>
<time>2019-05-31T10:14:36Z</time>
</trkpt>
<trkpt lat="49.491213" lon="10.321852">
<ele>326</ele>
<time>2019-05-31T10:14:41Z</time>
</trkpt>
<trkpt lat="49.491152" lon="10.321492">
<ele>326</ele>
<time>2019-05-31T10:14:46Z</time>
</trkpt>
<trkpt lat="49.49109" lon="10.32113">
<ele>326</ele>
<time>2019-05-31T10:14:51Z</time>
</trkpt>
<trkpt lat="49.491032" lon="10.32077">
<ele>327</ele>
<time>2019-05-31T10:14:56Z</time>
</trkpt>
<trkpt lat="49.49097" lon="10.320413">
<ele>327</ele>
<time>2019-05-31T10:15:01Z</time>
</trkpt>
<trkpt lat="49.490913" lon="10.320072">
<ele>327</ele>
<time>2019-05-31T10:15:06Z</time>
</trkpt>
<trkpt lat="49.490853" lon="10.319735">
<ele>328</ele>
<time>2019-05-31T10:15:11Z</time>
</trkpt>
<trkpt lat="49.490798" lon="10.31941">
<ele>329</ele>
<time>2019-05-31T10:15:16Z</time>
</trkpt>
<trkpt lat="49.490743" lon="10.319088">
<ele>329</ele>
<time>2019-05-31T10:15:21Z</time>
</trkpt>
<trkpt lat="49.490687" lon="10.318767">
<ele>330</ele>
<time>2019-05-31T10:15:26Z</time>
</trkpt>
<trkpt lat="49.49063" lon="10.318428">
<ele>330</ele>
<time>2019-05-31T10:15:31Z</time>
</trkpt>
<trkpt lat="49.490573" lon="10.318108">
<ele>331</ele>
<time>2019-05-31T10:15:36Z</time>
</trkpt>
<trkpt lat="49.490523" lon="10.317797">
<ele>332</ele>
<time>2019-05-31T10:15:41Z</time>
</trkpt>
<trkpt lat="49.490467" lon="10.317478">
<ele>332</ele>
<time>2019-05-31T10:15:46Z</time>
</trkpt>
<trkpt lat="49.490418" lon="10.317177">
<ele>333</ele>
<time>2019-05-31T10:15:51Z</time>
</trkpt>
<trkpt lat="49.49036" lon="10.316843">
<ele>334</ele>
<time>2019-05-31T10:15:57Z</time>
</trkpt>
<trkpt lat="49.490315" lon="10.316572">
<ele>334</ele>
<time>2019-05-31T10:16:02Z</time>
</trkpt>
<trkpt lat="49.490265" lon="10.316282">
<ele>335</ele>
<time>2019-05-31T10:16:07Z</time>
</trkpt>
<trkpt lat="49.490215" lon="10.31598">
<ele>336</ele>
<time>2019-05-31T10:16:12Z</time>
</trkpt>
<trkpt lat="49.490165" lon="10.315678">
<ele>336</ele>
<time>2019-05-31T10:16:17Z</time>
</trkpt>
<trkpt lat="49.490118" lon="10.315368">
<ele>337</ele>
<time>2019-05-31T10:16:22Z</time>
</trkpt>
<trkpt lat="49.49007" lon="10.315065">
<ele>338</ele>
<time>2019-05-31T10:16:27Z</time>
</trkpt>
<trkpt lat="49.49003" lon="10.314778">
<ele>339</ele>
<time>2019-05-31T10:16:32Z</time>
</trkpt>
<trkpt lat="49.489993" lon="10.31451">
<ele>339</ele>
<time>2019-05-31T10:16:37Z</time>
</trkpt>
<trkpt lat="49.489987" lon="10.314233">
<ele>340</ele>
<time>2019-05-31T10:16:42Z</time>
</trkpt>
<trkpt lat="49.490008" lon="10.31393">
<ele>340</ele>
<time>2019-05-31T10:16:47Z</time>
</trkpt>
<trkpt lat="49.490038" lon="10.313623">
<ele>341</ele>
<time>2019-05-31T10:16:52Z</time>
</trkpt>
<trkpt lat="49.49007" lon="10.31332">
<ele>342</ele>
<time>2019-05-31T10:16:57Z</time>
</trkpt>
<trkpt lat="49.490092" lon="10.31299">
<ele>342</ele>
<time>2019-05-31T10:17:02Z</time>
</trkpt>
<trkpt lat="49.490125" lon="10.312652">
<ele>342</ele>
<time>2019-05-31T10:17:07Z</time>
</trkpt>
<trkpt lat="49.490158" lon="10.31231">
<ele>343</ele>
<time>2019-05-31T10:17:12Z</time>
</trkpt>
<trkpt lat="49.49019" lon="10.311977">
<ele>343</ele>
<time>2019-05-31T10:17:17Z</time>
</trkpt>
<trkpt lat="49.490215" lon="10.311643">
<ele>343</ele>
<time>2019-05-31T10:17:22Z</time>
</trkpt>
<trkpt lat="49.490227" lon="10.31131">
<ele>344</ele>
<time>2019-05-31T10:17:27Z</time>
</trkpt>
<trkpt lat="49.490227" lon="10.310975">
<ele>344</ele>
<time>2019-05-31T10:17:32Z</time>
</trkpt>
<trkpt lat="49.490228" lon="10.310645">
<ele>344</ele>
<time>2019-05-31T10:17:37Z</time>
</trkpt>
<trkpt lat="49.49023" lon="10.310348">
<ele>345</ele>
<time>2019-05-31T10:17:42Z</time>
</trkpt>
<trkpt lat="49.490228" lon="10.310062">
<ele>346</ele>
<time>2019-05-31T10:17:47Z</time>
</trkpt>
<trkpt lat="49.490223" lon="10.309757">
<ele>346</ele>
<time>2019-05-31T10:17:52Z</time>
</trkpt>
<trkpt lat="49.49023" lon="10.309443">
<ele>347</ele>
<time>2019-05-31T10:17:57Z</time>
</trkpt>
<trkpt lat="49.490238" lon="10.309133">
<ele>348</ele>
<time>2019-05-31T10:18:02Z</time>
</trkpt>
<trkpt lat="49.490245" lon="10.30882">
<ele>348</ele>
<time>2019-05-31T10:18:07Z</time>
</trkpt>
<trkpt lat="49.490247" lon="10.308493">
<ele>349</ele>
<time>2019-05-31T10:18:12Z</time>
</trkpt>
<trkpt lat="49.490255" lon="10.308168">
<ele>349</ele>
<time>2019-05-31T10:18:17Z</time>
</trkpt>
<trkpt lat="49.490257" lon="10.307863">
<ele>349</ele>
<time>2019-05-31T10:18:22Z</time>
</trkpt>
<trkpt lat="49.490257" lon="10.307532">
<ele>350</ele>
<time>2019-05-31T10:18:27Z</time>
</trkpt>
<trkpt lat="49.490258" lon="10.307198">
<ele>350</ele>
<time>2019-05-31T10:18:32Z</time>
</trkpt>
<trkpt lat="49.490253" lon="10.306885">
<ele>351</ele>
<time>2019-05-31T10:18:37Z</time>
</trkpt>
<trkpt lat="49.49025" lon="10.306585">
<ele>351</ele>
<time>2019-05-31T10:18:42Z</time>
</trkpt>
<trkpt lat="49.490242" lon="10.306278">
<ele>352</ele>
<time>2019-05-31T10:18:47Z</time>
</trkpt>
<trkpt lat="49.490232" lon="10.30596">
<ele>352</ele>
<time>2019-05-31T10:18:52Z</time>
</trkpt>
<trkpt lat="49.49021" lon="10.30564">
<ele>353</ele>
<time>2019-05-31T10:18:57Z</time>
</trkpt>
<trkpt lat="49.490188" lon="10.305302">
<ele>353</ele>
<time>2019-05-31T10:19:02Z</time>
</trkpt>
<trkpt lat="49.490163" lon="10.304967">
<ele>353</ele>
<time>2019-05-31T10:19:07Z</time>
</trkpt>
<trkpt lat="49.490142" lon="10.304645">
<ele>354</ele>
<time>2019-05-31T10:19:12Z</time>
</trkpt>
<trkpt lat="49.490107" lon="10.304337">
<ele>354</ele>
<time>2019-05-31T10:19:17Z</time>
</trkpt>
<trkpt lat="49.490047" lon="10.304003">
<ele>354</ele>
<time>2019-05-31T10:19:22Z</time>
</trkpt>
<trkpt lat="49.489982" lon="10.303672">
<ele>355</ele>
<time>2019-05-31T10:19:27Z</time>
</trkpt>
<trkpt lat="49.489917" lon="10.303355">
<ele>356</ele>
<time>2019-05-31T10:19:32Z</time>
</trkpt>
<trkpt lat="49.48986" lon="10.303083">
<ele>356</ele>
<time>2019-05-31T10:19:37Z</time>
</trkpt>
<trkpt lat="49.48981" lon="10.302833">
<ele>357</ele>
<time>2019-05-31T10:19:42Z</time>
</trkpt>
<trkpt lat="49.489753" lon="10.302582">
<ele>358</ele>
<time>2019-05-31T10:19:47Z</time>
</trkpt>
<trkpt lat="49.489685" lon="10.30232">
<ele>358</ele>
<time>2019-05-31T10:19:52Z</time>
</trkpt>
<trkpt lat="49.489615" lon="10.302058">
<ele>359</ele>
<time>2019-05-31T10:19:57Z</time>
</trkpt>
<trkpt lat="49.489543" lon="10.30181">
<ele>360</ele>
<time>2019-05-31T10:20:02Z</time>
</trkpt>
<trkpt lat="49.48948" lon="10.301553">
<ele>361</ele>
<time>2019-05-31T10:20:07Z</time>
</trkpt>
<trkpt lat="49.489438" lon="10.301282">
<ele>361</ele>
<time>2019-05-31T10:20:12Z</time>
</trkpt>
<trkpt lat="49.48939" lon="10.301003">
<ele>362</ele>
<time>2019-05-31T10:20:17Z</time>
</trkpt>
<trkpt lat="49.489355" lon="10.300728">
<ele>363</ele>
<time>2019-05-31T10:20:22Z</time>
</trkpt>
<trkpt lat="49.489345" lon="10.300447">
<ele>364</ele>
<time>2019-05-31T10:20:27Z</time>
</trkpt>
<trkpt lat="49.489358" lon="10.300145">
<ele>364</ele>
<time>2019-05-31T10:20:32Z</time>
</trkpt>
<trkpt lat="49.489378" lon="10.299845">
<ele>365</ele>
<time>2019-05-31T10:20:37Z</time>
</trkpt>
<trkpt lat="49.489392" lon="10.299543">
<ele>365</ele>
<time>2019-05-31T10:20:42Z</time>
</trkpt>
<trkpt lat="49.489403" lon="10.299228">
<ele>366</ele>
<time>2019-05-31T10:20:47Z</time>
</trkpt>
<trkpt lat="49.489412" lon="10.298908">
<ele>366</ele>
<time>2019-05-31T10:20:52Z</time>
</trkpt>
<trkpt lat="49.489423" lon="10.298615">
<ele>366</ele>
<time>2019-05-31T10:20:57Z</time>
</trkpt>
<trkpt lat="49.489437" lon="10.298298">
<ele>367</ele>
<time>2019-05-31T10:21:02Z</time>
</trkpt>
<trkpt lat="49.489445" lon="10.297975">
<ele>367</ele>
<time>2019-05-31T10:21:07Z</time>
</trkpt>
<trkpt lat="49.489455" lon="10.297652">
<ele>367</ele>
<time>2019-05-31T10:21:12Z</time>
</trkpt>
<trkpt lat="49.48943" lon="10.297365">
<ele>368</ele>
<time>2019-05-31T10:21:17Z</time>
</trkpt>
<trkpt lat="49.489353" lon="10.297078">
<ele>368</ele>
<time>2019-05-31T10:21:22Z</time>
</trkpt>
<trkpt lat="49.489247" lon="10.296807">
<ele>368</ele>
<time>2019-05-31T10:21:27Z</time>
</trkpt>
<trkpt lat="49.489157" lon="10.296523">
<ele>368</ele>
<time>2019-05-31T10:21:32Z</time>
</trkpt>
<trkpt lat="49.489045" lon="10.296218">
<ele>368</ele>
<time>2019-05-31T10:21:37Z</time>
</trkpt>
<trkpt lat="49.488917" lon="10.295875">
<ele>368</ele>
<time>2019-05-31T10:21:42Z</time>
</trkpt>
<trkpt lat="49.488755" lon="10.295513">
<ele>368</ele>
<time>2019-05-31T10:21:47Z</time>
</trkpt>
<trkpt lat="49.488563" lon="10.295187">
<ele>367</ele>
<time>2019-05-31T10:21:52Z</time>
</trkpt>
<trkpt lat="49.488318" lon="10.294907">
<ele>366</ele>
<time>2019-05-31T10:21:57Z</time>
</trkpt>
<trkpt lat="49.488035" lon="10.294637">
<ele>365</ele>
<time>2019-05-31T10:22:02Z</time>
</trkpt>
<trkpt lat="49.487767" lon="10.294342">
<ele>363</ele>
<time>2019-05-31T10:22:07Z</time>
</trkpt>
<trkpt lat="49.487542" lon="10.293928">
<ele>361</ele>
<time>2019-05-31T10:22:12Z</time>
</trkpt>
<trkpt lat="49.48733" lon="10.293438">
<ele>360</ele>
<time>2019-05-31T10:22:17Z</time>
</trkpt>
<trkpt lat="49.48714" lon="10.292955">
<ele>359</ele>
<time>2019-05-31T10:22:22Z</time>
</trkpt>
<trkpt lat="49.486937" lon="10.29249">
<ele>358</ele>
<time>2019-05-31T10:22:27Z</time>
</trkpt>
<trkpt lat="49.48675" lon="10.292045">
<ele>357</ele>
<time>2019-05-31T10:22:32Z</time>
</trkpt>
<trkpt lat="49.486617" lon="10.291742">
<ele>357</ele>
<time>2019-05-31T10:22:37Z</time>
</trkpt>
<trkpt lat="49.486487" lon="10.291517">
<ele>356</ele>
<time>2019-05-31T10:22:42Z</time>
</trkpt>
<trkpt lat="49.486323" lon="10.291275">
<ele>356</ele>
<time>2019-05-31T10:22:47Z</time>
</trkpt>
<trkpt lat="49.486182" lon="10.291012">
<ele>356</ele>
<time>2019-05-31T10:22:52Z</time>
</trkpt>
<trkpt lat="49.486132" lon="10.290663">
<ele>356</ele>
<time>2019-05-31T10:22:57Z</time>
</trkpt>
<trkpt lat="49.486055" lon="10.290208">
<ele>356</ele>
<time>2019-05-31T10:23:02Z</time>
</trkpt>
<trkpt lat="49.485985" lon="10.289647">
<ele>355</ele>
<time>2019-05-31T10:23:08Z</time>
</trkpt>
<trkpt lat="49.485933" lon="10.289212">
<ele>355</ele>
<time>2019-05-31T10:23:13Z</time>
</trkpt>
<trkpt lat="49.485887" lon="10.288787">
<ele>355</ele>
<time>2019-05-31T10:23:18Z</time>
</trkpt>
<trkpt lat="49.485843" lon="10.288362">
<ele>355</ele>
<time>2019-05-31T10:23:23Z</time>
</trkpt>
<trkpt lat="49.485827" lon="10.287923">
<ele>356</ele>
<time>2019-05-31T10:23:28Z</time>
</trkpt>
<trkpt lat="49.485815" lon="10.287518">
<ele>356</ele>
<time>2019-05-31T10:23:33Z</time>
</trkpt>
<trkpt lat="49.48578" lon="10.287157">
<ele>356</ele>
<time>2019-05-31T10:23:38Z</time>
</trkpt>
<trkpt lat="49.485705" lon="10.286822">
<ele>357</ele>
<time>2019-05-31T10:23:43Z</time>
</trkpt>
<trkpt lat="49.485593" lon="10.286507">
<ele>357</ele>
<time>2019-05-31T10:23:48Z</time>
</trkpt>
<trkpt lat="49.48543" lon="10.286203">
<ele>357</ele>
<time>2019-05-31T10:23:53Z</time>
</trkpt>
<trkpt lat="49.485153" lon="10.286037">
<ele>356</ele>
<time>2019-05-31T10:23:58Z</time>
</trkpt>
<trkpt lat="49.484798" lon="10.286058">
<ele>355</ele>
<time>2019-05-31T10:24:03Z</time>
</trkpt>
<trkpt lat="49.484473" lon="10.285918">
<ele>353</ele>
<time>2019-05-31T10:24:08Z</time>
</trkpt>
<trkpt lat="49.484278" lon="10.285628">
<ele>353</ele>
<time>2019-05-31T10:24:13Z</time>
</trkpt>
<trkpt lat="49.484115" lon="10.285355">
<ele>355</ele>
<time>2019-05-31T10:24:18Z</time>
</trkpt>
<trkpt lat="49.483972" lon="10.285107">
<ele>356</ele>
<time>2019-05-31T10:24:23Z</time>
</trkpt>
<trkpt lat="49.483855" lon="10.284872">
<ele>357</ele>
<time>2019-05-31T10:24:28Z</time>
</trkpt>
<trkpt lat="49.483738" lon="10.284652">
<ele>359</ele>
<time>2019-05-31T10:24:33Z</time>
</trkpt>
<trkpt lat="49.483615" lon="10.284455">
<ele>360</ele>
<time>2019-05-31T10:24:38Z</time>
</trkpt>
<trkpt lat="49.483505" lon="10.284305">
<ele>361</ele>
<time>2019-05-31T10:24:43Z</time>
</trkpt>
<trkpt lat="49.483377" lon="10.284217">
<ele>362</ele>
<time>2019-05-31T10:24:48Z</time>
</trkpt>
<trkpt lat="49.483237" lon="10.284198">
<ele>363</ele>
<time>2019-05-31T10:24:53Z</time>
</trkpt>
<trkpt lat="49.483108" lon="10.284202">
<ele>364</ele>
<time>2019-05-31T10:24:58Z</time>
</trkpt>
<trkpt lat="49.48298" lon="10.284212">
<ele>365</ele>
<time>2019-05-31T10:25:03Z</time>
</trkpt>
<trkpt lat="49.482855" lon="10.284218">
<ele>366</ele>
<time>2019-05-31T10:25:08Z</time>
</trkpt>
<trkpt lat="49.48274" lon="10.28421">
<ele>368</ele>
<time>2019-05-31T10:25:13Z</time>
</trkpt>
<trkpt lat="49.482623" lon="10.28417">
<ele>368</ele>
<time>2019-05-31T10:25:18Z</time>
</trkpt>
<trkpt lat="49.482508" lon="10.284085">
<ele>370</ele>
<time>2019-05-31T10:25:23Z</time>
</trkpt>
<trkpt lat="49.482423" lon="10.283952">
<ele>371</ele>
<time>2019-05-31T10:25:28Z</time>
</trkpt>
<trkpt lat="49.482358" lon="10.283793">
<ele>372</ele>
<time>2019-05-31T10:25:33Z</time>
</trkpt>
<trkpt lat="49.482322" lon="10.283613">
<ele>372</ele>
<time>2019-05-31T10:25:38Z</time>
</trkpt>
<trkpt lat="49.482315" lon="10.283393">
<ele>372</ele>
<time>2019-05-31T10:25:43Z</time>
</trkpt>
<trkpt lat="49.482283" lon="10.283153">
<ele>373</ele>
<time>2019-05-31T10:25:48Z</time>
</trkpt>
<trkpt lat="49.482248" lon="10.282883">
<ele>373</ele>
<time>2019-05-31T10:25:53Z</time>
</trkpt>
<trkpt lat="49.482208" lon="10.282593">
<ele>373</ele>
<time>2019-05-31T10:25:58Z</time>
</trkpt>
<trkpt lat="49.482172" lon="10.282302">
<ele>374</ele>
<time>2019-05-31T10:26:03Z</time>
</trkpt>
<trkpt lat="49.482127" lon="10.281928">
<ele>374</ele>
<time>2019-05-31T10:26:09Z</time>
</trkpt>
<trkpt lat="49.482093" lon="10.281605">
<ele>374</ele>
<time>2019-05-31T10:26:14Z</time>
</trkpt>
<trkpt lat="49.482072" lon="10.28126">
<ele>374</ele>
<time>2019-05-31T10:26:19Z</time>
</trkpt>
<trkpt lat="49.482057" lon="10.280805">
<ele>375</ele>
<time>2019-05-31T10:26:25Z</time>
</trkpt>
<trkpt lat="49.482035" lon="10.280408">
<ele>375</ele>
<time>2019-05-31T10:26:30Z</time>
</trkpt>
<trkpt lat="49.48201" lon="10.279998">
<ele>375</ele>
<time>2019-05-31T10:26:35Z</time>
</trkpt>
<trkpt lat="49.48198" lon="10.279532">
<ele>376</ele>
<time>2019-05-31T10:26:41Z</time>
</trkpt>
<trkpt lat="49.481965" lon="10.27917">
<ele>376</ele>
<time>2019-05-31T10:26:46Z</time>
</trkpt>
<trkpt lat="49.481952" lon="10.27882">
<ele>376</ele>
<time>2019-05-31T10:26:51Z</time>
</trkpt>
<trkpt lat="49.481948" lon="10.278392">
<ele>377</ele>
<time>2019-05-31T10:26:57Z</time>
</trkpt>
<trkpt lat="49.481947" lon="10.277943">
<ele>377</ele>
<time>2019-05-31T10:27:03Z</time>
</trkpt>
<trkpt lat="49.481948" lon="10.277507">
<ele>378</ele>
<time>2019-05-31T10:27:09Z</time>
</trkpt>
<trkpt lat="49.48195" lon="10.277085">
<ele>379</ele>
<time>2019-05-31T10:27:15Z</time>
</trkpt>
<trkpt lat="49.481952" lon="10.276683">
<ele>379</ele>
<time>2019-05-31T10:27:21Z</time>
</trkpt>
<trkpt lat="49.48195" lon="10.276282">
<ele>380</ele>
<time>2019-05-31T10:27:27Z</time>
</trkpt>
<trkpt lat="49.481942" lon="10.275855">
<ele>380</ele>
<time>2019-05-31T10:27:33Z</time>
</trkpt>
<trkpt lat="49.481938" lon="10.275495">
<ele>381</ele>
<time>2019-05-31T10:27:38Z</time>
</trkpt>
<trkpt lat="49.481933" lon="10.275173">
<ele>381</ele>
<time>2019-05-31T10:27:43Z</time>
</trkpt>
<trkpt lat="49.481927" lon="10.274763">
<ele>382</ele>
<time>2019-05-31T10:27:49Z</time>
</trkpt>
<trkpt lat="49.481925" lon="10.274407">
<ele>382</ele>
<time>2019-05-31T10:27:54Z</time>
</trkpt>
<trkpt lat="49.481918" lon="10.273967">
<ele>382</ele>
<time>2019-05-31T10:28:00Z</time>
</trkpt>
<trkpt lat="49.481918" lon="10.273595">
<ele>382</ele>
<time>2019-05-31T10:28:05Z</time>
</trkpt>
<trkpt lat="49.481915" lon="10.273252">
<ele>382</ele>
<time>2019-05-31T10:28:10Z</time>
</trkpt>
<trkpt lat="49.481913" lon="10.272857">
<ele>382</ele>
<time>2019-05-31T10:28:16Z</time>
</trkpt>
<trkpt lat="49.481903" lon="10.272413">
<ele>383</ele>
<time>2019-05-31T10:28:22Z</time>
</trkpt>
<trkpt lat="49.4819" lon="10.272068">
<ele>383</ele>
<time>2019-05-31T10:28:27Z</time>
</trkpt>
<trkpt lat="49.481895" lon="10.271715">
<ele>383</ele>
<time>2019-05-31T10:28:32Z</time>
</trkpt>
<trkpt lat="49.481893" lon="10.271263">
<ele>383</ele>
<time>2019-05-31T10:28:38Z</time>
</trkpt>
<trkpt lat="49.481885" lon="10.27092">
<ele>383</ele>
<time>2019-05-31T10:28:43Z</time>
</trkpt>
<trkpt lat="49.48188" lon="10.270577">
<ele>384</ele>
<time>2019-05-31T10:28:48Z</time>
</trkpt>
<trkpt lat="49.481875" lon="10.270203">
<ele>384</ele>
<time>2019-05-31T10:28:53Z</time>
</trkpt>
<trkpt lat="49.48186" lon="10.269868">
<ele>384</ele>
<time>2019-05-31T10:28:58Z</time>
</trkpt>
<trkpt lat="49.48185" lon="10.269567">
<ele>384</ele>
<time>2019-05-31T10:29:03Z</time>
</trkpt>
<trkpt lat="49.48184" lon="10.269205">
<ele>384</ele>
<time>2019-05-31T10:29:09Z</time>
</trkpt>
<trkpt lat="49.481843" lon="10.268905">
<ele>384</ele>
<time>2019-05-31T10:29:14Z</time>
</trkpt>
<trkpt lat="49.48188" lon="10.268553">
<ele>384</ele>
<time>2019-05-31T10:29:19Z</time>
</trkpt>
<trkpt lat="49.481927" lon="10.268185">
<ele>384</ele>
<time>2019-05-31T10:29:24Z</time>
</trkpt>
<trkpt lat="49.481977" lon="10.267792">
<ele>384</ele>
<time>2019-05-31T10:29:29Z</time>
</trkpt>
<trkpt lat="49.482042" lon="10.267413">
<ele>384</ele>
<time>2019-05-31T10:29:34Z</time>
</trkpt>
<trkpt lat="49.482117" lon="10.267047">
<ele>384</ele>
<time>2019-05-31T10:29:39Z</time>
</trkpt>
<trkpt lat="49.482165" lon="10.266677">
<ele>384</ele>
<time>2019-05-31T10:29:44Z</time>
</trkpt>
<trkpt lat="49.482172" lon="10.26629">
<ele>384</ele>
<time>2019-05-31T10:29:49Z</time>
</trkpt>
<trkpt lat="49.48214" lon="10.26581">
<ele>383</ele>
<time>2019-05-31T10:29:55Z</time>
</trkpt>
<trkpt lat="49.482092" lon="10.265403">
<ele>382</ele>
<time>2019-05-31T10:30:00Z</time>
</trkpt>
<trkpt lat="49.482048" lon="10.265">
<ele>382</ele>
<time>2019-05-31T10:30:05Z</time>
</trkpt>
<trkpt lat="49.482028" lon="10.264573">
<ele>380</ele>
<time>2019-05-31T10:30:10Z</time>
</trkpt>
<trkpt lat="49.482068" lon="10.264163">
<ele>380</ele>
<time>2019-05-31T10:30:15Z</time>
</trkpt>
<trkpt lat="49.482317" lon="10.264133">
<ele>381</ele>
<time>2019-05-31T10:30:21Z</time>
</trkpt>
<trkpt lat="49.48255" lon="10.264225">
<ele>383</ele>
<time>2019-05-31T10:30:27Z</time>
</trkpt>
<trkpt lat="49.482755" lon="10.264265">
<ele>384</ele>
<time>2019-05-31T10:30:33Z</time>
</trkpt>
<trkpt lat="49.482962" lon="10.264227">
<ele>385</ele>
<time>2019-05-31T10:30:39Z</time>
</trkpt>
<trkpt lat="49.482998" lon="10.263935">
<ele>385</ele>
<time>2019-05-31T10:30:44Z</time>
</trkpt>
<trkpt lat="49.482968" lon="10.263545">
<ele>385</ele>
<time>2019-05-31T10:30:50Z</time>
</trkpt>
<trkpt lat="49.482948" lon="10.263193">
<ele>386</ele>
<time>2019-05-31T10:30:55Z</time>
</trkpt>
<trkpt lat="49.482918" lon="10.262803">
<ele>386</ele>
<time>2019-05-31T10:31:00Z</time>
</trkpt>
<trkpt lat="49.482858" lon="10.262278">
<ele>385</ele>
<time>2019-05-31T10:31:06Z</time>
</trkpt>
<trkpt lat="49.4828" lon="10.261788">
<ele>384</ele>
<time>2019-05-31T10:31:11Z</time>
</trkpt>
<trkpt lat="49.482733" lon="10.261312">
<ele>384</ele>
<time>2019-05-31T10:31:16Z</time>
</trkpt>
<trkpt lat="49.482672" lon="10.260857">
<ele>384</ele>
<time>2019-05-31T10:31:21Z</time>
</trkpt>
<trkpt lat="49.48261" lon="10.260342">
<ele>384</ele>
<time>2019-05-31T10:31:27Z</time>
</trkpt>
<trkpt lat="49.482532" lon="10.259813">
<ele>384</ele>
<time>2019-05-31T10:31:33Z</time>
</trkpt>
<trkpt lat="49.482287" lon="10.259495">
<ele>382</ele>
<time>2019-05-31T10:31:38Z</time>
</trkpt>
<trkpt lat="49.481975" lon="10.259265">
<ele>381</ele>
<time>2019-05-31T10:31:43Z</time>
</trkpt>
<trkpt lat="49.481673" lon="10.258937">
<ele>380</ele>
<time>2019-05-31T10:31:48Z</time>
</trkpt>
<trkpt lat="49.481393" lon="10.258605">
<ele>379</ele>
<time>2019-05-31T10:31:53Z</time>
</trkpt>
<trkpt lat="49.481233" lon="10.258325">
<ele>379</ele>
<time>2019-05-31T10:31:58Z</time>
</trkpt>
<trkpt lat="49.481182" lon="10.258077">
<ele>379</ele>
<time>2019-05-31T10:32:03Z</time>
</trkpt>
<trkpt lat="49.481173" lon="10.257823">
<ele>379</ele>
<time>2019-05-31T10:32:09Z</time>
</trkpt>
<trkpt lat="49.481182" lon="10.257602">
<ele>379</ele>
<time>2019-05-31T10:32:15Z</time>
</trkpt>
<trkpt lat="49.481203" lon="10.257427">
<ele>379</ele>
<time>2019-05-31T10:32:20Z</time>
</trkpt>
<trkpt lat="49.481162" lon="10.257433">
<ele>379</ele>
<time>2019-05-31T10:32:25Z</time>
</trkpt>
<trkpt lat="49.481168" lon="10.257658">
<ele>379</ele>
<time>2019-05-31T10:32:30Z</time>
</trkpt>
<trkpt lat="49.48118" lon="10.257865">
<ele>379</ele>
<time>2019-05-31T10:32:35Z</time>
</trkpt>
<trkpt lat="49.48115" lon="10.258128">
<ele>379</ele>
<time>2019-05-31T10:32:41Z</time>
</trkpt>
<trkpt lat="49.480972" lon="10.258108">
<ele>379</ele>
<time>2019-05-31T10:32:46Z</time>
</trkpt>
<trkpt lat="49.480708" lon="10.258037">
<ele>377</ele>
<time>2019-05-31T10:32:51Z</time>
</trkpt>
<trkpt lat="49.480388" lon="10.257965">
<ele>375</ele>
<time>2019-05-31T10:32:56Z</time>
</trkpt>
<trkpt lat="49.479998" lon="10.257717">
<ele>372</ele>
<time>2019-05-31T10:33:02Z</time>
</trkpt>
<trkpt lat="49.479742" lon="10.257522">
<ele>371</ele>
<time>2019-05-31T10:33:07Z</time>
</trkpt>
<trkpt lat="49.479523" lon="10.257367">
<ele>371</ele>
<time>2019-05-31T10:33:12Z</time>
</trkpt>
<trkpt lat="49.479262" lon="10.25723">
<ele>371</ele>
<time>2019-05-31T10:33:18Z</time>
</trkpt>
<trkpt lat="49.479" lon="10.257172">
<ele>371</ele>
<time>2019-05-31T10:33:23Z</time>
</trkpt>
<trkpt lat="49.47872" lon="10.257177">
<ele>371</ele>
<time>2019-05-31T10:33:28Z</time>
</trkpt>
<trkpt lat="49.478435" lon="10.257273">
<ele>371</ele>
<time>2019-05-31T10:33:33Z</time>
</trkpt>
<trkpt lat="49.478173" lon="10.257418">
<ele>371</ele>
<time>2019-05-31T10:33:38Z</time>
</trkpt>
<trkpt lat="49.477912" lon="10.257573">
<ele>371</ele>
<time>2019-05-31T10:33:43Z</time>
</trkpt>
<trkpt lat="49.477658" lon="10.257728">
<ele>372</ele>
<time>2019-05-31T10:33:48Z</time>
</trkpt>
<trkpt lat="49.477412" lon="10.257817">
<ele>372</ele>
<time>2019-05-31T10:33:53Z</time>
</trkpt>
<trkpt lat="49.477163" lon="10.257873">
<ele>373</ele>
<time>2019-05-31T10:33:58Z</time>
</trkpt>
<trkpt lat="49.476945" lon="10.257922">
<ele>374</ele>
<time>2019-05-31T10:34:03Z</time>
</trkpt>
<trkpt lat="49.476692" lon="10.257977">
<ele>375</ele>
<time>2019-05-31T10:34:09Z</time>
</trkpt>
<trkpt lat="49.47649" lon="10.258033">
<ele>376</ele>
<time>2019-05-31T10:34:14Z</time>
</trkpt>
<trkpt lat="49.476293" lon="10.258073">
<ele>378</ele>
<time>2019-05-31T10:34:19Z</time>
</trkpt>
<trkpt lat="49.476097" lon="10.258117">
<ele>379</ele>
<time>2019-05-31T10:34:24Z</time>
</trkpt>
<trkpt lat="49.475895" lon="10.258158">
<ele>380</ele>
<time>2019-05-31T10:34:29Z</time>
</trkpt>
<trkpt lat="49.475703" lon="10.25821">
<ele>381</ele>
<time>2019-05-31T10:34:34Z</time>
</trkpt>
<trkpt lat="49.475518" lon="10.25826">
<ele>382</ele>
<time>2019-05-31T10:34:39Z</time>
</trkpt>
<trkpt lat="49.475328" lon="10.258315">
<ele>382</ele>
<time>2019-05-31T10:34:44Z</time>
</trkpt>
<trkpt lat="49.475143" lon="10.258372">
<ele>383</ele>
<time>2019-05-31T10:34:49Z</time>
</trkpt>
<trkpt lat="49.474955" lon="10.258435">
<ele>383</ele>
<time>2019-05-31T10:34:54Z</time>
</trkpt>
<trkpt lat="49.474762" lon="10.258498">
<ele>384</ele>
<time>2019-05-31T10:34:59Z</time>
</trkpt>
<trkpt lat="49.474548" lon="10.258565">
<ele>384</ele>
<time>2019-05-31T10:35:04Z</time>
</trkpt>
<trkpt lat="49.474337" lon="10.258627">
<ele>384</ele>
<time>2019-05-31T10:35:09Z</time>
</trkpt>
<trkpt lat="49.474062" lon="10.258648">
<ele>384</ele>
<time>2019-05-31T10:35:15Z</time>
</trkpt>
<trkpt lat="49.47382" lon="10.2586">
<ele>384</ele>
<time>2019-05-31T10:35:20Z</time>
</trkpt>
<trkpt lat="49.473575" lon="10.258515">
<ele>384</ele>
<time>2019-05-31T10:35:25Z</time>
</trkpt>
<trkpt lat="49.47326" lon="10.258323">
<ele>384</ele>
<time>2019-05-31T10:35:31Z</time>
</trkpt>
<trkpt lat="49.472985" lon="10.258062">
<ele>383</ele>
<time>2019-05-31T10:35:36Z</time>
</trkpt>
<trkpt lat="49.472688" lon="10.257722">
<ele>382</ele>
<time>2019-05-31T10:35:41Z</time>
</trkpt>
<trkpt lat="49.472347" lon="10.25733">
<ele>380</ele>
<time>2019-05-31T10:35:46Z</time>
</trkpt>
<trkpt lat="49.47197" lon="10.256883">
<ele>378</ele>
<time>2019-05-31T10:35:51Z</time>
</trkpt>
<trkpt lat="49.471505" lon="10.256325">
<ele>375</ele>
<time>2019-05-31T10:35:57Z</time>
</trkpt>
<trkpt lat="49.471112" lon="10.255862">
<ele>373</ele>
<time>2019-05-31T10:36:02Z</time>
</trkpt>
<trkpt lat="49.470707" lon="10.255377">
<ele>371</ele>
<time>2019-05-31T10:36:07Z</time>
</trkpt>
<trkpt lat="49.470285" lon="10.254872">
<ele>369</ele>
<time>2019-05-31T10:36:12Z</time>
</trkpt>
<trkpt lat="49.469922" lon="10.254287">
<ele>366</ele>
<time>2019-05-31T10:36:17Z</time>
</trkpt>
<trkpt lat="49.46967" lon="10.253715">
<ele>366</ele>
<time>2019-05-31T10:36:22Z</time>
</trkpt>
<trkpt lat="49.469468" lon="10.253198">
<ele>366</ele>
<time>2019-05-31T10:36:27Z</time>
</trkpt>
<trkpt lat="49.469278" lon="10.252757">
<ele>369</ele>
<time>2019-05-31T10:36:33Z</time>
</trkpt>
<trkpt lat="49.469137" lon="10.252497">
<ele>372</ele>
<time>2019-05-31T10:36:38Z</time>
</trkpt>
<trkpt lat="49.468982" lon="10.252242">
<ele>373</ele>
<time>2019-05-31T10:36:43Z</time>
</trkpt>
<trkpt lat="49.468812" lon="10.252023">
<ele>373</ele>
<time>2019-05-31T10:36:48Z</time>
</trkpt>
<trkpt lat="49.468633" lon="10.251832">
<ele>374</ele>
<time>2019-05-31T10:36:53Z</time>
</trkpt>
<trkpt lat="49.468413" lon="10.25162">
<ele>374</ele>
<time>2019-05-31T10:36:58Z</time>
</trkpt>
<trkpt lat="49.468178" lon="10.25141">
<ele>374</ele>
<time>2019-05-31T10:37:03Z</time>
</trkpt>
<trkpt lat="49.467935" lon="10.25119">
<ele>373</ele>
<time>2019-05-31T10:37:08Z</time>
</trkpt>
<trkpt lat="49.467635" lon="10.250895">
<ele>373</ele>
<time>2019-05-31T10:37:14Z</time>
</trkpt>
<trkpt lat="49.467332" lon="10.250567">
<ele>372</ele>
<time>2019-05-31T10:37:20Z</time>
</trkpt>
<trkpt lat="49.46709" lon="10.2503">
<ele>372</ele>
<time>2019-05-31T10:37:25Z</time>
</trkpt>
<trkpt lat="49.466832" lon="10.249952">
<ele>371</ele>
<time>2019-05-31T10:37:31Z</time>
</trkpt>
<trkpt lat="49.46665" lon="10.249613">
<ele>371</ele>
<time>2019-05-31T10:37:36Z</time>
</trkpt>
<trkpt lat="49.46642" lon="10.249432">
<ele>370</ele>
<time>2019-05-31T10:37:41Z</time>
</trkpt>
<trkpt lat="49.46617" lon="10.249603">
<ele>370</ele>
<time>2019-05-31T10:37:46Z</time>
</trkpt>
<trkpt lat="49.465927" lon="10.249842">
<ele>370</ele>
<time>2019-05-31T10:37:51Z</time>
</trkpt>
<trkpt lat="49.465667" lon="10.2501">
<ele>370</ele>
<time>2019-05-31T10:37:57Z</time>
</trkpt>
<trkpt lat="49.465432" lon="10.250332">
<ele>370</ele>
<time>2019-05-31T10:38:03Z</time>
</trkpt>
<trkpt lat="49.465193" lon="10.250083">
<ele>371</ele>
<time>2019-05-31T10:38:09Z</time>
</trkpt>
<trkpt lat="49.464992" lon="10.24979">
<ele>372</ele>
<time>2019-05-31T10:38:15Z</time>
</trkpt>
<trkpt lat="49.464847" lon="10.249582">
<ele>372</ele>
<time>2019-05-31T10:38:20Z</time>
</trkpt>
<trkpt lat="49.464677" lon="10.24933">
<ele>373</ele>
<time>2019-05-31T10:38:25Z</time>
</trkpt>
<trkpt lat="49.464512" lon="10.24907">
<ele>373</ele>
<time>2019-05-31T10:38:30Z</time>
</trkpt>
<trkpt lat="49.464298" lon="10.24875">
<ele>374</ele>
<time>2019-05-31T10:38:36Z</time>
</trkpt>
<trkpt lat="49.464173" lon="10.248485">
<ele>374</ele>
<time>2019-05-31T10:38:41Z</time>
</trkpt>
<trkpt lat="49.464065" lon="10.24822">
<ele>375</ele>
<time>2019-05-31T10:38:46Z</time>
</trkpt>
<trkpt lat="49.463943" lon="10.247955">
<ele>376</ele>
<time>2019-05-31T10:38:51Z</time>
</trkpt>
<trkpt lat="49.463798" lon="10.247658">
<ele>376</ele>
<time>2019-05-31T10:38:57Z</time>
</trkpt>
<trkpt lat="49.46364" lon="10.247372">
<ele>376</ele>
<time>2019-05-31T10:39:03Z</time>
</trkpt>
<trkpt lat="49.463527" lon="10.247122">
<ele>377</ele>
<time>2019-05-31T10:39:08Z</time>
</trkpt>
<trkpt lat="49.463397" lon="10.24687">
<ele>378</ele>
<time>2019-05-31T10:39:13Z</time>
</trkpt>
<trkpt lat="49.463237" lon="10.246537">
<ele>378</ele>
<time>2019-05-31T10:39:19Z</time>
</trkpt>
<trkpt lat="49.463103" lon="10.246268">
<ele>378</ele>
<time>2019-05-31T10:39:24Z</time>
</trkpt>
<trkpt lat="49.462948" lon="10.245952">
<ele>379</ele>
<time>2019-05-31T10:39:29Z</time>
</trkpt>
<trkpt lat="49.462783" lon="10.245605">
<ele>379</ele>
<time>2019-05-31T10:39:34Z</time>
</trkpt>
<trkpt lat="49.462625" lon="10.245242">
<ele>379</ele>
<time>2019-05-31T10:39:39Z</time>
</trkpt>
<trkpt lat="49.462488" lon="10.244765">
<ele>379</ele>
<time>2019-05-31T10:39:45Z</time>
</trkpt>
<trkpt lat="49.462372" lon="10.244268">
<ele>379</ele>
<time>2019-05-31T10:39:51Z</time>
</trkpt>
<trkpt lat="49.46228" lon="10.243875">
<ele>379</ele>
<time>2019-05-31T10:39:56Z</time>
</trkpt>
<trkpt lat="49.462172" lon="10.243412">
<ele>380</ele>
<time>2019-05-31T10:40:02Z</time>
</trkpt>
<trkpt lat="49.46209" lon="10.24303">
<ele>380</ele>
<time>2019-05-31T10:40:07Z</time>
</trkpt>
<trkpt lat="49.461995" lon="10.242592">
<ele>381</ele>
<time>2019-05-31T10:40:13Z</time>
</trkpt>
<trkpt lat="49.4619" lon="10.242248">
<ele>381</ele>
<time>2019-05-31T10:40:18Z</time>
</trkpt>
<trkpt lat="49.461798" lon="10.241808">
<ele>381</ele>
<time>2019-05-31T10:40:24Z</time>
</trkpt>
<trkpt lat="49.461707" lon="10.241432">
<ele>381</ele>
<time>2019-05-31T10:40:29Z</time>
</trkpt>
<trkpt lat="49.461618" lon="10.24105">
<ele>381</ele>
<time>2019-05-31T10:40:34Z</time>
</trkpt>
<trkpt lat="49.461527" lon="10.240658">
<ele>381</ele>
<time>2019-05-31T10:40:39Z</time>
</trkpt>
<trkpt lat="49.461415" lon="10.240177">
<ele>381</ele>
<time>2019-05-31T10:40:45Z</time>
</trkpt>
<trkpt lat="49.461322" lon="10.23976">
<ele>381</ele>
<time>2019-05-31T10:40:50Z</time>
</trkpt>
<trkpt lat="49.461238" lon="10.239298">
<ele>380</ele>
<time>2019-05-31T10:40:55Z</time>
</trkpt>
<trkpt lat="49.461152" lon="10.238788">
<ele>380</ele>
<time>2019-05-31T10:41:00Z</time>
</trkpt>
<trkpt lat="49.461083" lon="10.238283">
<ele>379</ele>
<time>2019-05-31T10:41:05Z</time>
</trkpt>
<trkpt lat="49.461018" lon="10.2377">
<ele>379</ele>
<time>2019-05-31T10:41:11Z</time>
</trkpt>
<trkpt lat="49.460973" lon="10.237238">
<ele>379</ele>
<time>2019-05-31T10:41:16Z</time>
</trkpt>
<trkpt lat="49.460992" lon="10.236795">
<ele>379</ele>
<time>2019-05-31T10:41:21Z</time>
</trkpt>
<trkpt lat="49.461" lon="10.23638">
<ele>380</ele>
<time>2019-05-31T10:41:26Z</time>
</trkpt>
<trkpt lat="49.46102" lon="10.235922">
<ele>381</ele>
<time>2019-05-31T10:41:32Z</time>
</trkpt>
<trkpt lat="49.461043" lon="10.23556">
<ele>381</ele>
<time>2019-05-31T10:41:37Z</time>
</trkpt>
<trkpt lat="49.461072" lon="10.235245">
<ele>382</ele>
<time>2019-05-31T10:41:42Z</time>
</trkpt>
<trkpt lat="49.4611" lon="10.234922">
<ele>383</ele>
<time>2019-05-31T10:41:47Z</time>
</trkpt>
<trkpt lat="49.461147" lon="10.234535">
<ele>384</ele>
<time>2019-05-31T10:41:53Z</time>
</trkpt>
<trkpt lat="49.461183" lon="10.234243">
<ele>385</ele>
<time>2019-05-31T10:41:58Z</time>
</trkpt>
<trkpt lat="49.461225" lon="10.233947">
<ele>386</ele>
<time>2019-05-31T10:42:03Z</time>
</trkpt>
<trkpt lat="49.461272" lon="10.233672">
<ele>386</ele>
<time>2019-05-31T10:42:08Z</time>
</trkpt>
<trkpt lat="49.46132" lon="10.23339">
<ele>387</ele>
<time>2019-05-31T10:42:13Z</time>
</trkpt>
<trkpt lat="49.461377" lon="10.233117">
<ele>388</ele>
<time>2019-05-31T10:42:18Z</time>
</trkpt>
<trkpt lat="49.46144" lon="10.232838">
<ele>389</ele>
<time>2019-05-31T10:42:23Z</time>
</trkpt>
<trkpt lat="49.461503" lon="10.23255">
<ele>389</ele>
<time>2019-05-31T10:42:28Z</time>
</trkpt>
<trkpt lat="49.461568" lon="10.232262">
<ele>390</ele>
<time>2019-05-31T10:42:33Z</time>
</trkpt>
<trkpt lat="49.461628" lon="10.231993">
<ele>391</ele>
<time>2019-05-31T10:42:38Z</time>
</trkpt>
<trkpt lat="49.4617" lon="10.231732">
<ele>391</ele>
<time>2019-05-31T10:42:43Z</time>
</trkpt>
<trkpt lat="49.461767" lon="10.231472">
<ele>392</ele>
<time>2019-05-31T10:42:48Z</time>
</trkpt>
<trkpt lat="49.461848" lon="10.23116">
<ele>393</ele>
<time>2019-05-31T10:42:54Z</time>
</trkpt>
<trkpt lat="49.46192" lon="10.230893">
<ele>394</ele>
<time>2019-05-31T10:42:59Z</time>
</trkpt>
<trkpt lat="49.46199" lon="10.230642">
<ele>395</ele>
<time>2019-05-31T10:43:04Z</time>
</trkpt>
<trkpt lat="49.462065" lon="10.230392">
<ele>395</ele>
<time>2019-05-31T10:43:09Z</time>
</trkpt>
<trkpt lat="49.462138" lon="10.230155">
<ele>396</ele>
<time>2019-05-31T10:43:14Z</time>
</trkpt>
<trkpt lat="49.462223" lon="10.22987">
<ele>397</ele>
<time>2019-05-31T10:43:20Z</time>
</trkpt>
<trkpt lat="49.462295" lon="10.22962">
<ele>398</ele>
<time>2019-05-31T10:43:25Z</time>
</trkpt>
<trkpt lat="49.462385" lon="10.229317">
<ele>399</ele>
<time>2019-05-31T10:43:31Z</time>
</trkpt>
<trkpt lat="49.46246" lon="10.229068">
<ele>399</ele>
<time>2019-05-31T10:43:36Z</time>
</trkpt>
<trkpt lat="49.462532" lon="10.228808">
<ele>400</ele>
<time>2019-05-31T10:43:42Z</time>
</trkpt>
<trkpt lat="49.46259" lon="10.228575">
<ele>400</ele>
<time>2019-05-31T10:43:47Z</time>
</trkpt>
<trkpt lat="49.462672" lon="10.228272">
<ele>401</ele>
<time>2019-05-31T10:43:53Z</time>
</trkpt>
<trkpt lat="49.462747" lon="10.228013">
<ele>402</ele>
<time>2019-05-31T10:43:58Z</time>
</trkpt>
<trkpt lat="49.462822" lon="10.227748">
<ele>403</ele>
<time>2019-05-31T10:44:03Z</time>
</trkpt>
<trkpt lat="49.462908" lon="10.22745">
<ele>403</ele>
<time>2019-05-31T10:44:09Z</time>
</trkpt>
<trkpt lat="49.462983" lon="10.227205">
<ele>404</ele>
<time>2019-05-31T10:44:14Z</time>
</trkpt>
<trkpt lat="49.463072" lon="10.226905">
<ele>404</ele>
<time>2019-05-31T10:44:20Z</time>
</trkpt>
<trkpt lat="49.463143" lon="10.226658">
<ele>405</ele>
<time>2019-05-31T10:44:25Z</time>
</trkpt>
<trkpt lat="49.463222" lon="10.226403">
<ele>405</ele>
<time>2019-05-31T10:44:30Z</time>
</trkpt>
<trkpt lat="49.463315" lon="10.226123">
<ele>406</ele>
<time>2019-05-31T10:44:35Z</time>
</trkpt>
<trkpt lat="49.463403" lon="10.225828">
<ele>406</ele>
<time>2019-05-31T10:44:40Z</time>
</trkpt>
<trkpt lat="49.463502" lon="10.225527">
<ele>407</ele>
<time>2019-05-31T10:44:45Z</time>
</trkpt>
<trkpt lat="49.463562" lon="10.225277">
<ele>407</ele>
<time>2019-05-31T10:44:50Z</time>
</trkpt>
<trkpt lat="49.463618" lon="10.225013">
<ele>407</ele>
<time>2019-05-31T10:44:55Z</time>
</trkpt>
<trkpt lat="49.463698" lon="10.224725">
<ele>408</ele>
<time>2019-05-31T10:45:00Z</time>
</trkpt>
<trkpt lat="49.463767" lon="10.224462">
<ele>408</ele>
<time>2019-05-31T10:45:05Z</time>
</trkpt>
<trkpt lat="49.463865" lon="10.22413">
<ele>408</ele>
<time>2019-05-31T10:45:11Z</time>
</trkpt>
<trkpt lat="49.463895" lon="10.224035">
<ele>408</ele>
<time>2019-05-31T10:45:14Z</time>
</trkpt>
<trkpt lat="49.464087" lon="10.22337">
<ele>410</ele>
<time>2019-05-31T10:45:19Z</time>
</trkpt>
<trkpt lat="49.464187" lon="10.223035">
<ele>410</ele>
<time>2019-05-31T10:45:24Z</time>
</trkpt>
<trkpt lat="49.464277" lon="10.222713">
<ele>410</ele>
<time>2019-05-31T10:45:29Z</time>
</trkpt>
<trkpt lat="49.464388" lon="10.222395">
<ele>411</ele>
<time>2019-05-31T10:45:34Z</time>
</trkpt>
<trkpt lat="49.464502" lon="10.222055">
<ele>411</ele>
<time>2019-05-31T10:45:39Z</time>
</trkpt>
<trkpt lat="49.464663" lon="10.221668">
<ele>411</ele>
<time>2019-05-31T10:45:45Z</time>
</trkpt>
<trkpt lat="49.464807" lon="10.221313">
<ele>411</ele>
<time>2019-05-31T10:45:50Z</time>
</trkpt>
<trkpt lat="49.464942" lon="10.220942">
<ele>411</ele>
<time>2019-05-31T10:45:55Z</time>
</trkpt>
<trkpt lat="49.465063" lon="10.220432">
<ele>411</ele>
<time>2019-05-31T10:46:01Z</time>
</trkpt>
<trkpt lat="49.465107" lon="10.219978">
<ele>412</ele>
<time>2019-05-31T10:46:06Z</time>
</trkpt>
<trkpt lat="49.46513" lon="10.219508">
<ele>412</ele>
<time>2019-05-31T10:46:11Z</time>
</trkpt>
<trkpt lat="49.465185" lon="10.219007">
<ele>411</ele>
<time>2019-05-31T10:46:16Z</time>
</trkpt>
<trkpt lat="49.46528" lon="10.218407">
<ele>409</ele>
<time>2019-05-31T10:46:22Z</time>
</trkpt>
<trkpt lat="49.46541" lon="10.217925">
<ele>409</ele>
<time>2019-05-31T10:46:27Z</time>
</trkpt>
<trkpt lat="49.465578" lon="10.21746">
<ele>408</ele>
<time>2019-05-31T10:46:32Z</time>
</trkpt>
<trkpt lat="49.465788" lon="10.216995">
<ele>407</ele>
<time>2019-05-31T10:46:37Z</time>
</trkpt>
<trkpt lat="49.466027" lon="10.216557">
<ele>407</ele>
<time>2019-05-31T10:46:42Z</time>
</trkpt>
<trkpt lat="49.466322" lon="10.216052">
<ele>406</ele>
<time>2019-05-31T10:46:48Z</time>
</trkpt>
<trkpt lat="49.466563" lon="10.215638">
<ele>405</ele>
<time>2019-05-31T10:46:53Z</time>
</trkpt>
<trkpt lat="49.466872" lon="10.21512">
<ele>405</ele>
<time>2019-05-31T10:46:59Z</time>
</trkpt>
<trkpt lat="49.467173" lon="10.214637">
<ele>404</ele>
<time>2019-05-31T10:47:05Z</time>
</trkpt>
<trkpt lat="49.467437" lon="10.214255">
<ele>403</ele>
<time>2019-05-31T10:47:10Z</time>
</trkpt>
<trkpt lat="49.467717" lon="10.213895">
<ele>403</ele>
<time>2019-05-31T10:47:15Z</time>
</trkpt>
<trkpt lat="49.46799" lon="10.213552">
<ele>402</ele>
<time>2019-05-31T10:47:20Z</time>
</trkpt>
<trkpt lat="49.468275" lon="10.21305">
<ele>402</ele>
<time>2019-05-31T10:47:26Z</time>
</trkpt>
<trkpt lat="49.468413" lon="10.212552">
<ele>401</ele>
<time>2019-05-31T10:47:31Z</time>
</trkpt>
<trkpt lat="49.468422" lon="10.212055">
<ele>401</ele>
<time>2019-05-31T10:47:36Z</time>
</trkpt>
<trkpt lat="49.468377" lon="10.211583">
<ele>401</ele>
<time>2019-05-31T10:47:41Z</time>
</trkpt>
<trkpt lat="49.468303" lon="10.211113">
<ele>401</ele>
<time>2019-05-31T10:47:46Z</time>
</trkpt>
<trkpt lat="49.468255" lon="10.210637">
<ele>401</ele>
<time>2019-05-31T10:47:51Z</time>
</trkpt>
<trkpt lat="49.468312" lon="10.210083">
<ele>401</ele>
<time>2019-05-31T10:47:57Z</time>
</trkpt>
<trkpt lat="49.468357" lon="10.209682">
<ele>401</ele>
<time>2019-05-31T10:48:02Z</time>
</trkpt>
<trkpt lat="49.468367" lon="10.209215">
<ele>402</ele>
<time>2019-05-31T10:48:08Z</time>
</trkpt>
<trkpt lat="49.468303" lon="10.208825">
<ele>403</ele>
<time>2019-05-31T10:48:13Z</time>
</trkpt>
<trkpt lat="49.468227" lon="10.20848">
<ele>404</ele>
<time>2019-05-31T10:48:18Z</time>
</trkpt>
<trkpt lat="49.468158" lon="10.208168">
<ele>405</ele>
<time>2019-05-31T10:48:23Z</time>
</trkpt>
<trkpt lat="49.468092" lon="10.20787">
<ele>406</ele>
<time>2019-05-31T10:48:28Z</time>
</trkpt>
<trkpt lat="49.468025" lon="10.207585">
<ele>406</ele>
<time>2019-05-31T10:48:33Z</time>
</trkpt>
<trkpt lat="49.46793" lon="10.20725">
<ele>407</ele>
<time>2019-05-31T10:48:39Z</time>
</trkpt>
<trkpt lat="49.467838" lon="10.206985">
<ele>408</ele>
<time>2019-05-31T10:48:44Z</time>
</trkpt>
<trkpt lat="49.467737" lon="10.206728">
<ele>408</ele>
<time>2019-05-31T10:48:49Z</time>
</trkpt>
<trkpt lat="49.467623" lon="10.206482">
<ele>409</ele>
<time>2019-05-31T10:48:54Z</time>
</trkpt>
<trkpt lat="49.46751" lon="10.206245">
<ele>410</ele>
<time>2019-05-31T10:48:59Z</time>
</trkpt>
<trkpt lat="49.467378" lon="10.206015">
<ele>410</ele>
<time>2019-05-31T10:49:04Z</time>
</trkpt>
<trkpt lat="49.467233" lon="10.205798">
<ele>411</ele>
<time>2019-05-31T10:49:09Z</time>
</trkpt>
<trkpt lat="49.467078" lon="10.205588">
<ele>411</ele>
<time>2019-05-31T10:49:14Z</time>
</trkpt>
<trkpt lat="49.466913" lon="10.205397">
<ele>411</ele>
<time>2019-05-31T10:49:19Z</time>
</trkpt>
<trkpt lat="49.46673" lon="10.205198">
<ele>412</ele>
<time>2019-05-31T10:49:24Z</time>
</trkpt>
<trkpt lat="49.466532" lon="10.20499">
<ele>412</ele>
<time>2019-05-31T10:49:29Z</time>
</trkpt>
<trkpt lat="49.466327" lon="10.204783">
<ele>412</ele>
<time>2019-05-31T10:49:34Z</time>
</trkpt>
<trkpt lat="49.466098" lon="10.204558">
<ele>412</ele>
<time>2019-05-31T10:49:39Z</time>
</trkpt>
<trkpt lat="49.465865" lon="10.204322">
<ele>412</ele>
<time>2019-05-31T10:49:44Z</time>
</trkpt>
<trkpt lat="49.465643" lon="10.204055">
<ele>412</ele>
<time>2019-05-31T10:49:49Z</time>
</trkpt>
<trkpt lat="49.465408" lon="10.203738">
<ele>411</ele>
<time>2019-05-31T10:49:54Z</time>
</trkpt>
<trkpt lat="49.465187" lon="10.203342">
<ele>411</ele>
<time>2019-05-31T10:49:59Z</time>
</trkpt>
<trkpt lat="49.465007" lon="10.202912">
<ele>411</ele>
<time>2019-05-31T10:50:04Z</time>
</trkpt>
<trkpt lat="49.46485" lon="10.202475">
<ele>410</ele>
<time>2019-05-31T10:50:09Z</time>
</trkpt>
<trkpt lat="49.464705" lon="10.202065">
<ele>410</ele>
<time>2019-05-31T10:50:14Z</time>
</trkpt>
<trkpt lat="49.464565" lon="10.201672">
<ele>410</ele>
<time>2019-05-31T10:50:19Z</time>
</trkpt>
<trkpt lat="49.464423" lon="10.201318">
<ele>410</ele>
<time>2019-05-31T10:50:24Z</time>
</trkpt>
<trkpt lat="49.464305" lon="10.201033">
<ele>410</ele>
<time>2019-05-31T10:50:29Z</time>
</trkpt>
<trkpt lat="49.464213" lon="10.200795">
<ele>410</ele>
<time>2019-05-31T10:50:34Z</time>
</trkpt>
<trkpt lat="49.464123" lon="10.200562">
<ele>410</ele>
<time>2019-05-31T10:50:39Z</time>
</trkpt>
<trkpt lat="49.464023" lon="10.200277">
<ele>410</ele>
<time>2019-05-31T10:50:44Z</time>
</trkpt>
<trkpt lat="49.463897" lon="10.199937">
<ele>410</ele>
<time>2019-05-31T10:50:49Z</time>
</trkpt>
<trkpt lat="49.463775" lon="10.199597">
<ele>410</ele>
<time>2019-05-31T10:50:54Z</time>
</trkpt>
<trkpt lat="49.463687" lon="10.199223">
<ele>410</ele>
<time>2019-05-31T10:50:59Z</time>
</trkpt>
<trkpt lat="49.463598" lon="10.19887">
<ele>410</ele>
<time>2019-05-31T10:51:04Z</time>
</trkpt>
<trkpt lat="49.463517" lon="10.198528">
<ele>411</ele>
<time>2019-05-31T10:51:09Z</time>
</trkpt>
<trkpt lat="49.463422" lon="10.198175">
<ele>411</ele>
<time>2019-05-31T10:51:14Z</time>
</trkpt>
<trkpt lat="49.46331" lon="10.197837">
<ele>412</ele>
<time>2019-05-31T10:51:19Z</time>
</trkpt>
<trkpt lat="49.46315" lon="10.197498">
<ele>412</ele>
<time>2019-05-31T10:51:24Z</time>
</trkpt>
<trkpt lat="49.46297" lon="10.197193">
<ele>411</ele>
<time>2019-05-31T10:51:29Z</time>
</trkpt>
<trkpt lat="49.462753" lon="10.196828">
<ele>411</ele>
<time>2019-05-31T10:51:35Z</time>
</trkpt>
<trkpt lat="49.4626" lon="10.196503">
<ele>411</ele>
<time>2019-05-31T10:51:40Z</time>
</trkpt>
<trkpt lat="49.462467" lon="10.196125">
<ele>410</ele>
<time>2019-05-31T10:51:45Z</time>
</trkpt>
<trkpt lat="49.462293" lon="10.195602">
<ele>409</ele>
<time>2019-05-31T10:51:51Z</time>
</trkpt>
<trkpt lat="49.462132" lon="10.195068">
<ele>409</ele>
<time>2019-05-31T10:51:57Z</time>
</trkpt>
<trkpt lat="49.461975" lon="10.194578">
<ele>408</ele>
<time>2019-05-31T10:52:02Z</time>
</trkpt>
<trkpt lat="49.46181" lon="10.194072">
<ele>407</ele>
<time>2019-05-31T10:52:07Z</time>
</trkpt>
<trkpt lat="49.461643" lon="10.193532">
<ele>405</ele>
<time>2019-05-31T10:52:12Z</time>
</trkpt>
<trkpt lat="49.461453" lon="10.192883">
<ele>404</ele>
<time>2019-05-31T10:52:18Z</time>
</trkpt>
<trkpt lat="49.461335" lon="10.192347">
<ele>404</ele>
<time>2019-05-31T10:52:23Z</time>
</trkpt>
<trkpt lat="49.46125" lon="10.191822">
<ele>403</ele>
<time>2019-05-31T10:52:28Z</time>
</trkpt>
<trkpt lat="49.461198" lon="10.191302">
<ele>403</ele>
<time>2019-05-31T10:52:33Z</time>
</trkpt>
<trkpt lat="49.461178" lon="10.190692">
<ele>403</ele>
<time>2019-05-31T10:52:39Z</time>
</trkpt>
<trkpt lat="49.461182" lon="10.190053">
<ele>402</ele>
<time>2019-05-31T10:52:45Z</time>
</trkpt>
<trkpt lat="49.461187" lon="10.189518">
<ele>402</ele>
<time>2019-05-31T10:52:50Z</time>
</trkpt>
<trkpt lat="49.461198" lon="10.189043">
<ele>402</ele>
<time>2019-05-31T10:52:55Z</time>
</trkpt>
<trkpt lat="49.461188" lon="10.18858">
<ele>402</ele>
<time>2019-05-31T10:53:00Z</time>
</trkpt>
<trkpt lat="49.461157" lon="10.188088">
<ele>402</ele>
<time>2019-05-31T10:53:05Z</time>
</trkpt>
<trkpt lat="49.461083" lon="10.18749">
<ele>401</ele>
<time>2019-05-31T10:53:11Z</time>
</trkpt>
<trkpt lat="49.460995" lon="10.187018">
<ele>400</ele>
<time>2019-05-31T10:53:16Z</time>
</trkpt>
<trkpt lat="49.460888" lon="10.186558">
<ele>400</ele>
<time>2019-05-31T10:53:21Z</time>
</trkpt>
<trkpt lat="49.460738" lon="10.186048">
<ele>400</ele>
<time>2019-05-31T10:53:27Z</time>
</trkpt>
<trkpt lat="49.46061" lon="10.18561">
<ele>399</ele>
<time>2019-05-31T10:53:32Z</time>
</trkpt>
<trkpt lat="49.46047" lon="10.185135">
<ele>399</ele>
<time>2019-05-31T10:53:37Z</time>
</trkpt>
<trkpt lat="49.460305" lon="10.184573">
<ele>398</ele>
<time>2019-05-31T10:53:43Z</time>
</trkpt>
<trkpt lat="49.460143" lon="10.184035">
<ele>398</ele>
<time>2019-05-31T10:53:49Z</time>
</trkpt>
<trkpt lat="49.46" lon="10.183615">
<ele>398</ele>
<time>2019-05-31T10:53:54Z</time>
</trkpt>
<trkpt lat="49.459845" lon="10.183227">
<ele>397</ele>
<time>2019-05-31T10:53:59Z</time>
</trkpt>
<trkpt lat="49.45967" lon="10.182833">
<ele>397</ele>
<time>2019-05-31T10:54:04Z</time>
</trkpt>
<trkpt lat="49.459458" lon="10.182397">
<ele>397</ele>
<time>2019-05-31T10:54:10Z</time>
</trkpt>
<trkpt lat="49.459237" lon="10.18198">
<ele>397</ele>
<time>2019-05-31T10:54:16Z</time>
</trkpt>
<trkpt lat="49.459045" lon="10.181623">
<ele>397</ele>
<time>2019-05-31T10:54:21Z</time>
</trkpt>
<trkpt lat="49.458855" lon="10.181262">
<ele>397</ele>
<time>2019-05-31T10:54:26Z</time>
</trkpt>
<trkpt lat="49.45866" lon="10.1809">
<ele>397</ele>
<time>2019-05-31T10:54:31Z</time>
</trkpt>
<trkpt lat="49.45848" lon="10.180547">
<ele>396</ele>
<time>2019-05-31T10:54:36Z</time>
</trkpt>
<trkpt lat="49.458292" lon="10.18018">
<ele>396</ele>
<time>2019-05-31T10:54:41Z</time>
</trkpt>
<trkpt lat="49.458118" lon="10.179807">
<ele>396</ele>
<time>2019-05-31T10:54:46Z</time>
</trkpt>
<trkpt lat="49.457972" lon="10.179412">
<ele>395</ele>
<time>2019-05-31T10:54:51Z</time>
</trkpt>
<trkpt lat="49.457842" lon="10.179007">
<ele>395</ele>
<time>2019-05-31T10:54:56Z</time>
</trkpt>
<trkpt lat="49.45773" lon="10.178605">
<ele>395</ele>
<time>2019-05-31T10:55:01Z</time>
</trkpt>
<trkpt lat="49.45762" lon="10.178195">
<ele>395</ele>
<time>2019-05-31T10:55:06Z</time>
</trkpt>
<trkpt lat="49.457528" lon="10.177793">
<ele>395</ele>
<time>2019-05-31T10:55:11Z</time>
</trkpt>
<trkpt lat="49.457435" lon="10.17739">
<ele>395</ele>
<time>2019-05-31T10:55:16Z</time>
</trkpt>
<trkpt lat="49.457375" lon="10.176998">
<ele>395</ele>
<time>2019-05-31T10:55:21Z</time>
</trkpt>
<trkpt lat="49.457313" lon="10.176562">
<ele>395</ele>
<time>2019-05-31T10:55:26Z</time>
</trkpt>
<trkpt lat="49.457268" lon="10.176015">
<ele>395</ele>
<time>2019-05-31T10:55:32Z</time>
</trkpt>
<trkpt lat="49.457277" lon="10.175598">
<ele>395</ele>
<time>2019-05-31T10:55:37Z</time>
</trkpt>
<trkpt lat="49.457295" lon="10.175187">
<ele>395</ele>
<time>2019-05-31T10:55:42Z</time>
</trkpt>
<trkpt lat="49.457335" lon="10.174782">
<ele>395</ele>
<time>2019-05-31T10:55:47Z</time>
</trkpt>
<trkpt lat="49.45741" lon="10.174393">
<ele>395</ele>
<time>2019-05-31T10:55:52Z</time>
</trkpt>
<trkpt lat="49.457517" lon="10.174005">
<ele>395</ele>
<time>2019-05-31T10:55:57Z</time>
</trkpt>
<trkpt lat="49.457597" lon="10.173613">
<ele>395</ele>
<time>2019-05-31T10:56:02Z</time>
</trkpt>
<trkpt lat="49.457618" lon="10.173283">
<ele>395</ele>
<time>2019-05-31T10:56:07Z</time>
</trkpt>
<trkpt lat="49.45761" lon="10.17287">
<ele>396</ele>
<time>2019-05-31T10:56:13Z</time>
</trkpt>
<trkpt lat="49.45752" lon="10.172567">
<ele>396</ele>
<time>2019-05-31T10:56:18Z</time>
</trkpt>
<trkpt lat="49.457387" lon="10.172268">
<ele>396</ele>
<time>2019-05-31T10:56:23Z</time>
</trkpt>
<trkpt lat="49.457253" lon="10.171938">
<ele>396</ele>
<time>2019-05-31T10:56:28Z</time>
</trkpt>
<trkpt lat="49.457118" lon="10.17161">
<ele>396</ele>
<time>2019-05-31T10:56:33Z</time>
</trkpt>
<trkpt lat="49.45697" lon="10.17123">
<ele>396</ele>
<time>2019-05-31T10:56:38Z</time>
</trkpt>
<trkpt lat="49.456858" lon="10.17072">
<ele>395</ele>
<time>2019-05-31T10:56:43Z</time>
</trkpt>
<trkpt lat="49.456828" lon="10.170092">
<ele>392</ele>
<time>2019-05-31T10:56:48Z</time>
</trkpt>
<trkpt lat="49.456787" lon="10.169463">
<ele>392</ele>
<time>2019-05-31T10:56:53Z</time>
</trkpt>
<trkpt lat="49.456662" lon="10.168927">
<ele>392</ele>
<time>2019-05-31T10:56:58Z</time>
</trkpt>
<trkpt lat="49.456533" lon="10.168508">
<ele>392</ele>
<time>2019-05-31T10:57:03Z</time>
</trkpt>
<trkpt lat="49.456438" lon="10.168217">
<ele>393</ele>
<time>2019-05-31T10:57:08Z</time>
</trkpt>
<trkpt lat="49.456362" lon="10.167958">
<ele>395</ele>
<time>2019-05-31T10:57:13Z</time>
</trkpt>
<trkpt lat="49.456293" lon="10.167728">
<ele>395</ele>
<time>2019-05-31T10:57:18Z</time>
</trkpt>
<trkpt lat="49.45623" lon="10.167497">
<ele>397</ele>
<time>2019-05-31T10:57:23Z</time>
</trkpt>
<trkpt lat="49.456172" lon="10.167267">
<ele>397</ele>
<time>2019-05-31T10:57:28Z</time>
</trkpt>
<trkpt lat="49.45611" lon="10.167013">
<ele>399</ele>
<time>2019-05-31T10:57:33Z</time>
</trkpt>
<trkpt lat="49.456062" lon="10.166757">
<ele>400</ele>
<time>2019-05-31T10:57:38Z</time>
</trkpt>
<trkpt lat="49.456032" lon="10.166498">
<ele>401</ele>
<time>2019-05-31T10:57:43Z</time>
</trkpt>
<trkpt lat="49.456018" lon="10.16625">
<ele>401</ele>
<time>2019-05-31T10:57:48Z</time>
</trkpt>
<trkpt lat="49.456008" lon="10.165995">
<ele>401</ele>
<time>2019-05-31T10:57:53Z</time>
</trkpt>
<trkpt lat="49.456015" lon="10.165723">
<ele>402</ele>
<time>2019-05-31T10:57:58Z</time>
</trkpt>
<trkpt lat="49.456023" lon="10.16546">
<ele>402</ele>
<time>2019-05-31T10:58:03Z</time>
</trkpt>
<trkpt lat="49.456052" lon="10.165195">
<ele>403</ele>
<time>2019-05-31T10:58:08Z</time>
</trkpt>
<trkpt lat="49.456097" lon="10.164935">
<ele>403</ele>
<time>2019-05-31T10:58:13Z</time>
</trkpt>
<trkpt lat="49.45614" lon="10.164687">
<ele>403</ele>
<time>2019-05-31T10:58:18Z</time>
</trkpt>
<trkpt lat="49.456202" lon="10.16444">
<ele>404</ele>
<time>2019-05-31T10:58:23Z</time>
</trkpt>
<trkpt lat="49.456262" lon="10.164192">
<ele>405</ele>
<time>2019-05-31T10:58:28Z</time>
</trkpt>
<trkpt lat="49.456323" lon="10.16395">
<ele>405</ele>
<time>2019-05-31T10:58:33Z</time>
</trkpt>
<trkpt lat="49.456397" lon="10.163712">
<ele>406</ele>
<time>2019-05-31T10:58:38Z</time>
</trkpt>
<trkpt lat="49.45646" lon="10.163463">
<ele>407</ele>
<time>2019-05-31T10:58:43Z</time>
</trkpt>
<trkpt lat="49.456525" lon="10.163217">
<ele>407</ele>
<time>2019-05-31T10:58:48Z</time>
</trkpt>
<trkpt lat="49.456587" lon="10.162968">
<ele>408</ele>
<time>2019-05-31T10:58:53Z</time>
</trkpt>
<trkpt lat="49.456643" lon="10.162718">
<ele>409</ele>
<time>2019-05-31T10:58:58Z</time>
</trkpt>
<trkpt lat="49.456722" lon="10.162418">
<ele>410</ele>
<time>2019-05-31T10:59:04Z</time>
</trkpt>
<trkpt lat="49.456795" lon="10.162108">
<ele>410</ele>
<time>2019-05-31T10:59:10Z</time>
</trkpt>
<trkpt lat="49.456865" lon="10.161833">
<ele>410</ele>
<time>2019-05-31T10:59:15Z</time>
</trkpt>
<trkpt lat="49.456912" lon="10.161522">
<ele>410</ele>
<time>2019-05-31T10:59:20Z</time>
</trkpt>
<trkpt lat="49.45693" lon="10.161195">
<ele>410</ele>
<time>2019-05-31T10:59:25Z</time>
</trkpt>
<trkpt lat="49.456915" lon="10.16087">
<ele>410</ele>
<time>2019-05-31T10:59:30Z</time>
</trkpt>
<trkpt lat="49.456863" lon="10.160545">
<ele>410</ele>
<time>2019-05-31T10:59:35Z</time>
</trkpt>
<trkpt lat="49.45678" lon="10.160225">
<ele>410</ele>
<time>2019-05-31T10:59:40Z</time>
</trkpt>
<trkpt lat="49.456692" lon="10.159927">
<ele>411</ele>
<time>2019-05-31T10:59:45Z</time>
</trkpt>
<trkpt lat="49.456593" lon="10.159545">
<ele>411</ele>
<time>2019-05-31T10:59:51Z</time>
</trkpt>
<trkpt lat="49.456535" lon="10.159217">
<ele>412</ele>
<time>2019-05-31T10:59:56Z</time>
</trkpt>
<trkpt lat="49.4565" lon="10.15891">
<ele>413</ele>
<time>2019-05-31T11:00:01Z</time>
</trkpt>
<trkpt lat="49.45648" lon="10.1586">
<ele>413</ele>
<time>2019-05-31T11:00:06Z</time>
</trkpt>
<trkpt lat="49.45645" lon="10.158285">
<ele>414</ele>
<time>2019-05-31T11:00:11Z</time>
</trkpt>
<trkpt lat="49.456427" lon="10.157975">
<ele>414</ele>
<time>2019-05-31T11:00:16Z</time>
</trkpt>
<trkpt lat="49.456397" lon="10.157653">
<ele>415</ele>
<time>2019-05-31T11:00:21Z</time>
</trkpt>
<trkpt lat="49.456382" lon="10.15732">
<ele>415</ele>
<time>2019-05-31T11:00:26Z</time>
</trkpt>
<trkpt lat="49.456388" lon="10.15699">
<ele>415</ele>
<time>2019-05-31T11:00:31Z</time>
</trkpt>
<trkpt lat="49.456418" lon="10.156658">
<ele>415</ele>
<time>2019-05-31T11:00:36Z</time>
</trkpt>
<trkpt lat="49.456462" lon="10.156332">
<ele>415</ele>
<time>2019-05-31T11:00:41Z</time>
</trkpt>
<trkpt lat="49.456497" lon="10.156002">
<ele>416</ele>
<time>2019-05-31T11:00:46Z</time>
</trkpt>
<trkpt lat="49.456533" lon="10.155675">
<ele>416</ele>
<time>2019-05-31T11:00:51Z</time>
</trkpt>
<trkpt lat="49.456565" lon="10.155355">
<ele>416</ele>
<time>2019-05-31T11:00:56Z</time>
</trkpt>
<trkpt lat="49.45659" lon="10.155045">
<ele>416</ele>
<time>2019-05-31T11:01:01Z</time>
</trkpt>
<trkpt lat="49.456595" lon="10.15473">
<ele>417</ele>
<time>2019-05-31T11:01:06Z</time>
</trkpt>
<trkpt lat="49.456582" lon="10.154415">
<ele>417</ele>
<time>2019-05-31T11:01:11Z</time>
</trkpt>
<trkpt lat="49.456553" lon="10.154103">
<ele>418</ele>
<time>2019-05-31T11:01:16Z</time>
</trkpt>
<trkpt lat="49.456528" lon="10.153787">
<ele>418</ele>
<time>2019-05-31T11:01:21Z</time>
</trkpt>
<trkpt lat="49.456503" lon="10.153473">
<ele>418</ele>
<time>2019-05-31T11:01:26Z</time>
</trkpt>
<trkpt lat="49.456478" lon="10.15317">
<ele>419</ele>
<time>2019-05-31T11:01:31Z</time>
</trkpt>
<trkpt lat="49.456452" lon="10.152867">
<ele>420</ele>
<time>2019-05-31T11:01:36Z</time>
</trkpt>
<trkpt lat="49.456427" lon="10.152572">
<ele>421</ele>
<time>2019-05-31T11:01:41Z</time>
</trkpt>
<trkpt lat="49.456398" lon="10.152285">
<ele>421</ele>
<time>2019-05-31T11:01:46Z</time>
</trkpt>
<trkpt lat="49.456377" lon="10.151998">
<ele>422</ele>
<time>2019-05-31T11:01:51Z</time>
</trkpt>
<trkpt lat="49.456348" lon="10.15172">
<ele>423</ele>
<time>2019-05-31T11:01:56Z</time>
</trkpt>
<trkpt lat="49.456325" lon="10.15144">
<ele>424</ele>
<time>2019-05-31T11:02:01Z</time>
</trkpt>
<trkpt lat="49.456322" lon="10.151163">
<ele>425</ele>
<time>2019-05-31T11:02:06Z</time>
</trkpt>
<trkpt lat="49.456327" lon="10.150892">
<ele>425</ele>
<time>2019-05-31T11:02:11Z</time>
</trkpt>
<trkpt lat="49.456348" lon="10.150653">
<ele>426</ele>
<time>2019-05-31T11:02:16Z</time>
</trkpt>
<trkpt lat="49.456382" lon="10.15042">
<ele>426</ele>
<time>2019-05-31T11:02:21Z</time>
</trkpt>
<trkpt lat="49.456385" lon="10.150133">
<ele>427</ele>
<time>2019-05-31T11:02:26Z</time>
</trkpt>
<trkpt lat="49.456348" lon="10.149822">
<ele>427</ele>
<time>2019-05-31T11:02:31Z</time>
</trkpt>
<trkpt lat="49.456275" lon="10.149513">
<ele>427</ele>
<time>2019-05-31T11:02:36Z</time>
</trkpt>
<trkpt lat="49.456185" lon="10.14924">
<ele>427</ele>
<time>2019-05-31T11:02:41Z</time>
</trkpt>
<trkpt lat="49.456107" lon="10.148985">
<ele>427</ele>
<time>2019-05-31T11:02:46Z</time>
</trkpt>
<trkpt lat="49.456062" lon="10.148692">
<ele>427</ele>
<time>2019-05-31T11:02:51Z</time>
</trkpt>
<trkpt lat="49.456022" lon="10.148333">
<ele>427</ele>
<time>2019-05-31T11:02:56Z</time>
</trkpt>
<trkpt lat="49.456013" lon="10.147942">
<ele>427</ele>
<time>2019-05-31T11:03:01Z</time>
</trkpt>
<trkpt lat="49.456022" lon="10.147493">
<ele>427</ele>
<time>2019-05-31T11:03:06Z</time>
</trkpt>
<trkpt lat="49.456062" lon="10.147022">
<ele>427</ele>
<time>2019-05-31T11:03:11Z</time>
</trkpt>
<trkpt lat="49.456127" lon="10.146503">
<ele>426</ele>
<time>2019-05-31T11:03:16Z</time>
</trkpt>
<trkpt lat="49.456173" lon="10.145972">
<ele>426</ele>
<time>2019-05-31T11:03:21Z</time>
</trkpt>
<trkpt lat="49.45619" lon="10.145438">
<ele>425</ele>
<time>2019-05-31T11:03:26Z</time>
</trkpt>
<trkpt lat="49.4562" lon="10.144897">
<ele>424</ele>
<time>2019-05-31T11:03:31Z</time>
</trkpt>
<trkpt lat="49.45617" lon="10.144298">
<ele>423</ele>
<time>2019-05-31T11:03:36Z</time>
</trkpt>
<trkpt lat="49.456085" lon="10.143635">
<ele>421</ele>
<time>2019-05-31T11:03:41Z</time>
</trkpt>
<trkpt lat="49.456017" lon="10.142935">
<ele>420</ele>
<time>2019-05-31T11:03:46Z</time>
</trkpt>
<trkpt lat="49.455975" lon="10.142235">
<ele>417</ele>
<time>2019-05-31T11:03:51Z</time>
</trkpt>
<trkpt lat="49.455943" lon="10.141562">
<ele>417</ele>
<time>2019-05-31T11:03:56Z</time>
</trkpt>
<trkpt lat="49.455827" lon="10.140943">
<ele>416</ele>
<time>2019-05-31T11:04:01Z</time>
</trkpt>
<trkpt lat="49.455623" lon="10.140402">
<ele>415</ele>
<time>2019-05-31T11:04:06Z</time>
</trkpt>
<trkpt lat="49.455462" lon="10.139858">
<ele>414</ele>
<time>2019-05-31T11:04:11Z</time>
</trkpt>
<trkpt lat="49.455418" lon="10.139227">
<ele>413</ele>
<time>2019-05-31T11:04:16Z</time>
</trkpt>
<trkpt lat="49.455477" lon="10.138628">
<ele>412</ele>
<time>2019-05-31T11:04:21Z</time>
</trkpt>
<trkpt lat="49.45554" lon="10.13806">
<ele>411</ele>
<time>2019-05-31T11:04:26Z</time>
</trkpt>
<trkpt lat="49.455613" lon="10.137478">
<ele>408</ele>
<time>2019-05-31T11:04:31Z</time>
</trkpt>
<trkpt lat="49.455712" lon="10.136948">
<ele>406</ele>
<time>2019-05-31T11:04:36Z</time>
</trkpt>
<trkpt lat="49.455947" lon="10.136522">
<ele>404</ele>
<time>2019-05-31T11:04:41Z</time>
</trkpt>
<trkpt lat="49.45628" lon="10.136185">
<ele>402</ele>
<time>2019-05-31T11:04:46Z</time>
</trkpt>
<trkpt lat="49.45657" lon="10.135918">
<ele>399</ele>
<time>2019-05-31T11:04:51Z</time>
</trkpt>
<trkpt lat="49.456898" lon="10.135663">
<ele>397</ele>
<time>2019-05-31T11:04:56Z</time>
</trkpt>
<trkpt lat="49.457145" lon="10.135502">
<ele>396</ele>
<time>2019-05-31T11:05:01Z</time>
</trkpt>
<trkpt lat="49.457283" lon="10.135277">
<ele>396</ele>
<time>2019-05-31T11:05:06Z</time>
</trkpt>
<trkpt lat="49.457175" lon="10.134958">
<ele>395</ele>
<time>2019-05-31T11:05:11Z</time>
</trkpt>
<trkpt lat="49.457082" lon="10.134612">
<ele>395</ele>
<time>2019-05-31T11:05:16Z</time>
</trkpt>
<trkpt lat="49.456975" lon="10.134275">
<ele>395</ele>
<time>2019-05-31T11:05:21Z</time>
</trkpt>
<trkpt lat="49.456835" lon="10.13394">
<ele>395</ele>
<time>2019-05-31T11:05:26Z</time>
</trkpt>
<trkpt lat="49.456628" lon="10.133638">
<ele>394</ele>
<time>2019-05-31T11:05:31Z</time>
</trkpt>
<trkpt lat="49.45633" lon="10.13341">
<ele>393</ele>
<time>2019-05-31T11:05:36Z</time>
</trkpt>
<trkpt lat="49.455978" lon="10.133188">
<ele>390</ele>
<time>2019-05-31T11:05:41Z</time>
</trkpt>
<trkpt lat="49.455522" lon="10.132965">
<ele>388</ele>
<time>2019-05-31T11:05:46Z</time>
</trkpt>
<trkpt lat="49.455015" lon="10.13274">
<ele>384</ele>
<time>2019-05-31T11:05:51Z</time>
</trkpt>
<trkpt lat="49.454612" lon="10.132443">
<ele>381</ele>
<time>2019-05-31T11:05:56Z</time>
</trkpt>
<trkpt lat="49.454372" lon="10.13203">
<ele>378</ele>
<time>2019-05-31T11:06:01Z</time>
</trkpt>
<trkpt lat="49.454172" lon="10.13147">
<ele>377</ele>
<time>2019-05-31T11:06:06Z</time>
</trkpt>
<trkpt lat="49.453958" lon="10.13086">
<ele>376</ele>
<time>2019-05-31T11:06:11Z</time>
</trkpt>
<trkpt lat="49.45371" lon="10.130327">
<ele>374</ele>
<time>2019-05-31T11:06:16Z</time>
</trkpt>
<trkpt lat="49.453435" lon="10.129787">
<ele>372</ele>
<time>2019-05-31T11:06:21Z</time>
</trkpt>
<trkpt lat="49.453208" lon="10.129132">
<ele>368</ele>
<time>2019-05-31T11:06:26Z</time>
</trkpt>
<trkpt lat="49.453078" lon="10.12832">
<ele>366</ele>
<time>2019-05-31T11:06:31Z</time>
</trkpt>
<trkpt lat="49.453022" lon="10.127488">
<ele>362</ele>
<time>2019-05-31T11:06:36Z</time>
</trkpt>
<trkpt lat="49.452893" lon="10.126773">
<ele>360</ele>
<time>2019-05-31T11:06:41Z</time>
</trkpt>
<trkpt lat="49.452742" lon="10.126052">
<ele>357</ele>
<time>2019-05-31T11:06:46Z</time>
</trkpt>
<trkpt lat="49.452525" lon="10.125307">
<ele>353</ele>
<time>2019-05-31T11:06:51Z</time>
</trkpt>
<trkpt lat="49.452338" lon="10.124533">
<ele>351</ele>
<time>2019-05-31T11:06:56Z</time>
</trkpt>
<trkpt lat="49.4522" lon="10.123737">
<ele>347</ele>
<time>2019-05-31T11:07:01Z</time>
</trkpt>
<trkpt lat="49.452037" lon="10.122972">
<ele>345</ele>
<time>2019-05-31T11:07:06Z</time>
</trkpt>
<trkpt lat="49.451872" lon="10.122212">
<ele>342</ele>
<time>2019-05-31T11:07:11Z</time>
</trkpt>
<trkpt lat="49.451692" lon="10.12154">
<ele>339</ele>
<time>2019-05-31T11:07:16Z</time>
</trkpt>
<trkpt lat="49.451472" lon="10.120845">
<ele>337</ele>
<time>2019-05-31T11:07:21Z</time>
</trkpt>
<trkpt lat="49.45121" lon="10.12017">
<ele>333</ele>
<time>2019-05-31T11:07:26Z</time>
</trkpt>
<trkpt lat="49.450903" lon="10.119603">
<ele>328</ele>
<time>2019-05-31T11:07:31Z</time>
</trkpt>
<trkpt lat="49.45052" lon="10.119118">
<ele>325</ele>
<time>2019-05-31T11:07:36Z</time>
</trkpt>
<trkpt lat="49.450117" lon="10.118735">
<ele>321</ele>
<time>2019-05-31T11:07:41Z</time>
</trkpt>
<trkpt lat="49.449673" lon="10.118352">
<ele>317</ele>
<time>2019-05-31T11:07:46Z</time>
</trkpt>
<trkpt lat="49.449277" lon="10.118073">
<ele>314</ele>
<time>2019-05-31T11:07:51Z</time>
</trkpt>
<trkpt lat="49.448933" lon="10.11785">
<ele>310</ele>
<time>2019-05-31T11:07:56Z</time>
</trkpt>
<trkpt lat="49.448612" lon="10.117675">
<ele>307</ele>
<time>2019-05-31T11:08:01Z</time>
</trkpt>
<trkpt lat="49.448283" lon="10.11761">
<ele>304</ele>
<time>2019-05-31T11:08:06Z</time>
</trkpt>
<trkpt lat="49.447998" lon="10.117542">
<ele>301</ele>
<time>2019-05-31T11:08:11Z</time>
</trkpt>
<trkpt lat="49.447767" lon="10.117533">
<ele>297</ele>
<time>2019-05-31T11:08:16Z</time>
</trkpt>
<trkpt lat="49.447655" lon="10.117622">
<ele>295</ele>
<time>2019-05-31T11:08:21Z</time>
</trkpt>
<trkpt lat="49.447563" lon="10.117687">
<ele>293</ele>
<time>2019-05-31T11:08:26Z</time>
</trkpt>
<trkpt lat="49.447485" lon="10.117722">
<ele>292</ele>
<time>2019-05-31T11:08:31Z</time>
</trkpt>
<trkpt lat="49.44747" lon="10.117743">
<ele>291</ele>
<time>2019-05-31T11:08:36Z</time>
</trkpt>
<trkpt lat="49.447475" lon="10.11774">
<ele>291</ele>
<time>2019-05-31T11:08:41Z</time>
</trkpt>
<trkpt lat="49.447395" lon="10.117763">
<ele>291</ele>
<time>2019-05-31T11:08:56Z</time>
</trkpt>
<trkpt lat="49.44736" lon="10.11784">
<ele>290</ele>
<time>2019-05-31T11:09:01Z</time>
</trkpt>
<trkpt lat="49.447362" lon="10.117847">
<ele>290</ele>
<time>2019-05-31T11:09:06Z</time>
</trkpt>
<trkpt lat="49.44736" lon="10.117842">
<ele>290</ele>
<time>2019-05-31T11:09:11Z</time>
</trkpt>
<trkpt lat="49.447358" lon="10.117842">
<ele>290</ele>
<time>2019-05-31T11:09:16Z</time>
</trkpt>
<trkpt lat="49.447353" lon="10.117843">
<ele>290</ele>
<time>2019-05-31T11:09:21Z</time>
</trkpt>
<trkpt lat="49.44735" lon="10.117852">
<ele>290</ele>
<time>2019-05-31T11:09:26Z</time>
</trkpt>
<trkpt lat="49.447363" lon="10.117875">
<ele>290</ele>
<time>2019-05-31T11:09:31Z</time>
</trkpt>
<trkpt lat="49.44737" lon="10.117893">
<ele>290</ele>
<time>2019-05-31T11:09:36Z</time>
</trkpt>
<trkpt lat="49.447367" lon="10.11789">
<ele>290</ele>
<time>2019-05-31T11:09:41Z</time>
</trkpt>
<trkpt lat="49.447365" lon="10.11789">
<ele>290</ele>
<time>2019-05-31T11:09:46Z</time>
</trkpt>
<trkpt lat="49.447377" lon="10.117883">
<ele>290</ele>
<time>2019-05-31T11:09:56Z</time>
</trkpt>
<trkpt lat="49.447385" lon="10.117878">
<ele>290</ele>
<time>2019-05-31T11:10:01Z</time>
</trkpt>
<trkpt lat="49.447388" lon="10.117877">
<ele>290</ele>
<time>2019-05-31T11:10:06Z</time>
</trkpt>
<trkpt lat="49.447392" lon="10.117875">
<ele>290</ele>
<time>2019-05-31T11:10:11Z</time>
</trkpt>
<trkpt lat="49.447398" lon="10.117875">
<ele>290</ele>
<time>2019-05-31T11:10:16Z</time>
</trkpt>
<trkpt lat="49.447407" lon="10.117872">
<ele>290</ele>
<time>2019-05-31T11:10:21Z</time>
</trkpt>
<trkpt lat="49.447408" lon="10.117872">
<ele>290</ele>
<time>2019-05-31T11:10:26Z</time>
</trkpt>
<trkpt lat="49.44746" lon="10.118013">
<ele>290</ele>
<time>2019-05-31T11:10:31Z</time>
</trkpt>
<trkpt lat="49.447445" lon="10.118248">
<ele>290</ele>
<time>2019-05-31T11:10:36Z</time>
</trkpt>
<trkpt lat="49.447443" lon="10.118455">
<ele>290</ele>
<time>2019-05-31T11:10:41Z</time>
</trkpt>
<trkpt lat="49.447428" lon="10.118493">
<ele>290</ele>
<time>2019-05-31T11:10:46Z</time>
</trkpt>
<trkpt lat="49.447428" lon="10.118487">
<ele>290</ele>
<time>2019-05-31T11:10:51Z</time>
</trkpt>
<trkpt lat="49.44743" lon="10.118488">
<ele>290</ele>
<time>2019-05-31T11:10:56Z</time>
</trkpt>
<trkpt lat="49.44743" lon="10.11849">
<ele>290</ele>
<time>2019-05-31T11:11:06Z</time>
</trkpt>
<trkpt lat="49.447432" lon="10.118503">
<ele>290</ele>
<time>2019-05-31T11:11:16Z</time>
</trkpt>
<trkpt lat="49.447433" lon="10.118537">
<ele>290</ele>
<time>2019-05-31T11:11:21Z</time>
</trkpt>
<trkpt lat="49.447435" lon="10.118547">
<ele>290</ele>
<time>2019-05-31T11:11:26Z</time>
</trkpt>
<trkpt lat="49.447433" lon="10.118567">
<ele>290</ele>
<time>2019-05-31T11:11:31Z</time>
</trkpt>
<trkpt lat="49.44743" lon="10.118572">
<ele>290</ele>
<time>2019-05-31T11:11:36Z</time>
</trkpt>
<trkpt lat="49.447428" lon="10.118572">
<ele>290</ele>
<time>2019-05-31T11:11:41Z</time>
</trkpt>
<trkpt lat="49.447425" lon="10.118577">
<ele>290</ele>
<time>2019-05-31T11:11:46Z</time>
</trkpt>
<trkpt lat="49.447425" lon="10.118578">
<ele>290</ele>
<time>2019-05-31T11:12:01Z</time>
</trkpt>
<trkpt lat="49.447427" lon="10.11859">
<ele>290</ele>
<time>2019-05-31T11:14:01Z</time>
</trkpt>
<trkpt lat="49.447418" lon="10.118707">
<ele>290</ele>
<time>2019-05-31T11:14:06Z</time>
</trkpt>
<trkpt lat="49.447353" lon="10.119033">
<ele>290</ele>
<time>2019-05-31T11:14:11Z</time>
</trkpt>
<trkpt lat="49.44729" lon="10.119407">
<ele>290</ele>
<time>2019-05-31T11:14:16Z</time>
</trkpt>
<trkpt lat="49.44715" lon="10.119538">
<ele>290</ele>
<time>2019-05-31T11:14:21Z</time>
</trkpt>
<trkpt lat="49.446908" lon="10.119552">
<ele>290</ele>
<time>2019-05-31T11:14:26Z</time>
</trkpt>
<trkpt lat="49.446722" lon="10.119802">
<ele>289</ele>
<time>2019-05-31T11:14:31Z</time>
</trkpt>
<trkpt lat="49.446635" lon="10.120258">
<ele>288</ele>
<time>2019-05-31T11:14:36Z</time>
</trkpt>
<trkpt lat="49.446452" lon="10.120633">
<ele>288</ele>
<time>2019-05-31T11:14:41Z</time>
</trkpt>
<trkpt lat="49.446163" lon="10.120673">
<ele>288</ele>
<time>2019-05-31T11:14:46Z</time>
</trkpt>
<trkpt lat="49.445965" lon="10.120727">
<ele>289</ele>
<time>2019-05-31T11:14:51Z</time>
</trkpt>
<trkpt lat="49.445873" lon="10.120953">
<ele>291</ele>
<time>2019-05-31T11:14:56Z</time>
</trkpt>
<trkpt lat="49.445757" lon="10.12125">
<ele>292</ele>
<time>2019-05-31T11:15:01Z</time>
</trkpt>
<trkpt lat="49.445628" lon="10.121607">
<ele>293</ele>
<time>2019-05-31T11:15:06Z</time>
</trkpt>
<trkpt lat="49.445478" lon="10.122007">
<ele>293</ele>
<time>2019-05-31T11:15:11Z</time>
</trkpt>
<trkpt lat="49.44528" lon="10.12243">
<ele>293</ele>
<time>2019-05-31T11:15:16Z</time>
</trkpt>
<trkpt lat="49.445055" lon="10.122833">
<ele>292</ele>
<time>2019-05-31T11:15:21Z</time>
</trkpt>
<trkpt lat="49.444792" lon="10.123057">
<ele>292</ele>
<time>2019-05-31T11:15:26Z</time>
</trkpt>
<trkpt lat="49.444588" lon="10.123178">
<ele>293</ele>
<time>2019-05-31T11:15:31Z</time>
</trkpt>
<trkpt lat="49.44441" lon="10.123292">
<ele>295</ele>
<time>2019-05-31T11:15:36Z</time>
</trkpt>
<trkpt lat="49.44422" lon="10.123408">
<ele>296</ele>
<time>2019-05-31T11:15:41Z</time>
</trkpt>
<trkpt lat="49.44402" lon="10.12357">
<ele>296</ele>
<time>2019-05-31T11:15:46Z</time>
</trkpt>
<trkpt lat="49.443813" lon="10.123763">
<ele>297</ele>
<time>2019-05-31T11:15:51Z</time>
</trkpt>
<trkpt lat="49.4436" lon="10.123987">
<ele>297</ele>
<time>2019-05-31T11:15:56Z</time>
</trkpt>
<trkpt lat="49.443387" lon="10.124227">
<ele>297</ele>
<time>2019-05-31T11:16:01Z</time>
</trkpt>
<trkpt lat="49.443178" lon="10.124458">
<ele>297</ele>
<time>2019-05-31T11:16:06Z</time>
</trkpt>
<trkpt lat="49.442977" lon="10.12469">
<ele>297</ele>
<time>2019-05-31T11:16:11Z</time>
</trkpt>
<trkpt lat="49.442797" lon="10.124918">
<ele>297</ele>
<time>2019-05-31T11:16:16Z</time>
</trkpt>
<trkpt lat="49.442613" lon="10.125145">
<ele>298</ele>
<time>2019-05-31T11:16:21Z</time>
</trkpt>
<trkpt lat="49.442445" lon="10.1254">
<ele>298</ele>
<time>2019-05-31T11:16:26Z</time>
</trkpt>
<trkpt lat="49.44229" lon="10.125663">
<ele>299</ele>
<time>2019-05-31T11:16:31Z</time>
</trkpt>
<trkpt lat="49.442138" lon="10.12591">
<ele>300</ele>
<time>2019-05-31T11:16:36Z</time>
</trkpt>
<trkpt lat="49.441983" lon="10.126107">
<ele>301</ele>
<time>2019-05-31T11:16:41Z</time>
</trkpt>
<trkpt lat="49.441837" lon="10.126292">
<ele>302</ele>
<time>2019-05-31T11:16:46Z</time>
</trkpt>
<trkpt lat="49.441698" lon="10.126478">
<ele>303</ele>
<time>2019-05-31T11:16:51Z</time>
</trkpt>
<trkpt lat="49.44156" lon="10.126648">
<ele>304</ele>
<time>2019-05-31T11:16:56Z</time>
</trkpt>
<trkpt lat="49.44142" lon="10.12681">
<ele>304</ele>
<time>2019-05-31T11:17:01Z</time>
</trkpt>
<trkpt lat="49.441288" lon="10.126975">
<ele>305</ele>
<time>2019-05-31T11:17:06Z</time>
</trkpt>
<trkpt lat="49.441155" lon="10.127117">
<ele>306</ele>
<time>2019-05-31T11:17:11Z</time>
</trkpt>
<trkpt lat="49.441023" lon="10.12726">
<ele>306</ele>
<time>2019-05-31T11:17:16Z</time>
</trkpt>
<trkpt lat="49.440905" lon="10.127457">
<ele>307</ele>
<time>2019-05-31T11:17:21Z</time>
</trkpt>
<trkpt lat="49.44081" lon="10.12778">
<ele>307</ele>
<time>2019-05-31T11:17:26Z</time>
</trkpt>
<trkpt lat="49.440675" lon="10.128288">
<ele>305</ele>
<time>2019-05-31T11:17:31Z</time>
</trkpt>
<trkpt lat="49.44054" lon="10.12894">
<ele>300</ele>
<time>2019-05-31T11:17:36Z</time>
</trkpt>
<trkpt lat="49.44053" lon="10.129735">
<ele>296</ele>
<time>2019-05-31T11:17:41Z</time>
</trkpt>
<trkpt lat="49.440557" lon="10.130607">
<ele>294</ele>
<time>2019-05-31T11:17:46Z</time>
</trkpt>
<trkpt lat="49.440508" lon="10.1314">
<ele>293</ele>
<time>2019-05-31T11:17:51Z</time>
</trkpt>
<trkpt lat="49.440473" lon="10.132125">
<ele>292</ele>
<time>2019-05-31T11:17:56Z</time>
</trkpt>
<trkpt lat="49.440462" lon="10.132762">
<ele>292</ele>
<time>2019-05-31T11:18:01Z</time>
</trkpt>
<trkpt lat="49.440455" lon="10.13331">
<ele>292</ele>
<time>2019-05-31T11:18:06Z</time>
</trkpt>
<trkpt lat="49.440428" lon="10.133763">
<ele>292</ele>
<time>2019-05-31T11:18:11Z</time>
</trkpt>
<trkpt lat="49.440363" lon="10.1342">
<ele>292</ele>
<time>2019-05-31T11:18:16Z</time>
</trkpt>
<trkpt lat="49.440263" lon="10.134627">
<ele>292</ele>
<time>2019-05-31T11:18:21Z</time>
</trkpt>
<trkpt lat="49.44013" lon="10.135005">
<ele>292</ele>
<time>2019-05-31T11:18:26Z</time>
</trkpt>
<trkpt lat="49.43993" lon="10.135365">
<ele>292</ele>
<time>2019-05-31T11:18:31Z</time>
</trkpt>
<trkpt lat="49.439672" lon="10.135615">
<ele>292</ele>
<time>2019-05-31T11:18:36Z</time>
</trkpt>
<trkpt lat="49.439393" lon="10.135812">
<ele>292</ele>
<time>2019-05-31T11:18:41Z</time>
</trkpt>
<trkpt lat="49.43913" lon="10.136028">
<ele>292</ele>
<time>2019-05-31T11:18:46Z</time>
</trkpt>
<trkpt lat="49.438885" lon="10.13624">
<ele>292</ele>
<time>2019-05-31T11:18:51Z</time>
</trkpt>
<trkpt lat="49.43866" lon="10.136438">
<ele>292</ele>
<time>2019-05-31T11:18:56Z</time>
</trkpt>
<trkpt lat="49.438448" lon="10.136595">
<ele>292</ele>
<time>2019-05-31T11:19:01Z</time>
</trkpt>
<trkpt lat="49.438208" lon="10.136753">
<ele>292</ele>
<time>2019-05-31T11:19:06Z</time>
</trkpt>
<trkpt lat="49.437957" lon="10.136892">
<ele>293</ele>
<time>2019-05-31T11:19:11Z</time>
</trkpt>
<trkpt lat="49.437672" lon="10.136998">
<ele>293</ele>
<time>2019-05-31T11:19:16Z</time>
</trkpt>
<trkpt lat="49.437393" lon="10.13709">
<ele>293</ele>
<time>2019-05-31T11:19:21Z</time>
</trkpt>
<trkpt lat="49.437118" lon="10.137182">
<ele>293</ele>
<time>2019-05-31T11:19:26Z</time>
</trkpt>
<trkpt lat="49.436837" lon="10.137242">
<ele>293</ele>
<time>2019-05-31T11:19:31Z</time>
</trkpt>
<trkpt lat="49.43656" lon="10.137232">
<ele>293</ele>
<time>2019-05-31T11:19:36Z</time>
</trkpt>
<trkpt lat="49.436305" lon="10.137213">
<ele>294</ele>
<time>2019-05-31T11:19:41Z</time>
</trkpt>
<trkpt lat="49.43613" lon="10.137288">
<ele>295</ele>
<time>2019-05-31T11:19:46Z</time>
</trkpt>
<trkpt lat="49.436028" lon="10.137405">
<ele>296</ele>
<time>2019-05-31T11:19:51Z</time>
</trkpt>
<trkpt lat="49.435867" lon="10.137677">
<ele>296</ele>
<time>2019-05-31T11:19:56Z</time>
</trkpt>
<trkpt lat="49.435777" lon="10.138118">
<ele>296</ele>
<time>2019-05-31T11:20:01Z</time>
</trkpt>
<trkpt lat="49.435717" lon="10.138585">
<ele>295</ele>
<time>2019-05-31T11:20:06Z</time>
</trkpt>
<trkpt lat="49.435655" lon="10.139047">
<ele>295</ele>
<time>2019-05-31T11:20:11Z</time>
</trkpt>
<trkpt lat="49.43551" lon="10.13945">
<ele>295</ele>
<time>2019-05-31T11:20:16Z</time>
</trkpt>
<trkpt lat="49.435277" lon="10.13974">
<ele>295</ele>
<time>2019-05-31T11:20:21Z</time>
</trkpt>
<trkpt lat="49.435003" lon="10.139962">
<ele>295</ele>
<time>2019-05-31T11:20:26Z</time>
</trkpt>
<trkpt lat="49.434737" lon="10.140182">
<ele>295</ele>
<time>2019-05-31T11:20:31Z</time>
</trkpt>
<trkpt lat="49.43449" lon="10.140405">
<ele>295</ele>
<time>2019-05-31T11:20:36Z</time>
</trkpt>
<trkpt lat="49.434252" lon="10.140587">
<ele>295</ele>
<time>2019-05-31T11:20:41Z</time>
</trkpt>
<trkpt lat="49.434018" lon="10.140613">
<ele>295</ele>
<time>2019-05-31T11:20:46Z</time>
</trkpt>
<trkpt lat="49.433792" lon="10.140517">
<ele>295</ele>
<time>2019-05-31T11:20:51Z</time>
</trkpt>
<trkpt lat="49.43357" lon="10.140385">
<ele>296</ele>
<time>2019-05-31T11:20:56Z</time>
</trkpt>
<trkpt lat="49.433355" lon="10.140245">
<ele>296</ele>
<time>2019-05-31T11:21:01Z</time>
</trkpt>
<trkpt lat="49.433142" lon="10.140112">
<ele>297</ele>
<time>2019-05-31T11:21:06Z</time>
</trkpt>
<trkpt lat="49.432928" lon="10.139962">
<ele>298</ele>
<time>2019-05-31T11:21:11Z</time>
</trkpt>
<trkpt lat="49.432728" lon="10.139843">
<ele>299</ele>
<time>2019-05-31T11:21:16Z</time>
</trkpt>
<trkpt lat="49.432525" lon="10.139798">
<ele>299</ele>
<time>2019-05-31T11:21:21Z</time>
</trkpt>
<trkpt lat="49.432293" lon="10.139862">
<ele>299</ele>
<time>2019-05-31T11:21:26Z</time>
</trkpt>
<trkpt lat="49.432015" lon="10.140058">
<ele>299</ele>
<time>2019-05-31T11:21:31Z</time>
</trkpt>
<trkpt lat="49.431728" lon="10.140257">
<ele>299</ele>
<time>2019-05-31T11:21:36Z</time>
</trkpt>
<trkpt lat="49.431452" lon="10.14044">
<ele>298</ele>
<time>2019-05-31T11:21:41Z</time>
</trkpt>
<trkpt lat="49.43119" lon="10.140628">
<ele>298</ele>
<time>2019-05-31T11:21:46Z</time>
</trkpt>
<trkpt lat="49.430907" lon="10.140817">
<ele>298</ele>
<time>2019-05-31T11:21:51Z</time>
</trkpt>
<trkpt lat="49.430608" lon="10.141032">
<ele>297</ele>
<time>2019-05-31T11:21:56Z</time>
</trkpt>
<trkpt lat="49.430322" lon="10.141233">
<ele>297</ele>
<time>2019-05-31T11:22:01Z</time>
</trkpt>
<trkpt lat="49.430058" lon="10.141422">
<ele>297</ele>
<time>2019-05-31T11:22:06Z</time>
</trkpt>
<trkpt lat="49.429782" lon="10.141612">
<ele>297</ele>
<time>2019-05-31T11:22:11Z</time>
</trkpt>
<trkpt lat="49.4295" lon="10.141812">
<ele>297</ele>
<time>2019-05-31T11:22:16Z</time>
</trkpt>
<trkpt lat="49.429235" lon="10.141997">
<ele>297</ele>
<time>2019-05-31T11:22:21Z</time>
</trkpt>
<trkpt lat="49.428978" lon="10.142155">
<ele>297</ele>
<time>2019-05-31T11:22:26Z</time>
</trkpt>
<trkpt lat="49.428715" lon="10.142217">
<ele>297</ele>
<time>2019-05-31T11:22:31Z</time>
</trkpt>
<trkpt lat="49.428432" lon="10.142225">
<ele>297</ele>
<time>2019-05-31T11:22:36Z</time>
</trkpt>
<trkpt lat="49.428138" lon="10.142212">
<ele>298</ele>
<time>2019-05-31T11:22:41Z</time>
</trkpt>
<trkpt lat="49.427838" lon="10.142242">
<ele>299</ele>
<time>2019-05-31T11:22:46Z</time>
</trkpt>
<trkpt lat="49.427578" lon="10.14237">
<ele>301</ele>
<time>2019-05-31T11:22:51Z</time>
</trkpt>
<trkpt lat="49.42737" lon="10.142533">
<ele>302</ele>
<time>2019-05-31T11:22:56Z</time>
</trkpt>
<trkpt lat="49.427172" lon="10.142705">
<ele>303</ele>
<time>2019-05-31T11:23:01Z</time>
</trkpt>
<trkpt lat="49.4269" lon="10.142947">
<ele>303</ele>
<time>2019-05-31T11:23:06Z</time>
</trkpt>
<trkpt lat="49.426568" lon="10.143267">
<ele>301</ele>
<time>2019-05-31T11:23:11Z</time>
</trkpt>
<trkpt lat="49.42624" lon="10.143578">
<ele>299</ele>
<time>2019-05-31T11:23:16Z</time>
</trkpt>
<trkpt lat="49.42595" lon="10.143838">
<ele>299</ele>
<time>2019-05-31T11:23:21Z</time>
</trkpt>
<trkpt lat="49.425675" lon="10.144098">
<ele>299</ele>
<time>2019-05-31T11:23:26Z</time>
</trkpt>
<trkpt lat="49.425388" lon="10.14435">
<ele>299</ele>
<time>2019-05-31T11:23:31Z</time>
</trkpt>
<trkpt lat="49.425085" lon="10.144527">
<ele>299</ele>
<time>2019-05-31T11:23:36Z</time>
</trkpt>
<trkpt lat="49.424792" lon="10.144627">
<ele>299</ele>
<time>2019-05-31T11:23:41Z</time>
</trkpt>
<trkpt lat="49.4245" lon="10.144712">
<ele>299</ele>
<time>2019-05-31T11:23:46Z</time>
</trkpt>
<trkpt lat="49.424198" lon="10.144802">
<ele>300</ele>
<time>2019-05-31T11:23:51Z</time>
</trkpt>
<trkpt lat="49.423917" lon="10.144922">
<ele>300</ele>
<time>2019-05-31T11:23:56Z</time>
</trkpt>
<trkpt lat="49.423643" lon="10.14507">
<ele>300</ele>
<time>2019-05-31T11:24:01Z</time>
</trkpt>
<trkpt lat="49.423368" lon="10.14524">
<ele>300</ele>
<time>2019-05-31T11:24:06Z</time>
</trkpt>
<trkpt lat="49.423127" lon="10.145438">
<ele>301</ele>
<time>2019-05-31T11:24:11Z</time>
</trkpt>
<trkpt lat="49.42293" lon="10.14559">
<ele>302</ele>
<time>2019-05-31T11:24:16Z</time>
</trkpt>
<trkpt lat="49.422745" lon="10.145697">
<ele>304</ele>
<time>2019-05-31T11:24:21Z</time>
</trkpt>
<trkpt lat="49.422583" lon="10.145765">
<ele>305</ele>
<time>2019-05-31T11:24:26Z</time>
</trkpt>
<trkpt lat="49.42243" lon="10.14585">
<ele>306</ele>
<time>2019-05-31T11:24:31Z</time>
</trkpt>
<trkpt lat="49.422312" lon="10.1459">
<ele>307</ele>
<time>2019-05-31T11:24:36Z</time>
</trkpt>
<trkpt lat="49.422193" lon="10.14593">
<ele>308</ele>
<time>2019-05-31T11:24:41Z</time>
</trkpt>
<trkpt lat="49.422033" lon="10.14599">
<ele>309</ele>
<time>2019-05-31T11:24:46Z</time>
</trkpt>
<trkpt lat="49.4219" lon="10.146122">
<ele>309</ele>
<time>2019-05-31T11:24:51Z</time>
</trkpt>
<trkpt lat="49.421757" lon="10.146283">
<ele>309</ele>
<time>2019-05-31T11:24:56Z</time>
</trkpt>
<trkpt lat="49.42157" lon="10.146535">
<ele>309</ele>
<time>2019-05-31T11:25:01Z</time>
</trkpt>
<trkpt lat="49.421283" lon="10.146975">
<ele>307</ele>
<time>2019-05-31T11:25:06Z</time>
</trkpt>
<trkpt lat="49.420998" lon="10.14744">
<ele>306</ele>
<time>2019-05-31T11:25:11Z</time>
</trkpt>
<trkpt lat="49.420765" lon="10.147952">
<ele>305</ele>
<time>2019-05-31T11:25:16Z</time>
</trkpt>
<trkpt lat="49.42056" lon="10.14842">
<ele>304</ele>
<time>2019-05-31T11:25:21Z</time>
</trkpt>
<trkpt lat="49.420413" lon="10.148815">
<ele>304</ele>
<time>2019-05-31T11:25:26Z</time>
</trkpt>
<trkpt lat="49.420267" lon="10.149102">
<ele>303</ele>
<time>2019-05-31T11:25:31Z</time>
</trkpt>
<trkpt lat="49.42012" lon="10.149268">
<ele>303</ele>
<time>2019-05-31T11:25:36Z</time>
</trkpt>
<trkpt lat="49.420097" lon="10.149272">
<ele>303</ele>
<time>2019-05-31T11:25:41Z</time>
</trkpt>
<trkpt lat="49.420093" lon="10.149283">
<ele>303</ele>
<time>2019-05-31T11:25:46Z</time>
</trkpt>
<trkpt lat="49.420082" lon="10.149285">
<ele>303</ele>
<time>2019-05-31T11:26:21Z</time>
</trkpt>
<trkpt lat="49.420067" lon="10.149298">
<ele>303</ele>
<time>2019-05-31T11:26:26Z</time>
</trkpt>
<trkpt lat="49.420048" lon="10.149315">
<ele>303</ele>
<time>2019-05-31T11:26:31Z</time>
</trkpt>
<trkpt lat="49.420042" lon="10.149323">
<ele>303</ele>
<time>2019-05-31T11:26:36Z</time>
</trkpt>
<trkpt lat="49.420043" lon="10.149323">
<ele>303</ele>
<time>2019-05-31T11:26:41Z</time>
</trkpt>
<trkpt lat="49.420042" lon="10.149323">
<ele>303</ele>
<time>2019-05-31T11:26:46Z</time>
</trkpt>
<trkpt lat="49.420042" lon="10.149322">
<ele>303</ele>
<time>2019-05-31T11:26:51Z</time>
</trkpt>
<trkpt lat="49.420042" lon="10.149323">
<ele>303</ele>
<time>2019-05-31T11:26:56Z</time>
</trkpt>
<trkpt lat="49.420037" lon="10.149328">
<ele>303</ele>
<time>2019-05-31T11:27:01Z</time>
</trkpt>
<trkpt lat="49.420025" lon="10.149338">
<ele>303</ele>
<time>2019-05-31T11:27:06Z</time>
</trkpt>
<trkpt lat="49.420025" lon="10.14934">
<ele>303</ele>
<time>2019-05-31T11:27:11Z</time>
</trkpt>
<trkpt lat="49.420025" lon="10.149342">
<ele>303</ele>
<time>2019-05-31T11:27:16Z</time>
</trkpt>
<trkpt lat="49.420025" lon="10.14934">
<ele>303</ele>
<time>2019-05-31T11:27:21Z</time>
</trkpt>
<trkpt lat="49.420025" lon="10.149342">
<ele>303</ele>
<time>2019-05-31T11:27:31Z</time>
</trkpt>
<trkpt lat="49.420025" lon="10.14934">
<ele>303</ele>
<time>2019-05-31T11:27:46Z</time>
</trkpt>
<trkpt lat="49.420023" lon="10.149338">
<ele>303</ele>
<time>2019-05-31T11:28:11Z</time>
</trkpt>
<trkpt lat="49.420023" lon="10.149343">
<ele>303</ele>
<time>2019-05-31T11:28:26Z</time>
</trkpt>
<trkpt lat="49.420023" lon="10.149338">
<ele>303</ele>
<time>2019-05-31T11:28:31Z</time>
</trkpt>
<trkpt lat="49.42" lon="10.149352">
<ele>303</ele>
<time>2019-05-31T11:28:41Z</time>
</trkpt>
<trkpt lat="49.419895" lon="10.149412">
<ele>303</ele>
<time>2019-05-31T11:28:46Z</time>
</trkpt>
<trkpt lat="49.419748" lon="10.149483">
<ele>303</ele>
<time>2019-05-31T11:28:51Z</time>
</trkpt>
<trkpt lat="49.419562" lon="10.149528">
<ele>303</ele>
<time>2019-05-31T11:28:56Z</time>
</trkpt>
<trkpt lat="49.41935" lon="10.149537">
<ele>304</ele>
<time>2019-05-31T11:29:01Z</time>
</trkpt>
<trkpt lat="49.419142" lon="10.149548">
<ele>304</ele>
<time>2019-05-31T11:29:06Z</time>
</trkpt>
<trkpt lat="49.418957" lon="10.149543">
<ele>304</ele>
<time>2019-05-31T11:29:11Z</time>
</trkpt>
<trkpt lat="49.418798" lon="10.149725">
<ele>304</ele>
<time>2019-05-31T11:29:16Z</time>
</trkpt>
<trkpt lat="49.418753" lon="10.150128">
<ele>304</ele>
<time>2019-05-31T11:29:21Z</time>
</trkpt>
<trkpt lat="49.41871" lon="10.150472">
<ele>303</ele>
<time>2019-05-31T11:29:26Z</time>
</trkpt>
<trkpt lat="49.418508" lon="10.150438">
<ele>303</ele>
<time>2019-05-31T11:29:31Z</time>
</trkpt>
<trkpt lat="49.418265" lon="10.150285">
<ele>303</ele>
<time>2019-05-31T11:29:36Z</time>
</trkpt>
<trkpt lat="49.418022" lon="10.150015">
<ele>303</ele>
<time>2019-05-31T11:29:41Z</time>
</trkpt>
<trkpt lat="49.417767" lon="10.149753">
<ele>303</ele>
<time>2019-05-31T11:29:46Z</time>
</trkpt>
<trkpt lat="49.41747" lon="10.149615">
<ele>303</ele>
<time>2019-05-31T11:29:51Z</time>
</trkpt>
<trkpt lat="49.417158" lon="10.149605">
<ele>303</ele>
<time>2019-05-31T11:29:57Z</time>
</trkpt>
<trkpt lat="49.416897" lon="10.149552">
<ele>303</ele>
<time>2019-05-31T11:30:02Z</time>
</trkpt>
<trkpt lat="49.416607" lon="10.149727">
<ele>304</ele>
<time>2019-05-31T11:30:08Z</time>
</trkpt>
<trkpt lat="49.416365" lon="10.149917">
<ele>304</ele>
<time>2019-05-31T11:30:13Z</time>
</trkpt>
<trkpt lat="49.416123" lon="10.150077">
<ele>305</ele>
<time>2019-05-31T11:30:18Z</time>
</trkpt>
<trkpt lat="49.415953" lon="10.150287">
<ele>306</ele>
<time>2019-05-31T11:30:23Z</time>
</trkpt>
<trkpt lat="49.415743" lon="10.150352">
<ele>307</ele>
<time>2019-05-31T11:30:29Z</time>
</trkpt>
<trkpt lat="49.415527" lon="10.150482">
<ele>307</ele>
<time>2019-05-31T11:30:34Z</time>
</trkpt>
<trkpt lat="49.41525" lon="10.150282">
<ele>306</ele>
<time>2019-05-31T11:30:40Z</time>
</trkpt>
<trkpt lat="49.414947" lon="10.150118">
<ele>305</ele>
<time>2019-05-31T11:30:45Z</time>
</trkpt>
<trkpt lat="49.414687" lon="10.150083">
<ele>305</ele>
<time>2019-05-31T11:30:50Z</time>
</trkpt>
<trkpt lat="49.414505" lon="10.149995">
<ele>305</ele>
<time>2019-05-31T11:30:55Z</time>
</trkpt>
<trkpt lat="49.414247" lon="10.14991">
<ele>306</ele>
<time>2019-05-31T11:31:01Z</time>
</trkpt>
<trkpt lat="49.414035" lon="10.150075">
<ele>307</ele>
<time>2019-05-31T11:31:06Z</time>
</trkpt>
<trkpt lat="49.413842" lon="10.150268">
<ele>308</ele>
<time>2019-05-31T11:31:11Z</time>
</trkpt>
<trkpt lat="49.41364" lon="10.150458">
<ele>308</ele>
<time>2019-05-31T11:31:16Z</time>
</trkpt>
<trkpt lat="49.413447" lon="10.150695">
<ele>309</ele>
<time>2019-05-31T11:31:21Z</time>
</trkpt>
<trkpt lat="49.41327" lon="10.15094">
<ele>309</ele>
<time>2019-05-31T11:31:26Z</time>
</trkpt>
<trkpt lat="49.413085" lon="10.151207">
<ele>309</ele>
<time>2019-05-31T11:31:31Z</time>
</trkpt>
<trkpt lat="49.412902" lon="10.151458">
<ele>310</ele>
<time>2019-05-31T11:31:36Z</time>
</trkpt>
<trkpt lat="49.412708" lon="10.151722">
<ele>310</ele>
<time>2019-05-31T11:31:41Z</time>
</trkpt>
<trkpt lat="49.412518" lon="10.151935">
<ele>310</ele>
<time>2019-05-31T11:31:46Z</time>
</trkpt>
<trkpt lat="49.412292" lon="10.152128">
<ele>311</ele>
<time>2019-05-31T11:31:52Z</time>
</trkpt>
<trkpt lat="49.41207" lon="10.152297">
<ele>311</ele>
<time>2019-05-31T11:31:57Z</time>
</trkpt>
<trkpt lat="49.411792" lon="10.152533">
<ele>311</ele>
<time>2019-05-31T11:32:02Z</time>
</trkpt>
<trkpt lat="49.411498" lon="10.152758">
<ele>310</ele>
<time>2019-05-31T11:32:07Z</time>
</trkpt>
<trkpt lat="49.4112" lon="10.152613">
<ele>308</ele>
<time>2019-05-31T11:32:12Z</time>
</trkpt>
<trkpt lat="49.410983" lon="10.152347">
<ele>308</ele>
<time>2019-05-31T11:32:17Z</time>
</trkpt>
<trkpt lat="49.410768" lon="10.152098">
<ele>308</ele>
<time>2019-05-31T11:32:22Z</time>
</trkpt>
<trkpt lat="49.410595" lon="10.151787">
<ele>308</ele>
<time>2019-05-31T11:32:27Z</time>
</trkpt>
<trkpt lat="49.410355" lon="10.151522">
<ele>308</ele>
<time>2019-05-31T11:32:33Z</time>
</trkpt>
<trkpt lat="49.41011" lon="10.15144">
<ele>308</ele>
<time>2019-05-31T11:32:38Z</time>
</trkpt>
<trkpt lat="49.409835" lon="10.151388">
<ele>308</ele>
<time>2019-05-31T11:32:43Z</time>
</trkpt>
<trkpt lat="49.409553" lon="10.151415">
<ele>308</ele>
<time>2019-05-31T11:32:48Z</time>
</trkpt>
<trkpt lat="49.409297" lon="10.151612">
<ele>308</ele>
<time>2019-05-31T11:32:53Z</time>
</trkpt>
<trkpt lat="49.409035" lon="10.151925">
<ele>308</ele>
<time>2019-05-31T11:32:59Z</time>
</trkpt>
<trkpt lat="49.408758" lon="10.152172">
<ele>308</ele>
<time>2019-05-31T11:33:05Z</time>
</trkpt>
<trkpt lat="49.408522" lon="10.152382">
<ele>308</ele>
<time>2019-05-31T11:33:10Z</time>
</trkpt>
<trkpt lat="49.408282" lon="10.152602">
<ele>308</ele>
<time>2019-05-31T11:33:15Z</time>
</trkpt>
<trkpt lat="49.40805" lon="10.152835">
<ele>308</ele>
<time>2019-05-31T11:33:20Z</time>
</trkpt>
<trkpt lat="49.407815" lon="10.153063">
<ele>308</ele>
<time>2019-05-31T11:33:25Z</time>
</trkpt>
<trkpt lat="49.407563" lon="10.153277">
<ele>308</ele>
<time>2019-05-31T11:33:30Z</time>
</trkpt>
<trkpt lat="49.407227" lon="10.153405">
<ele>308</ele>
<time>2019-05-31T11:33:36Z</time>
</trkpt>
<trkpt lat="49.406947" lon="10.15338">
<ele>308</ele>
<time>2019-05-31T11:33:41Z</time>
</trkpt>
<trkpt lat="49.406632" lon="10.153283">
<ele>308</ele>
<time>2019-05-31T11:33:47Z</time>
</trkpt>
<trkpt lat="49.406363" lon="10.153217">
<ele>308</ele>
<time>2019-05-31T11:33:52Z</time>
</trkpt>
<trkpt lat="49.40611" lon="10.153212">
<ele>308</ele>
<time>2019-05-31T11:33:57Z</time>
</trkpt>
<trkpt lat="49.40594" lon="10.15323">
<ele>309</ele>
<time>2019-05-31T11:34:02Z</time>
</trkpt>
<trkpt lat="49.405795" lon="10.153267">
<ele>309</ele>
<time>2019-05-31T11:34:07Z</time>
</trkpt>
<trkpt lat="49.405707" lon="10.153282">
<ele>310</ele>
<time>2019-05-31T11:34:12Z</time>
</trkpt>
<trkpt lat="49.405633" lon="10.153298">
<ele>310</ele>
<time>2019-05-31T11:34:17Z</time>
</trkpt>
<trkpt lat="49.405543" lon="10.153332">
<ele>310</ele>
<time>2019-05-31T11:34:22Z</time>
</trkpt>
<trkpt lat="49.405425" lon="10.153363">
<ele>311</ele>
<time>2019-05-31T11:34:27Z</time>
</trkpt>
<trkpt lat="49.405295" lon="10.153388">
<ele>312</ele>
<time>2019-05-31T11:34:32Z</time>
</trkpt>
<trkpt lat="49.40513" lon="10.15342">
<ele>313</ele>
<time>2019-05-31T11:34:37Z</time>
</trkpt>
<trkpt lat="49.40498" lon="10.153455">
<ele>314</ele>
<time>2019-05-31T11:34:42Z</time>
</trkpt>
<trkpt lat="49.404825" lon="10.153497">
<ele>315</ele>
<time>2019-05-31T11:34:47Z</time>
</trkpt>
<trkpt lat="49.40467" lon="10.153538">
<ele>316</ele>
<time>2019-05-31T11:34:52Z</time>
</trkpt>
<trkpt lat="49.404518" lon="10.153583">
<ele>317</ele>
<time>2019-05-31T11:34:57Z</time>
</trkpt>
<trkpt lat="49.404345" lon="10.153623">
<ele>318</ele>
<time>2019-05-31T11:35:02Z</time>
</trkpt>
<trkpt lat="49.404143" lon="10.15371">
<ele>319</ele>
<time>2019-05-31T11:35:08Z</time>
</trkpt>
<trkpt lat="49.403968" lon="10.15379">
<ele>319</ele>
<time>2019-05-31T11:35:13Z</time>
</trkpt>
<trkpt lat="49.403787" lon="10.15388">
<ele>320</ele>
<time>2019-05-31T11:35:18Z</time>
</trkpt>
<trkpt lat="49.403603" lon="10.153992">
<ele>320</ele>
<time>2019-05-31T11:35:23Z</time>
</trkpt>
<trkpt lat="49.403303" lon="10.154145">
<ele>320</ele>
<time>2019-05-31T11:35:29Z</time>
</trkpt>
<trkpt lat="49.402958" lon="10.154465">
<ele>318</ele>
<time>2019-05-31T11:35:34Z</time>
</trkpt>
<trkpt lat="49.40252" lon="10.155135">
<ele>314</ele>
<time>2019-05-31T11:35:40Z</time>
</trkpt>
<trkpt lat="49.402258" lon="10.155705">
<ele>313</ele>
<time>2019-05-31T11:35:45Z</time>
</trkpt>
<trkpt lat="49.402002" lon="10.156102">
<ele>312</ele>
<time>2019-05-31T11:35:50Z</time>
</trkpt>
<trkpt lat="49.401712" lon="10.156342">
<ele>312</ele>
<time>2019-05-31T11:35:55Z</time>
</trkpt>
<trkpt lat="49.401418" lon="10.156568">
<ele>312</ele>
<time>2019-05-31T11:36:00Z</time>
</trkpt>
<trkpt lat="49.401163" lon="10.156783">
<ele>312</ele>
<time>2019-05-31T11:36:05Z</time>
</trkpt>
<trkpt lat="49.400918" lon="10.156985">
<ele>312</ele>
<time>2019-05-31T11:36:10Z</time>
</trkpt>
<trkpt lat="49.400687" lon="10.157177">
<ele>313</ele>
<time>2019-05-31T11:36:15Z</time>
</trkpt>
<trkpt lat="49.400473" lon="10.157352">
<ele>313</ele>
<time>2019-05-31T11:36:20Z</time>
</trkpt>
<trkpt lat="49.400258" lon="10.15746">
<ele>314</ele>
<time>2019-05-31T11:36:25Z</time>
</trkpt>
<trkpt lat="49.400048" lon="10.157487">
<ele>314</ele>
<time>2019-05-31T11:36:30Z</time>
</trkpt>
<trkpt lat="49.399903" lon="10.15748">
<ele>315</ele>
<time>2019-05-31T11:36:35Z</time>
</trkpt>
<trkpt lat="49.399798" lon="10.157337">
<ele>316</ele>
<time>2019-05-31T11:36:40Z</time>
</trkpt>
<trkpt lat="49.399745" lon="10.157147">
<ele>317</ele>
<time>2019-05-31T11:36:45Z</time>
</trkpt>
<trkpt lat="49.39964" lon="10.157053">
<ele>318</ele>
<time>2019-05-31T11:36:50Z</time>
</trkpt>
<trkpt lat="49.399443" lon="10.15715">
<ele>318</ele>
<time>2019-05-31T11:36:55Z</time>
</trkpt>
<trkpt lat="49.399275" lon="10.157343">
<ele>318</ele>
<time>2019-05-31T11:37:00Z</time>
</trkpt>
<trkpt lat="49.399132" lon="10.157518">
<ele>318</ele>
<time>2019-05-31T11:37:05Z</time>
</trkpt>
<trkpt lat="49.399012" lon="10.157677">
<ele>319</ele>
<time>2019-05-31T11:37:10Z</time>
</trkpt>
<trkpt lat="49.398898" lon="10.15782">
<ele>321</ele>
<time>2019-05-31T11:37:15Z</time>
</trkpt>
<trkpt lat="49.398798" lon="10.157968">
<ele>322</ele>
<time>2019-05-31T11:37:20Z</time>
</trkpt>
<trkpt lat="49.398708" lon="10.15812">
<ele>323</ele>
<time>2019-05-31T11:37:25Z</time>
</trkpt>
<trkpt lat="49.398577" lon="10.158268">
<ele>324</ele>
<time>2019-05-31T11:37:30Z</time>
</trkpt>
<trkpt lat="49.398457" lon="10.158417">
<ele>325</ele>
<time>2019-05-31T11:37:35Z</time>
</trkpt>
<trkpt lat="49.398355" lon="10.158577">
<ele>326</ele>
<time>2019-05-31T11:37:40Z</time>
</trkpt>
<trkpt lat="49.398243" lon="10.158753">
<ele>326</ele>
<time>2019-05-31T11:37:45Z</time>
</trkpt>
<trkpt lat="49.398135" lon="10.15897">
<ele>327</ele>
<time>2019-05-31T11:37:50Z</time>
</trkpt>
<trkpt lat="49.39803" lon="10.159215">
<ele>327</ele>
<time>2019-05-31T11:37:55Z</time>
</trkpt>
<trkpt lat="49.397933" lon="10.15947">
<ele>327</ele>
<time>2019-05-31T11:38:00Z</time>
</trkpt>
<trkpt lat="49.397845" lon="10.159733">
<ele>328</ele>
<time>2019-05-31T11:38:05Z</time>
</trkpt>
<trkpt lat="49.397777" lon="10.159997">
<ele>328</ele>
<time>2019-05-31T11:38:10Z</time>
</trkpt>
<trkpt lat="49.397737" lon="10.160253">
<ele>329</ele>
<time>2019-05-31T11:38:15Z</time>
</trkpt>
<trkpt lat="49.39769" lon="10.16052">
<ele>330</ele>
<time>2019-05-31T11:38:20Z</time>
</trkpt>
<trkpt lat="49.397643" lon="10.160773">
<ele>330</ele>
<time>2019-05-31T11:38:25Z</time>
</trkpt>
<trkpt lat="49.397587" lon="10.16111">
<ele>330</ele>
<time>2019-05-31T11:38:30Z</time>
</trkpt>
<trkpt lat="49.397497" lon="10.161577">
<ele>329</ele>
<time>2019-05-31T11:38:35Z</time>
</trkpt>
<trkpt lat="49.397392" lon="10.162078">
<ele>328</ele>
<time>2019-05-31T11:38:40Z</time>
</trkpt>
<trkpt lat="49.397257" lon="10.162533">
<ele>328</ele>
<time>2019-05-31T11:38:45Z</time>
</trkpt>
<trkpt lat="49.3971" lon="10.162968">
<ele>328</ele>
<time>2019-05-31T11:38:50Z</time>
</trkpt>
<trkpt lat="49.396948" lon="10.163355">
<ele>328</ele>
<time>2019-05-31T11:38:55Z</time>
</trkpt>
<trkpt lat="49.39684" lon="10.163718">
<ele>328</ele>
<time>2019-05-31T11:39:00Z</time>
</trkpt>
<trkpt lat="49.39674" lon="10.16413">
<ele>328</ele>
<time>2019-05-31T11:39:05Z</time>
</trkpt>
<trkpt lat="49.396633" lon="10.164598">
<ele>327</ele>
<time>2019-05-31T11:39:10Z</time>
</trkpt>
<trkpt lat="49.396518" lon="10.165103">
<ele>326</ele>
<time>2019-05-31T11:39:15Z</time>
</trkpt>
<trkpt lat="49.3963" lon="10.165602">
<ele>324</ele>
<time>2019-05-31T11:39:20Z</time>
</trkpt>
<trkpt lat="49.39603" lon="10.166067">
<ele>324</ele>
<time>2019-05-31T11:39:25Z</time>
</trkpt>
<trkpt lat="49.395697" lon="10.166365">
<ele>323</ele>
<time>2019-05-31T11:39:30Z</time>
</trkpt>
<trkpt lat="49.395353" lon="10.166378">
<ele>323</ele>
<time>2019-05-31T11:39:35Z</time>
</trkpt>
<trkpt lat="49.395038" lon="10.166335">
<ele>323</ele>
<time>2019-05-31T11:39:40Z</time>
</trkpt>
<trkpt lat="49.394743" lon="10.166237">
<ele>323</ele>
<time>2019-05-31T11:39:45Z</time>
</trkpt>
<trkpt lat="49.394515" lon="10.16627">
<ele>323</ele>
<time>2019-05-31T11:39:50Z</time>
</trkpt>
<trkpt lat="49.394232" lon="10.166462">
<ele>322</ele>
<time>2019-05-31T11:39:55Z</time>
</trkpt>
<trkpt lat="49.393923" lon="10.16667">
<ele>321</ele>
<time>2019-05-31T11:40:00Z</time>
</trkpt>
<trkpt lat="49.39361" lon="10.166685">
<ele>320</ele>
<time>2019-05-31T11:40:05Z</time>
</trkpt>
<trkpt lat="49.393358" lon="10.166338">
<ele>320</ele>
<time>2019-05-31T11:40:10Z</time>
</trkpt>
<trkpt lat="49.393135" lon="10.165972">
<ele>319</ele>
<time>2019-05-31T11:40:15Z</time>
</trkpt>
<trkpt lat="49.392913" lon="10.16564">
<ele>319</ele>
<time>2019-05-31T11:40:20Z</time>
</trkpt>
<trkpt lat="49.39267" lon="10.16536">
<ele>319</ele>
<time>2019-05-31T11:40:25Z</time>
</trkpt>
<trkpt lat="49.392405" lon="10.165213">
<ele>319</ele>
<time>2019-05-31T11:40:30Z</time>
</trkpt>
<trkpt lat="49.392127" lon="10.165218">
<ele>319</ele>
<time>2019-05-31T11:40:35Z</time>
</trkpt>
<trkpt lat="49.39185" lon="10.165287">
<ele>320</ele>
<time>2019-05-31T11:40:40Z</time>
</trkpt>
<trkpt lat="49.391588" lon="10.165405">
<ele>320</ele>
<time>2019-05-31T11:40:45Z</time>
</trkpt>
<trkpt lat="49.391403" lon="10.165647">
<ele>320</ele>
<time>2019-05-31T11:40:50Z</time>
</trkpt>
<trkpt lat="49.391278" lon="10.165895">
<ele>320</ele>
<time>2019-05-31T11:40:55Z</time>
</trkpt>
<trkpt lat="49.39117" lon="10.16607">
<ele>322</ele>
<time>2019-05-31T11:41:00Z</time>
</trkpt>
<trkpt lat="49.391053" lon="10.166255">
<ele>322</ele>
<time>2019-05-31T11:41:05Z</time>
</trkpt>
<trkpt lat="49.390822" lon="10.166398">
<ele>322</ele>
<time>2019-05-31T11:41:10Z</time>
</trkpt>
<trkpt lat="49.390547" lon="10.166467">
<ele>322</ele>
<time>2019-05-31T11:41:15Z</time>
</trkpt>
<trkpt lat="49.390298" lon="10.16653">
<ele>322</ele>
<time>2019-05-31T11:41:20Z</time>
</trkpt>
<trkpt lat="49.390053" lon="10.166533">
<ele>322</ele>
<time>2019-05-31T11:41:25Z</time>
</trkpt>
<trkpt lat="49.389788" lon="10.166475">
<ele>322</ele>
<time>2019-05-31T11:41:30Z</time>
</trkpt>
<trkpt lat="49.389503" lon="10.166413">
<ele>321</ele>
<time>2019-05-31T11:41:35Z</time>
</trkpt>
<trkpt lat="49.389242" lon="10.166355">
<ele>321</ele>
<time>2019-05-31T11:41:40Z</time>
</trkpt>
<trkpt lat="49.388952" lon="10.166262">
<ele>321</ele>
<time>2019-05-31T11:41:45Z</time>
</trkpt>
<trkpt lat="49.388675" lon="10.166185">
<ele>321</ele>
<time>2019-05-31T11:41:50Z</time>
</trkpt>
<trkpt lat="49.388393" lon="10.166102">
<ele>321</ele>
<time>2019-05-31T11:41:55Z</time>
</trkpt>
<trkpt lat="49.38812" lon="10.16605">
<ele>321</ele>
<time>2019-05-31T11:42:00Z</time>
</trkpt>
<trkpt lat="49.38785" lon="10.166085">
<ele>321</ele>
<time>2019-05-31T11:42:05Z</time>
</trkpt>
<trkpt lat="49.387662" lon="10.166275">
<ele>321</ele>
<time>2019-05-31T11:42:10Z</time>
</trkpt>
<trkpt lat="49.38762" lon="10.166527">
<ele>321</ele>
<time>2019-05-31T11:42:15Z</time>
</trkpt>
<trkpt lat="49.387638" lon="10.166768">
<ele>321</ele>
<time>2019-05-31T11:42:20Z</time>
</trkpt>
<trkpt lat="49.387568" lon="10.16705">
<ele>321</ele>
<time>2019-05-31T11:42:25Z</time>
</trkpt>
<trkpt lat="49.387393" lon="10.167122">
<ele>321</ele>
<time>2019-05-31T11:42:30Z</time>
</trkpt>
<trkpt lat="49.38721" lon="10.167138">
<ele>322</ele>
<time>2019-05-31T11:42:35Z</time>
</trkpt>
<trkpt lat="49.387032" lon="10.16713">
<ele>323</ele>
<time>2019-05-31T11:42:40Z</time>
</trkpt>
<trkpt lat="49.386855" lon="10.167113">
<ele>323</ele>
<time>2019-05-31T11:42:45Z</time>
</trkpt>
<trkpt lat="49.386672" lon="10.167128">
<ele>323</ele>
<time>2019-05-31T11:42:50Z</time>
</trkpt>
<trkpt lat="49.386568" lon="10.167327">
<ele>323</ele>
<time>2019-05-31T11:42:55Z</time>
</trkpt>
<trkpt lat="49.386528" lon="10.167397">
<ele>323</ele>
<time>2019-05-31T11:43:00Z</time>
</trkpt>
<trkpt lat="49.38653" lon="10.167418">
<ele>323</ele>
<time>2019-05-31T11:43:05Z</time>
</trkpt>
<trkpt lat="49.386532" lon="10.16742">
<ele>323</ele>
<time>2019-05-31T11:43:10Z</time>
</trkpt>
<trkpt lat="49.386537" lon="10.167423">
<ele>323</ele>
<time>2019-05-31T11:43:15Z</time>
</trkpt>
<trkpt lat="49.386533" lon="10.167425">
<ele>323</ele>
<time>2019-05-31T11:43:20Z</time>
</trkpt>
<trkpt lat="49.386535" lon="10.167425">
<ele>323</ele>
<time>2019-05-31T11:43:30Z</time>
</trkpt>
<trkpt lat="49.386533" lon="10.167425">
<ele>323</ele>
<time>2019-05-31T11:43:40Z</time>
</trkpt>
<trkpt lat="49.386533" lon="10.167423">
<ele>323</ele>
<time>2019-05-31T11:43:45Z</time>
</trkpt>
<trkpt lat="49.386535" lon="10.167423">
<ele>323</ele>
<time>2019-05-31T11:44:30Z</time>
</trkpt>
<trkpt lat="49.386535" lon="10.167425">
<ele>323</ele>
<time>2019-05-31T11:44:35Z</time>
</trkpt>
<trkpt lat="49.386533" lon="10.167425">
<ele>323</ele>
<time>2019-05-31T11:44:50Z</time>
</trkpt>
<trkpt lat="49.386545" lon="10.167457">
<ele>323</ele>
<time>2019-05-31T11:44:55Z</time>
</trkpt>
<trkpt lat="49.386565" lon="10.167672">
<ele>323</ele>
<time>2019-05-31T11:45:00Z</time>
</trkpt>
<trkpt lat="49.386558" lon="10.16783">
<ele>325</ele>
<time>2019-05-31T11:45:05Z</time>
</trkpt>
<trkpt lat="49.386512" lon="10.167925">
<ele>325</ele>
<time>2019-05-31T11:45:10Z</time>
</trkpt>
<trkpt lat="49.386387" lon="10.167952">
<ele>325</ele>
<time>2019-05-31T11:45:15Z</time>
</trkpt>
<trkpt lat="49.386235" lon="10.167987">
<ele>325</ele>
<time>2019-05-31T11:45:20Z</time>
</trkpt>
<trkpt lat="49.386128" lon="10.167993">
<ele>324</ele>
<time>2019-05-31T11:45:25Z</time>
</trkpt>
<trkpt lat="49.386118" lon="10.167968">
<ele>324</ele>
<time>2019-05-31T11:45:30Z</time>
</trkpt>
<trkpt lat="49.386058" lon="10.168008">
<ele>324</ele>
<time>2019-05-31T11:45:35Z</time>
</trkpt>
<trkpt lat="49.385905" lon="10.168108">
<ele>324</ele>
<time>2019-05-31T11:45:40Z</time>
</trkpt>
<trkpt lat="49.385755" lon="10.168277">
<ele>324</ele>
<time>2019-05-31T11:45:45Z</time>
</trkpt>
<trkpt lat="49.38563" lon="10.168465">
<ele>324</ele>
<time>2019-05-31T11:45:50Z</time>
</trkpt>
<trkpt lat="49.385485" lon="10.168612">
<ele>324</ele>
<time>2019-05-31T11:45:55Z</time>
</trkpt>
<trkpt lat="49.385333" lon="10.16879">
<ele>324</ele>
<time>2019-05-31T11:46:00Z</time>
</trkpt>
<trkpt lat="49.385162" lon="10.168992">
<ele>324</ele>
<time>2019-05-31T11:46:05Z</time>
</trkpt>
<trkpt lat="49.384953" lon="10.169177">
<ele>324</ele>
<time>2019-05-31T11:46:10Z</time>
</trkpt>
<trkpt lat="49.384702" lon="10.169313">
<ele>324</ele>
<time>2019-05-31T11:46:15Z</time>
</trkpt>
<trkpt lat="49.384475" lon="10.169523">
<ele>324</ele>
<time>2019-05-31T11:46:20Z</time>
</trkpt>
<trkpt lat="49.38426" lon="10.169802">
<ele>324</ele>
<time>2019-05-31T11:46:25Z</time>
</trkpt>
<trkpt lat="49.38403" lon="10.170072">
<ele>324</ele>
<time>2019-05-31T11:46:30Z</time>
</trkpt>
<trkpt lat="49.383798" lon="10.170313">
<ele>324</ele>
<time>2019-05-31T11:46:35Z</time>
</trkpt>
<trkpt lat="49.383552" lon="10.170493">
<ele>324</ele>
<time>2019-05-31T11:46:40Z</time>
</trkpt>
<trkpt lat="49.3833" lon="10.170613">
<ele>324</ele>
<time>2019-05-31T11:46:45Z</time>
</trkpt>
<trkpt lat="49.383077" lon="10.170708">
<ele>325</ele>
<time>2019-05-31T11:46:50Z</time>
</trkpt>
<trkpt lat="49.382838" lon="10.1708">
<ele>325</ele>
<time>2019-05-31T11:46:55Z</time>
</trkpt>
<trkpt lat="49.382602" lon="10.170898">
<ele>325</ele>
<time>2019-05-31T11:47:00Z</time>
</trkpt>
<trkpt lat="49.382395" lon="10.170982">
<ele>325</ele>
<time>2019-05-31T11:47:05Z</time>
</trkpt>
<trkpt lat="49.382238" lon="10.171033">
<ele>326</ele>
<time>2019-05-31T11:47:10Z</time>
</trkpt>
<trkpt lat="49.382118" lon="10.171078">
<ele>327</ele>
<time>2019-05-31T11:47:15Z</time>
</trkpt>
<trkpt lat="49.382" lon="10.17112">
<ele>327</ele>
<time>2019-05-31T11:47:20Z</time>
</trkpt>
<trkpt lat="49.381915" lon="10.171158">
<ele>328</ele>
<time>2019-05-31T11:47:25Z</time>
</trkpt>
<trkpt lat="49.38187" lon="10.171177">
<ele>328</ele>
<time>2019-05-31T11:47:30Z</time>
</trkpt>
<trkpt lat="49.381862" lon="10.171183">
<ele>329</ele>
<time>2019-05-31T11:47:35Z</time>
</trkpt>
<trkpt lat="49.381848" lon="10.171187">
<ele>329</ele>
<time>2019-05-31T11:47:45Z</time>
</trkpt>
<trkpt lat="49.381832" lon="10.171188">
<ele>329</ele>
<time>2019-05-31T11:47:50Z</time>
</trkpt>
<trkpt lat="49.381773" lon="10.171207">
<ele>329</ele>
<time>2019-05-31T11:47:55Z</time>
</trkpt>
<trkpt lat="49.381758" lon="10.171308">
<ele>329</ele>
<time>2019-05-31T11:48:00Z</time>
</trkpt>
<trkpt lat="49.381792" lon="10.171408">
<ele>330</ele>
<time>2019-05-31T11:48:05Z</time>
</trkpt>
<trkpt lat="49.381833" lon="10.171482">
<ele>330</ele>
<time>2019-05-31T11:48:10Z</time>
</trkpt>
<trkpt lat="49.381927" lon="10.171627">
<ele>330</ele>
<time>2019-05-31T11:48:15Z</time>
</trkpt>
<trkpt lat="49.38206" lon="10.171777">
<ele>331</ele>
<time>2019-05-31T11:48:20Z</time>
</trkpt>
<trkpt lat="49.382208" lon="10.171867">
<ele>332</ele>
<time>2019-05-31T11:48:25Z</time>
</trkpt>
<trkpt lat="49.382373" lon="10.171932">
<ele>333</ele>
<time>2019-05-31T11:48:30Z</time>
</trkpt>
<trkpt lat="49.382558" lon="10.171955">
<ele>333</ele>
<time>2019-05-31T11:48:35Z</time>
</trkpt>
<trkpt lat="49.382737" lon="10.171955">
<ele>334</ele>
<time>2019-05-31T11:48:40Z</time>
</trkpt>
<trkpt lat="49.382902" lon="10.171908">
<ele>335</ele>
<time>2019-05-31T11:48:45Z</time>
</trkpt>
<trkpt lat="49.383057" lon="10.171865">
<ele>336</ele>
<time>2019-05-31T11:48:50Z</time>
</trkpt>
<trkpt lat="49.3832" lon="10.1718">
<ele>337</ele>
<time>2019-05-31T11:48:55Z</time>
</trkpt>
<trkpt lat="49.383342" lon="10.171722">
<ele>337</ele>
<time>2019-05-31T11:49:00Z</time>
</trkpt>
<trkpt lat="49.383485" lon="10.17164">
<ele>338</ele>
<time>2019-05-31T11:49:05Z</time>
</trkpt>
<trkpt lat="49.38361" lon="10.171555">
<ele>339</ele>
<time>2019-05-31T11:49:10Z</time>
</trkpt>
<trkpt lat="49.383747" lon="10.17145">
<ele>340</ele>
<time>2019-05-31T11:49:15Z</time>
</trkpt>
<trkpt lat="49.383885" lon="10.171332">
<ele>341</ele>
<time>2019-05-31T11:49:20Z</time>
</trkpt>
<trkpt lat="49.384007" lon="10.171215">
<ele>342</ele>
<time>2019-05-31T11:49:25Z</time>
</trkpt>
<trkpt lat="49.384127" lon="10.1711">
<ele>342</ele>
<time>2019-05-31T11:49:30Z</time>
</trkpt>
<trkpt lat="49.384265" lon="10.170995">
<ele>343</ele>
<time>2019-05-31T11:49:35Z</time>
</trkpt>
<trkpt lat="49.384375" lon="10.17087">
<ele>344</ele>
<time>2019-05-31T11:49:40Z</time>
</trkpt>
<trkpt lat="49.384497" lon="10.170742">
<ele>345</ele>
<time>2019-05-31T11:49:45Z</time>
</trkpt>
<trkpt lat="49.384618" lon="10.170613">
<ele>345</ele>
<time>2019-05-31T11:49:50Z</time>
</trkpt>
<trkpt lat="49.384735" lon="10.170482">
<ele>346</ele>
<time>2019-05-31T11:49:55Z</time>
</trkpt>
<trkpt lat="49.38485" lon="10.170355">
<ele>347</ele>
<time>2019-05-31T11:50:00Z</time>
</trkpt>
<trkpt lat="49.384967" lon="10.170218">
<ele>347</ele>
<time>2019-05-31T11:50:05Z</time>
</trkpt>
<trkpt lat="49.385117" lon="10.170093">
<ele>348</ele>
<time>2019-05-31T11:50:10Z</time>
</trkpt>
<trkpt lat="49.385273" lon="10.170048">
<ele>348</ele>
<time>2019-05-31T11:50:15Z</time>
</trkpt>
<trkpt lat="49.385435" lon="10.170098">
<ele>349</ele>
<time>2019-05-31T11:50:20Z</time>
</trkpt>
<trkpt lat="49.385565" lon="10.170255">
<ele>350</ele>
<time>2019-05-31T11:50:25Z</time>
</trkpt>
<trkpt lat="49.385672" lon="10.170418">
<ele>350</ele>
<time>2019-05-31T11:50:30Z</time>
</trkpt>
<trkpt lat="49.385797" lon="10.170523">
<ele>351</ele>
<time>2019-05-31T11:50:35Z</time>
</trkpt>
<trkpt lat="49.38596" lon="10.170597">
<ele>352</ele>
<time>2019-05-31T11:50:40Z</time>
</trkpt>
<trkpt lat="49.386115" lon="10.170635">
<ele>353</ele>
<time>2019-05-31T11:50:45Z</time>
</trkpt>
<trkpt lat="49.386277" lon="10.170657">
<ele>354</ele>
<time>2019-05-31T11:50:50Z</time>
</trkpt>
<trkpt lat="49.386445" lon="10.170675">
<ele>354</ele>
<time>2019-05-31T11:50:55Z</time>
</trkpt>
<trkpt lat="49.386607" lon="10.170695">
<ele>355</ele>
<time>2019-05-31T11:51:00Z</time>
</trkpt>
<trkpt lat="49.386762" lon="10.170725">
<ele>356</ele>
<time>2019-05-31T11:51:05Z</time>
</trkpt>
<trkpt lat="49.386898" lon="10.17077">
<ele>357</ele>
<time>2019-05-31T11:51:10Z</time>
</trkpt>
<trkpt lat="49.387022" lon="10.170853">
<ele>358</ele>
<time>2019-05-31T11:51:15Z</time>
</trkpt>
<trkpt lat="49.387138" lon="10.170975">
<ele>359</ele>
<time>2019-05-31T11:51:20Z</time>
</trkpt>
<trkpt lat="49.387215" lon="10.171155">
<ele>359</ele>
<time>2019-05-31T11:51:25Z</time>
</trkpt>
<trkpt lat="49.387255" lon="10.171355">
<ele>360</ele>
<time>2019-05-31T11:51:30Z</time>
</trkpt>
<trkpt lat="49.387275" lon="10.171565">
<ele>361</ele>
<time>2019-05-31T11:51:35Z</time>
</trkpt>
<trkpt lat="49.387213" lon="10.171755">
<ele>362</ele>
<time>2019-05-31T11:51:40Z</time>
</trkpt>
<trkpt lat="49.387128" lon="10.171925">
<ele>363</ele>
<time>2019-05-31T11:51:45Z</time>
</trkpt>
<trkpt lat="49.387017" lon="10.172057">
<ele>364</ele>
<time>2019-05-31T11:51:50Z</time>
</trkpt>
<trkpt lat="49.386893" lon="10.172152">
<ele>364</ele>
<time>2019-05-31T11:51:55Z</time>
</trkpt>
<trkpt lat="49.386767" lon="10.172168">
<ele>365</ele>
<time>2019-05-31T11:52:00Z</time>
</trkpt>
<trkpt lat="49.386618" lon="10.172155">
<ele>366</ele>
<time>2019-05-31T11:52:05Z</time>
</trkpt>
<trkpt lat="49.38645" lon="10.17209">
<ele>367</ele>
<time>2019-05-31T11:52:10Z</time>
</trkpt>
<trkpt lat="49.386328" lon="10.17199">
<ele>368</ele>
<time>2019-05-31T11:52:15Z</time>
</trkpt>
<trkpt lat="49.386223" lon="10.17186">
<ele>369</ele>
<time>2019-05-31T11:52:20Z</time>
</trkpt>
<trkpt lat="49.386143" lon="10.171712">
<ele>369</ele>
<time>2019-05-31T11:52:25Z</time>
</trkpt>
<trkpt lat="49.38608" lon="10.171603">
<ele>370</ele>
<time>2019-05-31T11:52:30Z</time>
</trkpt>
<trkpt lat="49.386073" lon="10.171605">
<ele>370</ele>
<time>2019-05-31T11:52:35Z</time>
</trkpt>
<trkpt lat="49.38606" lon="10.171605">
<ele>370</ele>
<time>2019-05-31T11:53:00Z</time>
</trkpt>
<trkpt lat="49.386038" lon="10.171608">
<ele>370</ele>
<time>2019-05-31T11:53:05Z</time>
</trkpt>
<trkpt lat="49.385952" lon="10.171533">
<ele>371</ele>
<time>2019-05-31T11:53:10Z</time>
</trkpt>
<trkpt lat="49.385825" lon="10.171445">
<ele>371</ele>
<time>2019-05-31T11:53:15Z</time>
</trkpt>
<trkpt lat="49.385665" lon="10.17135">
<ele>372</ele>
<time>2019-05-31T11:53:20Z</time>
</trkpt>
<trkpt lat="49.385497" lon="10.171273">
<ele>373</ele>
<time>2019-05-31T11:53:25Z</time>
</trkpt>
<trkpt lat="49.385335" lon="10.171218">
<ele>374</ele>
<time>2019-05-31T11:53:30Z</time>
</trkpt>
<trkpt lat="49.385183" lon="10.17117">
<ele>374</ele>
<time>2019-05-31T11:53:35Z</time>
</trkpt>
<trkpt lat="49.385092" lon="10.171148">
<ele>375</ele>
<time>2019-05-31T11:53:40Z</time>
</trkpt>
<trkpt lat="49.384958" lon="10.171227">
<ele>376</ele>
<time>2019-05-31T11:53:45Z</time>
</trkpt>
<trkpt lat="49.384813" lon="10.171342">
<ele>377</ele>
<time>2019-05-31T11:53:50Z</time>
</trkpt>
<trkpt lat="49.384707" lon="10.17149">
<ele>378</ele>
<time>2019-05-31T11:53:55Z</time>
</trkpt>
<trkpt lat="49.3846" lon="10.171655">
<ele>378</ele>
<time>2019-05-31T11:54:00Z</time>
</trkpt>
<trkpt lat="49.384485" lon="10.171827">
<ele>379</ele>
<time>2019-05-31T11:54:05Z</time>
</trkpt>
<trkpt lat="49.384382" lon="10.171975">
<ele>380</ele>
<time>2019-05-31T11:54:10Z</time>
</trkpt>
<trkpt lat="49.384277" lon="10.17212">
<ele>381</ele>
<time>2019-05-31T11:54:15Z</time>
</trkpt>
<trkpt lat="49.384168" lon="10.172273">
<ele>382</ele>
<time>2019-05-31T11:54:20Z</time>
</trkpt>
<trkpt lat="49.384073" lon="10.172413">
<ele>383</ele>
<time>2019-05-31T11:54:25Z</time>
</trkpt>
<trkpt lat="49.383965" lon="10.172558">
<ele>384</ele>
<time>2019-05-31T11:54:30Z</time>
</trkpt>
<trkpt lat="49.38386" lon="10.172695">
<ele>385</ele>
<time>2019-05-31T11:54:35Z</time>
</trkpt>
<trkpt lat="49.383753" lon="10.172828">
<ele>386</ele>
<time>2019-05-31T11:54:40Z</time>
</trkpt>
<trkpt lat="49.383635" lon="10.172945">
<ele>386</ele>
<time>2019-05-31T11:54:45Z</time>
</trkpt>
<trkpt lat="49.383522" lon="10.173058">
<ele>387</ele>
<time>2019-05-31T11:54:50Z</time>
</trkpt>
<trkpt lat="49.3834" lon="10.173172">
<ele>388</ele>
<time>2019-05-31T11:54:55Z</time>
</trkpt>
<trkpt lat="49.383277" lon="10.173282">
<ele>389</ele>
<time>2019-05-31T11:55:00Z</time>
</trkpt>
<trkpt lat="49.383157" lon="10.173375">
<ele>389</ele>
<time>2019-05-31T11:55:05Z</time>
</trkpt>
<trkpt lat="49.383045" lon="10.173462">
<ele>390</ele>
<time>2019-05-31T11:55:10Z</time>
</trkpt>
<trkpt lat="49.382928" lon="10.173557">
<ele>391</ele>
<time>2019-05-31T11:55:15Z</time>
</trkpt>
<trkpt lat="49.382808" lon="10.173647">
<ele>391</ele>
<time>2019-05-31T11:55:20Z</time>
</trkpt>
<trkpt lat="49.38269" lon="10.173782">
<ele>392</ele>
<time>2019-05-31T11:55:25Z</time>
</trkpt>
<trkpt lat="49.382598" lon="10.17396">
<ele>393</ele>
<time>2019-05-31T11:55:30Z</time>
</trkpt>
<trkpt lat="49.382545" lon="10.174182">
<ele>394</ele>
<time>2019-05-31T11:55:35Z</time>
</trkpt>
<trkpt lat="49.382523" lon="10.174403">
<ele>395</ele>
<time>2019-05-31T11:55:40Z</time>
</trkpt>
<trkpt lat="49.382512" lon="10.174617">
<ele>395</ele>
<time>2019-05-31T11:55:45Z</time>
</trkpt>
<trkpt lat="49.38251" lon="10.174808">
<ele>396</ele>
<time>2019-05-31T11:55:50Z</time>
</trkpt>
<trkpt lat="49.382503" lon="10.175037">
<ele>396</ele>
<time>2019-05-31T11:55:55Z</time>
</trkpt>
<trkpt lat="49.382497" lon="10.175283">
<ele>397</ele>
<time>2019-05-31T11:56:00Z</time>
</trkpt>
<trkpt lat="49.382437" lon="10.175517">
<ele>397</ele>
<time>2019-05-31T11:56:05Z</time>
</trkpt>
<trkpt lat="49.382322" lon="10.175698">
<ele>398</ele>
<time>2019-05-31T11:56:10Z</time>
</trkpt>
<trkpt lat="49.382138" lon="10.175787">
<ele>399</ele>
<time>2019-05-31T11:56:15Z</time>
</trkpt>
<trkpt lat="49.38194" lon="10.175772">
<ele>399</ele>
<time>2019-05-31T11:56:20Z</time>
</trkpt>
<trkpt lat="49.381752" lon="10.175775">
<ele>400</ele>
<time>2019-05-31T11:56:25Z</time>
</trkpt>
<trkpt lat="49.381603" lon="10.175808">
<ele>401</ele>
<time>2019-05-31T11:56:30Z</time>
</trkpt>
<trkpt lat="49.381488" lon="10.17585">
<ele>401</ele>
<time>2019-05-31T11:56:35Z</time>
</trkpt>
<trkpt lat="49.381367" lon="10.175902">
<ele>401</ele>
<time>2019-05-31T11:56:40Z</time>
</trkpt>
<trkpt lat="49.381233" lon="10.175937">
<ele>402</ele>
<time>2019-05-31T11:56:45Z</time>
</trkpt>
<trkpt lat="49.38113" lon="10.175957">
<ele>402</ele>
<time>2019-05-31T11:56:50Z</time>
</trkpt>
<trkpt lat="49.381023" lon="10.175903">
<ele>403</ele>
<time>2019-05-31T11:56:55Z</time>
</trkpt>
<trkpt lat="49.380947" lon="10.175887">
<ele>403</ele>
<time>2019-05-31T11:57:00Z</time>
</trkpt>
<trkpt lat="49.380837" lon="10.175862">
<ele>404</ele>
<time>2019-05-31T11:57:05Z</time>
</trkpt>
<trkpt lat="49.380682" lon="10.175912">
<ele>404</ele>
<time>2019-05-31T11:57:10Z</time>
</trkpt>
<trkpt lat="49.380585" lon="10.176003">
<ele>404</ele>
<time>2019-05-31T11:57:15Z</time>
</trkpt>
<trkpt lat="49.380545" lon="10.176078">
<ele>405</ele>
<time>2019-05-31T11:57:20Z</time>
</trkpt>
<trkpt lat="49.3805" lon="10.176228">
<ele>405</ele>
<time>2019-05-31T11:57:25Z</time>
</trkpt>
<trkpt lat="49.380448" lon="10.176355">
<ele>405</ele>
<time>2019-05-31T11:57:30Z</time>
</trkpt>
<trkpt lat="49.38034" lon="10.17643">
<ele>405</ele>
<time>2019-05-31T11:57:35Z</time>
</trkpt>
<trkpt lat="49.380203" lon="10.176463">
<ele>405</ele>
<time>2019-05-31T11:57:40Z</time>
</trkpt>
<trkpt lat="49.380058" lon="10.176522">
<ele>404</ele>
<time>2019-05-31T11:57:45Z</time>
</trkpt>
<trkpt lat="49.379935" lon="10.176588">
<ele>404</ele>
<time>2019-05-31T11:57:50Z</time>
</trkpt>
<trkpt lat="49.379807" lon="10.176652">
<ele>404</ele>
<time>2019-05-31T11:57:55Z</time>
</trkpt>
<trkpt lat="49.37969" lon="10.176703">
<ele>404</ele>
<time>2019-05-31T11:58:00Z</time>
</trkpt>
<trkpt lat="49.379577" lon="10.17678">
<ele>403</ele>
<time>2019-05-31T11:58:05Z</time>
</trkpt>
<trkpt lat="49.379458" lon="10.176843">
<ele>403</ele>
<time>2019-05-31T11:58:10Z</time>
</trkpt>
<trkpt lat="49.379367" lon="10.176908">
<ele>404</ele>
<time>2019-05-31T11:58:15Z</time>
</trkpt>
<trkpt lat="49.379247" lon="10.176965">
<ele>404</ele>
<time>2019-05-31T11:58:20Z</time>
</trkpt>
<trkpt lat="49.379107" lon="10.177022">
<ele>405</ele>
<time>2019-05-31T11:58:25Z</time>
</trkpt>
<trkpt lat="49.37898" lon="10.177083">
<ele>405</ele>
<time>2019-05-31T11:58:30Z</time>
</trkpt>
<trkpt lat="49.37887" lon="10.177148">
<ele>405</ele>
<time>2019-05-31T11:58:35Z</time>
</trkpt>
<trkpt lat="49.378737" lon="10.177168">
<ele>405</ele>
<time>2019-05-31T11:58:40Z</time>
</trkpt>
<trkpt lat="49.378595" lon="10.17718">
<ele>406</ele>
<time>2019-05-31T11:58:45Z</time>
</trkpt>
<trkpt lat="49.378482" lon="10.17719">
<ele>407</ele>
<time>2019-05-31T11:58:50Z</time>
</trkpt>
<trkpt lat="49.378373" lon="10.177188">
<ele>407</ele>
<time>2019-05-31T11:58:55Z</time>
</trkpt>
<trkpt lat="49.378212" lon="10.177233">
<ele>408</ele>
<time>2019-05-31T11:59:00Z</time>
</trkpt>
<trkpt lat="49.378095" lon="10.177297">
<ele>408</ele>
<time>2019-05-31T11:59:05Z</time>
</trkpt>
<trkpt lat="49.37796" lon="10.177288">
<ele>409</ele>
<time>2019-05-31T11:59:10Z</time>
</trkpt>
<trkpt lat="49.377808" lon="10.177307">
<ele>409</ele>
<time>2019-05-31T11:59:15Z</time>
</trkpt>
<trkpt lat="49.377723" lon="10.177392">
<ele>410</ele>
<time>2019-05-31T11:59:20Z</time>
</trkpt>
<trkpt lat="49.377647" lon="10.177345">
<ele>410</ele>
<time>2019-05-31T11:59:25Z</time>
</trkpt>
<trkpt lat="49.377628" lon="10.177297">
<ele>410</ele>
<time>2019-05-31T11:59:30Z</time>
</trkpt>
<trkpt lat="49.37766" lon="10.177338">
<ele>410</ele>
<time>2019-05-31T11:59:35Z</time>
</trkpt>
<trkpt lat="49.377683" lon="10.177357">
<ele>410</ele>
<time>2019-05-31T11:59:40Z</time>
</trkpt>
<trkpt lat="49.377692" lon="10.177402">
<ele>410</ele>
<time>2019-05-31T11:59:45Z</time>
</trkpt>
<trkpt lat="49.377697" lon="10.177453">
<ele>410</ele>
<time>2019-05-31T11:59:50Z</time>
</trkpt>
<trkpt lat="49.3777" lon="10.177525">
<ele>411</ele>
<time>2019-05-31T11:59:55Z</time>
</trkpt>
<trkpt lat="49.377688" lon="10.177585">
<ele>411</ele>
<time>2019-05-31T12:00:00Z</time>
</trkpt>
<trkpt lat="49.377688" lon="10.177647">
<ele>411</ele>
<time>2019-05-31T12:00:05Z</time>
</trkpt>
<trkpt lat="49.377702" lon="10.177713">
<ele>411</ele>
<time>2019-05-31T12:00:10Z</time>
</trkpt>
<trkpt lat="49.377745" lon="10.177768">
<ele>411</ele>
<time>2019-05-31T12:00:15Z</time>
</trkpt>
<trkpt lat="49.377775" lon="10.177822">
<ele>412</ele>
<time>2019-05-31T12:00:20Z</time>
</trkpt>
<trkpt lat="49.377797" lon="10.17788">
<ele>412</ele>
<time>2019-05-31T12:00:25Z</time>
</trkpt>
<trkpt lat="49.37782" lon="10.177927">
<ele>412</ele>
<time>2019-05-31T12:00:30Z</time>
</trkpt>
<trkpt lat="49.377815" lon="10.177993">
<ele>413</ele>
<time>2019-05-31T12:00:35Z</time>
</trkpt>
<trkpt lat="49.377793" lon="10.178055">
<ele>413</ele>
<time>2019-05-31T12:00:40Z</time>
</trkpt>
<trkpt lat="49.377767" lon="10.17812">
<ele>413</ele>
<time>2019-05-31T12:00:45Z</time>
</trkpt>
<trkpt lat="49.377775" lon="10.178183">
<ele>413</ele>
<time>2019-05-31T12:00:50Z</time>
</trkpt>
<trkpt lat="49.37778" lon="10.178232">
<ele>413</ele>
<time>2019-05-31T12:00:55Z</time>
</trkpt>
<trkpt lat="49.377792" lon="10.178278">
<ele>414</ele>
<time>2019-05-31T12:01:00Z</time>
</trkpt>
<trkpt lat="49.377798" lon="10.178337">
<ele>414</ele>
<time>2019-05-31T12:01:05Z</time>
</trkpt>
<trkpt lat="49.377812" lon="10.178397">
<ele>414</ele>
<time>2019-05-31T12:01:10Z</time>
</trkpt>
<trkpt lat="49.377828" lon="10.17846">
<ele>414</ele>
<time>2019-05-31T12:01:15Z</time>
</trkpt>
<trkpt lat="49.377837" lon="10.178522">
<ele>415</ele>
<time>2019-05-31T12:01:20Z</time>
</trkpt>
<trkpt lat="49.377835" lon="10.178578">
<ele>415</ele>
<time>2019-05-31T12:01:25Z</time>
</trkpt>
<trkpt lat="49.377863" lon="10.178633">
<ele>415</ele>
<time>2019-05-31T12:01:30Z</time>
</trkpt>
<trkpt lat="49.377885" lon="10.178695">
<ele>416</ele>
<time>2019-05-31T12:01:35Z</time>
</trkpt>
<trkpt lat="49.377882" lon="10.178752">
<ele>416</ele>
<time>2019-05-31T12:01:40Z</time>
</trkpt>
<trkpt lat="49.377882" lon="10.17881">
<ele>416</ele>
<time>2019-05-31T12:01:45Z</time>
</trkpt>
<trkpt lat="49.37793" lon="10.17889">
<ele>416</ele>
<time>2019-05-31T12:01:50Z</time>
</trkpt>
<trkpt lat="49.377982" lon="10.178947">
<ele>416</ele>
<time>2019-05-31T12:01:55Z</time>
</trkpt>
<trkpt lat="49.377992" lon="10.178995">
<ele>417</ele>
<time>2019-05-31T12:02:00Z</time>
</trkpt>
<trkpt lat="49.377973" lon="10.179048">
<ele>417</ele>
<time>2019-05-31T12:02:05Z</time>
</trkpt>
<trkpt lat="49.377957" lon="10.17906">
<ele>417</ele>
<time>2019-05-31T12:02:10Z</time>
</trkpt>
<trkpt lat="49.377958" lon="10.17907">
<ele>418</ele>
<time>2019-05-31T12:02:15Z</time>
</trkpt>
<trkpt lat="49.377957" lon="10.179068">
<ele>418</ele>
<time>2019-05-31T12:02:20Z</time>
</trkpt>
<trkpt lat="49.377918" lon="10.179083">
<ele>418</ele>
<time>2019-05-31T12:02:25Z</time>
</trkpt>
<trkpt lat="49.377872" lon="10.179075">
<ele>418</ele>
<time>2019-05-31T12:02:30Z</time>
</trkpt>
<trkpt lat="49.377825" lon="10.179075">
<ele>418</ele>
<time>2019-05-31T12:02:35Z</time>
</trkpt>
<trkpt lat="49.377775" lon="10.17907">
<ele>418</ele>
<time>2019-05-31T12:02:40Z</time>
</trkpt>
<trkpt lat="49.37773" lon="10.17907">
<ele>418</ele>
<time>2019-05-31T12:02:45Z</time>
</trkpt>
<trkpt lat="49.377687" lon="10.179088">
<ele>418</ele>
<time>2019-05-31T12:02:50Z</time>
</trkpt>
<trkpt lat="49.377648" lon="10.179113">
<ele>418</ele>
<time>2019-05-31T12:02:55Z</time>
</trkpt>
<trkpt lat="49.377612" lon="10.179145">
<ele>418</ele>
<time>2019-05-31T12:03:00Z</time>
</trkpt>
<trkpt lat="49.377583" lon="10.179153">
<ele>418</ele>
<time>2019-05-31T12:03:05Z</time>
</trkpt>
<trkpt lat="49.377548" lon="10.17916">
<ele>418</ele>
<time>2019-05-31T12:03:10Z</time>
</trkpt>
<trkpt lat="49.377512" lon="10.179168">
<ele>418</ele>
<time>2019-05-31T12:03:15Z</time>
</trkpt>
<trkpt lat="49.377447" lon="10.17916">
<ele>418</ele>
<time>2019-05-31T12:03:20Z</time>
</trkpt>
<trkpt lat="49.377417" lon="10.179153">
<ele>417</ele>
<time>2019-05-31T12:03:25Z</time>
</trkpt>
<trkpt lat="49.37739" lon="10.179152">
<ele>417</ele>
<time>2019-05-31T12:03:30Z</time>
</trkpt>
<trkpt lat="49.377367" lon="10.179125">
<ele>417</ele>
<time>2019-05-31T12:03:35Z</time>
</trkpt>
<trkpt lat="49.377362" lon="10.179092">
<ele>417</ele>
<time>2019-05-31T12:03:40Z</time>
</trkpt>
<trkpt lat="49.377367" lon="10.179088">
<ele>417</ele>
<time>2019-05-31T12:03:45Z</time>
</trkpt>
<trkpt lat="49.377368" lon="10.179092">
<ele>417</ele>
<time>2019-05-31T12:03:50Z</time>
</trkpt>
<trkpt lat="49.377373" lon="10.179095">
<ele>417</ele>
<time>2019-05-31T12:03:55Z</time>
</trkpt>
<trkpt lat="49.37738" lon="10.179093">
<ele>417</ele>
<time>2019-05-31T12:04:00Z</time>
</trkpt>
<trkpt lat="49.377387" lon="10.17909">
<ele>417</ele>
<time>2019-05-31T12:04:05Z</time>
</trkpt>
<trkpt lat="49.377393" lon="10.179088">
<ele>417</ele>
<time>2019-05-31T12:04:10Z</time>
</trkpt>
<trkpt lat="49.377392" lon="10.179093">
<ele>417</ele>
<time>2019-05-31T12:04:15Z</time>
</trkpt>
<trkpt lat="49.37739" lon="10.179098">
<ele>417</ele>
<time>2019-05-31T12:04:20Z</time>
</trkpt>
<trkpt lat="49.377387" lon="10.179102">
<ele>417</ele>
<time>2019-05-31T12:04:25Z</time>
</trkpt>
<trkpt lat="49.377387" lon="10.17911">
<ele>417</ele>
<time>2019-05-31T12:04:30Z</time>
</trkpt>
<trkpt lat="49.377392" lon="10.179115">
<ele>417</ele>
<time>2019-05-31T12:04:35Z</time>
</trkpt>
<trkpt lat="49.377398" lon="10.179112">
<ele>417</ele>
<time>2019-05-31T12:04:40Z</time>
</trkpt>
<trkpt lat="49.377403" lon="10.179112">
<ele>417</ele>
<time>2019-05-31T12:04:45Z</time>
</trkpt>
<trkpt lat="49.37741" lon="10.17911">
<ele>417</ele>
<time>2019-05-31T12:04:50Z</time>
</trkpt>
<trkpt lat="49.37741" lon="10.179117">
<ele>417</ele>
<time>2019-05-31T12:04:55Z</time>
</trkpt>
<trkpt lat="49.377407" lon="10.179123">
<ele>417</ele>
<time>2019-05-31T12:05:00Z</time>
</trkpt>
<trkpt lat="49.3774" lon="10.17913">
<ele>417</ele>
<time>2019-05-31T12:05:05Z</time>
</trkpt>
<trkpt lat="49.377395" lon="10.179138">
<ele>417</ele>
<time>2019-05-31T12:05:10Z</time>
</trkpt>
<trkpt lat="49.37739" lon="10.179148">
<ele>417</ele>
<time>2019-05-31T12:05:15Z</time>
</trkpt>
<trkpt lat="49.377383" lon="10.179138">
<ele>417</ele>
<time>2019-05-31T12:05:20Z</time>
</trkpt>
<trkpt lat="49.37737" lon="10.179132">
<ele>417</ele>
<time>2019-05-31T12:05:25Z</time>
</trkpt>
<trkpt lat="49.377368" lon="10.179135">
<ele>417</ele>
<time>2019-05-31T12:05:30Z</time>
</trkpt>
<trkpt lat="49.377367" lon="10.17914">
<ele>417</ele>
<time>2019-05-31T12:05:35Z</time>
</trkpt>
<trkpt lat="49.377368" lon="10.179138">
<ele>417</ele>
<time>2019-05-31T12:05:40Z</time>
</trkpt>
<trkpt lat="49.377372" lon="10.179138">
<ele>417</ele>
<time>2019-05-31T12:05:45Z</time>
</trkpt>
<trkpt lat="49.377372" lon="10.179137">
<ele>417</ele>
<time>2019-05-31T12:05:52Z</time>
</trkpt>
<trkpt lat="49.37605" lon="10.179573">
<ele>398</ele>
<time>2019-05-31T12:05:57Z</time>
</trkpt>
<trkpt lat="49.376012" lon="10.179585">
<ele>398</ele>
<time>2019-05-31T12:06:02Z</time>
</trkpt>
<trkpt lat="49.375935" lon="10.179598">
<ele>398</ele>
<time>2019-05-31T12:06:07Z</time>
</trkpt>
<trkpt lat="49.375853" lon="10.179633">
<ele>398</ele>
<time>2019-05-31T12:06:12Z</time>
</trkpt>
<trkpt lat="49.375765" lon="10.17965">
<ele>398</ele>
<time>2019-05-31T12:06:17Z</time>
</trkpt>
<trkpt lat="49.375732" lon="10.17968">
<ele>398</ele>
<time>2019-05-31T12:06:22Z</time>
</trkpt>
<trkpt lat="49.375725" lon="10.179692">
<ele>397</ele>
<time>2019-05-31T12:06:27Z</time>
</trkpt>
<trkpt lat="49.375668" lon="10.179705">
<ele>397</ele>
<time>2019-05-31T12:06:32Z</time>
</trkpt>
<trkpt lat="49.375572" lon="10.179755">
<ele>397</ele>
<time>2019-05-31T12:06:37Z</time>
</trkpt>
<trkpt lat="49.375502" lon="10.179778">
<ele>397</ele>
<time>2019-05-31T12:06:42Z</time>
</trkpt>
<trkpt lat="49.375408" lon="10.179802">
<ele>397</ele>
<time>2019-05-31T12:06:47Z</time>
</trkpt>
<trkpt lat="49.375307" lon="10.179845">
<ele>396</ele>
<time>2019-05-31T12:06:52Z</time>
</trkpt>
<trkpt lat="49.37522" lon="10.179883">
<ele>396</ele>
<time>2019-05-31T12:06:57Z</time>
</trkpt>
<trkpt lat="49.375123" lon="10.179903">
<ele>396</ele>
<time>2019-05-31T12:07:02Z</time>
</trkpt>
<trkpt lat="49.375035" lon="10.179908">
<ele>395</ele>
<time>2019-05-31T12:07:07Z</time>
</trkpt>
<trkpt lat="49.374965" lon="10.179922">
<ele>395</ele>
<time>2019-05-31T12:07:12Z</time>
</trkpt>
<trkpt lat="49.374893" lon="10.179925">
<ele>394</ele>
<time>2019-05-31T12:07:17Z</time>
</trkpt>
<trkpt lat="49.374793" lon="10.179943">
<ele>394</ele>
<time>2019-05-31T12:07:22Z</time>
</trkpt>
<trkpt lat="49.374693" lon="10.179958">
<ele>394</ele>
<time>2019-05-31T12:07:27Z</time>
</trkpt>
<trkpt lat="49.37456" lon="10.180015">
<ele>393</ele>
<time>2019-05-31T12:07:32Z</time>
</trkpt>
<trkpt lat="49.374445" lon="10.180055">
<ele>393</ele>
<time>2019-05-31T12:07:37Z</time>
</trkpt>
<trkpt lat="49.374345" lon="10.180085">
<ele>393</ele>
<time>2019-05-31T12:07:42Z</time>
</trkpt>
<trkpt lat="49.374275" lon="10.180113">
<ele>393</ele>
<time>2019-05-31T12:07:47Z</time>
</trkpt>
<trkpt lat="49.3742" lon="10.180138">
<ele>393</ele>
<time>2019-05-31T12:07:52Z</time>
</trkpt>
<trkpt lat="49.37415" lon="10.180158">
<ele>393</ele>
<time>2019-05-31T12:07:57Z</time>
</trkpt>
<trkpt lat="49.374115" lon="10.180165">
<ele>393</ele>
<time>2019-05-31T12:08:02Z</time>
</trkpt>
<trkpt lat="49.374037" lon="10.180145">
<ele>393</ele>
<time>2019-05-31T12:08:07Z</time>
</trkpt>
<trkpt lat="49.373895" lon="10.180208">
<ele>393</ele>
<time>2019-05-31T12:08:12Z</time>
</trkpt>
<trkpt lat="49.37374" lon="10.180233">
<ele>393</ele>
<time>2019-05-31T12:08:18Z</time>
</trkpt>
<trkpt lat="49.37356" lon="10.180248">
<ele>393</ele>
<time>2019-05-31T12:08:23Z</time>
</trkpt>
<trkpt lat="49.373415" lon="10.180263">
<ele>393</ele>
<time>2019-05-31T12:08:28Z</time>
</trkpt>
<trkpt lat="49.37329" lon="10.180283">
<ele>393</ele>
<time>2019-05-31T12:08:33Z</time>
</trkpt>
<trkpt lat="49.373173" lon="10.1803">
<ele>393</ele>
<time>2019-05-31T12:08:38Z</time>
</trkpt>
<trkpt lat="49.37306" lon="10.180315">
<ele>393</ele>
<time>2019-05-31T12:08:43Z</time>
</trkpt>
<trkpt lat="49.372947" lon="10.180332">
<ele>393</ele>
<time>2019-05-31T12:08:48Z</time>
</trkpt>
<trkpt lat="49.37282" lon="10.180342">
<ele>393</ele>
<time>2019-05-31T12:08:53Z</time>
</trkpt>
<trkpt lat="49.372713" lon="10.180337">
<ele>393</ele>
<time>2019-05-31T12:08:58Z</time>
</trkpt>
<trkpt lat="49.372605" lon="10.18034">
<ele>393</ele>
<time>2019-05-31T12:09:03Z</time>
</trkpt>
<trkpt lat="49.372477" lon="10.180362">
<ele>393</ele>
<time>2019-05-31T12:09:08Z</time>
</trkpt>
<trkpt lat="49.372343" lon="10.18039">
<ele>393</ele>
<time>2019-05-31T12:09:13Z</time>
</trkpt>
<trkpt lat="49.3722" lon="10.180428">
<ele>393</ele>
<time>2019-05-31T12:09:18Z</time>
</trkpt>
<trkpt lat="49.372068" lon="10.180478">
<ele>393</ele>
<time>2019-05-31T12:09:23Z</time>
</trkpt>
<trkpt lat="49.37196" lon="10.180538">
<ele>393</ele>
<time>2019-05-31T12:09:28Z</time>
</trkpt>
<trkpt lat="49.37185" lon="10.180598">
<ele>393</ele>
<time>2019-05-31T12:09:33Z</time>
</trkpt>
<trkpt lat="49.371743" lon="10.18065">
<ele>393</ele>
<time>2019-05-31T12:09:38Z</time>
</trkpt>
<trkpt lat="49.371653" lon="10.180687">
<ele>393</ele>
<time>2019-05-31T12:09:43Z</time>
</trkpt>
<trkpt lat="49.371553" lon="10.180712">
<ele>393</ele>
<time>2019-05-31T12:09:48Z</time>
</trkpt>
<trkpt lat="49.371428" lon="10.180715">
<ele>393</ele>
<time>2019-05-31T12:09:54Z</time>
</trkpt>
<trkpt lat="49.371318" lon="10.180737">
<ele>394</ele>
<time>2019-05-31T12:09:59Z</time>
</trkpt>
<trkpt lat="49.371203" lon="10.180778">
<ele>394</ele>
<time>2019-05-31T12:10:04Z</time>
</trkpt>
<trkpt lat="49.371127" lon="10.180822">
<ele>394</ele>
<time>2019-05-31T12:10:09Z</time>
</trkpt>
<trkpt lat="49.371063" lon="10.180903">
<ele>394</ele>
<time>2019-05-31T12:10:14Z</time>
</trkpt>
<trkpt lat="49.37102" lon="10.180982">
<ele>394</ele>
<time>2019-05-31T12:10:19Z</time>
</trkpt>
<trkpt lat="49.370922" lon="10.18099">
<ele>394</ele>
<time>2019-05-31T12:10:24Z</time>
</trkpt>
<trkpt lat="49.370813" lon="10.181012">
<ele>394</ele>
<time>2019-05-31T12:10:29Z</time>
</trkpt>
<trkpt lat="49.370695" lon="10.181007">
<ele>394</ele>
<time>2019-05-31T12:10:34Z</time>
</trkpt>
<trkpt lat="49.370567" lon="10.181032">
<ele>394</ele>
<time>2019-05-31T12:10:39Z</time>
</trkpt>
<trkpt lat="49.370475" lon="10.181122">
<ele>394</ele>
<time>2019-05-31T12:10:44Z</time>
</trkpt>
<trkpt lat="49.370438" lon="10.18123">
<ele>394</ele>
<time>2019-05-31T12:10:49Z</time>
</trkpt>
<trkpt lat="49.370433" lon="10.18123">
<ele>394</ele>
<time>2019-05-31T12:10:54Z</time>
</trkpt>
<trkpt lat="49.370433" lon="10.181228">
<ele>394</ele>
<time>2019-05-31T12:10:59Z</time>
</trkpt>
<trkpt lat="49.370435" lon="10.181235">
<ele>394</ele>
<time>2019-05-31T12:11:04Z</time>
</trkpt>
<trkpt lat="49.370428" lon="10.181272">
<ele>394</ele>
<time>2019-05-31T12:11:09Z</time>
</trkpt>
<trkpt lat="49.370413" lon="10.181402">
<ele>394</ele>
<time>2019-05-31T12:11:14Z</time>
</trkpt>
<trkpt lat="49.370408" lon="10.181558">
<ele>394</ele>
<time>2019-05-31T12:11:19Z</time>
</trkpt>
<trkpt lat="49.370325" lon="10.181718">
<ele>394</ele>
<time>2019-05-31T12:11:24Z</time>
</trkpt>
<trkpt lat="49.370085" lon="10.181978">
<ele>394</ele>
<time>2019-05-31T12:11:29Z</time>
</trkpt>
<trkpt lat="49.369863" lon="10.182225">
<ele>392</ele>
<time>2019-05-31T12:11:34Z</time>
</trkpt>
<trkpt lat="49.369588" lon="10.182472">
<ele>391</ele>
<time>2019-05-31T12:11:39Z</time>
</trkpt>
<trkpt lat="49.369288" lon="10.182697">
<ele>389</ele>
<time>2019-05-31T12:11:44Z</time>
</trkpt>
<trkpt lat="49.368985" lon="10.182913">
<ele>389</ele>
<time>2019-05-31T12:11:49Z</time>
</trkpt>
<trkpt lat="49.368722" lon="10.183132">
<ele>389</ele>
<time>2019-05-31T12:11:54Z</time>
</trkpt>
<trkpt lat="49.368445" lon="10.18334">
<ele>389</ele>
<time>2019-05-31T12:11:59Z</time>
</trkpt>
<trkpt lat="49.36819" lon="10.183573">
<ele>389</ele>
<time>2019-05-31T12:12:04Z</time>
</trkpt>
<trkpt lat="49.367973" lon="10.183812">
<ele>389</ele>
<time>2019-05-31T12:12:09Z</time>
</trkpt>
<trkpt lat="49.367768" lon="10.184068">
<ele>389</ele>
<time>2019-05-31T12:12:14Z</time>
</trkpt>
<trkpt lat="49.367572" lon="10.18435">
<ele>389</ele>
<time>2019-05-31T12:12:19Z</time>
</trkpt>
<trkpt lat="49.367383" lon="10.184653">
<ele>389</ele>
<time>2019-05-31T12:12:24Z</time>
</trkpt>
<trkpt lat="49.367213" lon="10.18493">
<ele>389</ele>
<time>2019-05-31T12:12:29Z</time>
</trkpt>
<trkpt lat="49.367037" lon="10.185215">
<ele>389</ele>
<time>2019-05-31T12:12:34Z</time>
</trkpt>
<trkpt lat="49.366887" lon="10.185502">
<ele>390</ele>
<time>2019-05-31T12:12:39Z</time>
</trkpt>
<trkpt lat="49.366702" lon="10.185762">
<ele>390</ele>
<time>2019-05-31T12:12:44Z</time>
</trkpt>
<trkpt lat="49.366515" lon="10.186002">
<ele>390</ele>
<time>2019-05-31T12:12:49Z</time>
</trkpt>
<trkpt lat="49.36629" lon="10.186237">
<ele>390</ele>
<time>2019-05-31T12:12:54Z</time>
</trkpt>
<trkpt lat="49.366048" lon="10.186475">
<ele>390</ele>
<time>2019-05-31T12:12:59Z</time>
</trkpt>
<trkpt lat="49.365802" lon="10.1867">
<ele>390</ele>
<time>2019-05-31T12:13:04Z</time>
</trkpt>
<trkpt lat="49.365573" lon="10.186862">
<ele>388</ele>
<time>2019-05-31T12:13:09Z</time>
</trkpt>
<trkpt lat="49.365402" lon="10.186983">
<ele>387</ele>
<time>2019-05-31T12:13:14Z</time>
</trkpt>
<trkpt lat="49.36528" lon="10.18709">
<ele>387</ele>
<time>2019-05-31T12:13:19Z</time>
</trkpt>
<trkpt lat="49.365145" lon="10.187192">
<ele>387</ele>
<time>2019-05-31T12:13:24Z</time>
</trkpt>
<trkpt lat="49.365065" lon="10.187263">
<ele>386</ele>
<time>2019-05-31T12:13:29Z</time>
</trkpt>
<trkpt lat="49.364957" lon="10.187475">
<ele>385</ele>
<time>2019-05-31T12:13:35Z</time>
</trkpt>
<trkpt lat="49.36473" lon="10.187698">
<ele>384</ele>
<time>2019-05-31T12:13:40Z</time>
</trkpt>
<trkpt lat="49.364402" lon="10.188073">
<ele>383</ele>
<time>2019-05-31T12:13:46Z</time>
</trkpt>
<trkpt lat="49.364073" lon="10.188485">
<ele>379</ele>
<time>2019-05-31T12:13:51Z</time>
</trkpt>
<trkpt lat="49.363665" lon="10.189108">
<ele>376</ele>
<time>2019-05-31T12:13:57Z</time>
</trkpt>
<trkpt lat="49.363392" lon="10.189685">
<ele>372</ele>
<time>2019-05-31T12:14:02Z</time>
</trkpt>
<trkpt lat="49.363125" lon="10.19055">
<ele>369</ele>
<time>2019-05-31T12:14:08Z</time>
</trkpt>
<trkpt lat="49.36288" lon="10.191363">
<ele>363</ele>
<time>2019-05-31T12:14:14Z</time>
</trkpt>
<trkpt lat="49.36257" lon="10.191888">
<ele>361</ele>
<time>2019-05-31T12:14:19Z</time>
</trkpt>
<trkpt lat="49.362248" lon="10.192185">
<ele>359</ele>
<time>2019-05-31T12:14:24Z</time>
</trkpt>
<trkpt lat="49.362075" lon="10.192518">
<ele>357</ele>
<time>2019-05-31T12:14:29Z</time>
</trkpt>
<trkpt lat="49.36204" lon="10.192845">
<ele>357</ele>
<time>2019-05-31T12:14:34Z</time>
</trkpt>
<trkpt lat="49.361967" lon="10.193115">
<ele>357</ele>
<time>2019-05-31T12:14:39Z</time>
</trkpt>
<trkpt lat="49.36192" lon="10.193458">
<ele>357</ele>
<time>2019-05-31T12:14:44Z</time>
</trkpt>
<trkpt lat="49.361923" lon="10.193835">
<ele>357</ele>
<time>2019-05-31T12:14:49Z</time>
</trkpt>
<trkpt lat="49.361865" lon="10.194268">
<ele>355</ele>
<time>2019-05-31T12:14:54Z</time>
</trkpt>
<trkpt lat="49.361692" lon="10.194708">
<ele>356</ele>
<time>2019-05-31T12:14:59Z</time>
</trkpt>
<trkpt lat="49.361515" lon="10.195142">
<ele>356</ele>
<time>2019-05-31T12:15:04Z</time>
</trkpt>
<trkpt lat="49.361353" lon="10.195517">
<ele>356</ele>
<time>2019-05-31T12:15:09Z</time>
</trkpt>
<trkpt lat="49.361078" lon="10.195867">
<ele>356</ele>
<time>2019-05-31T12:15:15Z</time>
</trkpt>
<trkpt lat="49.360853" lon="10.196063">
<ele>356</ele>
<time>2019-05-31T12:15:20Z</time>
</trkpt>
<trkpt lat="49.360608" lon="10.19623">
<ele>356</ele>
<time>2019-05-31T12:15:26Z</time>
</trkpt>
<trkpt lat="49.360477" lon="10.19647">
<ele>356</ele>
<time>2019-05-31T12:15:31Z</time>
</trkpt>
<trkpt lat="49.360317" lon="10.196643">
<ele>356</ele>
<time>2019-05-31T12:15:36Z</time>
</trkpt>
<trkpt lat="49.36002" lon="10.196795">
<ele>356</ele>
<time>2019-05-31T12:15:42Z</time>
</trkpt>
<trkpt lat="49.359787" lon="10.19691">
<ele>356</ele>
<time>2019-05-31T12:15:47Z</time>
</trkpt>
<trkpt lat="49.359522" lon="10.19712">
<ele>357</ele>
<time>2019-05-31T12:15:53Z</time>
</trkpt>
<trkpt lat="49.359337" lon="10.197295">
<ele>358</ele>
<time>2019-05-31T12:15:58Z</time>
</trkpt>
<trkpt lat="49.35918" lon="10.197478">
<ele>359</ele>
<time>2019-05-31T12:16:03Z</time>
</trkpt>
<trkpt lat="49.359022" lon="10.197678">
<ele>360</ele>
<time>2019-05-31T12:16:09Z</time>
</trkpt>
<trkpt lat="49.358907" lon="10.197853">
<ele>361</ele>
<time>2019-05-31T12:16:14Z</time>
</trkpt>
<trkpt lat="49.358802" lon="10.198038">
<ele>361</ele>
<time>2019-05-31T12:16:19Z</time>
</trkpt>
<trkpt lat="49.358707" lon="10.198232">
<ele>362</ele>
<time>2019-05-31T12:16:24Z</time>
</trkpt>
<trkpt lat="49.358608" lon="10.198428">
<ele>363</ele>
<time>2019-05-31T12:16:29Z</time>
</trkpt>
<trkpt lat="49.358507" lon="10.198628">
<ele>364</ele>
<time>2019-05-31T12:16:34Z</time>
</trkpt>
<trkpt lat="49.358395" lon="10.19883">
<ele>364</ele>
<time>2019-05-31T12:16:39Z</time>
</trkpt>
<trkpt lat="49.358265" lon="10.199078">
<ele>365</ele>
<time>2019-05-31T12:16:45Z</time>
</trkpt>
<trkpt lat="49.358112" lon="10.199303">
<ele>366</ele>
<time>2019-05-31T12:16:51Z</time>
</trkpt>
<trkpt lat="49.357928" lon="10.199473">
<ele>366</ele>
<time>2019-05-31T12:16:57Z</time>
</trkpt>
<trkpt lat="49.357768" lon="10.199577">
<ele>367</ele>
<time>2019-05-31T12:17:02Z</time>
</trkpt>
<trkpt lat="49.357585" lon="10.19968">
<ele>368</ele>
<time>2019-05-31T12:17:08Z</time>
</trkpt>
<trkpt lat="49.357437" lon="10.199768">
<ele>368</ele>
<time>2019-05-31T12:17:13Z</time>
</trkpt>
<trkpt lat="49.357293" lon="10.199842">
<ele>369</ele>
<time>2019-05-31T12:17:18Z</time>
</trkpt>
<trkpt lat="49.357115" lon="10.199943">
<ele>369</ele>
<time>2019-05-31T12:17:24Z</time>
</trkpt>
<trkpt lat="49.356917" lon="10.200052">
<ele>369</ele>
<time>2019-05-31T12:17:30Z</time>
</trkpt>
<trkpt lat="49.356675" lon="10.200178">
<ele>369</ele>
<time>2019-05-31T12:17:36Z</time>
</trkpt>
<trkpt lat="49.356448" lon="10.200292">
<ele>369</ele>
<time>2019-05-31T12:17:41Z</time>
</trkpt>
<trkpt lat="49.356298" lon="10.200287">
<ele>367</ele>
<time>2019-05-31T12:17:46Z</time>
</trkpt>
<trkpt lat="49.35613" lon="10.20029">
<ele>367</ele>
<time>2019-05-31T12:17:51Z</time>
</trkpt>
<trkpt lat="49.355948" lon="10.200377">
<ele>367</ele>
<time>2019-05-31T12:17:56Z</time>
</trkpt>
<trkpt lat="49.355793" lon="10.200468">
<ele>367</ele>
<time>2019-05-31T12:18:01Z</time>
</trkpt>
<trkpt lat="49.355637" lon="10.200555">
<ele>367</ele>
<time>2019-05-31T12:18:07Z</time>
</trkpt>
<trkpt lat="49.355525" lon="10.200615">
<ele>367</ele>
<time>2019-05-31T12:18:12Z</time>
</trkpt>
<trkpt lat="49.35546" lon="10.200652">
<ele>367</ele>
<time>2019-05-31T12:18:17Z</time>
</trkpt>
<trkpt lat="49.355385" lon="10.200675">
<ele>367</ele>
<time>2019-05-31T12:18:22Z</time>
</trkpt>
<trkpt lat="49.355275" lon="10.20073">
<ele>367</ele>
<time>2019-05-31T12:18:27Z</time>
</trkpt>
<trkpt lat="49.355078" lon="10.20084">
<ele>366</ele>
<time>2019-05-31T12:18:32Z</time>
</trkpt>
<trkpt lat="49.354845" lon="10.200968">
<ele>366</ele>
<time>2019-05-31T12:18:38Z</time>
</trkpt>
<trkpt lat="49.354647" lon="10.201077">
<ele>366</ele>
<time>2019-05-31T12:18:43Z</time>
</trkpt>
<trkpt lat="49.354435" lon="10.20119">
<ele>366</ele>
<time>2019-05-31T12:18:48Z</time>
</trkpt>
<trkpt lat="49.354223" lon="10.201312">
<ele>366</ele>
<time>2019-05-31T12:18:53Z</time>
</trkpt>
<trkpt lat="49.354015" lon="10.201428">
<ele>366</ele>
<time>2019-05-31T12:18:58Z</time>
</trkpt>
<trkpt lat="49.353792" lon="10.201535">
<ele>366</ele>
<time>2019-05-31T12:19:03Z</time>
</trkpt>
<trkpt lat="49.3537" lon="10.201802">
<ele>366</ele>
<time>2019-05-31T12:19:08Z</time>
</trkpt>
<trkpt lat="49.353818" lon="10.202058">
<ele>366</ele>
<time>2019-05-31T12:19:13Z</time>
</trkpt>
<trkpt lat="49.353938" lon="10.202313">
<ele>366</ele>
<time>2019-05-31T12:19:18Z</time>
</trkpt>
<trkpt lat="49.354083" lon="10.202523">
<ele>366</ele>
<time>2019-05-31T12:19:23Z</time>
</trkpt>
<trkpt lat="49.354237" lon="10.202728">
<ele>366</ele>
<time>2019-05-31T12:19:28Z</time>
</trkpt>
<trkpt lat="49.354407" lon="10.202962">
<ele>367</ele>
<time>2019-05-31T12:19:33Z</time>
</trkpt>
<trkpt lat="49.354563" lon="10.203182">
<ele>367</ele>
<time>2019-05-31T12:19:38Z</time>
</trkpt>
<trkpt lat="49.354725" lon="10.203415">
<ele>367</ele>
<time>2019-05-31T12:19:43Z</time>
</trkpt>
<trkpt lat="49.354858" lon="10.20363">
<ele>367</ele>
<time>2019-05-31T12:19:48Z</time>
</trkpt>
<trkpt lat="49.355005" lon="10.20386">
<ele>367</ele>
<time>2019-05-31T12:19:53Z</time>
</trkpt>
<trkpt lat="49.355142" lon="10.204092">
<ele>367</ele>
<time>2019-05-31T12:19:58Z</time>
</trkpt>
<trkpt lat="49.355278" lon="10.204377">
<ele>368</ele>
<time>2019-05-31T12:20:03Z</time>
</trkpt>
<trkpt lat="49.35541" lon="10.204632">
<ele>368</ele>
<time>2019-05-31T12:20:08Z</time>
</trkpt>
<trkpt lat="49.355547" lon="10.204892">
<ele>368</ele>
<time>2019-05-31T12:20:13Z</time>
</trkpt>
<trkpt lat="49.355688" lon="10.205173">
<ele>368</ele>
<time>2019-05-31T12:20:18Z</time>
</trkpt>
<trkpt lat="49.355837" lon="10.205442">
<ele>368</ele>
<time>2019-05-31T12:20:23Z</time>
</trkpt>
<trkpt lat="49.35597" lon="10.205677">
<ele>368</ele>
<time>2019-05-31T12:20:28Z</time>
</trkpt>
<trkpt lat="49.35611" lon="10.205932">
<ele>368</ele>
<time>2019-05-31T12:20:33Z</time>
</trkpt>
<trkpt lat="49.356277" lon="10.206202">
<ele>369</ele>
<time>2019-05-31T12:20:38Z</time>
</trkpt>
<trkpt lat="49.356445" lon="10.206497">
<ele>369</ele>
<time>2019-05-31T12:20:43Z</time>
</trkpt>
<trkpt lat="49.356638" lon="10.206853">
<ele>370</ele>
<time>2019-05-31T12:20:49Z</time>
</trkpt>
<trkpt lat="49.356787" lon="10.207128">
<ele>370</ele>
<time>2019-05-31T12:20:54Z</time>
</trkpt>
<trkpt lat="49.356925" lon="10.207408">
<ele>371</ele>
<time>2019-05-31T12:20:59Z</time>
</trkpt>
<trkpt lat="49.357043" lon="10.207643">
<ele>371</ele>
<time>2019-05-31T12:21:04Z</time>
</trkpt>
<trkpt lat="49.357187" lon="10.207852">
<ele>372</ele>
<time>2019-05-31T12:21:09Z</time>
</trkpt>
<trkpt lat="49.357322" lon="10.208068">
<ele>374</ele>
<time>2019-05-31T12:21:14Z</time>
</trkpt>
<trkpt lat="49.35746" lon="10.208297">
<ele>375</ele>
<time>2019-05-31T12:21:19Z</time>
</trkpt>
<trkpt lat="49.357618" lon="10.208537">
<ele>375</ele>
<time>2019-05-31T12:21:24Z</time>
</trkpt>
<trkpt lat="49.357785" lon="10.208752">
<ele>376</ele>
<time>2019-05-31T12:21:29Z</time>
</trkpt>
<trkpt lat="49.357962" lon="10.208955">
<ele>376</ele>
<time>2019-05-31T12:21:34Z</time>
</trkpt>
<trkpt lat="49.358165" lon="10.209142">
<ele>377</ele>
<time>2019-05-31T12:21:39Z</time>
</trkpt>
<trkpt lat="49.35839" lon="10.209338">
<ele>377</ele>
<time>2019-05-31T12:21:44Z</time>
</trkpt>
<trkpt lat="49.35863" lon="10.209502">
<ele>377</ele>
<time>2019-05-31T12:21:49Z</time>
</trkpt>
<trkpt lat="49.358875" lon="10.209635">
<ele>377</ele>
<time>2019-05-31T12:21:54Z</time>
</trkpt>
<trkpt lat="49.359108" lon="10.209693">
<ele>377</ele>
<time>2019-05-31T12:21:59Z</time>
</trkpt>
<trkpt lat="49.35936" lon="10.209738">
<ele>377</ele>
<time>2019-05-31T12:22:04Z</time>
</trkpt>
<trkpt lat="49.359637" lon="10.209788">
<ele>377</ele>
<time>2019-05-31T12:22:09Z</time>
</trkpt>
<trkpt lat="49.359907" lon="10.20983">
<ele>377</ele>
<time>2019-05-31T12:22:14Z</time>
</trkpt>
<trkpt lat="49.360172" lon="10.209875">
<ele>377</ele>
<time>2019-05-31T12:22:19Z</time>
</trkpt>
<trkpt lat="49.360448" lon="10.209883">
<ele>377</ele>
<time>2019-05-31T12:22:24Z</time>
</trkpt>
<trkpt lat="49.360737" lon="10.209855">
<ele>377</ele>
<time>2019-05-31T12:22:29Z</time>
</trkpt>
<trkpt lat="49.361055" lon="10.209802">
<ele>376</ele>
<time>2019-05-31T12:22:34Z</time>
</trkpt>
<trkpt lat="49.361408" lon="10.209742">
<ele>376</ele>
<time>2019-05-31T12:22:39Z</time>
</trkpt>
<trkpt lat="49.361753" lon="10.209705">
<ele>375</ele>
<time>2019-05-31T12:22:44Z</time>
</trkpt>
<trkpt lat="49.362103" lon="10.209708">
<ele>375</ele>
<time>2019-05-31T12:22:49Z</time>
</trkpt>
<trkpt lat="49.36243" lon="10.20979">
<ele>375</ele>
<time>2019-05-31T12:22:54Z</time>
</trkpt>
<trkpt lat="49.362637" lon="10.209905">
<ele>375</ele>
<time>2019-05-31T12:22:59Z</time>
</trkpt>
<trkpt lat="49.362773" lon="10.210002">
<ele>376</ele>
<time>2019-05-31T12:23:04Z</time>
</trkpt>
<trkpt lat="49.362923" lon="10.210117">
<ele>376</ele>
<time>2019-05-31T12:23:09Z</time>
</trkpt>
<trkpt lat="49.363102" lon="10.210272">
<ele>377</ele>
<time>2019-05-31T12:23:14Z</time>
</trkpt>
<trkpt lat="49.363312" lon="10.210465">
<ele>378</ele>
<time>2019-05-31T12:23:19Z</time>
</trkpt>
<trkpt lat="49.363503" lon="10.210647">
<ele>379</ele>
<time>2019-05-31T12:23:24Z</time>
</trkpt>
<trkpt lat="49.363688" lon="10.210827">
<ele>379</ele>
<time>2019-05-31T12:23:29Z</time>
</trkpt>
<trkpt lat="49.36388" lon="10.211015">
<ele>380</ele>
<time>2019-05-31T12:23:34Z</time>
</trkpt>
<trkpt lat="49.364093" lon="10.211227">
<ele>381</ele>
<time>2019-05-31T12:23:39Z</time>
</trkpt>
<trkpt lat="49.364297" lon="10.211455">
<ele>381</ele>
<time>2019-05-31T12:23:44Z</time>
</trkpt>
<trkpt lat="49.364542" lon="10.211655">
<ele>381</ele>
<time>2019-05-31T12:23:49Z</time>
</trkpt>
<trkpt lat="49.364808" lon="10.211805">
<ele>381</ele>
<time>2019-05-31T12:23:54Z</time>
</trkpt>
<trkpt lat="49.36506" lon="10.211922">
<ele>381</ele>
<time>2019-05-31T12:23:59Z</time>
</trkpt>
<trkpt lat="49.365328" lon="10.212065">
<ele>381</ele>
<time>2019-05-31T12:24:04Z</time>
</trkpt>
<trkpt lat="49.365583" lon="10.212215">
<ele>381</ele>
<time>2019-05-31T12:24:09Z</time>
</trkpt>
<trkpt lat="49.365852" lon="10.212402">
<ele>381</ele>
<time>2019-05-31T12:24:14Z</time>
</trkpt>
<trkpt lat="49.366115" lon="10.212665">
<ele>381</ele>
<time>2019-05-31T12:24:19Z</time>
</trkpt>
<trkpt lat="49.36636" lon="10.213012">
<ele>380</ele>
<time>2019-05-31T12:24:24Z</time>
</trkpt>
<trkpt lat="49.366627" lon="10.213392">
<ele>380</ele>
<time>2019-05-31T12:24:29Z</time>
</trkpt>
<trkpt lat="49.366907" lon="10.21374">
<ele>379</ele>
<time>2019-05-31T12:24:34Z</time>
</trkpt>
<trkpt lat="49.367203" lon="10.214013">
<ele>378</ele>
<time>2019-05-31T12:24:39Z</time>
</trkpt>
<trkpt lat="49.367533" lon="10.214233">
<ele>377</ele>
<time>2019-05-31T12:24:44Z</time>
</trkpt>
<trkpt lat="49.3679" lon="10.214397">
<ele>377</ele>
<time>2019-05-31T12:24:49Z</time>
</trkpt>
<trkpt lat="49.368247" lon="10.214615">
<ele>376</ele>
<time>2019-05-31T12:24:54Z</time>
</trkpt>
<trkpt lat="49.36859" lon="10.214918">
<ele>376</ele>
<time>2019-05-31T12:24:59Z</time>
</trkpt>
<trkpt lat="49.368932" lon="10.215298">
<ele>376</ele>
<time>2019-05-31T12:25:04Z</time>
</trkpt>
<trkpt lat="49.369273" lon="10.215697">
<ele>376</ele>
<time>2019-05-31T12:25:09Z</time>
</trkpt>
<trkpt lat="49.369663" lon="10.216138">
<ele>375</ele>
<time>2019-05-31T12:25:14Z</time>
</trkpt>
<trkpt lat="49.370097" lon="10.216583">
<ele>375</ele>
<time>2019-05-31T12:25:19Z</time>
</trkpt>
<trkpt lat="49.370485" lon="10.216912">
<ele>374</ele>
<time>2019-05-31T12:25:24Z</time>
</trkpt>
<trkpt lat="49.370867" lon="10.217162">
<ele>372</ele>
<time>2019-05-31T12:25:29Z</time>
</trkpt>
<trkpt lat="49.371222" lon="10.217362">
<ele>372</ele>
<time>2019-05-31T12:25:34Z</time>
</trkpt>
<trkpt lat="49.371562" lon="10.217553">
<ele>372</ele>
<time>2019-05-31T12:25:39Z</time>
</trkpt>
<trkpt lat="49.371898" lon="10.217757">
<ele>372</ele>
<time>2019-05-31T12:25:44Z</time>
</trkpt>
<trkpt lat="49.372195" lon="10.217925">
<ele>372</ele>
<time>2019-05-31T12:25:49Z</time>
</trkpt>
<trkpt lat="49.372488" lon="10.218088">
<ele>372</ele>
<time>2019-05-31T12:25:54Z</time>
</trkpt>
<trkpt lat="49.372763" lon="10.218248">
<ele>372</ele>
<time>2019-05-31T12:25:59Z</time>
</trkpt>
<trkpt lat="49.373038" lon="10.218417">
<ele>372</ele>
<time>2019-05-31T12:26:04Z</time>
</trkpt>
<trkpt lat="49.373305" lon="10.218588">
<ele>373</ele>
<time>2019-05-31T12:26:09Z</time>
</trkpt>
<trkpt lat="49.373547" lon="10.218788">
<ele>373</ele>
<time>2019-05-31T12:26:14Z</time>
</trkpt>
<trkpt lat="49.373783" lon="10.218993">
<ele>373</ele>
<time>2019-05-31T12:26:19Z</time>
</trkpt>
<trkpt lat="49.374017" lon="10.219203">
<ele>373</ele>
<time>2019-05-31T12:26:24Z</time>
</trkpt>
<trkpt lat="49.374255" lon="10.219392">
<ele>373</ele>
<time>2019-05-31T12:26:29Z</time>
</trkpt>
<trkpt lat="49.374518" lon="10.219502">
<ele>373</ele>
<time>2019-05-31T12:26:34Z</time>
</trkpt>
<trkpt lat="49.374813" lon="10.219568">
<ele>373</ele>
<time>2019-05-31T12:26:40Z</time>
</trkpt>
<trkpt lat="49.375035" lon="10.219617">
<ele>373</ele>
<time>2019-05-31T12:26:45Z</time>
</trkpt>
<trkpt lat="49.375245" lon="10.219655">
<ele>374</ele>
<time>2019-05-31T12:26:50Z</time>
</trkpt>
<trkpt lat="49.375432" lon="10.219697">
<ele>374</ele>
<time>2019-05-31T12:26:55Z</time>
</trkpt>
<trkpt lat="49.375555" lon="10.219732">
<ele>375</ele>
<time>2019-05-31T12:27:00Z</time>
</trkpt>
<trkpt lat="49.37559" lon="10.219743">
<ele>375</ele>
<time>2019-05-31T12:27:05Z</time>
</trkpt>
<trkpt lat="49.37562" lon="10.219753">
<ele>375</ele>
<time>2019-05-31T12:27:10Z</time>
</trkpt>
<trkpt lat="49.375638" lon="10.21976">
<ele>375</ele>
<time>2019-05-31T12:27:15Z</time>
</trkpt>
<trkpt lat="49.375658" lon="10.219762">
<ele>375</ele>
<time>2019-05-31T12:27:20Z</time>
</trkpt>
<trkpt lat="49.375803" lon="10.219797">
<ele>375</ele>
<time>2019-05-31T12:27:25Z</time>
</trkpt>
<trkpt lat="49.375982" lon="10.219845">
<ele>375</ele>
<time>2019-05-31T12:27:30Z</time>
</trkpt>
<trkpt lat="49.376188" lon="10.219843">
<ele>375</ele>
<time>2019-05-31T12:27:35Z</time>
</trkpt>
<trkpt lat="49.376408" lon="10.21986">
<ele>376</ele>
<time>2019-05-31T12:27:40Z</time>
</trkpt>
<trkpt lat="49.376628" lon="10.219898">
<ele>376</ele>
<time>2019-05-31T12:27:45Z</time>
</trkpt>
<trkpt lat="49.376847" lon="10.219943">
<ele>377</ele>
<time>2019-05-31T12:27:50Z</time>
</trkpt>
<trkpt lat="49.377083" lon="10.21999">
<ele>377</ele>
<time>2019-05-31T12:27:55Z</time>
</trkpt>
<trkpt lat="49.377323" lon="10.220038">
<ele>377</ele>
<time>2019-05-31T12:28:00Z</time>
</trkpt>
<trkpt lat="49.377588" lon="10.220092">
<ele>378</ele>
<time>2019-05-31T12:28:05Z</time>
</trkpt>
<trkpt lat="49.37787" lon="10.220143">
<ele>378</ele>
<time>2019-05-31T12:28:10Z</time>
</trkpt>
<trkpt lat="49.378155" lon="10.220195">
<ele>379</ele>
<time>2019-05-31T12:28:15Z</time>
</trkpt>
<trkpt lat="49.378427" lon="10.22024">
<ele>380</ele>
<time>2019-05-31T12:28:20Z</time>
</trkpt>
<trkpt lat="49.37871" lon="10.220275">
<ele>380</ele>
<time>2019-05-31T12:28:25Z</time>
</trkpt>
<trkpt lat="49.378982" lon="10.220297">
<ele>380</ele>
<time>2019-05-31T12:28:30Z</time>
</trkpt>
<trkpt lat="49.379233" lon="10.220302">
<ele>381</ele>
<time>2019-05-31T12:28:35Z</time>
</trkpt>
<trkpt lat="49.379463" lon="10.220303">
<ele>382</ele>
<time>2019-05-31T12:28:40Z</time>
</trkpt>
<trkpt lat="49.379702" lon="10.220262">
<ele>383</ele>
<time>2019-05-31T12:28:46Z</time>
</trkpt>
<trkpt lat="49.379915" lon="10.220213">
<ele>383</ele>
<time>2019-05-31T12:28:51Z</time>
</trkpt>
<trkpt lat="49.380145" lon="10.220125">
<ele>384</ele>
<time>2019-05-31T12:28:56Z</time>
</trkpt>
<trkpt lat="49.380365" lon="10.220013">
<ele>384</ele>
<time>2019-05-31T12:29:01Z</time>
</trkpt>
<trkpt lat="49.380592" lon="10.21988">
<ele>385</ele>
<time>2019-05-31T12:29:06Z</time>
</trkpt>
<trkpt lat="49.3808" lon="10.219728">
<ele>386</ele>
<time>2019-05-31T12:29:11Z</time>
</trkpt>
<trkpt lat="49.381015" lon="10.219578">
<ele>386</ele>
<time>2019-05-31T12:29:16Z</time>
</trkpt>
<trkpt lat="49.381273" lon="10.21939">
<ele>387</ele>
<time>2019-05-31T12:29:22Z</time>
</trkpt>
<trkpt lat="49.381562" lon="10.219217">
<ele>387</ele>
<time>2019-05-31T12:29:28Z</time>
</trkpt>
<trkpt lat="49.381772" lon="10.219087">
<ele>388</ele>
<time>2019-05-31T12:29:33Z</time>
</trkpt>
<trkpt lat="49.382003" lon="10.219033">
<ele>388</ele>
<time>2019-05-31T12:29:38Z</time>
</trkpt>
<trkpt lat="49.382217" lon="10.218987">
<ele>388</ele>
<time>2019-05-31T12:29:43Z</time>
</trkpt>
<trkpt lat="49.382448" lon="10.219012">
<ele>388</ele>
<time>2019-05-31T12:29:48Z</time>
</trkpt>
<trkpt lat="49.38273" lon="10.219098">
<ele>389</ele>
<time>2019-05-31T12:29:54Z</time>
</trkpt>
<trkpt lat="49.383025" lon="10.21927">
<ele>389</ele>
<time>2019-05-31T12:30:00Z</time>
</trkpt>
<trkpt lat="49.383248" lon="10.21943">
<ele>389</ele>
<time>2019-05-31T12:30:05Z</time>
</trkpt>
<trkpt lat="49.383472" lon="10.219607">
<ele>390</ele>
<time>2019-05-31T12:30:10Z</time>
</trkpt>
<trkpt lat="49.383692" lon="10.219787">
<ele>390</ele>
<time>2019-05-31T12:30:15Z</time>
</trkpt>
<trkpt lat="49.383922" lon="10.219975">
<ele>391</ele>
<time>2019-05-31T12:30:20Z</time>
</trkpt>
<trkpt lat="49.384163" lon="10.220173">
<ele>391</ele>
<time>2019-05-31T12:30:25Z</time>
</trkpt>
<trkpt lat="49.384413" lon="10.220377">
<ele>391</ele>
<time>2019-05-31T12:30:30Z</time>
</trkpt>
<trkpt lat="49.38468" lon="10.22059">
<ele>391</ele>
<time>2019-05-31T12:30:35Z</time>
</trkpt>
<trkpt lat="49.384957" lon="10.220805">
<ele>391</ele>
<time>2019-05-31T12:30:40Z</time>
</trkpt>
<trkpt lat="49.385233" lon="10.221017">
<ele>391</ele>
<time>2019-05-31T12:30:45Z</time>
</trkpt>
<trkpt lat="49.385502" lon="10.221218">
<ele>391</ele>
<time>2019-05-31T12:30:50Z</time>
</trkpt>
<trkpt lat="49.385767" lon="10.221433">
<ele>391</ele>
<time>2019-05-31T12:30:55Z</time>
</trkpt>
<trkpt lat="49.386057" lon="10.221667">
<ele>391</ele>
<time>2019-05-31T12:31:00Z</time>
</trkpt>
<trkpt lat="49.386378" lon="10.221912">
<ele>391</ele>
<time>2019-05-31T12:31:05Z</time>
</trkpt>
<trkpt lat="49.386712" lon="10.22218">
<ele>390</ele>
<time>2019-05-31T12:31:10Z</time>
</trkpt>
<trkpt lat="49.387113" lon="10.222493">
<ele>389</ele>
<time>2019-05-31T12:31:16Z</time>
</trkpt>
<trkpt lat="49.387457" lon="10.22273">
<ele>389</ele>
<time>2019-05-31T12:31:21Z</time>
</trkpt>
<trkpt lat="49.387815" lon="10.222908">
<ele>388</ele>
<time>2019-05-31T12:31:26Z</time>
</trkpt>
<trkpt lat="49.388187" lon="10.22304">
<ele>388</ele>
<time>2019-05-31T12:31:31Z</time>
</trkpt>
<trkpt lat="49.388565" lon="10.223147">
<ele>388</ele>
<time>2019-05-31T12:31:36Z</time>
</trkpt>
<trkpt lat="49.38892" lon="10.223228">
<ele>388</ele>
<time>2019-05-31T12:31:41Z</time>
</trkpt>
<trkpt lat="49.389232" lon="10.223325">
<ele>387</ele>
<time>2019-05-31T12:31:46Z</time>
</trkpt>
<trkpt lat="49.38961" lon="10.223488">
<ele>387</ele>
<time>2019-05-31T12:31:52Z</time>
</trkpt>
<trkpt lat="49.390023" lon="10.223738">
<ele>386</ele>
<time>2019-05-31T12:31:58Z</time>
</trkpt>
<trkpt lat="49.390372" lon="10.224035">
<ele>386</ele>
<time>2019-05-31T12:32:03Z</time>
</trkpt>
<trkpt lat="49.390707" lon="10.224357">
<ele>385</ele>
<time>2019-05-31T12:32:08Z</time>
</trkpt>
<trkpt lat="49.391035" lon="10.22469">
<ele>385</ele>
<time>2019-05-31T12:32:13Z</time>
</trkpt>
<trkpt lat="49.391365" lon="10.22501">
<ele>384</ele>
<time>2019-05-31T12:32:18Z</time>
</trkpt>
<trkpt lat="49.391695" lon="10.225282">
<ele>384</ele>
<time>2019-05-31T12:32:23Z</time>
</trkpt>
<trkpt lat="49.39202" lon="10.225497">
<ele>384</ele>
<time>2019-05-31T12:32:28Z</time>
</trkpt>
<trkpt lat="49.392393" lon="10.225718">
<ele>384</ele>
<time>2019-05-31T12:32:34Z</time>
</trkpt>
<trkpt lat="49.392783" lon="10.225948">
<ele>384</ele>
<time>2019-05-31T12:32:40Z</time>
</trkpt>
<trkpt lat="49.39311" lon="10.22617">
<ele>384</ele>
<time>2019-05-31T12:32:45Z</time>
</trkpt>
<trkpt lat="49.393417" lon="10.226418">
<ele>383</ele>
<time>2019-05-31T12:32:50Z</time>
</trkpt>
<trkpt lat="49.393697" lon="10.22666">
<ele>383</ele>
<time>2019-05-31T12:32:55Z</time>
</trkpt>
<trkpt lat="49.39397" lon="10.226903">
<ele>383</ele>
<time>2019-05-31T12:33:00Z</time>
</trkpt>
<trkpt lat="49.394245" lon="10.227147">
<ele>383</ele>
<time>2019-05-31T12:33:05Z</time>
</trkpt>
<trkpt lat="49.394497" lon="10.227377">
<ele>383</ele>
<time>2019-05-31T12:33:10Z</time>
</trkpt>
<trkpt lat="49.394815" lon="10.227652">
<ele>383</ele>
<time>2019-05-31T12:33:16Z</time>
</trkpt>
<trkpt lat="49.395143" lon="10.227933">
<ele>383</ele>
<time>2019-05-31T12:33:22Z</time>
</trkpt>
<trkpt lat="49.395483" lon="10.22822">
<ele>383</ele>
<time>2019-05-31T12:33:28Z</time>
</trkpt>
<trkpt lat="49.395755" lon="10.228457">
<ele>383</ele>
<time>2019-05-31T12:33:33Z</time>
</trkpt>
<trkpt lat="49.396002" lon="10.228678">
<ele>383</ele>
<time>2019-05-31T12:33:38Z</time>
</trkpt>
<trkpt lat="49.396247" lon="10.228938">
<ele>383</ele>
<time>2019-05-31T12:33:43Z</time>
</trkpt>
<trkpt lat="49.396427" lon="10.229312">
<ele>384</ele>
<time>2019-05-31T12:33:48Z</time>
</trkpt>
<trkpt lat="49.396518" lon="10.229748">
<ele>384</ele>
<time>2019-05-31T12:33:53Z</time>
</trkpt>
<trkpt lat="49.396545" lon="10.230202">
<ele>384</ele>
<time>2019-05-31T12:33:58Z</time>
</trkpt>
<trkpt lat="49.39659" lon="10.230655">
<ele>385</ele>
<time>2019-05-31T12:34:03Z</time>
</trkpt>
<trkpt lat="49.396728" lon="10.231018">
<ele>385</ele>
<time>2019-05-31T12:34:08Z</time>
</trkpt>
<trkpt lat="49.396918" lon="10.231357">
<ele>385</ele>
<time>2019-05-31T12:34:13Z</time>
</trkpt>
<trkpt lat="49.397128" lon="10.231733">
<ele>385</ele>
<time>2019-05-31T12:34:18Z</time>
</trkpt>
<trkpt lat="49.397345" lon="10.232143">
<ele>385</ele>
<time>2019-05-31T12:34:23Z</time>
</trkpt>
<trkpt lat="49.39758" lon="10.232538">
<ele>385</ele>
<time>2019-05-31T12:34:28Z</time>
</trkpt>
<trkpt lat="49.397867" lon="10.232953">
<ele>385</ele>
<time>2019-05-31T12:34:34Z</time>
</trkpt>
<trkpt lat="49.398183" lon="10.233307">
<ele>385</ele>
<time>2019-05-31T12:34:40Z</time>
</trkpt>
<trkpt lat="49.3985" lon="10.233577">
<ele>385</ele>
<time>2019-05-31T12:34:46Z</time>
</trkpt>
<trkpt lat="49.398765" lon="10.233767">
<ele>386</ele>
<time>2019-05-31T12:34:51Z</time>
</trkpt>
<trkpt lat="49.399007" lon="10.233933">
<ele>387</ele>
<time>2019-05-31T12:34:56Z</time>
</trkpt>
<trkpt lat="49.399235" lon="10.234083">
<ele>387</ele>
<time>2019-05-31T12:35:01Z</time>
</trkpt>
<trkpt lat="49.399453" lon="10.234242">
<ele>388</ele>
<time>2019-05-31T12:35:06Z</time>
</trkpt>
<trkpt lat="49.399662" lon="10.234448">
<ele>388</ele>
<time>2019-05-31T12:35:11Z</time>
</trkpt>
<trkpt lat="49.399848" lon="10.23471">
<ele>388</ele>
<time>2019-05-31T12:35:16Z</time>
</trkpt>
<trkpt lat="49.400033" lon="10.235087">
<ele>389</ele>
<time>2019-05-31T12:35:22Z</time>
</trkpt>
<trkpt lat="49.400138" lon="10.23543">
<ele>389</ele>
<time>2019-05-31T12:35:27Z</time>
</trkpt>
<trkpt lat="49.400198" lon="10.235795">
<ele>390</ele>
<time>2019-05-31T12:35:32Z</time>
</trkpt>
<trkpt lat="49.400208" lon="10.236165">
<ele>391</ele>
<time>2019-05-31T12:35:37Z</time>
</trkpt>
<trkpt lat="49.40019" lon="10.23652">
<ele>392</ele>
<time>2019-05-31T12:35:42Z</time>
</trkpt>
<trkpt lat="49.400273" lon="10.236777">
<ele>393</ele>
<time>2019-05-31T12:35:47Z</time>
</trkpt>
<trkpt lat="49.400447" lon="10.236923">
<ele>393</ele>
<time>2019-05-31T12:35:52Z</time>
</trkpt>
<trkpt lat="49.400672" lon="10.237107">
<ele>393</ele>
<time>2019-05-31T12:35:57Z</time>
</trkpt>
<trkpt lat="49.400902" lon="10.237265">
<ele>394</ele>
<time>2019-05-31T12:36:02Z</time>
</trkpt>
<trkpt lat="49.401137" lon="10.237412">
<ele>394</ele>
<time>2019-05-31T12:36:07Z</time>
</trkpt>
<trkpt lat="49.401365" lon="10.237505">
<ele>394</ele>
<time>2019-05-31T12:36:12Z</time>
</trkpt>
<trkpt lat="49.401603" lon="10.2376">
<ele>394</ele>
<time>2019-05-31T12:36:17Z</time>
</trkpt>
<trkpt lat="49.401735" lon="10.237967">
<ele>394</ele>
<time>2019-05-31T12:36:22Z</time>
</trkpt>
<trkpt lat="49.401905" lon="10.238438">
<ele>394</ele>
<time>2019-05-31T12:36:28Z</time>
</trkpt>
<trkpt lat="49.402077" lon="10.238818">
<ele>395</ele>
<time>2019-05-31T12:36:33Z</time>
</trkpt>
<trkpt lat="49.402257" lon="10.239157">
<ele>396</ele>
<time>2019-05-31T12:36:38Z</time>
</trkpt>
<trkpt lat="49.402447" lon="10.239425">
<ele>397</ele>
<time>2019-05-31T12:36:43Z</time>
</trkpt>
<trkpt lat="49.402667" lon="10.239613">
<ele>397</ele>
<time>2019-05-31T12:36:48Z</time>
</trkpt>
<trkpt lat="49.402923" lon="10.23974">
<ele>397</ele>
<time>2019-05-31T12:36:53Z</time>
</trkpt>
<trkpt lat="49.403233" lon="10.239823">
<ele>397</ele>
<time>2019-05-31T12:36:58Z</time>
</trkpt>
<trkpt lat="49.403608" lon="10.239907">
<ele>395</ele>
<time>2019-05-31T12:37:03Z</time>
</trkpt>
<trkpt lat="49.404012" lon="10.239988">
<ele>394</ele>
<time>2019-05-31T12:37:08Z</time>
</trkpt>
<trkpt lat="49.404405" lon="10.240063">
<ele>394</ele>
<time>2019-05-31T12:37:13Z</time>
</trkpt>
<trkpt lat="49.404773" lon="10.240165">
<ele>393</ele>
<time>2019-05-31T12:37:18Z</time>
</trkpt>
<trkpt lat="49.405123" lon="10.24037">
<ele>393</ele>
<time>2019-05-31T12:37:23Z</time>
</trkpt>
<trkpt lat="49.405427" lon="10.240663">
<ele>393</ele>
<time>2019-05-31T12:37:28Z</time>
</trkpt>
<trkpt lat="49.405677" lon="10.240998">
<ele>394</ele>
<time>2019-05-31T12:37:33Z</time>
</trkpt>
<trkpt lat="49.405885" lon="10.241295">
<ele>394</ele>
<time>2019-05-31T12:37:38Z</time>
</trkpt>
<trkpt lat="49.406108" lon="10.241568">
<ele>395</ele>
<time>2019-05-31T12:37:43Z</time>
</trkpt>
<trkpt lat="49.406358" lon="10.241823">
<ele>396</ele>
<time>2019-05-31T12:37:48Z</time>
</trkpt>
<trkpt lat="49.406618" lon="10.242032">
<ele>396</ele>
<time>2019-05-31T12:37:53Z</time>
</trkpt>
<trkpt lat="49.406888" lon="10.242187">
<ele>396</ele>
<time>2019-05-31T12:37:58Z</time>
</trkpt>
<trkpt lat="49.407183" lon="10.242342">
<ele>396</ele>
<time>2019-05-31T12:38:03Z</time>
</trkpt>
<trkpt lat="49.407473" lon="10.242493">
<ele>396</ele>
<time>2019-05-31T12:38:08Z</time>
</trkpt>
<trkpt lat="49.407775" lon="10.242643">
<ele>396</ele>
<time>2019-05-31T12:38:13Z</time>
</trkpt>
<trkpt lat="49.408065" lon="10.242813">
<ele>397</ele>
<time>2019-05-31T12:38:18Z</time>
</trkpt>
<trkpt lat="49.408328" lon="10.242965">
<ele>398</ele>
<time>2019-05-31T12:38:23Z</time>
</trkpt>
<trkpt lat="49.40854" lon="10.243128">
<ele>398</ele>
<time>2019-05-31T12:38:28Z</time>
</trkpt>
<trkpt lat="49.408725" lon="10.243348">
<ele>399</ele>
<time>2019-05-31T12:38:33Z</time>
</trkpt>
<trkpt lat="49.408878" lon="10.24361">
<ele>399</ele>
<time>2019-05-31T12:38:38Z</time>
</trkpt>
<trkpt lat="49.408995" lon="10.24391">
<ele>400</ele>
<time>2019-05-31T12:38:43Z</time>
</trkpt>
<trkpt lat="49.40907" lon="10.244252">
<ele>400</ele>
<time>2019-05-31T12:38:48Z</time>
</trkpt>
<trkpt lat="49.409112" lon="10.244622">
<ele>401</ele>
<time>2019-05-31T12:38:53Z</time>
</trkpt>
<trkpt lat="49.409115" lon="10.244977">
<ele>402</ele>
<time>2019-05-31T12:38:58Z</time>
</trkpt>
<trkpt lat="49.409108" lon="10.245283">
<ele>403</ele>
<time>2019-05-31T12:39:03Z</time>
</trkpt>
<trkpt lat="49.409092" lon="10.245582">
<ele>404</ele>
<time>2019-05-31T12:39:08Z</time>
</trkpt>
<trkpt lat="49.409073" lon="10.245855">
<ele>405</ele>
<time>2019-05-31T12:39:13Z</time>
</trkpt>
<trkpt lat="49.409087" lon="10.246137">
<ele>405</ele>
<time>2019-05-31T12:39:18Z</time>
</trkpt>
<trkpt lat="49.409067" lon="10.246378">
<ele>406</ele>
<time>2019-05-31T12:39:23Z</time>
</trkpt>
<trkpt lat="49.40909" lon="10.246668">
<ele>407</ele>
<time>2019-05-31T12:39:28Z</time>
</trkpt>
<trkpt lat="49.409135" lon="10.246943">
<ele>408</ele>
<time>2019-05-31T12:39:33Z</time>
</trkpt>
<trkpt lat="49.409197" lon="10.247205">
<ele>409</ele>
<time>2019-05-31T12:39:38Z</time>
</trkpt>
<trkpt lat="49.409285" lon="10.247435">
<ele>410</ele>
<time>2019-05-31T12:39:43Z</time>
</trkpt>
<trkpt lat="49.409387" lon="10.247643">
<ele>410</ele>
<time>2019-05-31T12:39:48Z</time>
</trkpt>
<trkpt lat="49.409493" lon="10.24785">
<ele>411</ele>
<time>2019-05-31T12:39:53Z</time>
</trkpt>
<trkpt lat="49.409592" lon="10.248045">
<ele>411</ele>
<time>2019-05-31T12:39:58Z</time>
</trkpt>
<trkpt lat="49.40969" lon="10.248233">
<ele>412</ele>
<time>2019-05-31T12:40:03Z</time>
</trkpt>
<trkpt lat="49.409785" lon="10.24841">
<ele>413</ele>
<time>2019-05-31T12:40:08Z</time>
</trkpt>
<trkpt lat="49.409888" lon="10.248607">
<ele>413</ele>
<time>2019-05-31T12:40:13Z</time>
</trkpt>
<trkpt lat="49.409988" lon="10.248815">
<ele>414</ele>
<time>2019-05-31T12:40:18Z</time>
</trkpt>
<trkpt lat="49.410083" lon="10.24904">
<ele>415</ele>
<time>2019-05-31T12:40:23Z</time>
</trkpt>
<trkpt lat="49.410175" lon="10.249245">
<ele>415</ele>
<time>2019-05-31T12:40:28Z</time>
</trkpt>
<trkpt lat="49.410267" lon="10.249477">
<ele>415</ele>
<time>2019-05-31T12:40:33Z</time>
</trkpt>
<trkpt lat="49.410337" lon="10.249728">
<ele>416</ele>
<time>2019-05-31T12:40:38Z</time>
</trkpt>
<trkpt lat="49.410415" lon="10.24998">
<ele>416</ele>
<time>2019-05-31T12:40:43Z</time>
</trkpt>
<trkpt lat="49.41048" lon="10.250227">
<ele>417</ele>
<time>2019-05-31T12:40:48Z</time>
</trkpt>
<trkpt lat="49.410552" lon="10.250455">
<ele>417</ele>
<time>2019-05-31T12:40:53Z</time>
</trkpt>
<trkpt lat="49.410623" lon="10.25068">
<ele>418</ele>
<time>2019-05-31T12:40:58Z</time>
</trkpt>
<trkpt lat="49.410692" lon="10.250892">
<ele>418</ele>
<time>2019-05-31T12:41:03Z</time>
</trkpt>
<trkpt lat="49.410767" lon="10.251093">
<ele>419</ele>
<time>2019-05-31T12:41:08Z</time>
</trkpt>
<trkpt lat="49.41084" lon="10.251287">
<ele>420</ele>
<time>2019-05-31T12:41:13Z</time>
</trkpt>
<trkpt lat="49.410912" lon="10.251455">
<ele>421</ele>
<time>2019-05-31T12:41:18Z</time>
</trkpt>
<trkpt lat="49.411005" lon="10.251615">
<ele>422</ele>
<time>2019-05-31T12:41:23Z</time>
</trkpt>
<trkpt lat="49.411097" lon="10.251768">
<ele>423</ele>
<time>2019-05-31T12:41:28Z</time>
</trkpt>
<trkpt lat="49.411195" lon="10.251917">
<ele>423</ele>
<time>2019-05-31T12:41:33Z</time>
</trkpt>
<trkpt lat="49.411308" lon="10.252055">
<ele>424</ele>
<time>2019-05-31T12:41:38Z</time>
</trkpt>
<trkpt lat="49.411422" lon="10.25219">
<ele>425</ele>
<time>2019-05-31T12:41:43Z</time>
</trkpt>
<trkpt lat="49.41154" lon="10.25232">
<ele>426</ele>
<time>2019-05-31T12:41:48Z</time>
</trkpt>
<trkpt lat="49.41166" lon="10.25247">
<ele>427</ele>
<time>2019-05-31T12:41:53Z</time>
</trkpt>
<trkpt lat="49.411787" lon="10.252637">
<ele>427</ele>
<time>2019-05-31T12:41:58Z</time>
</trkpt>
<trkpt lat="49.41192" lon="10.252803">
<ele>428</ele>
<time>2019-05-31T12:42:03Z</time>
</trkpt>
<trkpt lat="49.412048" lon="10.25302">
<ele>428</ele>
<time>2019-05-31T12:42:08Z</time>
</trkpt>
<trkpt lat="49.412142" lon="10.253287">
<ele>428</ele>
<time>2019-05-31T12:42:13Z</time>
</trkpt>
<trkpt lat="49.412218" lon="10.253582">
<ele>428</ele>
<time>2019-05-31T12:42:18Z</time>
</trkpt>
<trkpt lat="49.412273" lon="10.253957">
<ele>428</ele>
<time>2019-05-31T12:42:23Z</time>
</trkpt>
<trkpt lat="49.412288" lon="10.254357">
<ele>428</ele>
<time>2019-05-31T12:42:28Z</time>
</trkpt>
<trkpt lat="49.412287" lon="10.254772">
<ele>428</ele>
<time>2019-05-31T12:42:33Z</time>
</trkpt>
<trkpt lat="49.412253" lon="10.255172">
<ele>428</ele>
<time>2019-05-31T12:42:38Z</time>
</trkpt>
<trkpt lat="49.412195" lon="10.255558">
<ele>428</ele>
<time>2019-05-31T12:42:43Z</time>
</trkpt>
<trkpt lat="49.412128" lon="10.255933">
<ele>428</ele>
<time>2019-05-31T12:42:48Z</time>
</trkpt>
<trkpt lat="49.412058" lon="10.25631">
<ele>428</ele>
<time>2019-05-31T12:42:53Z</time>
</trkpt>
<trkpt lat="49.41202" lon="10.256675">
<ele>429</ele>
<time>2019-05-31T12:42:58Z</time>
</trkpt>
<trkpt lat="49.412028" lon="10.257012">
<ele>430</ele>
<time>2019-05-31T12:43:03Z</time>
</trkpt>
<trkpt lat="49.412058" lon="10.257302">
<ele>430</ele>
<time>2019-05-31T12:43:08Z</time>
</trkpt>
<trkpt lat="49.4121" lon="10.257597">
<ele>431</ele>
<time>2019-05-31T12:43:13Z</time>
</trkpt>
<trkpt lat="49.412138" lon="10.257842">
<ele>431</ele>
<time>2019-05-31T12:43:18Z</time>
</trkpt>
<trkpt lat="49.412175" lon="10.258058">
<ele>431</ele>
<time>2019-05-31T12:43:23Z</time>
</trkpt>
<trkpt lat="49.412233" lon="10.258315">
<ele>431</ele>
<time>2019-05-31T12:43:28Z</time>
</trkpt>
<trkpt lat="49.41231" lon="10.258605">
<ele>432</ele>
<time>2019-05-31T12:43:33Z</time>
</trkpt>
<trkpt lat="49.412382" lon="10.258917">
<ele>432</ele>
<time>2019-05-31T12:43:38Z</time>
</trkpt>
<trkpt lat="49.412477" lon="10.259235">
<ele>432</ele>
<time>2019-05-31T12:43:43Z</time>
</trkpt>
<trkpt lat="49.41261" lon="10.259562">
<ele>432</ele>
<time>2019-05-31T12:43:48Z</time>
</trkpt>
<trkpt lat="49.412637" lon="10.25992">
<ele>432</ele>
<time>2019-05-31T12:43:53Z</time>
</trkpt>
<trkpt lat="49.412637" lon="10.260272">
<ele>432</ele>
<time>2019-05-31T12:43:58Z</time>
</trkpt>
<trkpt lat="49.412592" lon="10.2606">
<ele>433</ele>
<time>2019-05-31T12:44:03Z</time>
</trkpt>
<trkpt lat="49.41251" lon="10.260893">
<ele>434</ele>
<time>2019-05-31T12:44:08Z</time>
</trkpt>
<trkpt lat="49.412397" lon="10.261148">
<ele>435</ele>
<time>2019-05-31T12:44:13Z</time>
</trkpt>
<trkpt lat="49.41228" lon="10.261363">
<ele>436</ele>
<time>2019-05-31T12:44:18Z</time>
</trkpt>
<trkpt lat="49.412178" lon="10.261548">
<ele>437</ele>
<time>2019-05-31T12:44:23Z</time>
</trkpt>
<trkpt lat="49.412083" lon="10.261757">
<ele>438</ele>
<time>2019-05-31T12:44:28Z</time>
</trkpt>
<trkpt lat="49.412027" lon="10.26194">
<ele>438</ele>
<time>2019-05-31T12:44:33Z</time>
</trkpt>
<trkpt lat="49.411993" lon="10.262093">
<ele>439</ele>
<time>2019-05-31T12:44:38Z</time>
</trkpt>
<trkpt lat="49.411975" lon="10.262295">
<ele>439</ele>
<time>2019-05-31T12:44:43Z</time>
</trkpt>
<trkpt lat="49.41197" lon="10.262493">
<ele>440</ele>
<time>2019-05-31T12:44:48Z</time>
</trkpt>
<trkpt lat="49.411962" lon="10.262688">
<ele>441</ele>
<time>2019-05-31T12:44:53Z</time>
</trkpt>
<trkpt lat="49.41196" lon="10.26286">
<ele>442</ele>
<time>2019-05-31T12:44:58Z</time>
</trkpt>
<trkpt lat="49.41195" lon="10.263043">
<ele>443</ele>
<time>2019-05-31T12:45:03Z</time>
</trkpt>
<trkpt lat="49.411947" lon="10.26326">
<ele>444</ele>
<time>2019-05-31T12:45:09Z</time>
</trkpt>
<trkpt lat="49.411938" lon="10.26342">
<ele>444</ele>
<time>2019-05-31T12:45:14Z</time>
</trkpt>
<trkpt lat="49.411935" lon="10.263585">
<ele>445</ele>
<time>2019-05-31T12:45:19Z</time>
</trkpt>
<trkpt lat="49.411932" lon="10.263752">
<ele>446</ele>
<time>2019-05-31T12:45:24Z</time>
</trkpt>
<trkpt lat="49.41193" lon="10.263918">
<ele>448</ele>
<time>2019-05-31T12:45:29Z</time>
</trkpt>
<trkpt lat="49.41192" lon="10.264053">
<ele>448</ele>
<time>2019-05-31T12:45:34Z</time>
</trkpt>
<trkpt lat="49.411925" lon="10.264208">
<ele>449</ele>
<time>2019-05-31T12:45:39Z</time>
</trkpt>
<trkpt lat="49.41192" lon="10.264362">
<ele>451</ele>
<time>2019-05-31T12:45:44Z</time>
</trkpt>
<trkpt lat="49.411915" lon="10.264497">
<ele>451</ele>
<time>2019-05-31T12:45:49Z</time>
</trkpt>
<trkpt lat="49.411908" lon="10.264647">
<ele>453</ele>
<time>2019-05-31T12:45:54Z</time>
</trkpt>
<trkpt lat="49.411898" lon="10.264765">
<ele>454</ele>
<time>2019-05-31T12:45:59Z</time>
</trkpt>
<trkpt lat="49.411895" lon="10.264897">
<ele>455</ele>
<time>2019-05-31T12:46:04Z</time>
</trkpt>
<trkpt lat="49.411893" lon="10.26502">
<ele>456</ele>
<time>2019-05-31T12:46:09Z</time>
</trkpt>
<trkpt lat="49.41188" lon="10.265155">
<ele>457</ele>
<time>2019-05-31T12:46:14Z</time>
</trkpt>
<trkpt lat="49.41187" lon="10.265293">
<ele>457</ele>
<time>2019-05-31T12:46:19Z</time>
</trkpt>
<trkpt lat="49.411845" lon="10.265412">
<ele>459</ele>
<time>2019-05-31T12:46:24Z</time>
</trkpt>
<trkpt lat="49.41184" lon="10.26556">
<ele>459</ele>
<time>2019-05-31T12:46:29Z</time>
</trkpt>
<trkpt lat="49.411823" lon="10.26568">
<ele>460</ele>
<time>2019-05-31T12:46:34Z</time>
</trkpt>
<trkpt lat="49.411798" lon="10.26581">
<ele>461</ele>
<time>2019-05-31T12:46:39Z</time>
</trkpt>
<trkpt lat="49.411768" lon="10.26592">
<ele>462</ele>
<time>2019-05-31T12:46:44Z</time>
</trkpt>
<trkpt lat="49.411735" lon="10.26605">
<ele>463</ele>
<time>2019-05-31T12:46:49Z</time>
</trkpt>
<trkpt lat="49.411703" lon="10.266182">
<ele>464</ele>
<time>2019-05-31T12:46:54Z</time>
</trkpt>
<trkpt lat="49.411668" lon="10.266308">
<ele>465</ele>
<time>2019-05-31T12:46:59Z</time>
</trkpt>
<trkpt lat="49.411602" lon="10.266458">
<ele>466</ele>
<time>2019-05-31T12:47:05Z</time>
</trkpt>
<trkpt lat="49.411565" lon="10.26659">
<ele>468</ele>
<time>2019-05-31T12:47:10Z</time>
</trkpt>
<trkpt lat="49.411517" lon="10.266703">
<ele>469</ele>
<time>2019-05-31T12:47:15Z</time>
</trkpt>
<trkpt lat="49.411468" lon="10.26679">
<ele>469</ele>
<time>2019-05-31T12:47:20Z</time>
</trkpt>
<trkpt lat="49.411417" lon="10.266908">
<ele>470</ele>
<time>2019-05-31T12:47:25Z</time>
</trkpt>
<trkpt lat="49.411393" lon="10.267038">
<ele>471</ele>
<time>2019-05-31T12:47:30Z</time>
</trkpt>
<trkpt lat="49.411402" lon="10.267153">
<ele>472</ele>
<time>2019-05-31T12:47:35Z</time>
</trkpt>
<trkpt lat="49.411398" lon="10.267175">
<ele>472</ele>
<time>2019-05-31T12:47:40Z</time>
</trkpt>
<trkpt lat="49.411378" lon="10.267223">
<ele>472</ele>
<time>2019-05-31T12:47:45Z</time>
</trkpt>
<trkpt lat="49.411372" lon="10.267225">
<ele>472</ele>
<time>2019-05-31T12:47:51Z</time>
</trkpt>
<trkpt lat="49.411367" lon="10.267232">
<ele>472</ele>
<time>2019-05-31T12:48:22Z</time>
</trkpt>
<trkpt lat="49.411362" lon="10.267233">
<ele>472</ele>
<time>2019-05-31T12:48:27Z</time>
</trkpt>
<trkpt lat="49.41136" lon="10.267233">
<ele>472</ele>
<time>2019-05-31T12:48:47Z</time>
</trkpt>
<trkpt lat="49.411362" lon="10.267208">
<ele>472</ele>
<time>2019-05-31T12:48:52Z</time>
</trkpt>
<trkpt lat="49.411378" lon="10.267172">
<ele>472</ele>
<time>2019-05-31T12:48:57Z</time>
</trkpt>
<trkpt lat="49.411373" lon="10.267173">
<ele>472</ele>
<time>2019-05-31T12:49:02Z</time>
</trkpt>
<trkpt lat="49.411372" lon="10.267173">
<ele>472</ele>
<time>2019-05-31T12:49:07Z</time>
</trkpt>
<trkpt lat="49.411373" lon="10.267175">
<ele>472</ele>
<time>2019-05-31T12:49:12Z</time>
</trkpt>
<trkpt lat="49.411373" lon="10.267173">
<ele>472</ele>
<time>2019-05-31T12:49:17Z</time>
</trkpt>
<trkpt lat="49.411375" lon="10.267173">
<ele>472</ele>
<time>2019-05-31T12:49:22Z</time>
</trkpt>
<trkpt lat="49.411382" lon="10.26717">
<ele>472</ele>
<time>2019-05-31T12:49:27Z</time>
</trkpt>
<trkpt lat="49.41139" lon="10.267172">
<ele>472</ele>
<time>2019-05-31T12:49:32Z</time>
</trkpt>
<trkpt lat="49.411392" lon="10.267177">
<ele>472</ele>
<time>2019-05-31T12:49:37Z</time>
</trkpt>
<trkpt lat="49.411392" lon="10.267175">
<ele>472</ele>
<time>2019-05-31T12:49:42Z</time>
</trkpt>
<trkpt lat="49.411393" lon="10.267173">
<ele>472</ele>
<time>2019-05-31T12:49:53Z</time>
</trkpt>
<trkpt lat="49.411393" lon="10.267172">
<ele>472</ele>
<time>2019-05-31T12:50:09Z</time>
</trkpt>
<trkpt lat="49.411395" lon="10.267168">
<ele>472</ele>
<time>2019-05-31T12:50:19Z</time>
</trkpt>
<trkpt lat="49.411415" lon="10.267168">
<ele>472</ele>
<time>2019-05-31T12:50:30Z</time>
</trkpt>
<trkpt lat="49.411433" lon="10.267167">
<ele>472</ele>
<time>2019-05-31T12:50:35Z</time>
</trkpt>
<trkpt lat="49.411438" lon="10.26716">
<ele>472</ele>
<time>2019-05-31T12:50:40Z</time>
</trkpt>
<trkpt lat="49.411435" lon="10.267157">
<ele>472</ele>
<time>2019-05-31T12:50:46Z</time>
</trkpt>
<trkpt lat="49.411438" lon="10.267162">
<ele>472</ele>
<time>2019-05-31T12:50:51Z</time>
</trkpt>
<trkpt lat="49.41144" lon="10.267165">
<ele>472</ele>
<time>2019-05-31T12:50:56Z</time>
</trkpt>
<trkpt lat="49.41144" lon="10.267172">
<ele>472</ele>
<time>2019-05-31T12:51:02Z</time>
</trkpt>
<trkpt lat="49.41144" lon="10.267177">
<ele>472</ele>
<time>2019-05-31T12:51:07Z</time>
</trkpt>
<trkpt lat="49.411442" lon="10.267185">
<ele>472</ele>
<time>2019-05-31T12:51:12Z</time>
</trkpt>
<trkpt lat="49.411442" lon="10.267187">
<ele>472</ele>
<time>2019-05-31T12:51:17Z</time>
</trkpt>
<trkpt lat="49.411437" lon="10.267172">
<ele>472</ele>
<time>2019-05-31T12:51:22Z</time>
</trkpt>
<trkpt lat="49.411443" lon="10.26716">
<ele>472</ele>
<time>2019-05-31T12:51:28Z</time>
</trkpt>
<trkpt lat="49.41155" lon="10.267168">
<ele>472</ele>
<time>2019-05-31T12:51:33Z</time>
</trkpt>
<trkpt lat="49.411665" lon="10.267217">
<ele>472</ele>
<time>2019-05-31T12:51:38Z</time>
</trkpt>
<trkpt lat="49.411782" lon="10.267248">
<ele>472</ele>
<time>2019-05-31T12:51:43Z</time>
</trkpt>
<trkpt lat="49.411917" lon="10.267288">
<ele>473</ele>
<time>2019-05-31T12:51:49Z</time>
</trkpt>
<trkpt lat="49.412063" lon="10.267332">
<ele>473</ele>
<time>2019-05-31T12:51:54Z</time>
</trkpt>
<trkpt lat="49.412202" lon="10.26737">
<ele>473</ele>
<time>2019-05-31T12:51:59Z</time>
</trkpt>
<trkpt lat="49.412362" lon="10.26743">
<ele>473</ele>
<time>2019-05-31T12:52:05Z</time>
</trkpt>
<trkpt lat="49.412475" lon="10.267468">
<ele>474</ele>
<time>2019-05-31T12:52:10Z</time>
</trkpt>
<trkpt lat="49.412557" lon="10.267493">
<ele>474</ele>
<time>2019-05-31T12:52:15Z</time>
</trkpt>
<trkpt lat="49.412645" lon="10.267535">
<ele>474</ele>
<time>2019-05-31T12:52:20Z</time>
</trkpt>
<trkpt lat="49.412785" lon="10.267582">
<ele>474</ele>
<time>2019-05-31T12:52:26Z</time>
</trkpt>
<trkpt lat="49.41294" lon="10.267627">
<ele>475</ele>
<time>2019-05-31T12:52:31Z</time>
</trkpt>
<trkpt lat="49.413195" lon="10.267692">
<ele>475</ele>
<time>2019-05-31T12:52:37Z</time>
</trkpt>
<trkpt lat="49.413377" lon="10.267762">
<ele>476</ele>
<time>2019-05-31T12:52:42Z</time>
</trkpt>
<trkpt lat="49.413565" lon="10.267832">
<ele>477</ele>
<time>2019-05-31T12:52:48Z</time>
</trkpt>
<trkpt lat="49.4137" lon="10.267883">
<ele>478</ele>
<time>2019-05-31T12:52:53Z</time>
</trkpt>
<trkpt lat="49.41385" lon="10.267935">
<ele>480</ele>
<time>2019-05-31T12:52:58Z</time>
</trkpt>
<trkpt lat="49.413988" lon="10.268002">
<ele>481</ele>
<time>2019-05-31T12:53:03Z</time>
</trkpt>
<trkpt lat="49.414177" lon="10.268043">
<ele>482</ele>
<time>2019-05-31T12:53:08Z</time>
</trkpt>
<trkpt lat="49.414357" lon="10.268108">
<ele>483</ele>
<time>2019-05-31T12:53:14Z</time>
</trkpt>
<trkpt lat="49.414527" lon="10.268155">
<ele>483</ele>
<time>2019-05-31T12:53:19Z</time>
</trkpt>
<trkpt lat="49.414743" lon="10.268213">
<ele>483</ele>
<time>2019-05-31T12:53:25Z</time>
</trkpt>
<trkpt lat="49.414925" lon="10.268283">
<ele>484</ele>
<time>2019-05-31T12:53:30Z</time>
</trkpt>
<trkpt lat="49.415118" lon="10.268358">
<ele>484</ele>
<time>2019-05-31T12:53:35Z</time>
</trkpt>
<trkpt lat="49.415405" lon="10.268512">
<ele>484</ele>
<time>2019-05-31T12:53:41Z</time>
</trkpt>
<trkpt lat="49.415628" lon="10.268595">
<ele>485</ele>
<time>2019-05-31T12:53:47Z</time>
</trkpt>
<trkpt lat="49.41585" lon="10.268647">
<ele>485</ele>
<time>2019-05-31T12:53:53Z</time>
</trkpt>
<trkpt lat="49.416073" lon="10.268717">
<ele>486</ele>
<time>2019-05-31T12:53:58Z</time>
</trkpt>
<trkpt lat="49.416333" lon="10.268803">
<ele>487</ele>
<time>2019-05-31T12:54:04Z</time>
</trkpt>
<trkpt lat="49.416523" lon="10.268882">
<ele>487</ele>
<time>2019-05-31T12:54:09Z</time>
</trkpt>
<trkpt lat="49.416723" lon="10.268925">
<ele>488</ele>
<time>2019-05-31T12:54:14Z</time>
</trkpt>
<trkpt lat="49.416907" lon="10.268983">
<ele>489</ele>
<time>2019-05-31T12:54:19Z</time>
</trkpt>
<trkpt lat="49.417078" lon="10.269055">
<ele>489</ele>
<time>2019-05-31T12:54:24Z</time>
</trkpt>
<trkpt lat="49.417243" lon="10.269198">
<ele>489</ele>
<time>2019-05-31T12:54:29Z</time>
</trkpt>
<trkpt lat="49.417387" lon="10.269403">
<ele>489</ele>
<time>2019-05-31T12:54:34Z</time>
</trkpt>
<trkpt lat="49.417543" lon="10.269763">
<ele>489</ele>
<time>2019-05-31T12:54:40Z</time>
</trkpt>
<trkpt lat="49.417623" lon="10.270055">
<ele>489</ele>
<time>2019-05-31T12:54:45Z</time>
</trkpt>
<trkpt lat="49.417735" lon="10.270418">
<ele>489</ele>
<time>2019-05-31T12:54:51Z</time>
</trkpt>
<trkpt lat="49.417827" lon="10.270737">
<ele>489</ele>
<time>2019-05-31T12:54:56Z</time>
</trkpt>
<trkpt lat="49.417917" lon="10.271127">
<ele>489</ele>
<time>2019-05-31T12:55:02Z</time>
</trkpt>
<trkpt lat="49.418015" lon="10.271537">
<ele>489</ele>
<time>2019-05-31T12:55:08Z</time>
</trkpt>
<trkpt lat="49.418103" lon="10.271867">
<ele>489</ele>
<time>2019-05-31T12:55:13Z</time>
</trkpt>
<trkpt lat="49.418193" lon="10.272212">
<ele>489</ele>
<time>2019-05-31T12:55:18Z</time>
</trkpt>
<trkpt lat="49.41829" lon="10.272592">
<ele>489</ele>
<time>2019-05-31T12:55:23Z</time>
</trkpt>
<trkpt lat="49.418378" lon="10.27297">
<ele>489</ele>
<time>2019-05-31T12:55:28Z</time>
</trkpt>
<trkpt lat="49.418482" lon="10.273492">
<ele>489</ele>
<time>2019-05-31T12:55:34Z</time>
</trkpt>
<trkpt lat="49.418575" lon="10.274157">
<ele>486</ele>
<time>2019-05-31T12:55:40Z</time>
</trkpt>
<trkpt lat="49.418647" lon="10.27473">
<ele>485</ele>
<time>2019-05-31T12:55:45Z</time>
</trkpt>
<trkpt lat="49.418728" lon="10.275525">
<ele>482</ele>
<time>2019-05-31T12:55:51Z</time>
</trkpt>
<trkpt lat="49.418825" lon="10.2763">
<ele>478</ele>
<time>2019-05-31T12:55:57Z</time>
</trkpt>
<trkpt lat="49.418938" lon="10.276952">
<ele>474</ele>
<time>2019-05-31T12:56:02Z</time>
</trkpt>
<trkpt lat="49.41937" lon="10.277623">
<ele>471</ele>
<time>2019-05-31T12:56:08Z</time>
</trkpt>
<trkpt lat="49.419807" lon="10.277842">
<ele>470</ele>
<time>2019-05-31T12:56:13Z</time>
</trkpt>
<trkpt lat="49.420138" lon="10.278002">
<ele>470</ele>
<time>2019-05-31T12:56:19Z</time>
</trkpt>
<trkpt lat="49.420433" lon="10.278147">
<ele>469</ele>
<time>2019-05-31T12:56:25Z</time>
</trkpt>
<trkpt lat="49.420705" lon="10.278297">
<ele>469</ele>
<time>2019-05-31T12:56:30Z</time>
</trkpt>
<trkpt lat="49.420947" lon="10.278652">
<ele>469</ele>
<time>2019-05-31T12:56:35Z</time>
</trkpt>
<trkpt lat="49.42112" lon="10.279177">
<ele>469</ele>
<time>2019-05-31T12:56:40Z</time>
</trkpt>
<trkpt lat="49.421227" lon="10.279762">
<ele>468</ele>
<time>2019-05-31T12:56:46Z</time>
</trkpt>
<trkpt lat="49.42133" lon="10.280273">
<ele>468</ele>
<time>2019-05-31T12:56:51Z</time>
</trkpt>
<trkpt lat="49.421417" lon="10.280613">
<ele>470</ele>
<time>2019-05-31T12:56:56Z</time>
</trkpt>
<trkpt lat="49.421452" lon="10.280845">
<ele>471</ele>
<time>2019-05-31T12:57:01Z</time>
</trkpt>
<trkpt lat="49.42152" lon="10.281057">
<ele>472</ele>
<time>2019-05-31T12:57:06Z</time>
</trkpt>
<trkpt lat="49.421585" lon="10.28127">
<ele>473</ele>
<time>2019-05-31T12:57:11Z</time>
</trkpt>
<trkpt lat="49.421638" lon="10.281485">
<ele>474</ele>
<time>2019-05-31T12:57:16Z</time>
</trkpt>
<trkpt lat="49.421663" lon="10.281668">
<ele>476</ele>
<time>2019-05-31T12:57:21Z</time>
</trkpt>
<trkpt lat="49.421738" lon="10.28193">
<ele>477</ele>
<time>2019-05-31T12:57:27Z</time>
</trkpt>
<trkpt lat="49.4218" lon="10.282115">
<ele>478</ele>
<time>2019-05-31T12:57:32Z</time>
</trkpt>
<trkpt lat="49.421855" lon="10.282318">
<ele>479</ele>
<time>2019-05-31T12:57:37Z</time>
</trkpt>
<trkpt lat="49.421925" lon="10.282523">
<ele>480</ele>
<time>2019-05-31T12:57:42Z</time>
</trkpt>
<trkpt lat="49.421998" lon="10.28271">
<ele>480</ele>
<time>2019-05-31T12:57:47Z</time>
</trkpt>
<trkpt lat="49.422055" lon="10.282883">
<ele>481</ele>
<time>2019-05-31T12:57:52Z</time>
</trkpt>
<trkpt lat="49.422107" lon="10.283078">
<ele>482</ele>
<time>2019-05-31T12:57:57Z</time>
</trkpt>
<trkpt lat="49.422177" lon="10.283263">
<ele>483</ele>
<time>2019-05-31T12:58:02Z</time>
</trkpt>
<trkpt lat="49.422257" lon="10.283458">
<ele>483</ele>
<time>2019-05-31T12:58:07Z</time>
</trkpt>
<trkpt lat="49.422352" lon="10.28364">
<ele>483</ele>
<time>2019-05-31T12:58:12Z</time>
</trkpt>
<trkpt lat="49.422448" lon="10.283828">
<ele>484</ele>
<time>2019-05-31T12:58:17Z</time>
</trkpt>
<trkpt lat="49.422558" lon="10.284032">
<ele>484</ele>
<time>2019-05-31T12:58:22Z</time>
</trkpt>
<trkpt lat="49.422658" lon="10.28422">
<ele>485</ele>
<time>2019-05-31T12:58:27Z</time>
</trkpt>
<trkpt lat="49.422747" lon="10.284413">
<ele>485</ele>
<time>2019-05-31T12:58:32Z</time>
</trkpt>
<trkpt lat="49.422878" lon="10.284725">
<ele>485</ele>
<time>2019-05-31T12:58:38Z</time>
</trkpt>
<trkpt lat="49.422982" lon="10.285052">
<ele>485</ele>
<time>2019-05-31T12:58:43Z</time>
</trkpt>
<trkpt lat="49.423065" lon="10.285408">
<ele>485</ele>
<time>2019-05-31T12:58:48Z</time>
</trkpt>
<trkpt lat="49.423122" lon="10.285798">
<ele>485</ele>
<time>2019-05-31T12:58:53Z</time>
</trkpt>
<trkpt lat="49.423157" lon="10.286218">
<ele>485</ele>
<time>2019-05-31T12:58:58Z</time>
</trkpt>
<trkpt lat="49.423158" lon="10.286697">
<ele>485</ele>
<time>2019-05-31T12:59:03Z</time>
</trkpt>
<trkpt lat="49.423127" lon="10.287142">
<ele>485</ele>
<time>2019-05-31T12:59:08Z</time>
</trkpt>
<trkpt lat="49.423075" lon="10.28757">
<ele>485</ele>
<time>2019-05-31T12:59:13Z</time>
</trkpt>
<trkpt lat="49.42308" lon="10.28804">
<ele>485</ele>
<time>2019-05-31T12:59:18Z</time>
</trkpt>
<trkpt lat="49.423183" lon="10.288575">
<ele>485</ele>
<time>2019-05-31T12:59:23Z</time>
</trkpt>
<trkpt lat="49.423252" lon="10.28908">
<ele>485</ele>
<time>2019-05-31T12:59:28Z</time>
</trkpt>
<trkpt lat="49.423365" lon="10.289458">
<ele>485</ele>
<time>2019-05-31T12:59:33Z</time>
</trkpt>
<trkpt lat="49.423503" lon="10.289773">
<ele>486</ele>
<time>2019-05-31T12:59:38Z</time>
</trkpt>
<trkpt lat="49.423648" lon="10.290113">
<ele>487</ele>
<time>2019-05-31T12:59:43Z</time>
</trkpt>
<trkpt lat="49.423787" lon="10.29043">
<ele>487</ele>
<time>2019-05-31T12:59:48Z</time>
</trkpt>
<trkpt lat="49.423925" lon="10.290803">
<ele>487</ele>
<time>2019-05-31T12:59:53Z</time>
</trkpt>
<trkpt lat="49.424048" lon="10.291113">
<ele>487</ele>
<time>2019-05-31T12:59:58Z</time>
</trkpt>
<trkpt lat="49.424192" lon="10.29141">
<ele>487</ele>
<time>2019-05-31T13:00:03Z</time>
</trkpt>
<trkpt lat="49.424353" lon="10.291747">
<ele>487</ele>
<time>2019-05-31T13:00:08Z</time>
</trkpt>
<trkpt lat="49.424523" lon="10.292107">
<ele>487</ele>
<time>2019-05-31T13:00:13Z</time>
</trkpt>
<trkpt lat="49.424697" lon="10.292455">
<ele>487</ele>
<time>2019-05-31T13:00:18Z</time>
</trkpt>
<trkpt lat="49.424885" lon="10.292833">
<ele>487</ele>
<time>2019-05-31T13:00:23Z</time>
</trkpt>
<trkpt lat="49.42509" lon="10.293203">
<ele>487</ele>
<time>2019-05-31T13:00:28Z</time>
</trkpt>
<trkpt lat="49.425333" lon="10.293727">
<ele>484</ele>
<time>2019-05-31T13:00:33Z</time>
</trkpt>
<trkpt lat="49.425623" lon="10.294305">
<ele>482</ele>
<time>2019-05-31T13:00:38Z</time>
</trkpt>
<trkpt lat="49.425935" lon="10.294918">
<ele>478</ele>
<time>2019-05-31T13:00:43Z</time>
</trkpt>
<trkpt lat="49.426273" lon="10.295535">
<ele>476</ele>
<time>2019-05-31T13:00:48Z</time>
</trkpt>
<trkpt lat="49.426643" lon="10.296242">
<ele>473</ele>
<time>2019-05-31T13:00:53Z</time>
</trkpt>
<trkpt lat="49.427032" lon="10.296992">
<ele>469</ele>
<time>2019-05-31T13:00:58Z</time>
</trkpt>
<trkpt lat="49.42744" lon="10.297782">
<ele>465</ele>
<time>2019-05-31T13:01:03Z</time>
</trkpt>
<trkpt lat="49.427858" lon="10.29863">
<ele>461</ele>
<time>2019-05-31T13:01:08Z</time>
</trkpt>
<trkpt lat="49.42828" lon="10.299465">
<ele>458</ele>
<time>2019-05-31T13:01:13Z</time>
</trkpt>
<trkpt lat="49.428585" lon="10.30013">
<ele>456</ele>
<time>2019-05-31T13:01:18Z</time>
</trkpt>
<trkpt lat="49.428828" lon="10.300658">
<ele>454</ele>
<time>2019-05-31T13:01:23Z</time>
</trkpt>
<trkpt lat="49.42905" lon="10.30103">
<ele>453</ele>
<time>2019-05-31T13:01:28Z</time>
</trkpt>
<trkpt lat="49.429243" lon="10.30138">
<ele>453</ele>
<time>2019-05-31T13:01:33Z</time>
</trkpt>
<trkpt lat="49.42942" lon="10.30181">
<ele>452</ele>
<time>2019-05-31T13:01:38Z</time>
</trkpt>
<trkpt lat="49.42954" lon="10.3022">
<ele>450</ele>
<time>2019-05-31T13:01:43Z</time>
</trkpt>
<trkpt lat="49.429592" lon="10.302568">
<ele>450</ele>
<time>2019-05-31T13:01:48Z</time>
</trkpt>
<trkpt lat="49.429637" lon="10.302863">
<ele>448</ele>
<time>2019-05-31T13:01:53Z</time>
</trkpt>
<trkpt lat="49.429868" lon="10.302937">
<ele>448</ele>
<time>2019-05-31T13:01:58Z</time>
</trkpt>
<trkpt lat="49.430132" lon="10.302987">
<ele>448</ele>
<time>2019-05-31T13:02:03Z</time>
</trkpt>
<trkpt lat="49.430417" lon="10.303097">
<ele>448</ele>
<time>2019-05-31T13:02:08Z</time>
</trkpt>
<trkpt lat="49.430712" lon="10.303302">
<ele>448</ele>
<time>2019-05-31T13:02:13Z</time>
</trkpt>
<trkpt lat="49.430943" lon="10.303543">
<ele>448</ele>
<time>2019-05-31T13:02:18Z</time>
</trkpt>
<trkpt lat="49.431115" lon="10.303783">
<ele>448</ele>
<time>2019-05-31T13:02:23Z</time>
</trkpt>
<trkpt lat="49.431308" lon="10.304048">
<ele>448</ele>
<time>2019-05-31T13:02:28Z</time>
</trkpt>
<trkpt lat="49.431497" lon="10.30439">
<ele>448</ele>
<time>2019-05-31T13:02:33Z</time>
</trkpt>
<trkpt lat="49.43163" lon="10.304733">
<ele>448</ele>
<time>2019-05-31T13:02:38Z</time>
</trkpt>
<trkpt lat="49.43175" lon="10.305053">
<ele>448</ele>
<time>2019-05-31T13:02:43Z</time>
</trkpt>
<trkpt lat="49.43193" lon="10.30544">
<ele>448</ele>
<time>2019-05-31T13:02:48Z</time>
</trkpt>
<trkpt lat="49.432122" lon="10.305735">
<ele>449</ele>
<time>2019-05-31T13:02:53Z</time>
</trkpt>
<trkpt lat="49.43232" lon="10.306055">
<ele>449</ele>
<time>2019-05-31T13:02:58Z</time>
</trkpt>
<trkpt lat="49.432535" lon="10.306282">
<ele>449</ele>
<time>2019-05-31T13:03:03Z</time>
</trkpt>
<trkpt lat="49.432748" lon="10.306408">
<ele>450</ele>
<time>2019-05-31T13:03:08Z</time>
</trkpt>
<trkpt lat="49.433005" lon="10.306517">
<ele>451</ele>
<time>2019-05-31T13:03:13Z</time>
</trkpt>
<trkpt lat="49.433277" lon="10.306555">
<ele>451</ele>
<time>2019-05-31T13:03:18Z</time>
</trkpt>
<trkpt lat="49.433527" lon="10.306545">
<ele>452</ele>
<time>2019-05-31T13:03:23Z</time>
</trkpt>
<trkpt lat="49.433715" lon="10.306498">
<ele>452</ele>
<time>2019-05-31T13:03:28Z</time>
</trkpt>
<trkpt lat="49.433905" lon="10.306482">
<ele>453</ele>
<time>2019-05-31T13:03:33Z</time>
</trkpt>
<trkpt lat="49.434067" lon="10.306448">
<ele>454</ele>
<time>2019-05-31T13:03:38Z</time>
</trkpt>
<trkpt lat="49.43419" lon="10.306423">
<ele>455</ele>
<time>2019-05-31T13:03:43Z</time>
</trkpt>
<trkpt lat="49.434325" lon="10.306413">
<ele>456</ele>
<time>2019-05-31T13:03:48Z</time>
</trkpt>
<trkpt lat="49.434495" lon="10.306443">
<ele>457</ele>
<time>2019-05-31T13:03:53Z</time>
</trkpt>
<trkpt lat="49.434627" lon="10.306542">
<ele>458</ele>
<time>2019-05-31T13:03:58Z</time>
</trkpt>
<trkpt lat="49.434782" lon="10.306672">
<ele>459</ele>
<time>2019-05-31T13:04:03Z</time>
</trkpt>
<trkpt lat="49.434885" lon="10.306828">
<ele>460</ele>
<time>2019-05-31T13:04:08Z</time>
</trkpt>
<trkpt lat="49.43499" lon="10.306967">
<ele>461</ele>
<time>2019-05-31T13:04:13Z</time>
</trkpt>
<trkpt lat="49.435087" lon="10.307128">
<ele>461</ele>
<time>2019-05-31T13:04:18Z</time>
</trkpt>
<trkpt lat="49.435162" lon="10.307298">
<ele>463</ele>
<time>2019-05-31T13:04:23Z</time>
</trkpt>
<trkpt lat="49.435255" lon="10.30743">
<ele>463</ele>
<time>2019-05-31T13:04:28Z</time>
</trkpt>
<trkpt lat="49.435332" lon="10.307587">
<ele>464</ele>
<time>2019-05-31T13:04:33Z</time>
</trkpt>
<trkpt lat="49.435413" lon="10.307733">
<ele>465</ele>
<time>2019-05-31T13:04:38Z</time>
</trkpt>
<trkpt lat="49.435487" lon="10.30788">
<ele>466</ele>
<time>2019-05-31T13:04:43Z</time>
</trkpt>
<trkpt lat="49.435562" lon="10.308">
<ele>466</ele>
<time>2019-05-31T13:04:48Z</time>
</trkpt>
<trkpt lat="49.435635" lon="10.308112">
<ele>467</ele>
<time>2019-05-31T13:04:53Z</time>
</trkpt>
<trkpt lat="49.435713" lon="10.308223">
<ele>468</ele>
<time>2019-05-31T13:04:58Z</time>
</trkpt>
<trkpt lat="49.435813" lon="10.30836">
<ele>468</ele>
<time>2019-05-31T13:05:03Z</time>
</trkpt>
<trkpt lat="49.435877" lon="10.3085">
<ele>469</ele>
<time>2019-05-31T13:05:08Z</time>
</trkpt>
<trkpt lat="49.435957" lon="10.30869">
<ele>470</ele>
<time>2019-05-31T13:05:13Z</time>
</trkpt>
<trkpt lat="49.436013" lon="10.308913">
<ele>470</ele>
<time>2019-05-31T13:05:18Z</time>
</trkpt>
<trkpt lat="49.436088" lon="10.309217">
<ele>470</ele>
<time>2019-05-31T13:05:23Z</time>
</trkpt>
<trkpt lat="49.43617" lon="10.30954">
<ele>470</ele>
<time>2019-05-31T13:05:28Z</time>
</trkpt>
<trkpt lat="49.436252" lon="10.309848">
<ele>470</ele>
<time>2019-05-31T13:05:33Z</time>
</trkpt>
<trkpt lat="49.436365" lon="10.31012">
<ele>470</ele>
<time>2019-05-31T13:05:38Z</time>
</trkpt>
<trkpt lat="49.436503" lon="10.310398">
<ele>470</ele>
<time>2019-05-31T13:05:43Z</time>
</trkpt>
<trkpt lat="49.436645" lon="10.310667">
<ele>471</ele>
<time>2019-05-31T13:05:48Z</time>
</trkpt>
<trkpt lat="49.436777" lon="10.310927">
<ele>471</ele>
<time>2019-05-31T13:05:53Z</time>
</trkpt>
<trkpt lat="49.436882" lon="10.311175">
<ele>471</ele>
<time>2019-05-31T13:05:58Z</time>
</trkpt>
<trkpt lat="49.43703" lon="10.311495">
<ele>471</ele>
<time>2019-05-31T13:06:03Z</time>
</trkpt>
<trkpt lat="49.437233" lon="10.312017">
<ele>471</ele>
<time>2019-05-31T13:06:08Z</time>
</trkpt>
<trkpt lat="49.437457" lon="10.312692">
<ele>465</ele>
<time>2019-05-31T13:06:13Z</time>
</trkpt>
<trkpt lat="49.437817" lon="10.31321">
<ele>458</ele>
<time>2019-05-31T13:06:18Z</time>
</trkpt>
<trkpt lat="49.438293" lon="10.313543">
<ele>450</ele>
<time>2019-05-31T13:06:23Z</time>
</trkpt>
<trkpt lat="49.438765" lon="10.313802">
<ele>442</ele>
<time>2019-05-31T13:06:28Z</time>
</trkpt>
<trkpt lat="49.439247" lon="10.314167">
<ele>435</ele>
<time>2019-05-31T13:06:33Z</time>
</trkpt>
<trkpt lat="49.43959" lon="10.314655">
<ele>429</ele>
<time>2019-05-31T13:06:38Z</time>
</trkpt>
<trkpt lat="49.439897" lon="10.315098">
<ele>423</ele>
<time>2019-05-31T13:06:43Z</time>
</trkpt>
<trkpt lat="49.440015" lon="10.315622">
<ele>418</ele>
<time>2019-05-31T13:06:48Z</time>
</trkpt>
<trkpt lat="49.440028" lon="10.316275">
<ele>412</ele>
<time>2019-05-31T13:06:53Z</time>
</trkpt>
<trkpt lat="49.440225" lon="10.316752">
<ele>407</ele>
<time>2019-05-31T13:06:58Z</time>
</trkpt>
<trkpt lat="49.440598" lon="10.31667">
<ele>402</ele>
<time>2019-05-31T13:07:03Z</time>
</trkpt>
<trkpt lat="49.440968" lon="10.31612">
<ele>397</ele>
<time>2019-05-31T13:07:08Z</time>
</trkpt>
<trkpt lat="49.441373" lon="10.315403">
<ele>391</ele>
<time>2019-05-31T13:07:13Z</time>
</trkpt>
<trkpt lat="49.441693" lon="10.314633">
<ele>385</ele>
<time>2019-05-31T13:07:18Z</time>
</trkpt>
<trkpt lat="49.441885" lon="10.314055">
<ele>380</ele>
<time>2019-05-31T13:07:23Z</time>
</trkpt>
<trkpt lat="49.442168" lon="10.313837">
<ele>377</ele>
<time>2019-05-31T13:07:28Z</time>
</trkpt>
<trkpt lat="49.4425" lon="10.31419">
<ele>375</ele>
<time>2019-05-31T13:07:33Z</time>
</trkpt>
<trkpt lat="49.442612" lon="10.314685">
<ele>375</ele>
<time>2019-05-31T13:07:38Z</time>
</trkpt>
<trkpt lat="49.442473" lon="10.315107">
<ele>375</ele>
<time>2019-05-31T13:07:43Z</time>
</trkpt>
<trkpt lat="49.442292" lon="10.315397">
<ele>375</ele>
<time>2019-05-31T13:07:48Z</time>
</trkpt>
<trkpt lat="49.442173" lon="10.315682">
<ele>375</ele>
<time>2019-05-31T13:07:53Z</time>
</trkpt>
<trkpt lat="49.442152" lon="10.316015">
<ele>375</ele>
<time>2019-05-31T13:07:58Z</time>
</trkpt>
<trkpt lat="49.442228" lon="10.316325">
<ele>375</ele>
<time>2019-05-31T13:08:03Z</time>
</trkpt>
<trkpt lat="49.4424" lon="10.316607">
<ele>375</ele>
<time>2019-05-31T13:08:08Z</time>
</trkpt>
<trkpt lat="49.44259" lon="10.316898">
<ele>375</ele>
<time>2019-05-31T13:08:13Z</time>
</trkpt>
<trkpt lat="49.442783" lon="10.31719">
<ele>375</ele>
<time>2019-05-31T13:08:18Z</time>
</trkpt>
<trkpt lat="49.442973" lon="10.317472">
<ele>375</ele>
<time>2019-05-31T13:08:23Z</time>
</trkpt>
<trkpt lat="49.443177" lon="10.317762">
<ele>375</ele>
<time>2019-05-31T13:08:28Z</time>
</trkpt>
<trkpt lat="49.443397" lon="10.318082">
<ele>374</ele>
<time>2019-05-31T13:08:33Z</time>
</trkpt>
<trkpt lat="49.443648" lon="10.318455">
<ele>373</ele>
<time>2019-05-31T13:08:38Z</time>
</trkpt>
<trkpt lat="49.443948" lon="10.318893">
<ele>371</ele>
<time>2019-05-31T13:08:43Z</time>
</trkpt>
<trkpt lat="49.4442" lon="10.319432">
<ele>368</ele>
<time>2019-05-31T13:08:48Z</time>
</trkpt>
<trkpt lat="49.444445" lon="10.320032">
<ele>364</ele>
<time>2019-05-31T13:08:53Z</time>
</trkpt>
<trkpt lat="49.444743" lon="10.320578">
<ele>359</ele>
<time>2019-05-31T13:08:58Z</time>
</trkpt>
<trkpt lat="49.445038" lon="10.321068">
<ele>355</ele>
<time>2019-05-31T13:09:03Z</time>
</trkpt>
<trkpt lat="49.445308" lon="10.321548">
<ele>352</ele>
<time>2019-05-31T13:09:08Z</time>
</trkpt>
<trkpt lat="49.445543" lon="10.321967">
<ele>349</ele>
<time>2019-05-31T13:09:13Z</time>
</trkpt>
<trkpt lat="49.445757" lon="10.322415">
<ele>346</ele>
<time>2019-05-31T13:09:18Z</time>
</trkpt>
<trkpt lat="49.445905" lon="10.322713">
<ele>344</ele>
<time>2019-05-31T13:09:23Z</time>
</trkpt>
<trkpt lat="49.446035" lon="10.322923">
<ele>344</ele>
<time>2019-05-31T13:09:28Z</time>
</trkpt>
<trkpt lat="49.44623" lon="10.322922">
<ele>343</ele>
<time>2019-05-31T13:09:33Z</time>
</trkpt>
<trkpt lat="49.44653" lon="10.322835">
<ele>342</ele>
<time>2019-05-31T13:09:38Z</time>
</trkpt>
<trkpt lat="49.44687" lon="10.322828">
<ele>340</ele>
<time>2019-05-31T13:09:43Z</time>
</trkpt>
<trkpt lat="49.447253" lon="10.322852">
<ele>339</ele>
<time>2019-05-31T13:09:48Z</time>
</trkpt>
<trkpt lat="49.447625" lon="10.322915">
<ele>338</ele>
<time>2019-05-31T13:09:53Z</time>
</trkpt>
<trkpt lat="49.448008" lon="10.323017">
<ele>337</ele>
<time>2019-05-31T13:09:58Z</time>
</trkpt>
<trkpt lat="49.44832" lon="10.323133">
<ele>336</ele>
<time>2019-05-31T13:10:03Z</time>
</trkpt>
<trkpt lat="49.448565" lon="10.323397">
<ele>334</ele>
<time>2019-05-31T13:10:08Z</time>
</trkpt>
<trkpt lat="49.448777" lon="10.323722">
<ele>333</ele>
<time>2019-05-31T13:10:13Z</time>
</trkpt>
<trkpt lat="49.449042" lon="10.323922">
<ele>332</ele>
<time>2019-05-31T13:10:18Z</time>
</trkpt>
<trkpt lat="49.449247" lon="10.324045">
<ele>331</ele>
<time>2019-05-31T13:10:23Z</time>
</trkpt>
<trkpt lat="49.449432" lon="10.324145">
<ele>331</ele>
<time>2019-05-31T13:10:28Z</time>
</trkpt>
<trkpt lat="49.449583" lon="10.324233">
<ele>330</ele>
<time>2019-05-31T13:10:33Z</time>
</trkpt>
<trkpt lat="49.449733" lon="10.324295">
<ele>330</ele>
<time>2019-05-31T13:10:38Z</time>
</trkpt>
<trkpt lat="49.449935" lon="10.324337">
<ele>329</ele>
<time>2019-05-31T13:10:43Z</time>
</trkpt>
<trkpt lat="49.45013" lon="10.324405">
<ele>329</ele>
<time>2019-05-31T13:10:48Z</time>
</trkpt>
<trkpt lat="49.450348" lon="10.32455">
<ele>328</ele>
<time>2019-05-31T13:10:53Z</time>
</trkpt>
<trkpt lat="49.450323" lon="10.324877">
<ele>328</ele>
<time>2019-05-31T13:10:58Z</time>
</trkpt>
<trkpt lat="49.450225" lon="10.325073">
<ele>328</ele>
<time>2019-05-31T13:11:03Z</time>
</trkpt>
<trkpt lat="49.450068" lon="10.325168">
<ele>328</ele>
<time>2019-05-31T13:11:08Z</time>
</trkpt>
<trkpt lat="49.449887" lon="10.325288">
<ele>328</ele>
<time>2019-05-31T13:11:13Z</time>
</trkpt>
<trkpt lat="49.449662" lon="10.32539">
<ele>328</ele>
<time>2019-05-31T13:11:18Z</time>
</trkpt>
<trkpt lat="49.449432" lon="10.325418">
<ele>329</ele>
<time>2019-05-31T13:11:23Z</time>
</trkpt>
<trkpt lat="49.449168" lon="10.325462">
<ele>329</ele>
<time>2019-05-31T13:11:28Z</time>
</trkpt>
<trkpt lat="49.44893" lon="10.325572">
<ele>329</ele>
<time>2019-05-31T13:11:33Z</time>
</trkpt>
<trkpt lat="49.44873" lon="10.325765">
<ele>330</ele>
<time>2019-05-31T13:11:38Z</time>
</trkpt>
<trkpt lat="49.44857" lon="10.325918">
<ele>331</ele>
<time>2019-05-31T13:11:43Z</time>
</trkpt>
<trkpt lat="49.448432" lon="10.326065">
<ele>332</ele>
<time>2019-05-31T13:11:48Z</time>
</trkpt>
<trkpt lat="49.448325" lon="10.326227">
<ele>333</ele>
<time>2019-05-31T13:11:53Z</time>
</trkpt>
<trkpt lat="49.448225" lon="10.326437">
<ele>334</ele>
<time>2019-05-31T13:11:58Z</time>
</trkpt>
<trkpt lat="49.448155" lon="10.326673">
<ele>335</ele>
<time>2019-05-31T13:12:03Z</time>
</trkpt>
<trkpt lat="49.448112" lon="10.32693">
<ele>336</ele>
<time>2019-05-31T13:12:08Z</time>
</trkpt>
<trkpt lat="49.448078" lon="10.3272">
<ele>337</ele>
<time>2019-05-31T13:12:13Z</time>
</trkpt>
<trkpt lat="49.448065" lon="10.327523">
<ele>338</ele>
<time>2019-05-31T13:12:18Z</time>
</trkpt>
<trkpt lat="49.448057" lon="10.327833">
<ele>338</ele>
<time>2019-05-31T13:12:23Z</time>
</trkpt>
<trkpt lat="49.448063" lon="10.328127">
<ele>338</ele>
<time>2019-05-31T13:12:28Z</time>
</trkpt>
<trkpt lat="49.44806" lon="10.328432">
<ele>338</ele>
<time>2019-05-31T13:12:33Z</time>
</trkpt>
<trkpt lat="49.44806" lon="10.32879">
<ele>338</ele>
<time>2019-05-31T13:12:38Z</time>
</trkpt>
<trkpt lat="49.448055" lon="10.329153">
<ele>338</ele>
<time>2019-05-31T13:12:43Z</time>
</trkpt>
<trkpt lat="49.448043" lon="10.32952">
<ele>338</ele>
<time>2019-05-31T13:12:48Z</time>
</trkpt>
<trkpt lat="49.448032" lon="10.329918">
<ele>338</ele>
<time>2019-05-31T13:12:53Z</time>
</trkpt>
<trkpt lat="49.448022" lon="10.330303">
<ele>339</ele>
<time>2019-05-31T13:12:58Z</time>
</trkpt>
<trkpt lat="49.448023" lon="10.330673">
<ele>339</ele>
<time>2019-05-31T13:13:03Z</time>
</trkpt>
<trkpt lat="49.448028" lon="10.331037">
<ele>339</ele>
<time>2019-05-31T13:13:08Z</time>
</trkpt>
<trkpt lat="49.447953" lon="10.331277">
<ele>338</ele>
<time>2019-05-31T13:13:13Z</time>
</trkpt>
<trkpt lat="49.447888" lon="10.331403">
<ele>338</ele>
<time>2019-05-31T13:13:18Z</time>
</trkpt>
<trkpt lat="49.44789" lon="10.33145">
<ele>338</ele>
<time>2019-05-31T13:13:23Z</time>
</trkpt>
<trkpt lat="49.447897" lon="10.331468">
<ele>338</ele>
<time>2019-05-31T13:13:28Z</time>
</trkpt>
<trkpt lat="49.447898" lon="10.33147">
<ele>338</ele>
<time>2019-05-31T13:13:38Z</time>
</trkpt>
<trkpt lat="49.447897" lon="10.331468">
<ele>338</ele>
<time>2019-05-31T13:13:43Z</time>
</trkpt>
<trkpt lat="49.447898" lon="10.331468">
<ele>338</ele>
<time>2019-05-31T13:13:48Z</time>
</trkpt>
<trkpt lat="49.447895" lon="10.331467">
<ele>338</ele>
<time>2019-05-31T13:13:53Z</time>
</trkpt>
<trkpt lat="49.44789" lon="10.331472">
<ele>338</ele>
<time>2019-05-31T13:13:58Z</time>
</trkpt>
<trkpt lat="49.447882" lon="10.331473">
<ele>338</ele>
<time>2019-05-31T13:14:03Z</time>
</trkpt>
<trkpt lat="49.447882" lon="10.33147">
<ele>338</ele>
<time>2019-05-31T13:14:08Z</time>
</trkpt>
<trkpt lat="49.447883" lon="10.331467">
<ele>338</ele>
<time>2019-05-31T13:14:13Z</time>
</trkpt>
<trkpt lat="49.44788" lon="10.331467">
<ele>338</ele>
<time>2019-05-31T13:14:18Z</time>
</trkpt>
<trkpt lat="49.447877" lon="10.331465">
<ele>338</ele>
<time>2019-05-31T13:14:23Z</time>
</trkpt>
<trkpt lat="49.447877" lon="10.331463">
<ele>338</ele>
<time>2019-05-31T13:14:28Z</time>
</trkpt>
<trkpt lat="49.447877" lon="10.331465">
<ele>338</ele>
<time>2019-05-31T13:14:33Z</time>
</trkpt>
<trkpt lat="49.447878" lon="10.331467">
<ele>338</ele>
<time>2019-05-31T13:14:38Z</time>
</trkpt>
<trkpt lat="49.447877" lon="10.331467">
<ele>338</ele>
<time>2019-05-31T13:14:43Z</time>
</trkpt>
<trkpt lat="49.447877" lon="10.331468">
<ele>338</ele>
<time>2019-05-31T13:14:48Z</time>
</trkpt>
<trkpt lat="49.44788" lon="10.331467">
<ele>338</ele>
<time>2019-05-31T13:14:53Z</time>
</trkpt>
<trkpt lat="49.447885" lon="10.331467">
<ele>338</ele>
<time>2019-05-31T13:14:58Z</time>
</trkpt>
<trkpt lat="49.44789" lon="10.331467">
<ele>338</ele>
<time>2019-05-31T13:15:03Z</time>
</trkpt>
<trkpt lat="49.447895" lon="10.331467">
<ele>338</ele>
<time>2019-05-31T13:15:08Z</time>
</trkpt>
<trkpt lat="49.447897" lon="10.331467">
<ele>338</ele>
<time>2019-05-31T13:15:13Z</time>
</trkpt>
<trkpt lat="49.447895" lon="10.331467">
<ele>338</ele>
<time>2019-05-31T13:15:18Z</time>
</trkpt>
<trkpt lat="49.44789" lon="10.331468">
<ele>338</ele>
<time>2019-05-31T13:15:23Z</time>
</trkpt>
<trkpt lat="49.447885" lon="10.331472">
<ele>338</ele>
<time>2019-05-31T13:15:28Z</time>
</trkpt>
<trkpt lat="49.447883" lon="10.331468">
<ele>338</ele>
<time>2019-05-31T13:15:33Z</time>
</trkpt>
<trkpt lat="49.447883" lon="10.331467">
<ele>338</ele>
<time>2019-05-31T13:15:38Z</time>
</trkpt>
<trkpt lat="49.447923" lon="10.33155">
<ele>338</ele>
<time>2019-05-31T13:15:43Z</time>
</trkpt>
<trkpt lat="49.447978" lon="10.331663">
<ele>338</ele>
<time>2019-05-31T13:15:48Z</time>
</trkpt>
<trkpt lat="49.448033" lon="10.331895">
<ele>337</ele>
<time>2019-05-31T13:15:53Z</time>
</trkpt>
<trkpt lat="49.448047" lon="10.332232">
<ele>337</ele>
<time>2019-05-31T13:15:58Z</time>
</trkpt>
<trkpt lat="49.448052" lon="10.332598">
<ele>337</ele>
<time>2019-05-31T13:16:03Z</time>
</trkpt>
<trkpt lat="49.448038" lon="10.332985">
<ele>336</ele>
<time>2019-05-31T13:16:08Z</time>
</trkpt>
<trkpt lat="49.44798" lon="10.333425">
<ele>335</ele>
<time>2019-05-31T13:16:13Z</time>
</trkpt>
<trkpt lat="49.447882" lon="10.333908">
<ele>333</ele>
<time>2019-05-31T13:16:18Z</time>
</trkpt>
<trkpt lat="49.447737" lon="10.334397">
<ele>333</ele>
<time>2019-05-31T13:16:23Z</time>
</trkpt>
<trkpt lat="49.447557" lon="10.33491">
<ele>332</ele>
<time>2019-05-31T13:16:28Z</time>
</trkpt>
<trkpt lat="49.447392" lon="10.33546">
<ele>331</ele>
<time>2019-05-31T13:16:33Z</time>
</trkpt>
<trkpt lat="49.447288" lon="10.336022">
<ele>331</ele>
<time>2019-05-31T13:16:38Z</time>
</trkpt>
<trkpt lat="49.44723" lon="10.336547">
<ele>330</ele>
<time>2019-05-31T13:16:43Z</time>
</trkpt>
<trkpt lat="49.44717" lon="10.337085">
<ele>330</ele>
<time>2019-05-31T13:16:48Z</time>
</trkpt>
<trkpt lat="49.447102" lon="10.33761">
<ele>330</ele>
<time>2019-05-31T13:16:53Z</time>
</trkpt>
<trkpt lat="49.447027" lon="10.338117">
<ele>329</ele>
<time>2019-05-31T13:16:58Z</time>
</trkpt>
<trkpt lat="49.44696" lon="10.338658">
<ele>329</ele>
<time>2019-05-31T13:17:03Z</time>
</trkpt>
<trkpt lat="49.446912" lon="10.339228">
<ele>329</ele>
<time>2019-05-31T13:17:08Z</time>
</trkpt>
<trkpt lat="49.44689" lon="10.339768">
<ele>329</ele>
<time>2019-05-31T13:17:13Z</time>
</trkpt>
<trkpt lat="49.446873" lon="10.340323">
<ele>329</ele>
<time>2019-05-31T13:17:18Z</time>
</trkpt>
<trkpt lat="49.446865" lon="10.34088">
<ele>329</ele>
<time>2019-05-31T13:17:23Z</time>
</trkpt>
<trkpt lat="49.44685" lon="10.341448">
<ele>329</ele>
<time>2019-05-31T13:17:28Z</time>
</trkpt>
<trkpt lat="49.446835" lon="10.342005">
<ele>329</ele>
<time>2019-05-31T13:17:33Z</time>
</trkpt>
<trkpt lat="49.446805" lon="10.342517">
<ele>330</ele>
<time>2019-05-31T13:17:38Z</time>
</trkpt>
<trkpt lat="49.446753" lon="10.342998">
<ele>330</ele>
<time>2019-05-31T13:17:43Z</time>
</trkpt>
<trkpt lat="49.446687" lon="10.343525">
<ele>330</ele>
<time>2019-05-31T13:17:48Z</time>
</trkpt>
<trkpt lat="49.446637" lon="10.344048">
<ele>330</ele>
<time>2019-05-31T13:17:53Z</time>
</trkpt>
<trkpt lat="49.446605" lon="10.344592">
<ele>331</ele>
<time>2019-05-31T13:17:58Z</time>
</trkpt>
<trkpt lat="49.446587" lon="10.345125">
<ele>331</ele>
<time>2019-05-31T13:18:03Z</time>
</trkpt>
<trkpt lat="49.446567" lon="10.345633">
<ele>331</ele>
<time>2019-05-31T13:18:08Z</time>
</trkpt>
<trkpt lat="49.446557" lon="10.346073">
<ele>332</ele>
<time>2019-05-31T13:18:13Z</time>
</trkpt>
<trkpt lat="49.446547" lon="10.346408">
<ele>334</ele>
<time>2019-05-31T13:18:18Z</time>
</trkpt>
<trkpt lat="49.446532" lon="10.34676">
<ele>334</ele>
<time>2019-05-31T13:18:23Z</time>
</trkpt>
<trkpt lat="49.446525" lon="10.347195">
<ele>334</ele>
<time>2019-05-31T13:18:28Z</time>
</trkpt>
<trkpt lat="49.446512" lon="10.347692">
<ele>334</ele>
<time>2019-05-31T13:18:33Z</time>
</trkpt>
<trkpt lat="49.446482" lon="10.348162">
<ele>334</ele>
<time>2019-05-31T13:18:38Z</time>
</trkpt>
<trkpt lat="49.446452" lon="10.348628">
<ele>334</ele>
<time>2019-05-31T13:18:43Z</time>
</trkpt>
<trkpt lat="49.446413" lon="10.349117">
<ele>334</ele>
<time>2019-05-31T13:18:48Z</time>
</trkpt>
<trkpt lat="49.446342" lon="10.349588">
<ele>334</ele>
<time>2019-05-31T13:18:53Z</time>
</trkpt>
<trkpt lat="49.446268" lon="10.350042">
<ele>334</ele>
<time>2019-05-31T13:18:58Z</time>
</trkpt>
<trkpt lat="49.446192" lon="10.350463">
<ele>334</ele>
<time>2019-05-31T13:19:03Z</time>
</trkpt>
<trkpt lat="49.446118" lon="10.350878">
<ele>334</ele>
<time>2019-05-31T13:19:08Z</time>
</trkpt>
<trkpt lat="49.446038" lon="10.351252">
<ele>334</ele>
<time>2019-05-31T13:19:13Z</time>
</trkpt>
<trkpt lat="49.445927" lon="10.351618">
<ele>334</ele>
<time>2019-05-31T13:19:18Z</time>
</trkpt>
<trkpt lat="49.445785" lon="10.351982">
<ele>334</ele>
<time>2019-05-31T13:19:23Z</time>
</trkpt>
<trkpt lat="49.445637" lon="10.35235">
<ele>334</ele>
<time>2019-05-31T13:19:28Z</time>
</trkpt>
<trkpt lat="49.445487" lon="10.352715">
<ele>334</ele>
<time>2019-05-31T13:19:33Z</time>
</trkpt>
<trkpt lat="49.445345" lon="10.353055">
<ele>335</ele>
<time>2019-05-31T13:19:38Z</time>
</trkpt>
<trkpt lat="49.44522" lon="10.353405">
<ele>336</ele>
<time>2019-05-31T13:19:43Z</time>
</trkpt>
<trkpt lat="49.445128" lon="10.353797">
<ele>336</ele>
<time>2019-05-31T13:19:48Z</time>
</trkpt>
<trkpt lat="49.444993" lon="10.354168">
<ele>337</ele>
<time>2019-05-31T13:19:53Z</time>
</trkpt>
<trkpt lat="49.444887" lon="10.354448">
<ele>337</ele>
<time>2019-05-31T13:19:58Z</time>
</trkpt>
<trkpt lat="49.444717" lon="10.3547">
<ele>337</ele>
<time>2019-05-31T13:20:03Z</time>
</trkpt>
<trkpt lat="49.444547" lon="10.35495">
<ele>338</ele>
<time>2019-05-31T13:20:08Z</time>
</trkpt>
<trkpt lat="49.444337" lon="10.35518">
<ele>338</ele>
<time>2019-05-31T13:20:13Z</time>
</trkpt>
<trkpt lat="49.444133" lon="10.355383">
<ele>339</ele>
<time>2019-05-31T13:20:18Z</time>
</trkpt>
<trkpt lat="49.443947" lon="10.355622">
<ele>339</ele>
<time>2019-05-31T13:20:23Z</time>
</trkpt>
<trkpt lat="49.443845" lon="10.355932">
<ele>340</ele>
<time>2019-05-31T13:20:28Z</time>
</trkpt>
<trkpt lat="49.443755" lon="10.356218">
<ele>340</ele>
<time>2019-05-31T13:20:33Z</time>
</trkpt>
<trkpt lat="49.443668" lon="10.356487">
<ele>341</ele>
<time>2019-05-31T13:20:38Z</time>
</trkpt>
<trkpt lat="49.443567" lon="10.356745">
<ele>341</ele>
<time>2019-05-31T13:20:43Z</time>
</trkpt>
<trkpt lat="49.443515" lon="10.357018">
<ele>341</ele>
<time>2019-05-31T13:20:48Z</time>
</trkpt>
<trkpt lat="49.443442" lon="10.357273">
<ele>342</ele>
<time>2019-05-31T13:20:53Z</time>
</trkpt>
<trkpt lat="49.443392" lon="10.357488">
<ele>342</ele>
<time>2019-05-31T13:20:58Z</time>
</trkpt>
<trkpt lat="49.443348" lon="10.357678">
<ele>342</ele>
<time>2019-05-31T13:21:03Z</time>
</trkpt>
<trkpt lat="49.443357" lon="10.35794">
<ele>342</ele>
<time>2019-05-31T13:21:08Z</time>
</trkpt>
<trkpt lat="49.443302" lon="10.358218">
<ele>342</ele>
<time>2019-05-31T13:21:13Z</time>
</trkpt>
<trkpt lat="49.443222" lon="10.358545">
<ele>342</ele>
<time>2019-05-31T13:21:18Z</time>
</trkpt>
<trkpt lat="49.44318" lon="10.358905">
<ele>342</ele>
<time>2019-05-31T13:21:23Z</time>
</trkpt>
<trkpt lat="49.44317" lon="10.35926">
<ele>343</ele>
<time>2019-05-31T13:21:28Z</time>
</trkpt>
<trkpt lat="49.443175" lon="10.359658">
<ele>344</ele>
<time>2019-05-31T13:21:33Z</time>
</trkpt>
<trkpt lat="49.443175" lon="10.360065">
<ele>344</ele>
<time>2019-05-31T13:21:38Z</time>
</trkpt>
<trkpt lat="49.443162" lon="10.360475">
<ele>344</ele>
<time>2019-05-31T13:21:43Z</time>
</trkpt>
<trkpt lat="49.443158" lon="10.360848">
<ele>345</ele>
<time>2019-05-31T13:21:48Z</time>
</trkpt>
<trkpt lat="49.44314" lon="10.361178">
<ele>346</ele>
<time>2019-05-31T13:21:53Z</time>
</trkpt>
<trkpt lat="49.443117" lon="10.361505">
<ele>346</ele>
<time>2019-05-31T13:21:58Z</time>
</trkpt>
<trkpt lat="49.443125" lon="10.361812">
<ele>347</ele>
<time>2019-05-31T13:22:03Z</time>
</trkpt>
<trkpt lat="49.443183" lon="10.362095">
<ele>347</ele>
<time>2019-05-31T13:22:08Z</time>
</trkpt>
<trkpt lat="49.44325" lon="10.362343">
<ele>348</ele>
<time>2019-05-31T13:22:13Z</time>
</trkpt>
<trkpt lat="49.443323" lon="10.362573">
<ele>348</ele>
<time>2019-05-31T13:22:18Z</time>
</trkpt>
<trkpt lat="49.443357" lon="10.362763">
<ele>348</ele>
<time>2019-05-31T13:22:23Z</time>
</trkpt>
<trkpt lat="49.443223" lon="10.362927">
<ele>349</ele>
<time>2019-05-31T13:22:28Z</time>
</trkpt>
<trkpt lat="49.443023" lon="10.363013">
<ele>349</ele>
<time>2019-05-31T13:22:33Z</time>
</trkpt>
<trkpt lat="49.442812" lon="10.363108">
<ele>349</ele>
<time>2019-05-31T13:22:38Z</time>
</trkpt>
<trkpt lat="49.442685" lon="10.36332">
<ele>349</ele>
<time>2019-05-31T13:22:43Z</time>
</trkpt>
<trkpt lat="49.44279" lon="10.363683">
<ele>350</ele>
<time>2019-05-31T13:22:48Z</time>
</trkpt>
<trkpt lat="49.442888" lon="10.364017">
<ele>350</ele>
<time>2019-05-31T13:22:53Z</time>
</trkpt>
<trkpt lat="49.443012" lon="10.36439">
<ele>350</ele>
<time>2019-05-31T13:22:58Z</time>
</trkpt>
<trkpt lat="49.443113" lon="10.364722">
<ele>350</ele>
<time>2019-05-31T13:23:03Z</time>
</trkpt>
<trkpt lat="49.443182" lon="10.365015">
<ele>351</ele>
<time>2019-05-31T13:23:08Z</time>
</trkpt>
<trkpt lat="49.443275" lon="10.365325">
<ele>351</ele>
<time>2019-05-31T13:23:13Z</time>
</trkpt>
<trkpt lat="49.443323" lon="10.365677">
<ele>351</ele>
<time>2019-05-31T13:23:18Z</time>
</trkpt>
<trkpt lat="49.443362" lon="10.366038">
<ele>351</ele>
<time>2019-05-31T13:23:23Z</time>
</trkpt>
<trkpt lat="49.443408" lon="10.366398">
<ele>352</ele>
<time>2019-05-31T13:23:28Z</time>
</trkpt>
<trkpt lat="49.443508" lon="10.366785">
<ele>352</ele>
<time>2019-05-31T13:23:33Z</time>
</trkpt>
<trkpt lat="49.443618" lon="10.36716">
<ele>352</ele>
<time>2019-05-31T13:23:38Z</time>
</trkpt>
<trkpt lat="49.443738" lon="10.367522">
<ele>353</ele>
<time>2019-05-31T13:23:43Z</time>
</trkpt>
<trkpt lat="49.443865" lon="10.367877">
<ele>354</ele>
<time>2019-05-31T13:23:48Z</time>
</trkpt>
<trkpt lat="49.443987" lon="10.368253">
<ele>355</ele>
<time>2019-05-31T13:23:53Z</time>
</trkpt>
<trkpt lat="49.44413" lon="10.368673">
<ele>355</ele>
<time>2019-05-31T13:23:59Z</time>
</trkpt>
<trkpt lat="49.444217" lon="10.369035">
<ele>356</ele>
<time>2019-05-31T13:24:04Z</time>
</trkpt>
<trkpt lat="49.44431" lon="10.369408">
<ele>356</ele>
<time>2019-05-31T13:24:09Z</time>
</trkpt>
<trkpt lat="49.444388" lon="10.36976">
<ele>356</ele>
<time>2019-05-31T13:24:14Z</time>
</trkpt>
<trkpt lat="49.444445" lon="10.370078">
<ele>357</ele>
<time>2019-05-31T13:24:19Z</time>
</trkpt>
<trkpt lat="49.444512" lon="10.3704">
<ele>358</ele>
<time>2019-05-31T13:24:24Z</time>
</trkpt>
<trkpt lat="49.444558" lon="10.37072">
<ele>359</ele>
<time>2019-05-31T13:24:29Z</time>
</trkpt>
<trkpt lat="49.444612" lon="10.370998">
<ele>359</ele>
<time>2019-05-31T13:24:34Z</time>
</trkpt>
<trkpt lat="49.444665" lon="10.371295">
<ele>359</ele>
<time>2019-05-31T13:24:39Z</time>
</trkpt>
<trkpt lat="49.444727" lon="10.37161">
<ele>360</ele>
<time>2019-05-31T13:24:44Z</time>
</trkpt>
<trkpt lat="49.444803" lon="10.37204">
<ele>360</ele>
<time>2019-05-31T13:24:50Z</time>
</trkpt>
<trkpt lat="49.444877" lon="10.372435">
<ele>360</ele>
<time>2019-05-31T13:24:55Z</time>
</trkpt>
<trkpt lat="49.444968" lon="10.372872">
<ele>360</ele>
<time>2019-05-31T13:25:00Z</time>
</trkpt>
<trkpt lat="49.445045" lon="10.373258">
<ele>359</ele>
<time>2019-05-31T13:25:05Z</time>
</trkpt>
<trkpt lat="49.445125" lon="10.373648">
<ele>359</ele>
<time>2019-05-31T13:25:10Z</time>
</trkpt>
<trkpt lat="49.44521" lon="10.37408">
<ele>359</ele>
<time>2019-05-31T13:25:15Z</time>
</trkpt>
<trkpt lat="49.445288" lon="10.374493">
<ele>359</ele>
<time>2019-05-31T13:25:20Z</time>
</trkpt>
<trkpt lat="49.445373" lon="10.374922">
<ele>359</ele>
<time>2019-05-31T13:25:25Z</time>
</trkpt>
<trkpt lat="49.445465" lon="10.375422">
<ele>359</ele>
<time>2019-05-31T13:25:31Z</time>
</trkpt>
<trkpt lat="49.445538" lon="10.375845">
<ele>360</ele>
<time>2019-05-31T13:25:36Z</time>
</trkpt>
<trkpt lat="49.445637" lon="10.376355">
<ele>360</ele>
<time>2019-05-31T13:25:42Z</time>
</trkpt>
<trkpt lat="49.445717" lon="10.376773">
<ele>360</ele>
<time>2019-05-31T13:25:47Z</time>
</trkpt>
<trkpt lat="49.445815" lon="10.377292">
<ele>360</ele>
<time>2019-05-31T13:25:53Z</time>
</trkpt>
<trkpt lat="49.445903" lon="10.377748">
<ele>360</ele>
<time>2019-05-31T13:25:58Z</time>
</trkpt>
<trkpt lat="49.44599" lon="10.378202">
<ele>360</ele>
<time>2019-05-31T13:26:03Z</time>
</trkpt>
<trkpt lat="49.446078" lon="10.378652">
<ele>360</ele>
<time>2019-05-31T13:26:08Z</time>
</trkpt>
<trkpt lat="49.446175" lon="10.379088">
<ele>360</ele>
<time>2019-05-31T13:26:13Z</time>
</trkpt>
<trkpt lat="49.446282" lon="10.379525">
<ele>360</ele>
<time>2019-05-31T13:26:18Z</time>
</trkpt>
<trkpt lat="49.446418" lon="10.380082">
<ele>360</ele>
<time>2019-05-31T13:26:24Z</time>
</trkpt>
<trkpt lat="49.446562" lon="10.380652">
<ele>360</ele>
<time>2019-05-31T13:26:30Z</time>
</trkpt>
<trkpt lat="49.446682" lon="10.381133">
<ele>360</ele>
<time>2019-05-31T13:26:35Z</time>
</trkpt>
<trkpt lat="49.446808" lon="10.381623">
<ele>359</ele>
<time>2019-05-31T13:26:40Z</time>
</trkpt>
<trkpt lat="49.446947" lon="10.382207">
<ele>359</ele>
<time>2019-05-31T13:26:46Z</time>
</trkpt>
<trkpt lat="49.447092" lon="10.382782">
<ele>359</ele>
<time>2019-05-31T13:26:52Z</time>
</trkpt>
<trkpt lat="49.447232" lon="10.383345">
<ele>359</ele>
<time>2019-05-31T13:26:58Z</time>
</trkpt>
<trkpt lat="49.447365" lon="10.383902">
<ele>360</ele>
<time>2019-05-31T13:27:04Z</time>
</trkpt>
<trkpt lat="49.447473" lon="10.384357">
<ele>361</ele>
<time>2019-05-31T13:27:09Z</time>
</trkpt>
<trkpt lat="49.447598" lon="10.384868">
<ele>361</ele>
<time>2019-05-31T13:27:15Z</time>
</trkpt>
<trkpt lat="49.447703" lon="10.38529">
<ele>361</ele>
<time>2019-05-31T13:27:20Z</time>
</trkpt>
<trkpt lat="49.447812" lon="10.385743">
<ele>362</ele>
<time>2019-05-31T13:27:25Z</time>
</trkpt>
<trkpt lat="49.447945" lon="10.386302">
<ele>362</ele>
<time>2019-05-31T13:27:31Z</time>
</trkpt>
<trkpt lat="49.448067" lon="10.386775">
<ele>362</ele>
<time>2019-05-31T13:27:36Z</time>
</trkpt>
<trkpt lat="49.44822" lon="10.387265">
<ele>361</ele>
<time>2019-05-31T13:27:41Z</time>
</trkpt>
<trkpt lat="49.448423" lon="10.387745">
<ele>361</ele>
<time>2019-05-31T13:27:46Z</time>
</trkpt>
<trkpt lat="49.448748" lon="10.38826">
<ele>360</ele>
<time>2019-05-31T13:27:52Z</time>
</trkpt>
<trkpt lat="49.449047" lon="10.388652">
<ele>359</ele>
<time>2019-05-31T13:27:57Z</time>
</trkpt>
<trkpt lat="49.449393" lon="10.389118">
<ele>358</ele>
<time>2019-05-31T13:28:03Z</time>
</trkpt>
<trkpt lat="49.449642" lon="10.389522">
<ele>358</ele>
<time>2019-05-31T13:28:08Z</time>
</trkpt>
<trkpt lat="49.44983" lon="10.389988">
<ele>358</ele>
<time>2019-05-31T13:28:13Z</time>
</trkpt>
<trkpt lat="49.44996" lon="10.390492">
<ele>358</ele>
<time>2019-05-31T13:28:18Z</time>
</trkpt>
<trkpt lat="49.450092" lon="10.391117">
<ele>358</ele>
<time>2019-05-31T13:28:24Z</time>
</trkpt>
<trkpt lat="49.450197" lon="10.391622">
<ele>358</ele>
<time>2019-05-31T13:28:29Z</time>
</trkpt>
<trkpt lat="49.450325" lon="10.392245">
<ele>357</ele>
<time>2019-05-31T13:28:35Z</time>
</trkpt>
<trkpt lat="49.45043" lon="10.392737">
<ele>357</ele>
<time>2019-05-31T13:28:40Z</time>
</trkpt>
<trkpt lat="49.450535" lon="10.393215">
<ele>356</ele>
<time>2019-05-31T13:28:45Z</time>
</trkpt>
<trkpt lat="49.450658" lon="10.393793">
<ele>355</ele>
<time>2019-05-31T13:28:51Z</time>
</trkpt>
<trkpt lat="49.450787" lon="10.394417">
<ele>355</ele>
<time>2019-05-31T13:28:57Z</time>
</trkpt>
<trkpt lat="49.450895" lon="10.394962">
<ele>355</ele>
<time>2019-05-31T13:29:02Z</time>
</trkpt>
<trkpt lat="49.450982" lon="10.395527">
<ele>355</ele>
<time>2019-05-31T13:29:07Z</time>
</trkpt>
<trkpt lat="49.451043" lon="10.396122">
<ele>354</ele>
<time>2019-05-31T13:29:12Z</time>
</trkpt>
<trkpt lat="49.451088" lon="10.39684">
<ele>353</ele>
<time>2019-05-31T13:29:18Z</time>
</trkpt>
<trkpt lat="49.451108" lon="10.397432">
<ele>353</ele>
<time>2019-05-31T13:29:23Z</time>
</trkpt>
<trkpt lat="49.451128" lon="10.398032">
<ele>352</ele>
<time>2019-05-31T13:29:28Z</time>
</trkpt>
<trkpt lat="49.451182" lon="10.398658">
<ele>351</ele>
<time>2019-05-31T13:29:33Z</time>
</trkpt>
<trkpt lat="49.451318" lon="10.39926">
<ele>351</ele>
<time>2019-05-31T13:29:38Z</time>
</trkpt>
<trkpt lat="49.45152" lon="10.399817">
<ele>350</ele>
<time>2019-05-31T13:29:43Z</time>
</trkpt>
<trkpt lat="49.451828" lon="10.400415">
<ele>350</ele>
<time>2019-05-31T13:29:49Z</time>
</trkpt>
<trkpt lat="49.452083" lon="10.400862">
<ele>350</ele>
<time>2019-05-31T13:29:54Z</time>
</trkpt>
<trkpt lat="49.452347" lon="10.401287">
<ele>350</ele>
<time>2019-05-31T13:29:59Z</time>
</trkpt>
<trkpt lat="49.452675" lon="10.401797">
<ele>350</ele>
<time>2019-05-31T13:30:05Z</time>
</trkpt>
<trkpt lat="49.452953" lon="10.402178">
<ele>350</ele>
<time>2019-05-31T13:30:10Z</time>
</trkpt>
<trkpt lat="49.453257" lon="10.402508">
<ele>350</ele>
<time>2019-05-31T13:30:15Z</time>
</trkpt>
<trkpt lat="49.453572" lon="10.402822">
<ele>349</ele>
<time>2019-05-31T13:30:20Z</time>
</trkpt>
<trkpt lat="49.45394" lon="10.40319">
<ele>349</ele>
<time>2019-05-31T13:30:26Z</time>
</trkpt>
<trkpt lat="49.454238" lon="10.403492">
<ele>347</ele>
<time>2019-05-31T13:30:31Z</time>
</trkpt>
<trkpt lat="49.454563" lon="10.403833">
<ele>347</ele>
<time>2019-05-31T13:30:36Z</time>
</trkpt>
<trkpt lat="49.45488" lon="10.4042">
<ele>346</ele>
<time>2019-05-31T13:30:41Z</time>
</trkpt>
<trkpt lat="49.455242" lon="10.404663">
<ele>346</ele>
<time>2019-05-31T13:30:47Z</time>
</trkpt>
<trkpt lat="49.45553" lon="10.405038">
<ele>345</ele>
<time>2019-05-31T13:30:52Z</time>
</trkpt>
<trkpt lat="49.455857" lon="10.40548">
<ele>344</ele>
<time>2019-05-31T13:30:58Z</time>
</trkpt>
<trkpt lat="49.456185" lon="10.40593">
<ele>344</ele>
<time>2019-05-31T13:31:04Z</time>
</trkpt>
<trkpt lat="49.456443" lon="10.406343">
<ele>344</ele>
<time>2019-05-31T13:31:09Z</time>
</trkpt>
<trkpt lat="49.456688" lon="10.406762">
<ele>344</ele>
<time>2019-05-31T13:31:14Z</time>
</trkpt>
<trkpt lat="49.45691" lon="10.40716">
<ele>343</ele>
<time>2019-05-31T13:31:19Z</time>
</trkpt>
<trkpt lat="49.457152" lon="10.40754">
<ele>343</ele>
<time>2019-05-31T13:31:24Z</time>
</trkpt>
<trkpt lat="49.457357" lon="10.407927">
<ele>343</ele>
<time>2019-05-31T13:31:29Z</time>
</trkpt>
<trkpt lat="49.45759" lon="10.408413">
<ele>342</ele>
<time>2019-05-31T13:31:35Z</time>
</trkpt>
<trkpt lat="49.457773" lon="10.408847">
<ele>341</ele>
<time>2019-05-31T13:31:40Z</time>
</trkpt>
<trkpt lat="49.457927" lon="10.409318">
<ele>340</ele>
<time>2019-05-31T13:31:45Z</time>
</trkpt>
<trkpt lat="49.458075" lon="10.409807">
<ele>340</ele>
<time>2019-05-31T13:31:50Z</time>
</trkpt>
<trkpt lat="49.458282" lon="10.410205">
<ele>339</ele>
<time>2019-05-31T13:31:55Z</time>
</trkpt>
<trkpt lat="49.458608" lon="10.41027">
<ele>339</ele>
<time>2019-05-31T13:32:01Z</time>
</trkpt>
<trkpt lat="49.458768" lon="10.41053">
<ele>338</ele>
<time>2019-05-31T13:32:06Z</time>
</trkpt>
<trkpt lat="49.458807" lon="10.410838">
<ele>337</ele>
<time>2019-05-31T13:32:11Z</time>
</trkpt>
<trkpt lat="49.45885" lon="10.411347">
<ele>335</ele>
<time>2019-05-31T13:32:16Z</time>
</trkpt>
<trkpt lat="49.458918" lon="10.41197">
<ele>334</ele>
<time>2019-05-31T13:32:21Z</time>
</trkpt>
<trkpt lat="49.458958" lon="10.412663">
<ele>332</ele>
<time>2019-05-31T13:32:27Z</time>
</trkpt>
<trkpt lat="49.458925" lon="10.413153">
<ele>332</ele>
<time>2019-05-31T13:32:32Z</time>
</trkpt>
<trkpt lat="49.458888" lon="10.413543">
<ele>334</ele>
<time>2019-05-31T13:32:37Z</time>
</trkpt>
<trkpt lat="49.458882" lon="10.413882">
<ele>335</ele>
<time>2019-05-31T13:32:42Z</time>
</trkpt>
<trkpt lat="49.458907" lon="10.414268">
<ele>336</ele>
<time>2019-05-31T13:32:47Z</time>
</trkpt>
<trkpt lat="49.45897" lon="10.414712">
<ele>336</ele>
<time>2019-05-31T13:32:52Z</time>
</trkpt>
<trkpt lat="49.459068" lon="10.415173">
<ele>336</ele>
<time>2019-05-31T13:32:57Z</time>
</trkpt>
<trkpt lat="49.459163" lon="10.415663">
<ele>336</ele>
<time>2019-05-31T13:33:02Z</time>
</trkpt>
<trkpt lat="49.45926" lon="10.41612">
<ele>336</ele>
<time>2019-05-31T13:33:07Z</time>
</trkpt>
<trkpt lat="49.459355" lon="10.416565">
<ele>336</ele>
<time>2019-05-31T13:33:12Z</time>
</trkpt>
<trkpt lat="49.459455" lon="10.41704">
<ele>336</ele>
<time>2019-05-31T13:33:17Z</time>
</trkpt>
<trkpt lat="49.459552" lon="10.417502">
<ele>336</ele>
<time>2019-05-31T13:33:22Z</time>
</trkpt>
<trkpt lat="49.459635" lon="10.417958">
<ele>336</ele>
<time>2019-05-31T13:33:27Z</time>
</trkpt>
<trkpt lat="49.459707" lon="10.418425">
<ele>336</ele>
<time>2019-05-31T13:33:32Z</time>
</trkpt>
<trkpt lat="49.459773" lon="10.41891">
<ele>336</ele>
<time>2019-05-31T13:33:37Z</time>
</trkpt>
<trkpt lat="49.459833" lon="10.419397">
<ele>336</ele>
<time>2019-05-31T13:33:42Z</time>
</trkpt>
<trkpt lat="49.459892" lon="10.419918">
<ele>336</ele>
<time>2019-05-31T13:33:47Z</time>
</trkpt>
<trkpt lat="49.459953" lon="10.420458">
<ele>336</ele>
<time>2019-05-31T13:33:52Z</time>
</trkpt>
<trkpt lat="49.46006" lon="10.421022">
<ele>336</ele>
<time>2019-05-31T13:33:57Z</time>
</trkpt>
<trkpt lat="49.460228" lon="10.421558">
<ele>336</ele>
<time>2019-05-31T13:34:02Z</time>
</trkpt>
<trkpt lat="49.460458" lon="10.42206">
<ele>335</ele>
<time>2019-05-31T13:34:07Z</time>
</trkpt>
<trkpt lat="49.4607" lon="10.422523">
<ele>335</ele>
<time>2019-05-31T13:34:12Z</time>
</trkpt>
<trkpt lat="49.460938" lon="10.423008">
<ele>334</ele>
<time>2019-05-31T13:34:17Z</time>
</trkpt>
<trkpt lat="49.461173" lon="10.42351">
<ele>333</ele>
<time>2019-05-31T13:34:22Z</time>
</trkpt>
<trkpt lat="49.461387" lon="10.423975">
<ele>333</ele>
<time>2019-05-31T13:34:27Z</time>
</trkpt>
<trkpt lat="49.461592" lon="10.42443">
<ele>333</ele>
<time>2019-05-31T13:34:32Z</time>
</trkpt>
<trkpt lat="49.461802" lon="10.424912">
<ele>331</ele>
<time>2019-05-31T13:34:37Z</time>
</trkpt>
<trkpt lat="49.462032" lon="10.425438">
<ele>331</ele>
<time>2019-05-31T13:34:42Z</time>
</trkpt>
<trkpt lat="49.462208" lon="10.425985">
<ele>330</ele>
<time>2019-05-31T13:34:47Z</time>
</trkpt>
<trkpt lat="49.462315" lon="10.426575">
<ele>329</ele>
<time>2019-05-31T13:34:52Z</time>
</trkpt>
<trkpt lat="49.462438" lon="10.427152">
<ele>329</ele>
<time>2019-05-31T13:34:57Z</time>
</trkpt>
<trkpt lat="49.462562" lon="10.427693">
<ele>329</ele>
<time>2019-05-31T13:35:02Z</time>
</trkpt>
<trkpt lat="49.462672" lon="10.428157">
<ele>329</ele>
<time>2019-05-31T13:35:07Z</time>
</trkpt>
<trkpt lat="49.462803" lon="10.42848">
<ele>329</ele>
<time>2019-05-31T13:35:12Z</time>
</trkpt>
<trkpt lat="49.46307" lon="10.42832">
<ele>329</ele>
<time>2019-05-31T13:35:17Z</time>
</trkpt>
<trkpt lat="49.463237" lon="10.428033">
<ele>329</ele>
<time>2019-05-31T13:35:22Z</time>
</trkpt>
<trkpt lat="49.463297" lon="10.427682">
<ele>329</ele>
<time>2019-05-31T13:35:27Z</time>
</trkpt>
<trkpt lat="49.463438" lon="10.427403">
<ele>330</ele>
<time>2019-05-31T13:35:32Z</time>
</trkpt>
<trkpt lat="49.463667" lon="10.427398">
<ele>330</ele>
<time>2019-05-31T13:35:37Z</time>
</trkpt>
<trkpt lat="49.463898" lon="10.427415">
<ele>331</ele>
<time>2019-05-31T13:35:42Z</time>
</trkpt>
<trkpt lat="49.46406" lon="10.427438">
<ele>331</ele>
<time>2019-05-31T13:35:47Z</time>
</trkpt>
<trkpt lat="49.464195" lon="10.427463">
<ele>331</ele>
<time>2019-05-31T13:35:52Z</time>
</trkpt>
<trkpt lat="49.464413" lon="10.427487">
<ele>331</ele>
<time>2019-05-31T13:35:57Z</time>
</trkpt>
<trkpt lat="49.46465" lon="10.427525">
<ele>331</ele>
<time>2019-05-31T13:36:02Z</time>
</trkpt>
<trkpt lat="49.464908" lon="10.427545">
<ele>332</ele>
<time>2019-05-31T13:36:07Z</time>
</trkpt>
<trkpt lat="49.465182" lon="10.427557">
<ele>332</ele>
<time>2019-05-31T13:36:12Z</time>
</trkpt>
<trkpt lat="49.465468" lon="10.427575">
<ele>333</ele>
<time>2019-05-31T13:36:17Z</time>
</trkpt>
<trkpt lat="49.465757" lon="10.42758">
<ele>333</ele>
<time>2019-05-31T13:36:22Z</time>
</trkpt>
<trkpt lat="49.46604" lon="10.42759">
<ele>333</ele>
<time>2019-05-31T13:36:27Z</time>
</trkpt>
<trkpt lat="49.466332" lon="10.427602">
<ele>333</ele>
<time>2019-05-31T13:36:32Z</time>
</trkpt>
<trkpt lat="49.4666" lon="10.42761">
<ele>333</ele>
<time>2019-05-31T13:36:37Z</time>
</trkpt>
<trkpt lat="49.466852" lon="10.427597">
<ele>333</ele>
<time>2019-05-31T13:36:42Z</time>
</trkpt>
<trkpt lat="49.467115" lon="10.427513">
<ele>333</ele>
<time>2019-05-31T13:36:47Z</time>
</trkpt>
<trkpt lat="49.46742" lon="10.427375">
<ele>333</ele>
<time>2019-05-31T13:36:52Z</time>
</trkpt>
<trkpt lat="49.467787" lon="10.427163">
<ele>330</ele>
<time>2019-05-31T13:36:57Z</time>
</trkpt>
<trkpt lat="49.468222" lon="10.426913">
<ele>328</ele>
<time>2019-05-31T13:37:02Z</time>
</trkpt>
<trkpt lat="49.468678" lon="10.42667">
<ele>324</ele>
<time>2019-05-31T13:37:07Z</time>
</trkpt>
<trkpt lat="49.469103" lon="10.426465">
<ele>323</ele>
<time>2019-05-31T13:37:12Z</time>
</trkpt>
<trkpt lat="49.46951" lon="10.426395">
<ele>323</ele>
<time>2019-05-31T13:37:17Z</time>
</trkpt>
<trkpt lat="49.469883" lon="10.426445">
<ele>323</ele>
<time>2019-05-31T13:37:22Z</time>
</trkpt>
<trkpt lat="49.470235" lon="10.42656">
<ele>322</ele>
<time>2019-05-31T13:37:27Z</time>
</trkpt>
<trkpt lat="49.470597" lon="10.42678">
<ele>321</ele>
<time>2019-05-31T13:37:32Z</time>
</trkpt>
<trkpt lat="49.470918" lon="10.42718">
<ele>321</ele>
<time>2019-05-31T13:37:37Z</time>
</trkpt>
<trkpt lat="49.471193" lon="10.427675">
<ele>321</ele>
<time>2019-05-31T13:37:42Z</time>
</trkpt>
<trkpt lat="49.471447" lon="10.428198">
<ele>321</ele>
<time>2019-05-31T13:37:47Z</time>
</trkpt>
<trkpt lat="49.471647" lon="10.428705">
<ele>321</ele>
<time>2019-05-31T13:37:52Z</time>
</trkpt>
<trkpt lat="49.47184" lon="10.429188">
<ele>321</ele>
<time>2019-05-31T13:37:57Z</time>
</trkpt>
<trkpt lat="49.472085" lon="10.429633">
<ele>321</ele>
<time>2019-05-31T13:38:02Z</time>
</trkpt>
<trkpt lat="49.472347" lon="10.429985">
<ele>321</ele>
<time>2019-05-31T13:38:07Z</time>
</trkpt>
<trkpt lat="49.472612" lon="10.43026">
<ele>320</ele>
<time>2019-05-31T13:38:12Z</time>
</trkpt>
<trkpt lat="49.472885" lon="10.430503">
<ele>320</ele>
<time>2019-05-31T13:38:17Z</time>
</trkpt>
<trkpt lat="49.473175" lon="10.430717">
<ele>319</ele>
<time>2019-05-31T13:38:22Z</time>
</trkpt>
<trkpt lat="49.473467" lon="10.430937">
<ele>318</ele>
<time>2019-05-31T13:38:27Z</time>
</trkpt>
<trkpt lat="49.473722" lon="10.431268">
<ele>317</ele>
<time>2019-05-31T13:38:32Z</time>
</trkpt>
<trkpt lat="49.473887" lon="10.431808">
<ele>316</ele>
<time>2019-05-31T13:38:37Z</time>
</trkpt>
<trkpt lat="49.474007" lon="10.432372">
<ele>316</ele>
<time>2019-05-31T13:38:42Z</time>
</trkpt>
<trkpt lat="49.474118" lon="10.432898">
<ele>316</ele>
<time>2019-05-31T13:38:47Z</time>
</trkpt>
<trkpt lat="49.47428" lon="10.433383">
<ele>316</ele>
<time>2019-05-31T13:38:52Z</time>
</trkpt>
<trkpt lat="49.47448" lon="10.433748">
<ele>316</ele>
<time>2019-05-31T13:38:57Z</time>
</trkpt>
<trkpt lat="49.474657" lon="10.434017">
<ele>316</ele>
<time>2019-05-31T13:39:02Z</time>
</trkpt>
<trkpt lat="49.474765" lon="10.434365">
<ele>316</ele>
<time>2019-05-31T13:39:07Z</time>
</trkpt>
<trkpt lat="49.474825" lon="10.434803">
<ele>316</ele>
<time>2019-05-31T13:39:12Z</time>
</trkpt>
<trkpt lat="49.474872" lon="10.435223">
<ele>316</ele>
<time>2019-05-31T13:39:17Z</time>
</trkpt>
<trkpt lat="49.474923" lon="10.435617">
<ele>316</ele>
<time>2019-05-31T13:39:22Z</time>
</trkpt>
<trkpt lat="49.475027" lon="10.435997">
<ele>316</ele>
<time>2019-05-31T13:39:27Z</time>
</trkpt>
<trkpt lat="49.475228" lon="10.436308">
<ele>316</ele>
<time>2019-05-31T13:39:32Z</time>
</trkpt>
<trkpt lat="49.475492" lon="10.436437">
<ele>316</ele>
<time>2019-05-31T13:39:37Z</time>
</trkpt>
<trkpt lat="49.475773" lon="10.436447">
<ele>316</ele>
<time>2019-05-31T13:39:42Z</time>
</trkpt>
<trkpt lat="49.476008" lon="10.436332">
<ele>316</ele>
<time>2019-05-31T13:39:47Z</time>
</trkpt>
<trkpt lat="49.476192" lon="10.436248">
<ele>316</ele>
<time>2019-05-31T13:39:52Z</time>
</trkpt>
<trkpt lat="49.476345" lon="10.436322">
<ele>316</ele>
<time>2019-05-31T13:39:57Z</time>
</trkpt>
<trkpt lat="49.47647" lon="10.436373">
<ele>316</ele>
<time>2019-05-31T13:40:02Z</time>
</trkpt>
<trkpt lat="49.476578" lon="10.436107">
<ele>316</ele>
<time>2019-05-31T13:40:08Z</time>
</trkpt>
<trkpt lat="49.476655" lon="10.435817">
<ele>316</ele>
<time>2019-05-31T13:40:14Z</time>
</trkpt>
<trkpt lat="49.476722" lon="10.435505">
<ele>316</ele>
<time>2019-05-31T13:40:19Z</time>
</trkpt>
<trkpt lat="49.476788" lon="10.435128">
<ele>316</ele>
<time>2019-05-31T13:40:25Z</time>
</trkpt>
<trkpt lat="49.476825" lon="10.43481">
<ele>316</ele>
<time>2019-05-31T13:40:30Z</time>
</trkpt>
<trkpt lat="49.476855" lon="10.434552">
<ele>316</ele>
<time>2019-05-31T13:40:35Z</time>
</trkpt>
<trkpt lat="49.476887" lon="10.434225">
<ele>316</ele>
<time>2019-05-31T13:40:40Z</time>
</trkpt>
<trkpt lat="49.476915" lon="10.433907">
<ele>316</ele>
<time>2019-05-31T13:40:45Z</time>
</trkpt>
<trkpt lat="49.47701" lon="10.433575">
<ele>316</ele>
<time>2019-05-31T13:40:51Z</time>
</trkpt>
<trkpt lat="49.477198" lon="10.433497">
<ele>316</ele>
<time>2019-05-31T13:40:56Z</time>
</trkpt>
<trkpt lat="49.47742" lon="10.433472">
<ele>316</ele>
<time>2019-05-31T13:41:02Z</time>
</trkpt>
<trkpt lat="49.477615" lon="10.433467">
<ele>316</ele>
<time>2019-05-31T13:41:07Z</time>
</trkpt>
<trkpt lat="49.477855" lon="10.43346">
<ele>317</ele>
<time>2019-05-31T13:41:13Z</time>
</trkpt>
<trkpt lat="49.478055" lon="10.433485">
<ele>317</ele>
<time>2019-05-31T13:41:18Z</time>
</trkpt>
<trkpt lat="49.47829" lon="10.433575">
<ele>317</ele>
<time>2019-05-31T13:41:23Z</time>
</trkpt>
<trkpt lat="49.478507" lon="10.433738">
<ele>317</ele>
<time>2019-05-31T13:41:28Z</time>
</trkpt>
<trkpt lat="49.4787" lon="10.433898">
<ele>316</ele>
<time>2019-05-31T13:41:33Z</time>
</trkpt>
<trkpt lat="49.479013" lon="10.434107">
<ele>314</ele>
<time>2019-05-31T13:41:39Z</time>
</trkpt>
<trkpt lat="49.479275" lon="10.43428">
<ele>314</ele>
<time>2019-05-31T13:41:44Z</time>
</trkpt>
<trkpt lat="49.479535" lon="10.434442">
<ele>312</ele>
<time>2019-05-31T13:41:50Z</time>
</trkpt>
<trkpt lat="49.479735" lon="10.434567">
<ele>312</ele>
<time>2019-05-31T13:41:56Z</time>
</trkpt>
<trkpt lat="49.479878" lon="10.434613">
<ele>312</ele>
<time>2019-05-31T13:42:01Z</time>
</trkpt>
<trkpt lat="49.479993" lon="10.434527">
<ele>312</ele>
<time>2019-05-31T13:42:06Z</time>
</trkpt>
<trkpt lat="49.480067" lon="10.434378">
<ele>312</ele>
<time>2019-05-31T13:42:11Z</time>
</trkpt>
<trkpt lat="49.48016" lon="10.434135">
<ele>312</ele>
<time>2019-05-31T13:42:17Z</time>
</trkpt>
<trkpt lat="49.480303" lon="10.433873">
<ele>312</ele>
<time>2019-05-31T13:42:23Z</time>
</trkpt>
<trkpt lat="49.480507" lon="10.43368">
<ele>310</ele>
<time>2019-05-31T13:42:28Z</time>
</trkpt>
<trkpt lat="49.480683" lon="10.433445">
<ele>310</ele>
<time>2019-05-31T13:42:33Z</time>
</trkpt>
<trkpt lat="49.480763" lon="10.433112">
<ele>310</ele>
<time>2019-05-31T13:42:38Z</time>
</trkpt>
<trkpt lat="49.480797" lon="10.432655">
<ele>310</ele>
<time>2019-05-31T13:42:44Z</time>
</trkpt>
<trkpt lat="49.48084" lon="10.43224">
<ele>310</ele>
<time>2019-05-31T13:42:49Z</time>
</trkpt>
<trkpt lat="49.480905" lon="10.431802">
<ele>310</ele>
<time>2019-05-31T13:42:54Z</time>
</trkpt>
<trkpt lat="49.48108" lon="10.4315">
<ele>310</ele>
<time>2019-05-31T13:42:59Z</time>
</trkpt>
<trkpt lat="49.481287" lon="10.431278">
<ele>310</ele>
<time>2019-05-31T13:43:04Z</time>
</trkpt>
<trkpt lat="49.481508" lon="10.431083">
<ele>311</ele>
<time>2019-05-31T13:43:09Z</time>
</trkpt>
<trkpt lat="49.481673" lon="10.430905">
<ele>311</ele>
<time>2019-05-31T13:43:14Z</time>
</trkpt>
<trkpt lat="49.481868" lon="10.430817">
<ele>312</ele>
<time>2019-05-31T13:43:19Z</time>
</trkpt>
<trkpt lat="49.482068" lon="10.430782">
<ele>312</ele>
<time>2019-05-31T13:43:24Z</time>
</trkpt>
<trkpt lat="49.482278" lon="10.43076">
<ele>313</ele>
<time>2019-05-31T13:43:29Z</time>
</trkpt>
<trkpt lat="49.482508" lon="10.430737">
<ele>313</ele>
<time>2019-05-31T13:43:34Z</time>
</trkpt>
<trkpt lat="49.482785" lon="10.430705">
<ele>313</ele>
<time>2019-05-31T13:43:40Z</time>
</trkpt>
<trkpt lat="49.483013" lon="10.430683">
<ele>313</ele>
<time>2019-05-31T13:43:45Z</time>
</trkpt>
<trkpt lat="49.483247" lon="10.430655">
<ele>314</ele>
<time>2019-05-31T13:43:50Z</time>
</trkpt>
<trkpt lat="49.4835" lon="10.430627">
<ele>314</ele>
<time>2019-05-31T13:43:55Z</time>
</trkpt>
<trkpt lat="49.483745" lon="10.430593">
<ele>314</ele>
<time>2019-05-31T13:44:00Z</time>
</trkpt>
<trkpt lat="49.483977" lon="10.430568">
<ele>314</ele>
<time>2019-05-31T13:44:05Z</time>
</trkpt>
<trkpt lat="49.484217" lon="10.43054">
<ele>314</ele>
<time>2019-05-31T13:44:10Z</time>
</trkpt>
<trkpt lat="49.484463" lon="10.430508">
<ele>314</ele>
<time>2019-05-31T13:44:15Z</time>
</trkpt>
<trkpt lat="49.484772" lon="10.43046">
<ele>313</ele>
<time>2019-05-31T13:44:21Z</time>
</trkpt>
<trkpt lat="49.485053" lon="10.430427">
<ele>313</ele>
<time>2019-05-31T13:44:26Z</time>
</trkpt>
<trkpt lat="49.485387" lon="10.430395">
<ele>311</ele>
<time>2019-05-31T13:44:31Z</time>
</trkpt>
<trkpt lat="49.485682" lon="10.43026">
<ele>310</ele>
<time>2019-05-31T13:44:36Z</time>
</trkpt>
<trkpt lat="49.485732" lon="10.429807">
<ele>309</ele>
<time>2019-05-31T13:44:41Z</time>
</trkpt>
<trkpt lat="49.485723" lon="10.429328">
<ele>309</ele>
<time>2019-05-31T13:44:46Z</time>
</trkpt>
<trkpt lat="49.485733" lon="10.428763">
<ele>309</ele>
<time>2019-05-31T13:44:52Z</time>
</trkpt>
<trkpt lat="49.48574" lon="10.428298">
<ele>310</ele>
<time>2019-05-31T13:44:57Z</time>
</trkpt>
<trkpt lat="49.485755" lon="10.427768">
<ele>310</ele>
<time>2019-05-31T13:45:03Z</time>
</trkpt>
<trkpt lat="49.485753" lon="10.427353">
<ele>310</ele>
<time>2019-05-31T13:45:08Z</time>
</trkpt>
<trkpt lat="49.48575" lon="10.426947">
<ele>310</ele>
<time>2019-05-31T13:45:13Z</time>
</trkpt>
<trkpt lat="49.485742" lon="10.4265">
<ele>311</ele>
<time>2019-05-31T13:45:19Z</time>
</trkpt>
<trkpt lat="49.485737" lon="10.426122">
<ele>311</ele>
<time>2019-05-31T13:45:24Z</time>
</trkpt>
<trkpt lat="49.485732" lon="10.425715">
<ele>311</ele>
<time>2019-05-31T13:45:29Z</time>
</trkpt>
<trkpt lat="49.48572" lon="10.425315">
<ele>311</ele>
<time>2019-05-31T13:45:34Z</time>
</trkpt>
<trkpt lat="49.485713" lon="10.424955">
<ele>311</ele>
<time>2019-05-31T13:45:39Z</time>
</trkpt>
<trkpt lat="49.485708" lon="10.42457">
<ele>312</ele>
<time>2019-05-31T13:45:44Z</time>
</trkpt>
<trkpt lat="49.485698" lon="10.424162">
<ele>312</ele>
<time>2019-05-31T13:45:49Z</time>
</trkpt>
<trkpt lat="49.485688" lon="10.42375">
<ele>312</ele>
<time>2019-05-31T13:45:54Z</time>
</trkpt>
<trkpt lat="49.485677" lon="10.423302">
<ele>312</ele>
<time>2019-05-31T13:45:59Z</time>
</trkpt>
<trkpt lat="49.485673" lon="10.422843">
<ele>312</ele>
<time>2019-05-31T13:46:04Z</time>
</trkpt>
<trkpt lat="49.485665" lon="10.422302">
<ele>312</ele>
<time>2019-05-31T13:46:10Z</time>
</trkpt>
<trkpt lat="49.485658" lon="10.421795">
<ele>312</ele>
<time>2019-05-31T13:46:16Z</time>
</trkpt>
<trkpt lat="49.485645" lon="10.421305">
<ele>312</ele>
<time>2019-05-31T13:46:22Z</time>
</trkpt>
<trkpt lat="49.48563" lon="10.420812">
<ele>311</ele>
<time>2019-05-31T13:46:28Z</time>
</trkpt>
<trkpt lat="49.485618" lon="10.420368">
<ele>311</ele>
<time>2019-05-31T13:46:34Z</time>
</trkpt>
<trkpt lat="49.48562" lon="10.41994">
<ele>311</ele>
<time>2019-05-31T13:46:40Z</time>
</trkpt>
<trkpt lat="49.485795" lon="10.419683">
<ele>310</ele>
<time>2019-05-31T13:46:46Z</time>
</trkpt>
<trkpt lat="49.486057" lon="10.419648">
<ele>310</ele>
<time>2019-05-31T13:46:51Z</time>
</trkpt>
<trkpt lat="49.486337" lon="10.41963">
<ele>310</ele>
<time>2019-05-31T13:46:56Z</time>
</trkpt>
<trkpt lat="49.486628" lon="10.4196">
<ele>310</ele>
<time>2019-05-31T13:47:01Z</time>
</trkpt>
<trkpt lat="49.48701" lon="10.419558">
<ele>309</ele>
<time>2019-05-31T13:47:07Z</time>
</trkpt>
<trkpt lat="49.487348" lon="10.419528">
<ele>309</ele>
<time>2019-05-31T13:47:12Z</time>
</trkpt>
<trkpt lat="49.487687" lon="10.419467">
<ele>309</ele>
<time>2019-05-31T13:47:17Z</time>
</trkpt>
<trkpt lat="49.488032" lon="10.419362">
<ele>308</ele>
<time>2019-05-31T13:47:22Z</time>
</trkpt>
<trkpt lat="49.488352" lon="10.41924">
<ele>308</ele>
<time>2019-05-31T13:47:27Z</time>
</trkpt>
<trkpt lat="49.488723" lon="10.419102">
<ele>308</ele>
<time>2019-05-31T13:47:33Z</time>
</trkpt>
<trkpt lat="49.489027" lon="10.418975">
<ele>308</ele>
<time>2019-05-31T13:47:38Z</time>
</trkpt>
<trkpt lat="49.489307" lon="10.418878">
<ele>309</ele>
<time>2019-05-31T13:47:43Z</time>
</trkpt>
<trkpt lat="49.489557" lon="10.418773">
<ele>310</ele>
<time>2019-05-31T13:47:48Z</time>
</trkpt>
<trkpt lat="49.48978" lon="10.418683">
<ele>310</ele>
<time>2019-05-31T13:47:53Z</time>
</trkpt>
<trkpt lat="49.490007" lon="10.418582">
<ele>311</ele>
<time>2019-05-31T13:47:58Z</time>
</trkpt>
<trkpt lat="49.490277" lon="10.418473">
<ele>311</ele>
<time>2019-05-31T13:48:03Z</time>
</trkpt>
<trkpt lat="49.49061" lon="10.418337">
<ele>309</ele>
<time>2019-05-31T13:48:08Z</time>
</trkpt>
<trkpt lat="49.491003" lon="10.41818">
<ele>307</ele>
<time>2019-05-31T13:48:13Z</time>
</trkpt>
<trkpt lat="49.491452" lon="10.417993">
<ele>305</ele>
<time>2019-05-31T13:48:18Z</time>
</trkpt>
<trkpt lat="49.491877" lon="10.417793">
<ele>303</ele>
<time>2019-05-31T13:48:23Z</time>
</trkpt>
<trkpt lat="49.492337" lon="10.417505">
<ele>303</ele>
<time>2019-05-31T13:48:29Z</time>
</trkpt>
<trkpt lat="49.49269" lon="10.417233">
<ele>302</ele>
<time>2019-05-31T13:48:34Z</time>
</trkpt>
<trkpt lat="49.493008" lon="10.416932">
<ele>302</ele>
<time>2019-05-31T13:48:39Z</time>
</trkpt>
<trkpt lat="49.493302" lon="10.416618">
<ele>301</ele>
<time>2019-05-31T13:48:44Z</time>
</trkpt>
<trkpt lat="49.493575" lon="10.416315">
<ele>301</ele>
<time>2019-05-31T13:48:49Z</time>
</trkpt>
<trkpt lat="49.4939" lon="10.416007">
<ele>301</ele>
<time>2019-05-31T13:48:55Z</time>
</trkpt>
<trkpt lat="49.494077" lon="10.415792">
<ele>300</ele>
<time>2019-05-31T13:49:00Z</time>
</trkpt>
<trkpt lat="49.494265" lon="10.41561">
<ele>300</ele>
<time>2019-05-31T13:49:05Z</time>
</trkpt>
<trkpt lat="49.494418" lon="10.415392">
<ele>300</ele>
<time>2019-05-31T13:49:10Z</time>
</trkpt>
<trkpt lat="49.494562" lon="10.415195">
<ele>301</ele>
<time>2019-05-31T13:49:15Z</time>
</trkpt>
<trkpt lat="49.494708" lon="10.415003">
<ele>301</ele>
<time>2019-05-31T13:49:20Z</time>
</trkpt>
<trkpt lat="49.494853" lon="10.41483">
<ele>301</ele>
<time>2019-05-31T13:49:25Z</time>
</trkpt>
<trkpt lat="49.494962" lon="10.414608">
<ele>301</ele>
<time>2019-05-31T13:49:30Z</time>
</trkpt>
<trkpt lat="49.49506" lon="10.414435">
<ele>301</ele>
<time>2019-05-31T13:49:35Z</time>
</trkpt>
<trkpt lat="49.495168" lon="10.414355">
<ele>301</ele>
<time>2019-05-31T13:49:40Z</time>
</trkpt>
<trkpt lat="49.495268" lon="10.414308">
<ele>301</ele>
<time>2019-05-31T13:49:45Z</time>
</trkpt>
<trkpt lat="49.495425" lon="10.414535">
<ele>302</ele>
<time>2019-05-31T13:49:50Z</time>
</trkpt>
<trkpt lat="49.495565" lon="10.414793">
<ele>302</ele>
<time>2019-05-31T13:49:55Z</time>
</trkpt>
<trkpt lat="49.49573" lon="10.415057">
<ele>302</ele>
<time>2019-05-31T13:50:00Z</time>
</trkpt>
<trkpt lat="49.49589" lon="10.415275">
<ele>302</ele>
<time>2019-05-31T13:50:05Z</time>
</trkpt>
<trkpt lat="49.49603" lon="10.415458">
<ele>302</ele>
<time>2019-05-31T13:50:10Z</time>
</trkpt>
<trkpt lat="49.496213" lon="10.415622">
<ele>302</ele>
<time>2019-05-31T13:50:15Z</time>
</trkpt>
<trkpt lat="49.496393" lon="10.415748">
<ele>302</ele>
<time>2019-05-31T13:50:20Z</time>
</trkpt>
<trkpt lat="49.496563" lon="10.415867">
<ele>302</ele>
<time>2019-05-31T13:50:25Z</time>
</trkpt>
<trkpt lat="49.496765" lon="10.41604">
<ele>302</ele>
<time>2019-05-31T13:50:30Z</time>
</trkpt>
<trkpt lat="49.496923" lon="10.41634">
<ele>302</ele>
<time>2019-05-31T13:50:35Z</time>
</trkpt>
<trkpt lat="49.497088" lon="10.41658">
<ele>302</ele>
<time>2019-05-31T13:50:40Z</time>
</trkpt>
<trkpt lat="49.497235" lon="10.416482">
<ele>301</ele>
<time>2019-05-31T13:50:45Z</time>
</trkpt>
<trkpt lat="49.497317" lon="10.416503">
<ele>301</ele>
<time>2019-05-31T13:50:50Z</time>
</trkpt>
<trkpt lat="49.497392" lon="10.416703">
<ele>301</ele>
<time>2019-05-31T13:50:55Z</time>
</trkpt>
<trkpt lat="49.497422" lon="10.41692">
<ele>301</ele>
<time>2019-05-31T13:51:00Z</time>
</trkpt>
<trkpt lat="49.497447" lon="10.41712">
<ele>301</ele>
<time>2019-05-31T13:51:05Z</time>
</trkpt>
<trkpt lat="49.497473" lon="10.417365">
<ele>301</ele>
<time>2019-05-31T13:51:10Z</time>
</trkpt>
<trkpt lat="49.497493" lon="10.417622">
<ele>301</ele>
<time>2019-05-31T13:51:15Z</time>
</trkpt>
<trkpt lat="49.497522" lon="10.417828">
<ele>301</ele>
<time>2019-05-31T13:51:20Z</time>
</trkpt>
<trkpt lat="49.497617" lon="10.417955">
<ele>301</ele>
<time>2019-05-31T13:51:25Z</time>
</trkpt>
<trkpt lat="49.497777" lon="10.417872">
<ele>301</ele>
<time>2019-05-31T13:51:30Z</time>
</trkpt>
<trkpt lat="49.497915" lon="10.417842">
<ele>301</ele>
<time>2019-05-31T13:51:35Z</time>
</trkpt>
<trkpt lat="49.498058" lon="10.417787">
<ele>301</ele>
<time>2019-05-31T13:51:40Z</time>
</trkpt>
<trkpt lat="49.498203" lon="10.417857">
<ele>301</ele>
<time>2019-05-31T13:51:45Z</time>
</trkpt>
<trkpt lat="49.498297" lon="10.418">
<ele>301</ele>
<time>2019-05-31T13:51:50Z</time>
</trkpt>
<trkpt lat="49.498292" lon="10.418275">
<ele>301</ele>
<time>2019-05-31T13:51:55Z</time>
</trkpt>
<trkpt lat="49.498315" lon="10.418523">
<ele>301</ele>
<time>2019-05-31T13:52:00Z</time>
</trkpt>
<trkpt lat="49.498343" lon="10.418723">
<ele>301</ele>
<time>2019-05-31T13:52:05Z</time>
</trkpt>
<trkpt lat="49.498335" lon="10.418947">
<ele>301</ele>
<time>2019-05-31T13:52:10Z</time>
</trkpt>
<trkpt lat="49.498378" lon="10.419208">
<ele>301</ele>
<time>2019-05-31T13:52:15Z</time>
</trkpt>
<trkpt lat="49.498423" lon="10.419362">
<ele>301</ele>
<time>2019-05-31T13:52:20Z</time>
</trkpt>
<trkpt lat="49.498478" lon="10.41949">
<ele>300</ele>
<time>2019-05-31T13:52:25Z</time>
</trkpt>
<trkpt lat="49.498478" lon="10.419503">
<ele>300</ele>
<time>2019-05-31T13:52:30Z</time>
</trkpt>
<trkpt lat="49.498473" lon="10.419512">
<ele>300</ele>
<time>2019-05-31T13:52:35Z</time>
</trkpt>
<trkpt lat="49.498443" lon="10.419537">
<ele>300</ele>
<time>2019-05-31T13:52:40Z</time>
</trkpt>
<trkpt lat="49.498415" lon="10.419573">
<ele>300</ele>
<time>2019-05-31T13:52:45Z</time>
</trkpt>
<trkpt lat="49.498407" lon="10.419607">
<ele>300</ele>
<time>2019-05-31T13:52:50Z</time>
</trkpt>
<trkpt lat="49.49839" lon="10.41964">
<ele>300</ele>
<time>2019-05-31T13:52:55Z</time>
</trkpt>
<trkpt lat="49.498382" lon="10.419662">
<ele>300</ele>
<time>2019-05-31T13:53:00Z</time>
</trkpt>
<trkpt lat="49.498383" lon="10.419662">
<ele>300</ele>
<time>2019-05-31T13:53:05Z</time>
</trkpt>
<trkpt lat="49.498382" lon="10.41967">
<ele>300</ele>
<time>2019-05-31T13:53:10Z</time>
</trkpt>
<trkpt lat="49.498382" lon="10.419672">
<ele>300</ele>
<time>2019-05-31T13:53:15Z</time>
</trkpt>
<trkpt lat="49.498383" lon="10.419672">
<ele>300</ele>
<time>2019-05-31T13:53:20Z</time>
</trkpt>
<trkpt lat="49.498383" lon="10.419673">
<ele>300</ele>
<time>2019-05-31T13:53:25Z</time>
</trkpt>
<trkpt lat="49.498383" lon="10.419675">
<ele>300</ele>
<time>2019-05-31T13:53:40Z</time>
</trkpt>
<trkpt lat="49.498375" lon="10.4197">
<ele>300</ele>
<time>2019-05-31T13:53:45Z</time>
</trkpt>
<trkpt lat="49.498382" lon="10.419717">
<ele>300</ele>
<time>2019-05-31T13:53:50Z</time>
</trkpt>
<trkpt lat="49.498385" lon="10.419722">
<ele>300</ele>
<time>2019-05-31T13:53:55Z</time>
</trkpt>
<trkpt lat="49.498375" lon="10.419727">
<ele>300</ele>
<time>2019-05-31T13:54:00Z</time>
</trkpt>
<trkpt lat="49.498373" lon="10.419735">
<ele>300</ele>
<time>2019-05-31T13:54:05Z</time>
</trkpt>
<trkpt lat="49.498352" lon="10.419755">
<ele>300</ele>
<time>2019-05-31T13:54:10Z</time>
</trkpt>
<trkpt lat="49.498305" lon="10.419772">
<ele>300</ele>
<time>2019-05-31T13:54:15Z</time>
</trkpt>
<trkpt lat="49.49829" lon="10.419772">
<ele>300</ele>
<time>2019-05-31T13:54:20Z</time>
</trkpt>
<trkpt lat="49.498312" lon="10.41977">
<ele>300</ele>
<time>2019-05-31T13:54:25Z</time>
</trkpt>
<trkpt lat="49.498363" lon="10.419788">
<ele>300</ele>
<time>2019-05-31T13:54:30Z</time>
</trkpt>
<trkpt lat="49.498432" lon="10.41978">
<ele>300</ele>
<time>2019-05-31T13:54:35Z</time>
</trkpt>
<trkpt lat="49.498468" lon="10.419785">
<ele>300</ele>
<time>2019-05-31T13:54:40Z</time>
</trkpt>
<trkpt lat="49.498407" lon="10.419755">
<ele>300</ele>
<time>2019-05-31T13:54:45Z</time>
</trkpt>
<trkpt lat="49.498357" lon="10.41974">
<ele>300</ele>
<time>2019-05-31T13:54:50Z</time>
</trkpt>
<trkpt lat="49.498335" lon="10.419752">
<ele>300</ele>
<time>2019-05-31T13:54:54Z</time>
</trkpt>
<trkpt lat="49.498427" lon="10.419713">
<ele>300</ele>
<time>2019-05-31T13:54:59Z</time>
</trkpt>
<trkpt lat="49.498543" lon="10.41967">
<ele>301</ele>
<time>2019-05-31T13:55:04Z</time>
</trkpt>
<trkpt lat="49.49852" lon="10.41953">
<ele>301</ele>
<time>2019-05-31T13:55:09Z</time>
</trkpt>
<trkpt lat="49.498455" lon="10.419377">
<ele>301</ele>
<time>2019-05-31T13:55:14Z</time>
</trkpt>
<trkpt lat="49.4984" lon="10.419147">
<ele>302</ele>
<time>2019-05-31T13:55:19Z</time>
</trkpt>
<trkpt lat="49.498368" lon="10.418888">
<ele>302</ele>
<time>2019-05-31T13:55:24Z</time>
</trkpt>
<trkpt lat="49.49837" lon="10.41866">
<ele>302</ele>
<time>2019-05-31T13:55:29Z</time>
</trkpt>
<trkpt lat="49.498367" lon="10.418447">
<ele>302</ele>
<time>2019-05-31T13:55:34Z</time>
</trkpt>
<trkpt lat="49.49837" lon="10.418237">
<ele>302</ele>
<time>2019-05-31T13:55:39Z</time>
</trkpt>
<trkpt lat="49.498367" lon="10.417962">
<ele>302</ele>
<time>2019-05-31T13:55:44Z</time>
</trkpt>
<trkpt lat="49.498342" lon="10.417668">
<ele>302</ele>
<time>2019-05-31T13:55:50Z</time>
</trkpt>
<trkpt lat="49.498327" lon="10.417442">
<ele>302</ele>
<time>2019-05-31T13:55:55Z</time>
</trkpt>
<trkpt lat="49.498303" lon="10.417182">
<ele>302</ele>
<time>2019-05-31T13:56:00Z</time>
</trkpt>
<trkpt lat="49.498283" lon="10.416933">
<ele>302</ele>
<time>2019-05-31T13:56:05Z</time>
</trkpt>
<trkpt lat="49.498262" lon="10.416705">
<ele>303</ele>
<time>2019-05-31T13:56:10Z</time>
</trkpt>
<trkpt lat="49.498365" lon="10.416515">
<ele>303</ele>
<time>2019-05-31T13:56:15Z</time>
</trkpt>
<trkpt lat="49.4985" lon="10.416423">
<ele>303</ele>
<time>2019-05-31T13:56:20Z</time>
</trkpt>
<trkpt lat="49.498668" lon="10.416373">
<ele>303</ele>
<time>2019-05-31T13:56:25Z</time>
</trkpt>
<trkpt lat="49.498868" lon="10.416348">
<ele>304</ele>
<time>2019-05-31T13:56:30Z</time>
</trkpt>
<trkpt lat="49.499062" lon="10.416322">
<ele>304</ele>
<time>2019-05-31T13:56:35Z</time>
</trkpt>
<trkpt lat="49.499255" lon="10.416278">
<ele>304</ele>
<time>2019-05-31T13:56:40Z</time>
</trkpt>
<trkpt lat="49.499415" lon="10.416235">
<ele>304</ele>
<time>2019-05-31T13:56:45Z</time>
</trkpt>
<trkpt lat="49.499527" lon="10.416208">
<ele>304</ele>
<time>2019-05-31T13:56:50Z</time>
</trkpt>
<trkpt lat="49.499588" lon="10.41622">
<ele>305</ele>
<time>2019-05-31T13:56:55Z</time>
</trkpt>
<trkpt lat="49.499648" lon="10.416328">
<ele>305</ele>
<time>2019-05-31T13:57:00Z</time>
</trkpt>
<trkpt lat="49.499685" lon="10.4166">
<ele>305</ele>
<time>2019-05-31T13:57:05Z</time>
</trkpt>
<trkpt lat="49.499732" lon="10.416928">
<ele>305</ele>
<time>2019-05-31T13:57:10Z</time>
</trkpt>
<trkpt lat="49.499782" lon="10.417282">
<ele>305</ele>
<time>2019-05-31T13:57:15Z</time>
</trkpt>
<trkpt lat="49.499843" lon="10.41766">
<ele>305</ele>
<time>2019-05-31T13:57:20Z</time>
</trkpt>
<trkpt lat="49.4999" lon="10.418037">
<ele>305</ele>
<time>2019-05-31T13:57:25Z</time>
</trkpt>
<trkpt lat="49.499975" lon="10.418418">
<ele>305</ele>
<time>2019-05-31T13:57:30Z</time>
</trkpt>
<trkpt lat="49.500033" lon="10.418833">
<ele>304</ele>
<time>2019-05-31T13:57:35Z</time>
</trkpt>
<trkpt lat="49.500108" lon="10.419263">
<ele>303</ele>
<time>2019-05-31T13:57:40Z</time>
</trkpt>
<trkpt lat="49.500183" lon="10.419722">
<ele>303</ele>
<time>2019-05-31T13:57:45Z</time>
</trkpt>
<trkpt lat="49.500267" lon="10.420168">
<ele>303</ele>
<time>2019-05-31T13:57:50Z</time>
</trkpt>
<trkpt lat="49.500383" lon="10.420593">
<ele>302</ele>
<time>2019-05-31T13:57:55Z</time>
</trkpt>
<trkpt lat="49.500525" lon="10.420973">
<ele>302</ele>
<time>2019-05-31T13:58:00Z</time>
</trkpt>
<trkpt lat="49.500672" lon="10.421273">
<ele>302</ele>
<time>2019-05-31T13:58:05Z</time>
</trkpt>
<trkpt lat="49.500802" lon="10.421503">
<ele>301</ele>
<time>2019-05-31T13:58:10Z</time>
</trkpt>
<trkpt lat="49.50086" lon="10.421915">
<ele>301</ele>
<time>2019-05-31T13:58:15Z</time>
</trkpt>
<trkpt lat="49.50088" lon="10.422367">
<ele>301</ele>
<time>2019-05-31T13:58:20Z</time>
</trkpt>
<trkpt lat="49.500958" lon="10.422767">
<ele>301</ele>
<time>2019-05-31T13:58:25Z</time>
</trkpt>
<trkpt lat="49.50105" lon="10.423188">
<ele>301</ele>
<time>2019-05-31T13:58:30Z</time>
</trkpt>
<trkpt lat="49.501143" lon="10.42358">
<ele>301</ele>
<time>2019-05-31T13:58:35Z</time>
</trkpt>
<trkpt lat="49.501228" lon="10.423935">
<ele>300</ele>
<time>2019-05-31T13:58:40Z</time>
</trkpt>
<trkpt lat="49.501317" lon="10.42422">
<ele>300</ele>
<time>2019-05-31T13:58:45Z</time>
</trkpt>
<trkpt lat="49.501418" lon="10.424573">
<ele>300</ele>
<time>2019-05-31T13:58:50Z</time>
</trkpt>
<trkpt lat="49.501487" lon="10.42491">
<ele>300</ele>
<time>2019-05-31T13:58:55Z</time>
</trkpt>
<trkpt lat="49.501538" lon="10.425187">
<ele>300</ele>
<time>2019-05-31T13:59:00Z</time>
</trkpt>
<trkpt lat="49.501562" lon="10.425382">
<ele>300</ele>
<time>2019-05-31T13:59:05Z</time>
</trkpt>
<trkpt lat="49.501565" lon="10.425425">
<ele>300</ele>
<time>2019-05-31T13:59:10Z</time>
</trkpt>
<trkpt lat="49.501568" lon="10.425453">
<ele>300</ele>
<time>2019-05-31T13:59:15Z</time>
</trkpt>
<trkpt lat="49.501633" lon="10.425487">
<ele>300</ele>
<time>2019-05-31T13:59:20Z</time>
</trkpt>
<trkpt lat="49.501783" lon="10.42544">
<ele>300</ele>
<time>2019-05-31T13:59:25Z</time>
</trkpt>
<trkpt lat="49.501983" lon="10.425348">
<ele>300</ele>
<time>2019-05-31T13:59:30Z</time>
</trkpt>
<trkpt lat="49.502205" lon="10.425315">
<ele>300</ele>
<time>2019-05-31T13:59:35Z</time>
</trkpt>
<trkpt lat="49.502438" lon="10.425325">
<ele>300</ele>
<time>2019-05-31T13:59:40Z</time>
</trkpt>
<trkpt lat="49.502668" lon="10.425355">
<ele>300</ele>
<time>2019-05-31T13:59:45Z</time>
</trkpt>
<trkpt lat="49.50292" lon="10.425353">
<ele>300</ele>
<time>2019-05-31T13:59:50Z</time>
</trkpt>
<trkpt lat="49.5032" lon="10.425332">
<ele>300</ele>
<time>2019-05-31T13:59:55Z</time>
</trkpt>
<trkpt lat="49.503487" lon="10.425288">
<ele>300</ele>
<time>2019-05-31T14:00:00Z</time>
</trkpt>
<trkpt lat="49.503775" lon="10.425222">
<ele>300</ele>
<time>2019-05-31T14:00:05Z</time>
</trkpt>
<trkpt lat="49.504005" lon="10.425005">
<ele>300</ele>
<time>2019-05-31T14:00:10Z</time>
</trkpt>
<trkpt lat="49.504053" lon="10.424622">
<ele>300</ele>
<time>2019-05-31T14:00:15Z</time>
</trkpt>
<trkpt lat="49.50406" lon="10.424268">
<ele>300</ele>
<time>2019-05-31T14:00:20Z</time>
</trkpt>
<trkpt lat="49.504088" lon="10.42389">
<ele>300</ele>
<time>2019-05-31T14:00:25Z</time>
</trkpt>
<trkpt lat="49.504133" lon="10.423472">
<ele>300</ele>
<time>2019-05-31T14:00:30Z</time>
</trkpt>
<trkpt lat="49.50418" lon="10.423078">
<ele>300</ele>
<time>2019-05-31T14:00:35Z</time>
</trkpt>
<trkpt lat="49.504217" lon="10.42274">
<ele>301</ele>
<time>2019-05-31T14:00:40Z</time>
</trkpt>
<trkpt lat="49.50426" lon="10.422417">
<ele>301</ele>
<time>2019-05-31T14:00:45Z</time>
</trkpt>
<trkpt lat="49.50431" lon="10.422045">
<ele>302</ele>
<time>2019-05-31T14:00:51Z</time>
</trkpt>
<trkpt lat="49.504435" lon="10.421778">
<ele>303</ele>
<time>2019-05-31T14:00:56Z</time>
</trkpt>
<trkpt lat="49.50467" lon="10.421622">
<ele>303</ele>
<time>2019-05-31T14:01:01Z</time>
</trkpt>
<trkpt lat="49.504897" lon="10.421465">
<ele>303</ele>
<time>2019-05-31T14:01:06Z</time>
</trkpt>
<trkpt lat="49.50511" lon="10.421253">
<ele>304</ele>
<time>2019-05-31T14:01:11Z</time>
</trkpt>
<trkpt lat="49.50531" lon="10.421048">
<ele>304</ele>
<time>2019-05-31T14:01:16Z</time>
</trkpt>
<trkpt lat="49.505535" lon="10.420838">
<ele>304</ele>
<time>2019-05-31T14:01:21Z</time>
</trkpt>
<trkpt lat="49.505752" lon="10.420653">
<ele>304</ele>
<time>2019-05-31T14:01:26Z</time>
</trkpt>
<trkpt lat="49.506037" lon="10.420358">
<ele>304</ele>
<time>2019-05-31T14:01:32Z</time>
</trkpt>
<trkpt lat="49.506287" lon="10.420088">
<ele>304</ele>
<time>2019-05-31T14:01:38Z</time>
</trkpt>
<trkpt lat="49.50643" lon="10.419793">
<ele>304</ele>
<time>2019-05-31T14:01:43Z</time>
</trkpt>
<trkpt lat="49.506473" lon="10.419465">
<ele>304</ele>
<time>2019-05-31T14:01:48Z</time>
</trkpt>
<trkpt lat="49.506465" lon="10.41913">
<ele>304</ele>
<time>2019-05-31T14:01:53Z</time>
</trkpt>
<trkpt lat="49.506472" lon="10.418782">
<ele>304</ele>
<time>2019-05-31T14:01:58Z</time>
</trkpt>
<trkpt lat="49.506472" lon="10.418413">
<ele>304</ele>
<time>2019-05-31T14:02:03Z</time>
</trkpt>
<trkpt lat="49.506498" lon="10.418065">
<ele>305</ele>
<time>2019-05-31T14:02:08Z</time>
</trkpt>
<trkpt lat="49.506503" lon="10.41769">
<ele>305</ele>
<time>2019-05-31T14:02:13Z</time>
</trkpt>
<trkpt lat="49.506507" lon="10.417297">
<ele>305</ele>
<time>2019-05-31T14:02:18Z</time>
</trkpt>
<trkpt lat="49.506498" lon="10.416913">
<ele>305</ele>
<time>2019-05-31T14:02:23Z</time>
</trkpt>
<trkpt lat="49.506475" lon="10.416482">
<ele>306</ele>
<time>2019-05-31T14:02:28Z</time>
</trkpt>
<trkpt lat="49.50644" lon="10.41609">
<ele>306</ele>
<time>2019-05-31T14:02:33Z</time>
</trkpt>
<trkpt lat="49.506408" lon="10.41571">
<ele>306</ele>
<time>2019-05-31T14:02:38Z</time>
</trkpt>
<trkpt lat="49.506335" lon="10.415348">
<ele>307</ele>
<time>2019-05-31T14:02:43Z</time>
</trkpt>
<trkpt lat="49.506242" lon="10.415055">
<ele>307</ele>
<time>2019-05-31T14:02:48Z</time>
</trkpt>
<trkpt lat="49.506148" lon="10.414817">
<ele>307</ele>
<time>2019-05-31T14:02:53Z</time>
</trkpt>
<trkpt lat="49.506082" lon="10.414615">
<ele>307</ele>
<time>2019-05-31T14:02:58Z</time>
</trkpt>
<trkpt lat="49.50604" lon="10.414492">
<ele>307</ele>
<time>2019-05-31T14:03:03Z</time>
</trkpt>
<trkpt lat="49.506025" lon="10.414467">
<ele>307</ele>
<time>2019-05-31T14:03:08Z</time>
</trkpt>
<trkpt lat="49.506022" lon="10.414457">
<ele>307</ele>
<time>2019-05-31T14:03:18Z</time>
</trkpt>
<trkpt lat="49.505995" lon="10.414327">
<ele>307</ele>
<time>2019-05-31T14:03:23Z</time>
</trkpt>
<trkpt lat="49.506037" lon="10.413988">
<ele>307</ele>
<time>2019-05-31T14:03:28Z</time>
</trkpt>
<trkpt lat="49.506085" lon="10.413923">
<ele>307</ele>
<time>2019-05-31T14:03:33Z</time>
</trkpt>
<trkpt lat="49.506092" lon="10.413923">
<ele>307</ele>
<time>2019-05-31T14:03:38Z</time>
</trkpt>
<trkpt lat="49.506087" lon="10.413922">
<ele>307</ele>
<time>2019-05-31T14:03:43Z</time>
</trkpt>
<trkpt lat="49.506087" lon="10.413915">
<ele>307</ele>
<time>2019-05-31T14:03:48Z</time>
</trkpt>
<trkpt lat="49.506093" lon="10.413915">
<ele>307</ele>
<time>2019-05-31T14:03:53Z</time>
</trkpt>
<trkpt lat="49.506092" lon="10.413912">
<ele>307</ele>
<time>2019-05-31T14:03:58Z</time>
</trkpt>
<trkpt lat="49.50609" lon="10.413905">
<ele>307</ele>
<time>2019-05-31T14:04:03Z</time>
</trkpt>
<trkpt lat="49.506085" lon="10.413897">
<ele>307</ele>
<time>2019-05-31T14:04:08Z</time>
</trkpt>
<trkpt lat="49.506082" lon="10.413892">
<ele>307</ele>
<time>2019-05-31T14:04:13Z</time>
</trkpt>
<trkpt lat="49.506198" lon="10.41381">
<ele>307</ele>
<time>2019-05-31T14:04:18Z</time>
</trkpt>
<trkpt lat="49.50615" lon="10.413585">
<ele>307</ele>
<time>2019-05-31T14:04:23Z</time>
</trkpt>
<trkpt lat="49.506022" lon="10.413393">
<ele>307</ele>
<time>2019-05-31T14:04:28Z</time>
</trkpt>
<trkpt lat="49.505912" lon="10.41315">
<ele>307</ele>
<time>2019-05-31T14:04:33Z</time>
</trkpt>
<trkpt lat="49.505785" lon="10.412867">
<ele>307</ele>
<time>2019-05-31T14:04:38Z</time>
</trkpt>
<trkpt lat="49.505673" lon="10.412517">
<ele>307</ele>
<time>2019-05-31T14:04:43Z</time>
</trkpt>
<trkpt lat="49.505585" lon="10.412067">
<ele>307</ele>
<time>2019-05-31T14:04:48Z</time>
</trkpt>
<trkpt lat="49.505533" lon="10.411647">
<ele>307</ele>
<time>2019-05-31T14:04:53Z</time>
</trkpt>
<trkpt lat="49.505533" lon="10.411273">
<ele>307</ele>
<time>2019-05-31T14:04:58Z</time>
</trkpt>
<trkpt lat="49.505575" lon="10.410968">
<ele>307</ele>
<time>2019-05-31T14:05:03Z</time>
</trkpt>
<trkpt lat="49.50565" lon="10.410647">
<ele>308</ele>
<time>2019-05-31T14:05:08Z</time>
</trkpt>
<trkpt lat="49.50576" lon="10.410305">
<ele>308</ele>
<time>2019-05-31T14:05:13Z</time>
</trkpt>
<trkpt lat="49.505893" lon="10.409992">
<ele>308</ele>
<time>2019-05-31T14:05:18Z</time>
</trkpt>
<trkpt lat="49.506037" lon="10.409687">
<ele>308</ele>
<time>2019-05-31T14:05:23Z</time>
</trkpt>
<trkpt lat="49.506198" lon="10.40938">
<ele>308</ele>
<time>2019-05-31T14:05:28Z</time>
</trkpt>
<trkpt lat="49.506378" lon="10.409072">
<ele>308</ele>
<time>2019-05-31T14:05:33Z</time>
</trkpt>
<trkpt lat="49.506548" lon="10.408788">
<ele>308</ele>
<time>2019-05-31T14:05:38Z</time>
</trkpt>
<trkpt lat="49.506718" lon="10.408535">
<ele>308</ele>
<time>2019-05-31T14:05:43Z</time>
</trkpt>
<trkpt lat="49.506887" lon="10.408245">
<ele>308</ele>
<time>2019-05-31T14:05:48Z</time>
</trkpt>
<trkpt lat="49.507047" lon="10.407948">
<ele>309</ele>
<time>2019-05-31T14:05:53Z</time>
</trkpt>
<trkpt lat="49.507262" lon="10.407605">
<ele>309</ele>
<time>2019-05-31T14:05:59Z</time>
</trkpt>
<trkpt lat="49.507452" lon="10.407287">
<ele>309</ele>
<time>2019-05-31T14:06:05Z</time>
</trkpt>
<trkpt lat="49.507605" lon="10.40704">
<ele>309</ele>
<time>2019-05-31T14:06:10Z</time>
</trkpt>
<trkpt lat="49.507748" lon="10.406802">
<ele>309</ele>
<time>2019-05-31T14:06:15Z</time>
</trkpt>
<trkpt lat="49.507902" lon="10.40656">
<ele>310</ele>
<time>2019-05-31T14:06:20Z</time>
</trkpt>
<trkpt lat="49.50807" lon="10.406332">
<ele>311</ele>
<time>2019-05-31T14:06:25Z</time>
</trkpt>
<trkpt lat="49.50825" lon="10.40612">
<ele>311</ele>
<time>2019-05-31T14:06:31Z</time>
</trkpt>
<trkpt lat="49.508362" lon="10.405977">
<ele>311</ele>
<time>2019-05-31T14:06:36Z</time>
</trkpt>
<trkpt lat="49.508448" lon="10.405955">
<ele>311</ele>
<time>2019-05-31T14:06:41Z</time>
</trkpt>
<trkpt lat="49.508497" lon="10.40619">
<ele>311</ele>
<time>2019-05-31T14:06:47Z</time>
</trkpt>
<trkpt lat="49.508547" lon="10.406463">
<ele>311</ele>
<time>2019-05-31T14:06:52Z</time>
</trkpt>
<trkpt lat="49.508617" lon="10.406692">
<ele>311</ele>
<time>2019-05-31T14:06:58Z</time>
</trkpt>
<trkpt lat="49.508647" lon="10.406822">
<ele>311</ele>
<time>2019-05-31T14:07:03Z</time>
</trkpt>
<trkpt lat="49.50866" lon="10.406885">
<ele>311</ele>
<time>2019-05-31T14:07:09Z</time>
</trkpt>
<trkpt lat="49.508668" lon="10.406877">
<ele>311</ele>
<time>2019-05-31T14:07:14Z</time>
</trkpt>
<trkpt lat="49.50867" lon="10.406878">
<ele>311</ele>
<time>2019-05-31T14:07:19Z</time>
</trkpt>
<trkpt lat="49.50868" lon="10.406885">
<ele>311</ele>
<time>2019-05-31T14:07:25Z</time>
</trkpt>
<trkpt lat="49.508682" lon="10.406887">
<ele>311</ele>
<time>2019-05-31T14:07:30Z</time>
</trkpt>
<trkpt lat="49.508683" lon="10.406887">
<ele>311</ele>
<time>2019-05-31T14:07:41Z</time>
</trkpt>
<trkpt lat="49.508687" lon="10.40688">
<ele>311</ele>
<time>2019-05-31T14:07:47Z</time>
</trkpt>
<trkpt lat="49.508688" lon="10.406882">
<ele>311</ele>
<time>2019-05-31T14:07:53Z</time>
</trkpt>
<trkpt lat="49.508703" lon="10.40687">
<ele>311</ele>
<time>2019-05-31T14:07:59Z</time>
</trkpt>
<trkpt lat="49.508707" lon="10.406865">
<ele>311</ele>
<time>2019-05-31T14:08:04Z</time>
</trkpt>
<trkpt lat="49.508712" lon="10.406858">
<ele>311</ele>
<time>2019-05-31T14:08:09Z</time>
</trkpt>
<trkpt lat="49.508712" lon="10.40686">
<ele>311</ele>
<time>2019-05-31T14:08:14Z</time>
</trkpt>
<trkpt lat="49.508712" lon="10.40687">
<ele>311</ele>
<time>2019-05-31T14:08:19Z</time>
</trkpt>
<trkpt lat="49.50872" lon="10.406872">
<ele>311</ele>
<time>2019-05-31T14:08:24Z</time>
</trkpt>
<trkpt lat="49.508728" lon="10.40687">
<ele>311</ele>
<time>2019-05-31T14:08:29Z</time>
</trkpt>
<trkpt lat="49.508735" lon="10.406867">
<ele>311</ele>
<time>2019-05-31T14:08:35Z</time>
</trkpt>
<trkpt lat="49.50872" lon="10.406877">
<ele>311</ele>
<time>2019-05-31T14:08:40Z</time>
</trkpt>
<trkpt lat="49.50872" lon="10.406877">
<ele>311</ele>
</trkpt>
</trkseg>
</trk>
</gpx>